<?xml version="1.0" encoding="UTF-8" standalone="no" ?>
<gpx xmlns="http://www.topografix.com/GPX/1/1" xmlns:xsi="http://www.w3.org/2001/XMLSchema-instance" xsi:schemaLocation="http://www.topografix.com/GPX/1/1 http://www.topografix.com/GPX/1/1/gpx.xsd" version="1.1" creator="VisuGPX - https://www.visugpx.com">
  <metadata>
    <name>ski rando pierre perce col corne noir,combe benite</name>
    <desc><![CDATA[
]]></desc>
  </metadata>
  <trk>
    <name><![CDATA[ski rando pierre perce col corne noir,combe benite]]></name>
    <trkseg>
      <trkpt lat="45.61814" lon="6.60921">
        <ele>2055.8000488281</ele>
        <time>2012-02-24T07:43:29.000Z</time>
      </trkpt>
      <trkpt lat="45.61814" lon="6.60921">
        <ele>2127.3999023438</ele>
        <time>2012-02-24T07:43:30.000Z</time>
      </trkpt>
      <trkpt lat="45.61815" lon="6.6092">
        <ele>2127.3999023438</ele>
        <time>2012-02-24T07:43:32.000Z</time>
      </trkpt>
      <trkpt lat="45.61816" lon="6.60918">
        <ele>2055.6000976562</ele>
        <time>2012-02-24T07:43:34.000Z</time>
      </trkpt>
      <trkpt lat="45.61816" lon="6.60918">
        <ele>2055.6000976562</ele>
        <time>2012-02-24T07:43:35.000Z</time>
      </trkpt>
      <trkpt lat="45.61829" lon="6.60866">
        <ele>2054.1999511719</ele>
        <time>2012-02-24T07:44:45.000Z</time>
      </trkpt>
      <trkpt lat="45.61831" lon="6.60862">
        <ele>2055.1999511719</ele>
        <time>2012-02-24T07:45:23.000Z</time>
      </trkpt>
      <trkpt lat="45.6183" lon="6.60862">
        <ele>2053.3999023438</ele>
        <time>2012-02-24T07:45:25.000Z</time>
      </trkpt>
      <trkpt lat="45.61829" lon="6.60863">
        <ele>2053.1999511719</ele>
        <time>2012-02-24T07:45:27.000Z</time>
      </trkpt>
      <trkpt lat="45.61822" lon="6.60875">
        <ele>2052.8000488281</ele>
        <time>2012-02-24T07:45:33.000Z</time>
      </trkpt>
      <trkpt lat="45.61821" lon="6.60875">
        <ele>2052.6000976562</ele>
        <time>2012-02-24T07:45:35.000Z</time>
      </trkpt>
      <trkpt lat="45.61815" lon="6.60884">
        <ele>2051.8000488281</ele>
        <time>2012-02-24T07:45:44.000Z</time>
      </trkpt>
      <trkpt lat="45.61825" lon="6.60872">
        <ele>2050.8000488281</ele>
        <time>2012-02-24T07:46:16.000Z</time>
      </trkpt>
      <trkpt lat="45.61819" lon="6.60864">
        <ele>2049.3999023438</ele>
        <time>2012-02-24T07:47:42.000Z</time>
      </trkpt>
      <trkpt lat="45.61818" lon="6.60861">
        <ele>2050</ele>
        <time>2012-02-24T07:47:46.000Z</time>
      </trkpt>
      <trkpt lat="45.61814" lon="6.60852">
        <ele>2050.6000976562</ele>
        <time>2012-02-24T07:47:55.000Z</time>
      </trkpt>
      <trkpt lat="45.61812" lon="6.60845">
        <ele>2051.3999023438</ele>
        <time>2012-02-24T07:48:03.000Z</time>
      </trkpt>
      <trkpt lat="45.6181" lon="6.60842">
        <ele>2051.8000488281</ele>
        <time>2012-02-24T07:48:07.000Z</time>
      </trkpt>
      <trkpt lat="45.61802" lon="6.60834">
        <ele>2053.6000976562</ele>
        <time>2012-02-24T07:48:18.000Z</time>
      </trkpt>
      <trkpt lat="45.61796" lon="6.60827">
        <ele>2054.1999511719</ele>
        <time>2012-02-24T07:48:27.000Z</time>
      </trkpt>
      <trkpt lat="45.61791" lon="6.60821">
        <ele>2055</ele>
        <time>2012-02-24T07:48:35.000Z</time>
      </trkpt>
      <trkpt lat="45.61785" lon="6.60815">
        <ele>2054.8000488281</ele>
        <time>2012-02-24T07:48:44.000Z</time>
      </trkpt>
      <trkpt lat="45.6178" lon="6.60811">
        <ele>2055.1999511719</ele>
        <time>2012-02-24T07:48:52.000Z</time>
      </trkpt>
      <trkpt lat="45.61775" lon="6.60805">
        <ele>2055.8000488281</ele>
        <time>2012-02-24T07:49:02.000Z</time>
      </trkpt>
      <trkpt lat="45.61774" lon="6.60804">
        <ele>2056.6000976562</ele>
        <time>2012-02-24T07:49:04.000Z</time>
      </trkpt>
      <trkpt lat="45.61772" lon="6.60802">
        <ele>2056.8000488281</ele>
        <time>2012-02-24T07:49:10.000Z</time>
      </trkpt>
      <trkpt lat="45.61764" lon="6.60795">
        <ele>2058.3999023438</ele>
        <time>2012-02-24T07:49:21.000Z</time>
      </trkpt>
      <trkpt lat="45.61761" lon="6.60795">
        <ele>2059.3999023438</ele>
        <time>2012-02-24T07:49:25.000Z</time>
      </trkpt>
      <trkpt lat="45.61755" lon="6.60795">
        <ele>2060</ele>
        <time>2012-02-24T07:49:33.000Z</time>
      </trkpt>
      <trkpt lat="45.61757" lon="6.60799">
        <ele>2059</ele>
        <time>2012-02-24T07:50:48.000Z</time>
      </trkpt>
      <trkpt lat="45.61754" lon="6.60797">
        <ele>2058.3999023438</ele>
        <time>2012-02-24T07:50:54.000Z</time>
      </trkpt>
      <trkpt lat="45.61748" lon="6.60797">
        <ele>2058.3999023438</ele>
        <time>2012-02-24T07:51:03.000Z</time>
      </trkpt>
      <trkpt lat="45.61747" lon="6.60797">
        <ele>2058.1999511719</ele>
        <time>2012-02-24T07:51:04.000Z</time>
      </trkpt>
      <trkpt lat="45.61739" lon="6.60797">
        <ele>2058</ele>
        <time>2012-02-24T07:51:10.000Z</time>
      </trkpt>
      <trkpt lat="45.6173" lon="6.60797">
        <ele>2059</ele>
        <time>2012-02-24T07:51:19.000Z</time>
      </trkpt>
      <trkpt lat="45.61724" lon="6.60801">
        <ele>2059.6000976562</ele>
        <time>2012-02-24T07:51:26.000Z</time>
      </trkpt>
      <trkpt lat="45.61716" lon="6.60804">
        <ele>2060.8000488281</ele>
        <time>2012-02-24T07:51:34.000Z</time>
      </trkpt>
      <trkpt lat="45.61713" lon="6.60804">
        <ele>2060.3999023438</ele>
        <time>2012-02-24T07:51:37.000Z</time>
      </trkpt>
      <trkpt lat="45.61702" lon="6.60807">
        <ele>2060.1999511719</ele>
        <time>2012-02-24T07:51:45.000Z</time>
      </trkpt>
      <trkpt lat="45.61694" lon="6.60808">
        <ele>2058.8000488281</ele>
        <time>2012-02-24T07:51:52.000Z</time>
      </trkpt>
      <trkpt lat="45.61687" lon="6.60809">
        <ele>2059.6000976562</ele>
        <time>2012-02-24T07:52:00.000Z</time>
      </trkpt>
      <trkpt lat="45.61679" lon="6.6081">
        <ele>2061.8000488281</ele>
        <time>2012-02-24T07:52:11.000Z</time>
      </trkpt>
      <trkpt lat="45.6167" lon="6.60811">
        <ele>2061.6000976562</ele>
        <time>2012-02-24T07:52:21.000Z</time>
      </trkpt>
      <trkpt lat="45.61662" lon="6.60814">
        <ele>2061.6000976562</ele>
        <time>2012-02-24T07:52:30.000Z</time>
      </trkpt>
      <trkpt lat="45.61653" lon="6.60814">
        <ele>2062</ele>
        <time>2012-02-24T07:52:40.000Z</time>
      </trkpt>
      <trkpt lat="45.61644" lon="6.60816">
        <ele>2061.3999023438</ele>
        <time>2012-02-24T07:52:48.000Z</time>
      </trkpt>
      <trkpt lat="45.61635" lon="6.60818">
        <ele>2061.6000976562</ele>
        <time>2012-02-24T07:52:57.000Z</time>
      </trkpt>
      <trkpt lat="45.61627" lon="6.6082">
        <ele>2061.1999511719</ele>
        <time>2012-02-24T07:53:06.000Z</time>
      </trkpt>
      <trkpt lat="45.61618" lon="6.6082">
        <ele>2061.8000488281</ele>
        <time>2012-02-24T07:53:15.000Z</time>
      </trkpt>
      <trkpt lat="45.61611" lon="6.60819">
        <ele>2061.8000488281</ele>
        <time>2012-02-24T07:53:23.000Z</time>
      </trkpt>
      <trkpt lat="45.61605" lon="6.60815">
        <ele>2061.6000976562</ele>
        <time>2012-02-24T07:53:32.000Z</time>
      </trkpt>
      <trkpt lat="45.61599" lon="6.60811">
        <ele>2062.6000976562</ele>
        <time>2012-02-24T07:53:39.000Z</time>
      </trkpt>
      <trkpt lat="45.61594" lon="6.60804">
        <ele>2062.3999023438</ele>
        <time>2012-02-24T07:53:48.000Z</time>
      </trkpt>
      <trkpt lat="45.61589" lon="6.60797">
        <ele>2063</ele>
        <time>2012-02-24T07:53:55.000Z</time>
      </trkpt>
      <trkpt lat="45.61584" lon="6.6079">
        <ele>2063.3999023438</ele>
        <time>2012-02-24T07:54:03.000Z</time>
      </trkpt>
      <trkpt lat="45.61579" lon="6.60783">
        <ele>2063.6000976562</ele>
        <time>2012-02-24T07:54:11.000Z</time>
      </trkpt>
      <trkpt lat="45.61573" lon="6.60775">
        <ele>2063.8000488281</ele>
        <time>2012-02-24T07:54:19.000Z</time>
      </trkpt>
      <trkpt lat="45.61568" lon="6.60768">
        <ele>2063.8000488281</ele>
        <time>2012-02-24T07:54:27.000Z</time>
      </trkpt>
      <trkpt lat="45.61564" lon="6.60761">
        <ele>2064.6000976562</ele>
        <time>2012-02-24T07:54:36.000Z</time>
      </trkpt>
      <trkpt lat="45.61559" lon="6.60755">
        <ele>2064.6000976562</ele>
        <time>2012-02-24T07:54:44.000Z</time>
      </trkpt>
      <trkpt lat="45.61554" lon="6.60749">
        <ele>2065.6000976562</ele>
        <time>2012-02-24T07:54:53.000Z</time>
      </trkpt>
      <trkpt lat="45.6155" lon="6.60742">
        <ele>2067.8000488281</ele>
        <time>2012-02-24T07:55:02.000Z</time>
      </trkpt>
      <trkpt lat="45.61546" lon="6.60735">
        <ele>2067</ele>
        <time>2012-02-24T07:55:11.000Z</time>
      </trkpt>
      <trkpt lat="45.61539" lon="6.60728">
        <ele>2069</ele>
        <time>2012-02-24T07:55:22.000Z</time>
      </trkpt>
      <trkpt lat="45.61534" lon="6.60723">
        <ele>2070.6000976562</ele>
        <time>2012-02-24T07:55:30.000Z</time>
      </trkpt>
      <trkpt lat="45.61529" lon="6.60716">
        <ele>2070.8000488281</ele>
        <time>2012-02-24T07:55:39.000Z</time>
      </trkpt>
      <trkpt lat="45.61526" lon="6.60712">
        <ele>2070.6000976562</ele>
        <time>2012-02-24T07:55:45.000Z</time>
      </trkpt>
      <trkpt lat="45.61522" lon="6.60706">
        <ele>2070.8000488281</ele>
        <time>2012-02-24T07:55:53.000Z</time>
      </trkpt>
      <trkpt lat="45.61518" lon="6.607">
        <ele>2071.1999511719</ele>
        <time>2012-02-24T07:56:01.000Z</time>
      </trkpt>
      <trkpt lat="45.61516" lon="6.60696">
        <ele>2072.3999023438</ele>
        <time>2012-02-24T07:56:06.000Z</time>
      </trkpt>
      <trkpt lat="45.61512" lon="6.60692">
        <ele>2074.1999511719</ele>
        <time>2012-02-24T07:56:13.000Z</time>
      </trkpt>
      <trkpt lat="45.61507" lon="6.60686">
        <ele>2074.1999511719</ele>
        <time>2012-02-24T07:56:23.000Z</time>
      </trkpt>
      <trkpt lat="45.61505" lon="6.60681">
        <ele>2076</ele>
        <time>2012-02-24T07:56:29.000Z</time>
      </trkpt>
      <trkpt lat="45.61501" lon="6.60674">
        <ele>2076</ele>
        <time>2012-02-24T07:56:38.000Z</time>
      </trkpt>
      <trkpt lat="45.61497" lon="6.60666">
        <ele>2077.6000976562</ele>
        <time>2012-02-24T07:56:49.000Z</time>
      </trkpt>
      <trkpt lat="45.61494" lon="6.60661">
        <ele>2078</ele>
        <time>2012-02-24T07:56:56.000Z</time>
      </trkpt>
      <trkpt lat="45.61492" lon="6.60657">
        <ele>2079.6000976562</ele>
        <time>2012-02-24T07:57:01.000Z</time>
      </trkpt>
      <trkpt lat="45.61486" lon="6.6065">
        <ele>2080.6000976562</ele>
        <time>2012-02-24T07:57:09.000Z</time>
      </trkpt>
      <trkpt lat="45.61481" lon="6.60641">
        <ele>2082.3999023438</ele>
        <time>2012-02-24T07:57:19.000Z</time>
      </trkpt>
      <trkpt lat="45.61477" lon="6.6063">
        <ele>2083</ele>
        <time>2012-02-24T07:57:28.000Z</time>
      </trkpt>
      <trkpt lat="45.61475" lon="6.60619">
        <ele>2084.1999511719</ele>
        <time>2012-02-24T07:57:38.000Z</time>
      </trkpt>
      <trkpt lat="45.61474" lon="6.60612">
        <ele>2086</ele>
        <time>2012-02-24T07:57:45.000Z</time>
      </trkpt>
      <trkpt lat="45.61472" lon="6.60606">
        <ele>2086</ele>
        <time>2012-02-24T07:57:50.000Z</time>
      </trkpt>
      <trkpt lat="45.61468" lon="6.60596">
        <ele>2085.8000488281</ele>
        <time>2012-02-24T07:57:59.000Z</time>
      </trkpt>
      <trkpt lat="45.61465" lon="6.60587">
        <ele>2087.6000976562</ele>
        <time>2012-02-24T07:58:08.000Z</time>
      </trkpt>
      <trkpt lat="45.6146" lon="6.60579">
        <ele>2087.8000488281</ele>
        <time>2012-02-24T07:58:16.000Z</time>
      </trkpt>
      <trkpt lat="45.61455" lon="6.60573">
        <ele>2088</ele>
        <time>2012-02-24T07:58:24.000Z</time>
      </trkpt>
      <trkpt lat="45.61448" lon="6.60565">
        <ele>2090</ele>
        <time>2012-02-24T07:58:34.000Z</time>
      </trkpt>
      <trkpt lat="45.61448" lon="6.60564">
        <ele>2090.1999511719</ele>
        <time>2012-02-24T07:58:35.000Z</time>
      </trkpt>
      <trkpt lat="45.61443" lon="6.60555">
        <ele>2091.3999023438</ele>
        <time>2012-02-24T07:58:45.000Z</time>
      </trkpt>
      <trkpt lat="45.61442" lon="6.60554">
        <ele>2090.8000488281</ele>
        <time>2012-02-24T07:58:46.000Z</time>
      </trkpt>
      <trkpt lat="45.61441" lon="6.60549">
        <ele>2091</ele>
        <time>2012-02-24T07:58:51.000Z</time>
      </trkpt>
      <trkpt lat="45.6144" lon="6.60546">
        <ele>2091.8000488281</ele>
        <time>2012-02-24T07:58:54.000Z</time>
      </trkpt>
      <trkpt lat="45.61439" lon="6.60544">
        <ele>2091.6000976562</ele>
        <time>2012-02-24T07:59:01.000Z</time>
      </trkpt>
      <trkpt lat="45.61439" lon="6.60539">
        <ele>2091.8000488281</ele>
        <time>2012-02-24T07:59:36.000Z</time>
      </trkpt>
      <trkpt lat="45.6144" lon="6.6054">
        <ele>2090.3999023438</ele>
        <time>2012-02-24T07:59:39.000Z</time>
      </trkpt>
      <trkpt lat="45.61442" lon="6.60539">
        <ele>2089.6000976562</ele>
        <time>2012-02-24T08:00:11.000Z</time>
      </trkpt>
      <trkpt lat="45.61442" lon="6.60536">
        <ele>2089.3999023438</ele>
        <time>2012-02-24T08:00:18.000Z</time>
      </trkpt>
      <trkpt lat="45.6144" lon="6.60531">
        <ele>2088.8000488281</ele>
        <time>2012-02-24T08:00:57.000Z</time>
      </trkpt>
      <trkpt lat="45.61437" lon="6.60516">
        <ele>2087.1999511719</ele>
        <time>2012-02-24T08:01:06.000Z</time>
      </trkpt>
      <trkpt lat="45.61434" lon="6.60504">
        <ele>2087.3999023438</ele>
        <time>2012-02-24T08:01:15.000Z</time>
      </trkpt>
      <trkpt lat="45.6143" lon="6.60496">
        <ele>2087.8000488281</ele>
        <time>2012-02-24T08:01:22.000Z</time>
      </trkpt>
      <trkpt lat="45.61424" lon="6.60487">
        <ele>2089.1999511719</ele>
        <time>2012-02-24T08:01:31.000Z</time>
      </trkpt>
      <trkpt lat="45.61418" lon="6.60481">
        <ele>2090.8000488281</ele>
        <time>2012-02-24T08:01:39.000Z</time>
      </trkpt>
      <trkpt lat="45.61413" lon="6.60474">
        <ele>2091.6000976562</ele>
        <time>2012-02-24T08:01:48.000Z</time>
      </trkpt>
      <trkpt lat="45.61407" lon="6.60471">
        <ele>2094.3999023438</ele>
        <time>2012-02-24T08:01:56.000Z</time>
      </trkpt>
      <trkpt lat="45.61401" lon="6.60467">
        <ele>2095</ele>
        <time>2012-02-24T08:02:04.000Z</time>
      </trkpt>
      <trkpt lat="45.61396" lon="6.60464">
        <ele>2097.3999023438</ele>
        <time>2012-02-24T08:02:10.000Z</time>
      </trkpt>
      <trkpt lat="45.61389" lon="6.60458">
        <ele>2098.8000488281</ele>
        <time>2012-02-24T08:02:20.000Z</time>
      </trkpt>
      <trkpt lat="45.61383" lon="6.60452">
        <ele>2098.6000976562</ele>
        <time>2012-02-24T08:02:28.000Z</time>
      </trkpt>
      <trkpt lat="45.61374" lon="6.60446">
        <ele>2097.1999511719</ele>
        <time>2012-02-24T08:02:36.000Z</time>
      </trkpt>
      <trkpt lat="45.61367" lon="6.60442">
        <ele>2097</ele>
        <time>2012-02-24T08:02:44.000Z</time>
      </trkpt>
      <trkpt lat="45.61356" lon="6.60437">
        <ele>2098.6000976562</ele>
        <time>2012-02-24T08:02:53.000Z</time>
      </trkpt>
      <trkpt lat="45.61346" lon="6.60434">
        <ele>2099.8000488281</ele>
        <time>2012-02-24T08:03:02.000Z</time>
      </trkpt>
      <trkpt lat="45.61338" lon="6.60428">
        <ele>2099.6000976562</ele>
        <time>2012-02-24T08:03:11.000Z</time>
      </trkpt>
      <trkpt lat="45.6133" lon="6.60424">
        <ele>2100.1999511719</ele>
        <time>2012-02-24T08:03:20.000Z</time>
      </trkpt>
      <trkpt lat="45.61326" lon="6.60423">
        <ele>2099.6000976562</ele>
        <time>2012-02-24T08:03:27.000Z</time>
      </trkpt>
      <trkpt lat="45.61323" lon="6.60421">
        <ele>2099.6000976562</ele>
        <time>2012-02-24T08:03:45.000Z</time>
      </trkpt>
      <trkpt lat="45.61321" lon="6.60416">
        <ele>2099.3999023438</ele>
        <time>2012-02-24T08:04:33.000Z</time>
      </trkpt>
      <trkpt lat="45.61315" lon="6.60415">
        <ele>2100</ele>
        <time>2012-02-24T08:04:41.000Z</time>
      </trkpt>
      <trkpt lat="45.61309" lon="6.60412">
        <ele>2100.6000976562</ele>
        <time>2012-02-24T08:04:49.000Z</time>
      </trkpt>
      <trkpt lat="45.61308" lon="6.60409">
        <ele>2100.6000976562</ele>
        <time>2012-02-24T08:04:54.000Z</time>
      </trkpt>
      <trkpt lat="45.61307" lon="6.60406">
        <ele>2102.1999511719</ele>
        <time>2012-02-24T08:04:59.000Z</time>
      </trkpt>
      <trkpt lat="45.61306" lon="6.60403">
        <ele>2102.3999023438</ele>
        <time>2012-02-24T08:05:05.000Z</time>
      </trkpt>
      <trkpt lat="45.61302" lon="6.60398">
        <ele>2104</ele>
        <time>2012-02-24T08:05:13.000Z</time>
      </trkpt>
      <trkpt lat="45.61296" lon="6.60399">
        <ele>2105.8000488281</ele>
        <time>2012-02-24T08:05:22.000Z</time>
      </trkpt>
      <trkpt lat="45.6129" lon="6.60401">
        <ele>2107.3999023438</ele>
        <time>2012-02-24T08:05:32.000Z</time>
      </trkpt>
      <trkpt lat="45.61286" lon="6.60403">
        <ele>2106.8000488281</ele>
        <time>2012-02-24T08:05:40.000Z</time>
      </trkpt>
      <trkpt lat="45.61283" lon="6.60403">
        <ele>2109.1999511719</ele>
        <time>2012-02-24T08:05:45.000Z</time>
      </trkpt>
      <trkpt lat="45.61281" lon="6.60394">
        <ele>2110.3999023438</ele>
        <time>2012-02-24T08:05:55.000Z</time>
      </trkpt>
      <trkpt lat="45.61279" lon="6.6039">
        <ele>2113</ele>
        <time>2012-02-24T08:06:02.000Z</time>
      </trkpt>
      <trkpt lat="45.61277" lon="6.6039">
        <ele>2113.1999511719</ele>
        <time>2012-02-24T08:06:04.000Z</time>
      </trkpt>
      <trkpt lat="45.61272" lon="6.60391">
        <ele>2114.6000976562</ele>
        <time>2012-02-24T08:06:11.000Z</time>
      </trkpt>
      <trkpt lat="45.61265" lon="6.60392">
        <ele>2115.3999023438</ele>
        <time>2012-02-24T08:06:19.000Z</time>
      </trkpt>
      <trkpt lat="45.61258" lon="6.60391">
        <ele>2117.1999511719</ele>
        <time>2012-02-24T08:06:27.000Z</time>
      </trkpt>
      <trkpt lat="45.61253" lon="6.6039">
        <ele>2119.6000976562</ele>
        <time>2012-02-24T08:06:35.000Z</time>
      </trkpt>
      <trkpt lat="45.6125" lon="6.60385">
        <ele>2121</ele>
        <time>2012-02-24T08:06:42.000Z</time>
      </trkpt>
      <trkpt lat="45.61252" lon="6.60377">
        <ele>2122.1999511719</ele>
        <time>2012-02-24T08:06:50.000Z</time>
      </trkpt>
      <trkpt lat="45.61254" lon="6.60371">
        <ele>2123.1999511719</ele>
        <time>2012-02-24T08:06:58.000Z</time>
      </trkpt>
      <trkpt lat="45.61255" lon="6.60362">
        <ele>2124.6000976562</ele>
        <time>2012-02-24T08:07:08.000Z</time>
      </trkpt>
      <trkpt lat="45.61256" lon="6.60355">
        <ele>2127</ele>
        <time>2012-02-24T08:07:17.000Z</time>
      </trkpt>
      <trkpt lat="45.61257" lon="6.60348">
        <ele>2128.1999511719</ele>
        <time>2012-02-24T08:07:26.000Z</time>
      </trkpt>
      <trkpt lat="45.61257" lon="6.60341">
        <ele>2130</ele>
        <time>2012-02-24T08:07:33.000Z</time>
      </trkpt>
      <trkpt lat="45.61256" lon="6.60335">
        <ele>2131.1999511719</ele>
        <time>2012-02-24T08:07:41.000Z</time>
      </trkpt>
      <trkpt lat="45.61254" lon="6.60328">
        <ele>2133.3999023438</ele>
        <time>2012-02-24T08:07:51.000Z</time>
      </trkpt>
      <trkpt lat="45.61251" lon="6.60323">
        <ele>2133.3999023438</ele>
        <time>2012-02-24T08:08:00.000Z</time>
      </trkpt>
      <trkpt lat="45.61244" lon="6.60318">
        <ele>2134.6000976562</ele>
        <time>2012-02-24T08:08:11.000Z</time>
      </trkpt>
      <trkpt lat="45.61242" lon="6.60317">
        <ele>2134.8000488281</ele>
        <time>2012-02-24T08:08:15.000Z</time>
      </trkpt>
      <trkpt lat="45.61235" lon="6.60313">
        <ele>2136.8000488281</ele>
        <time>2012-02-24T08:08:25.000Z</time>
      </trkpt>
      <trkpt lat="45.61228" lon="6.60308">
        <ele>2138.1999511719</ele>
        <time>2012-02-24T08:08:33.000Z</time>
      </trkpt>
      <trkpt lat="45.61226" lon="6.60308">
        <ele>2138.6000976562</ele>
        <time>2012-02-24T08:08:38.000Z</time>
      </trkpt>
      <trkpt lat="45.61226" lon="6.60308">
        <ele>2138</ele>
        <time>2012-02-24T08:09:08.000Z</time>
      </trkpt>
      <trkpt lat="45.61225" lon="6.60308">
        <ele>2136</ele>
        <time>2012-02-24T08:11:20.000Z</time>
      </trkpt>
      <trkpt lat="45.61218" lon="6.60307">
        <ele>2133.6000976562</ele>
        <time>2012-02-24T08:14:46.000Z</time>
      </trkpt>
      <trkpt lat="45.61218" lon="6.60306">
        <ele>2133.3999023438</ele>
        <time>2012-02-24T08:15:14.000Z</time>
      </trkpt>
      <trkpt lat="45.61222" lon="6.60303">
        <ele>2131.1999511719</ele>
        <time>2012-02-24T08:18:18.000Z</time>
      </trkpt>
      <trkpt lat="45.61217" lon="6.60301">
        <ele>2131.6000976562</ele>
        <time>2012-02-24T08:18:25.000Z</time>
      </trkpt>
      <trkpt lat="45.6121" lon="6.60296">
        <ele>2134</ele>
        <time>2012-02-24T08:18:35.000Z</time>
      </trkpt>
      <trkpt lat="45.61203" lon="6.60291">
        <ele>2134</ele>
        <time>2012-02-24T08:18:45.000Z</time>
      </trkpt>
      <trkpt lat="45.61195" lon="6.60287">
        <ele>2135.6000976562</ele>
        <time>2012-02-24T08:18:54.000Z</time>
      </trkpt>
      <trkpt lat="45.61187" lon="6.60283">
        <ele>2136.1999511719</ele>
        <time>2012-02-24T08:19:04.000Z</time>
      </trkpt>
      <trkpt lat="45.61176" lon="6.60279">
        <ele>2137.1999511719</ele>
        <time>2012-02-24T08:19:15.000Z</time>
      </trkpt>
      <trkpt lat="45.61167" lon="6.60274">
        <ele>2137.8000488281</ele>
        <time>2012-02-24T08:19:25.000Z</time>
      </trkpt>
      <trkpt lat="45.61159" lon="6.60269">
        <ele>2139</ele>
        <time>2012-02-24T08:19:35.000Z</time>
      </trkpt>
      <trkpt lat="45.61153" lon="6.60264">
        <ele>2140</ele>
        <time>2012-02-24T08:19:43.000Z</time>
      </trkpt>
      <trkpt lat="45.61143" lon="6.60257">
        <ele>2141.3999023438</ele>
        <time>2012-02-24T08:19:54.000Z</time>
      </trkpt>
      <trkpt lat="45.61135" lon="6.6025">
        <ele>2142.1999511719</ele>
        <time>2012-02-24T08:20:04.000Z</time>
      </trkpt>
      <trkpt lat="45.61125" lon="6.60242">
        <ele>2143.8000488281</ele>
        <time>2012-02-24T08:20:16.000Z</time>
      </trkpt>
      <trkpt lat="45.61117" lon="6.60236">
        <ele>2144.1999511719</ele>
        <time>2012-02-24T08:20:25.000Z</time>
      </trkpt>
      <trkpt lat="45.61111" lon="6.60229">
        <ele>2146.6000976562</ele>
        <time>2012-02-24T08:20:35.000Z</time>
      </trkpt>
      <trkpt lat="45.6111" lon="6.60228">
        <ele>2146.6000976562</ele>
        <time>2012-02-24T08:20:36.000Z</time>
      </trkpt>
      <trkpt lat="45.61105" lon="6.60222">
        <ele>2147</ele>
        <time>2012-02-24T08:20:44.000Z</time>
      </trkpt>
      <trkpt lat="45.61097" lon="6.60213">
        <ele>2148.6000976562</ele>
        <time>2012-02-24T08:20:54.000Z</time>
      </trkpt>
      <trkpt lat="45.61089" lon="6.60203">
        <ele>2149.1999511719</ele>
        <time>2012-02-24T08:21:04.000Z</time>
      </trkpt>
      <trkpt lat="45.61084" lon="6.60196">
        <ele>2149</ele>
        <time>2012-02-24T08:21:11.000Z</time>
      </trkpt>
      <trkpt lat="45.61077" lon="6.60186">
        <ele>2149.6000976562</ele>
        <time>2012-02-24T08:21:20.000Z</time>
      </trkpt>
      <trkpt lat="45.6107" lon="6.60176">
        <ele>2150</ele>
        <time>2012-02-24T08:21:28.000Z</time>
      </trkpt>
      <trkpt lat="45.61065" lon="6.60169">
        <ele>2150.3999023438</ele>
        <time>2012-02-24T08:21:35.000Z</time>
      </trkpt>
      <trkpt lat="45.61058" lon="6.6016">
        <ele>2150.1999511719</ele>
        <time>2012-02-24T08:21:43.000Z</time>
      </trkpt>
      <trkpt lat="45.61053" lon="6.60151">
        <ele>2150.3999023438</ele>
        <time>2012-02-24T08:21:50.000Z</time>
      </trkpt>
      <trkpt lat="45.61046" lon="6.60142">
        <ele>2151.1999511719</ele>
        <time>2012-02-24T08:21:58.000Z</time>
      </trkpt>
      <trkpt lat="45.61039" lon="6.60135">
        <ele>2152</ele>
        <time>2012-02-24T08:22:06.000Z</time>
      </trkpt>
      <trkpt lat="45.61033" lon="6.60128">
        <ele>2153.1999511719</ele>
        <time>2012-02-24T08:22:14.000Z</time>
      </trkpt>
      <trkpt lat="45.61026" lon="6.60123">
        <ele>2154.1999511719</ele>
        <time>2012-02-24T08:22:21.000Z</time>
      </trkpt>
      <trkpt lat="45.6102" lon="6.60113">
        <ele>2154.3999023438</ele>
        <time>2012-02-24T08:22:30.000Z</time>
      </trkpt>
      <trkpt lat="45.61012" lon="6.60105">
        <ele>2155.3999023438</ele>
        <time>2012-02-24T08:22:39.000Z</time>
      </trkpt>
      <trkpt lat="45.61005" lon="6.60099">
        <ele>2156.3999023438</ele>
        <time>2012-02-24T08:22:47.000Z</time>
      </trkpt>
      <trkpt lat="45.60997" lon="6.60092">
        <ele>2156.8000488281</ele>
        <time>2012-02-24T08:22:56.000Z</time>
      </trkpt>
      <trkpt lat="45.60986" lon="6.60083">
        <ele>2157</ele>
        <time>2012-02-24T08:23:06.000Z</time>
      </trkpt>
      <trkpt lat="45.60976" lon="6.60074">
        <ele>2157.6000976562</ele>
        <time>2012-02-24T08:23:15.000Z</time>
      </trkpt>
      <trkpt lat="45.6097" lon="6.60068">
        <ele>2158</ele>
        <time>2012-02-24T08:23:21.000Z</time>
      </trkpt>
      <trkpt lat="45.60964" lon="6.60059">
        <ele>2158</ele>
        <time>2012-02-24T08:23:28.000Z</time>
      </trkpt>
      <trkpt lat="45.60957" lon="6.60052">
        <ele>2158</ele>
        <time>2012-02-24T08:23:35.000Z</time>
      </trkpt>
      <trkpt lat="45.6095" lon="6.60044">
        <ele>2158.3999023438</ele>
        <time>2012-02-24T08:23:42.000Z</time>
      </trkpt>
      <trkpt lat="45.60941" lon="6.60036">
        <ele>2158.3999023438</ele>
        <time>2012-02-24T08:23:50.000Z</time>
      </trkpt>
      <trkpt lat="45.60933" lon="6.60027">
        <ele>2158.8000488281</ele>
        <time>2012-02-24T08:23:58.000Z</time>
      </trkpt>
      <trkpt lat="45.60924" lon="6.60017">
        <ele>2159.8000488281</ele>
        <time>2012-02-24T08:24:08.000Z</time>
      </trkpt>
      <trkpt lat="45.60916" lon="6.6001">
        <ele>2160.3999023438</ele>
        <time>2012-02-24T08:24:16.000Z</time>
      </trkpt>
      <trkpt lat="45.60906" lon="6.60001">
        <ele>2160</ele>
        <time>2012-02-24T08:24:25.000Z</time>
      </trkpt>
      <trkpt lat="45.60897" lon="6.59994">
        <ele>2160</ele>
        <time>2012-02-24T08:24:34.000Z</time>
      </trkpt>
      <trkpt lat="45.60891" lon="6.59988">
        <ele>2159.8000488281</ele>
        <time>2012-02-24T08:24:41.000Z</time>
      </trkpt>
      <trkpt lat="45.60884" lon="6.59982">
        <ele>2159.3999023438</ele>
        <time>2012-02-24T08:24:48.000Z</time>
      </trkpt>
      <trkpt lat="45.60877" lon="6.59977">
        <ele>2159</ele>
        <time>2012-02-24T08:24:54.000Z</time>
      </trkpt>
      <trkpt lat="45.60868" lon="6.59971">
        <ele>2159</ele>
        <time>2012-02-24T08:25:02.000Z</time>
      </trkpt>
      <trkpt lat="45.60858" lon="6.59965">
        <ele>2158.8000488281</ele>
        <time>2012-02-24T08:25:11.000Z</time>
      </trkpt>
      <trkpt lat="45.6085" lon="6.59959">
        <ele>2159.1999511719</ele>
        <time>2012-02-24T08:25:19.000Z</time>
      </trkpt>
      <trkpt lat="45.60841" lon="6.5995">
        <ele>2159.1999511719</ele>
        <time>2012-02-24T08:25:29.000Z</time>
      </trkpt>
      <trkpt lat="45.60831" lon="6.59944">
        <ele>2160.3999023438</ele>
        <time>2012-02-24T08:25:38.000Z</time>
      </trkpt>
      <trkpt lat="45.60826" lon="6.59939">
        <ele>2160.8000488281</ele>
        <time>2012-02-24T08:25:45.000Z</time>
      </trkpt>
      <trkpt lat="45.60818" lon="6.59931">
        <ele>2160.1999511719</ele>
        <time>2012-02-24T08:25:54.000Z</time>
      </trkpt>
      <trkpt lat="45.60808" lon="6.59924">
        <ele>2159.6000976562</ele>
        <time>2012-02-24T08:26:03.000Z</time>
      </trkpt>
      <trkpt lat="45.60799" lon="6.5992">
        <ele>2160.3999023438</ele>
        <time>2012-02-24T08:26:11.000Z</time>
      </trkpt>
      <trkpt lat="45.60793" lon="6.59918">
        <ele>2160.8000488281</ele>
        <time>2012-02-24T08:26:18.000Z</time>
      </trkpt>
      <trkpt lat="45.60788" lon="6.59919">
        <ele>2160.8000488281</ele>
        <time>2012-02-24T08:26:24.000Z</time>
      </trkpt>
      <trkpt lat="45.60781" lon="6.59913">
        <ele>2162</ele>
        <time>2012-02-24T08:26:31.000Z</time>
      </trkpt>
      <trkpt lat="45.6078" lon="6.59912">
        <ele>2161.6000976562</ele>
        <time>2012-02-24T08:26:32.000Z</time>
      </trkpt>
      <trkpt lat="45.60777" lon="6.59909">
        <ele>2161.6000976562</ele>
        <time>2012-02-24T08:26:35.000Z</time>
      </trkpt>
      <trkpt lat="45.6077" lon="6.59902">
        <ele>2161.6000976562</ele>
        <time>2012-02-24T08:26:42.000Z</time>
      </trkpt>
      <trkpt lat="45.60762" lon="6.59897">
        <ele>2162</ele>
        <time>2012-02-24T08:26:50.000Z</time>
      </trkpt>
      <trkpt lat="45.60754" lon="6.59892">
        <ele>2162.8000488281</ele>
        <time>2012-02-24T08:26:58.000Z</time>
      </trkpt>
      <trkpt lat="45.60747" lon="6.59888">
        <ele>2164</ele>
        <time>2012-02-24T08:27:06.000Z</time>
      </trkpt>
      <trkpt lat="45.6074" lon="6.59882">
        <ele>2165.3999023438</ele>
        <time>2012-02-24T08:27:17.000Z</time>
      </trkpt>
      <trkpt lat="45.60735" lon="6.59879">
        <ele>2165.8000488281</ele>
        <time>2012-02-24T08:27:23.000Z</time>
      </trkpt>
      <trkpt lat="45.60726" lon="6.59871">
        <ele>2166.3999023438</ele>
        <time>2012-02-24T08:27:31.000Z</time>
      </trkpt>
      <trkpt lat="45.60719" lon="6.59867">
        <ele>2168.3999023438</ele>
        <time>2012-02-24T08:27:39.000Z</time>
      </trkpt>
      <trkpt lat="45.60713" lon="6.59863">
        <ele>2169</ele>
        <time>2012-02-24T08:27:46.000Z</time>
      </trkpt>
      <trkpt lat="45.60706" lon="6.59858">
        <ele>2170.6000976562</ele>
        <time>2012-02-24T08:27:53.000Z</time>
      </trkpt>
      <trkpt lat="45.60698" lon="6.59852">
        <ele>2172.3999023438</ele>
        <time>2012-02-24T08:28:03.000Z</time>
      </trkpt>
      <trkpt lat="45.60692" lon="6.59846">
        <ele>2172.8000488281</ele>
        <time>2012-02-24T08:28:10.000Z</time>
      </trkpt>
      <trkpt lat="45.60687" lon="6.59839">
        <ele>2174</ele>
        <time>2012-02-24T08:28:18.000Z</time>
      </trkpt>
      <trkpt lat="45.60682" lon="6.59831">
        <ele>2174.6000976562</ele>
        <time>2012-02-24T08:28:25.000Z</time>
      </trkpt>
      <trkpt lat="45.60679" lon="6.59826">
        <ele>2175.6000976562</ele>
        <time>2012-02-24T08:28:31.000Z</time>
      </trkpt>
      <trkpt lat="45.60674" lon="6.59819">
        <ele>2176.8000488281</ele>
        <time>2012-02-24T08:28:39.000Z</time>
      </trkpt>
      <trkpt lat="45.60668" lon="6.59811">
        <ele>2177.3999023438</ele>
        <time>2012-02-24T08:28:47.000Z</time>
      </trkpt>
      <trkpt lat="45.60664" lon="6.59804">
        <ele>2178.1999511719</ele>
        <time>2012-02-24T08:28:54.000Z</time>
      </trkpt>
      <trkpt lat="45.60662" lon="6.59792">
        <ele>2178.8000488281</ele>
        <time>2012-02-24T08:29:01.000Z</time>
      </trkpt>
      <trkpt lat="45.60657" lon="6.59781">
        <ele>2180.1999511719</ele>
        <time>2012-02-24T08:29:10.000Z</time>
      </trkpt>
      <trkpt lat="45.60654" lon="6.5977">
        <ele>2181.3999023438</ele>
        <time>2012-02-24T08:29:19.000Z</time>
      </trkpt>
      <trkpt lat="45.60652" lon="6.59768">
        <ele>2181.3999023438</ele>
        <time>2012-02-24T08:29:22.000Z</time>
      </trkpt>
      <trkpt lat="45.60646" lon="6.59769">
        <ele>2183.1999511719</ele>
        <time>2012-02-24T08:29:28.000Z</time>
      </trkpt>
      <trkpt lat="45.60642" lon="6.5977">
        <ele>2184.6000976562</ele>
        <time>2012-02-24T08:29:32.000Z</time>
      </trkpt>
      <trkpt lat="45.6064" lon="6.59771">
        <ele>2184.8000488281</ele>
        <time>2012-02-24T08:29:34.000Z</time>
      </trkpt>
      <trkpt lat="45.60638" lon="6.59771">
        <ele>2184.8000488281</ele>
        <time>2012-02-24T08:29:36.000Z</time>
      </trkpt>
      <trkpt lat="45.60634" lon="6.59777">
        <ele>2186.1999511719</ele>
        <time>2012-02-24T08:29:42.000Z</time>
      </trkpt>
      <trkpt lat="45.60629" lon="6.59778">
        <ele>2187.6000976562</ele>
        <time>2012-02-24T08:29:48.000Z</time>
      </trkpt>
      <trkpt lat="45.60624" lon="6.59768">
        <ele>2187.6000976562</ele>
        <time>2012-02-24T08:29:57.000Z</time>
      </trkpt>
      <trkpt lat="45.60619" lon="6.59761">
        <ele>2188</ele>
        <time>2012-02-24T08:30:03.000Z</time>
      </trkpt>
      <trkpt lat="45.60614" lon="6.59755">
        <ele>2189.1999511719</ele>
        <time>2012-02-24T08:30:10.000Z</time>
      </trkpt>
      <trkpt lat="45.60609" lon="6.59749">
        <ele>2190.3999023438</ele>
        <time>2012-02-24T08:30:17.000Z</time>
      </trkpt>
      <trkpt lat="45.60603" lon="6.59742">
        <ele>2191.1999511719</ele>
        <time>2012-02-24T08:30:25.000Z</time>
      </trkpt>
      <trkpt lat="45.60598" lon="6.59737">
        <ele>2191.8000488281</ele>
        <time>2012-02-24T08:30:31.000Z</time>
      </trkpt>
      <trkpt lat="45.60596" lon="6.59735">
        <ele>2192.1999511719</ele>
        <time>2012-02-24T08:30:33.000Z</time>
      </trkpt>
      <trkpt lat="45.6059" lon="6.5973">
        <ele>2193.1999511719</ele>
        <time>2012-02-24T08:30:40.000Z</time>
      </trkpt>
      <trkpt lat="45.60586" lon="6.5972">
        <ele>2194.6000976562</ele>
        <time>2012-02-24T08:30:48.000Z</time>
      </trkpt>
      <trkpt lat="45.60584" lon="6.59709">
        <ele>2196</ele>
        <time>2012-02-24T08:30:56.000Z</time>
      </trkpt>
      <trkpt lat="45.60583" lon="6.59702">
        <ele>2196.3999023438</ele>
        <time>2012-02-24T08:31:00.000Z</time>
      </trkpt>
      <trkpt lat="45.6058" lon="6.59693">
        <ele>2197.1999511719</ele>
        <time>2012-02-24T08:31:06.000Z</time>
      </trkpt>
      <trkpt lat="45.6058" lon="6.59691">
        <ele>2197.1999511719</ele>
        <time>2012-02-24T08:31:07.000Z</time>
      </trkpt>
      <trkpt lat="45.60577" lon="6.59679">
        <ele>2198.3999023438</ele>
        <time>2012-02-24T08:31:15.000Z</time>
      </trkpt>
      <trkpt lat="45.60575" lon="6.59671">
        <ele>2199.3999023438</ele>
        <time>2012-02-24T08:31:22.000Z</time>
      </trkpt>
      <trkpt lat="45.60574" lon="6.59662">
        <ele>2200.3999023438</ele>
        <time>2012-02-24T08:31:30.000Z</time>
      </trkpt>
      <trkpt lat="45.60571" lon="6.59652">
        <ele>2201.3999023438</ele>
        <time>2012-02-24T08:31:38.000Z</time>
      </trkpt>
      <trkpt lat="45.60571" lon="6.59651">
        <ele>2201.3999023438</ele>
        <time>2012-02-24T08:31:39.000Z</time>
      </trkpt>
      <trkpt lat="45.60568" lon="6.59648">
        <ele>2202.1999511719</ele>
        <time>2012-02-24T08:31:42.000Z</time>
      </trkpt>
      <trkpt lat="45.60563" lon="6.59648">
        <ele>2203.1999511719</ele>
        <time>2012-02-24T08:31:48.000Z</time>
      </trkpt>
      <trkpt lat="45.6056" lon="6.59647">
        <ele>2204</ele>
        <time>2012-02-24T08:31:51.000Z</time>
      </trkpt>
      <trkpt lat="45.60556" lon="6.5964">
        <ele>2205.3999023438</ele>
        <time>2012-02-24T08:31:57.000Z</time>
      </trkpt>
      <trkpt lat="45.60555" lon="6.59631">
        <ele>2206.1999511719</ele>
        <time>2012-02-24T08:32:06.000Z</time>
      </trkpt>
      <trkpt lat="45.60553" lon="6.5962">
        <ele>2208.3999023438</ele>
        <time>2012-02-24T08:32:15.000Z</time>
      </trkpt>
      <trkpt lat="45.60552" lon="6.59614">
        <ele>2208.6000976562</ele>
        <time>2012-02-24T08:32:21.000Z</time>
      </trkpt>
      <trkpt lat="45.6055" lon="6.59608">
        <ele>2210.3999023438</ele>
        <time>2012-02-24T08:32:26.000Z</time>
      </trkpt>
      <trkpt lat="45.60547" lon="6.59608">
        <ele>2211.1999511719</ele>
        <time>2012-02-24T08:32:28.000Z</time>
      </trkpt>
      <trkpt lat="45.60542" lon="6.59609">
        <ele>2212.8000488281</ele>
        <time>2012-02-24T08:32:35.000Z</time>
      </trkpt>
      <trkpt lat="45.60536" lon="6.59611">
        <ele>2214.1999511719</ele>
        <time>2012-02-24T08:32:42.000Z</time>
      </trkpt>
      <trkpt lat="45.60532" lon="6.59613">
        <ele>2216</ele>
        <time>2012-02-24T08:32:49.000Z</time>
      </trkpt>
      <trkpt lat="45.60525" lon="6.59614">
        <ele>2215.3999023438</ele>
        <time>2012-02-24T08:32:58.000Z</time>
      </trkpt>
      <trkpt lat="45.60519" lon="6.59614">
        <ele>2217.1999511719</ele>
        <time>2012-02-24T08:33:06.000Z</time>
      </trkpt>
      <trkpt lat="45.60517" lon="6.59613">
        <ele>2217.3999023438</ele>
        <time>2012-02-24T08:33:09.000Z</time>
      </trkpt>
      <trkpt lat="45.60516" lon="6.59605">
        <ele>2218.6000976562</ele>
        <time>2012-02-24T08:33:17.000Z</time>
      </trkpt>
      <trkpt lat="45.60516" lon="6.59594">
        <ele>2222.3999023438</ele>
        <time>2012-02-24T08:33:28.000Z</time>
      </trkpt>
      <trkpt lat="45.60515" lon="6.59585">
        <ele>2222.6000976562</ele>
        <time>2012-02-24T08:33:37.000Z</time>
      </trkpt>
      <trkpt lat="45.60513" lon="6.59577">
        <ele>2224.6000976562</ele>
        <time>2012-02-24T08:33:43.000Z</time>
      </trkpt>
      <trkpt lat="45.60513" lon="6.59575">
        <ele>2225.3999023438</ele>
        <time>2012-02-24T08:33:45.000Z</time>
      </trkpt>
      <trkpt lat="45.60513" lon="6.59568">
        <ele>2226</ele>
        <time>2012-02-24T08:33:51.000Z</time>
      </trkpt>
      <trkpt lat="45.60513" lon="6.59562">
        <ele>2225.1999511719</ele>
        <time>2012-02-24T08:33:57.000Z</time>
      </trkpt>
      <trkpt lat="45.60512" lon="6.59554">
        <ele>2227</ele>
        <time>2012-02-24T08:34:03.000Z</time>
      </trkpt>
      <trkpt lat="45.60512" lon="6.59545">
        <ele>2229.6000976562</ele>
        <time>2012-02-24T08:34:12.000Z</time>
      </trkpt>
      <trkpt lat="45.60511" lon="6.59544">
        <ele>2229.8000488281</ele>
        <time>2012-02-24T08:34:14.000Z</time>
      </trkpt>
      <trkpt lat="45.60507" lon="6.59543">
        <ele>2232.3999023438</ele>
        <time>2012-02-24T08:34:19.000Z</time>
      </trkpt>
      <trkpt lat="45.60502" lon="6.59542">
        <ele>2233.1999511719</ele>
        <time>2012-02-24T08:34:25.000Z</time>
      </trkpt>
      <trkpt lat="45.60498" lon="6.59542">
        <ele>2232.6000976562</ele>
        <time>2012-02-24T08:34:31.000Z</time>
      </trkpt>
      <trkpt lat="45.60496" lon="6.59542">
        <ele>2232.8000488281</ele>
        <time>2012-02-24T08:34:41.000Z</time>
      </trkpt>
      <trkpt lat="45.60489" lon="6.59545">
        <ele>2235</ele>
        <time>2012-02-24T08:34:50.000Z</time>
      </trkpt>
      <trkpt lat="45.60483" lon="6.59547">
        <ele>2235.3999023438</ele>
        <time>2012-02-24T08:34:56.000Z</time>
      </trkpt>
      <trkpt lat="45.60478" lon="6.59551">
        <ele>2237.6000976562</ele>
        <time>2012-02-24T08:35:03.000Z</time>
      </trkpt>
      <trkpt lat="45.60472" lon="6.59553">
        <ele>2238.8000488281</ele>
        <time>2012-02-24T08:35:10.000Z</time>
      </trkpt>
      <trkpt lat="45.60469" lon="6.59549">
        <ele>2240</ele>
        <time>2012-02-24T08:35:17.000Z</time>
      </trkpt>
      <trkpt lat="45.60469" lon="6.59547">
        <ele>2240.3999023438</ele>
        <time>2012-02-24T08:35:19.000Z</time>
      </trkpt>
      <trkpt lat="45.60469" lon="6.59544">
        <ele>2241.8000488281</ele>
        <time>2012-02-24T08:35:21.000Z</time>
      </trkpt>
      <trkpt lat="45.60468" lon="6.59533">
        <ele>2242.1999511719</ele>
        <time>2012-02-24T08:35:31.000Z</time>
      </trkpt>
      <trkpt lat="45.60469" lon="6.59526">
        <ele>2243.6000976562</ele>
        <time>2012-02-24T08:35:37.000Z</time>
      </trkpt>
      <trkpt lat="45.6047" lon="6.59519">
        <ele>2244.6000976562</ele>
        <time>2012-02-24T08:35:42.000Z</time>
      </trkpt>
      <trkpt lat="45.60472" lon="6.59513">
        <ele>2244.8000488281</ele>
        <time>2012-02-24T08:35:47.000Z</time>
      </trkpt>
      <trkpt lat="45.60469" lon="6.59509">
        <ele>2245.6000976562</ele>
        <time>2012-02-24T08:35:53.000Z</time>
      </trkpt>
      <trkpt lat="45.60468" lon="6.59504">
        <ele>2247.8000488281</ele>
        <time>2012-02-24T08:35:58.000Z</time>
      </trkpt>
      <trkpt lat="45.60469" lon="6.595">
        <ele>2248.6000976562</ele>
        <time>2012-02-24T08:36:02.000Z</time>
      </trkpt>
      <trkpt lat="45.60469" lon="6.59499">
        <ele>2249</ele>
        <time>2012-02-24T08:36:04.000Z</time>
      </trkpt>
      <trkpt lat="45.6046" lon="6.59498">
        <ele>2250</ele>
        <time>2012-02-24T08:36:13.000Z</time>
      </trkpt>
      <trkpt lat="45.60459" lon="6.59499">
        <ele>2251</ele>
        <time>2012-02-24T08:36:15.000Z</time>
      </trkpt>
      <trkpt lat="45.60455" lon="6.59498">
        <ele>2250.1999511719</ele>
        <time>2012-02-24T08:36:19.000Z</time>
      </trkpt>
      <trkpt lat="45.60453" lon="6.59498">
        <ele>2252.1999511719</ele>
        <time>2012-02-24T08:36:22.000Z</time>
      </trkpt>
      <trkpt lat="45.60448" lon="6.59496">
        <ele>2252.3999023438</ele>
        <time>2012-02-24T08:36:27.000Z</time>
      </trkpt>
      <trkpt lat="45.60444" lon="6.59499">
        <ele>2253.3999023438</ele>
        <time>2012-02-24T08:36:33.000Z</time>
      </trkpt>
      <trkpt lat="45.60441" lon="6.595">
        <ele>2255.3999023438</ele>
        <time>2012-02-24T08:36:38.000Z</time>
      </trkpt>
      <trkpt lat="45.60437" lon="6.59502">
        <ele>2255</ele>
        <time>2012-02-24T08:36:43.000Z</time>
      </trkpt>
      <trkpt lat="45.60434" lon="6.59506">
        <ele>2256.8000488281</ele>
        <time>2012-02-24T08:36:49.000Z</time>
      </trkpt>
      <trkpt lat="45.60431" lon="6.59504">
        <ele>2257.3999023438</ele>
        <time>2012-02-24T08:36:54.000Z</time>
      </trkpt>
      <trkpt lat="45.60427" lon="6.59497">
        <ele>2259.1999511719</ele>
        <time>2012-02-24T08:37:01.000Z</time>
      </trkpt>
      <trkpt lat="45.60424" lon="6.5949">
        <ele>2260.1999511719</ele>
        <time>2012-02-24T08:37:09.000Z</time>
      </trkpt>
      <trkpt lat="45.60423" lon="6.59487">
        <ele>2261</ele>
        <time>2012-02-24T08:37:12.000Z</time>
      </trkpt>
      <trkpt lat="45.60421" lon="6.59483">
        <ele>2260.8000488281</ele>
        <time>2012-02-24T08:37:16.000Z</time>
      </trkpt>
      <trkpt lat="45.60417" lon="6.59473">
        <ele>2262.8000488281</ele>
        <time>2012-02-24T08:37:25.000Z</time>
      </trkpt>
      <trkpt lat="45.60414" lon="6.59468">
        <ele>2263.8000488281</ele>
        <time>2012-02-24T08:37:32.000Z</time>
      </trkpt>
      <trkpt lat="45.60411" lon="6.59467">
        <ele>2265</ele>
        <time>2012-02-24T08:37:36.000Z</time>
      </trkpt>
      <trkpt lat="45.60406" lon="6.59465">
        <ele>2266.3999023438</ele>
        <time>2012-02-24T08:37:43.000Z</time>
      </trkpt>
      <trkpt lat="45.60404" lon="6.59458">
        <ele>2266.3999023438</ele>
        <time>2012-02-24T08:37:50.000Z</time>
      </trkpt>
      <trkpt lat="45.60404" lon="6.59455">
        <ele>2268</ele>
        <time>2012-02-24T08:37:53.000Z</time>
      </trkpt>
      <trkpt lat="45.60404" lon="6.59454">
        <ele>2268.3999023438</ele>
        <time>2012-02-24T08:37:55.000Z</time>
      </trkpt>
      <trkpt lat="45.60398" lon="6.59452">
        <ele>2271.1999511719</ele>
        <time>2012-02-24T08:38:03.000Z</time>
      </trkpt>
      <trkpt lat="45.60393" lon="6.59452">
        <ele>2271.6000976562</ele>
        <time>2012-02-24T08:38:11.000Z</time>
      </trkpt>
      <trkpt lat="45.60391" lon="6.59452">
        <ele>2273</ele>
        <time>2012-02-24T08:38:14.000Z</time>
      </trkpt>
      <trkpt lat="45.60387" lon="6.59452">
        <ele>2273.6000976562</ele>
        <time>2012-02-24T08:38:22.000Z</time>
      </trkpt>
      <trkpt lat="45.60383" lon="6.59452">
        <ele>2274.3999023438</ele>
        <time>2012-02-24T08:38:27.000Z</time>
      </trkpt>
      <trkpt lat="45.60381" lon="6.59451">
        <ele>2275.8000488281</ele>
        <time>2012-02-24T08:38:30.000Z</time>
      </trkpt>
      <trkpt lat="45.60377" lon="6.59452">
        <ele>2277</ele>
        <time>2012-02-24T08:38:39.000Z</time>
      </trkpt>
      <trkpt lat="45.60373" lon="6.59454">
        <ele>2278.1999511719</ele>
        <time>2012-02-24T08:38:45.000Z</time>
      </trkpt>
      <trkpt lat="45.60371" lon="6.59455">
        <ele>2280</ele>
        <time>2012-02-24T08:38:52.000Z</time>
      </trkpt>
      <trkpt lat="45.60372" lon="6.59449">
        <ele>2281.6000976562</ele>
        <time>2012-02-24T08:39:00.000Z</time>
      </trkpt>
      <trkpt lat="45.60372" lon="6.59448">
        <ele>2281.8000488281</ele>
        <time>2012-02-24T08:39:01.000Z</time>
      </trkpt>
      <trkpt lat="45.60373" lon="6.59443">
        <ele>2281.6000976562</ele>
        <time>2012-02-24T08:39:08.000Z</time>
      </trkpt>
      <trkpt lat="45.60375" lon="6.59435">
        <ele>2285</ele>
        <time>2012-02-24T08:39:17.000Z</time>
      </trkpt>
      <trkpt lat="45.60378" lon="6.5943">
        <ele>2285.3999023438</ele>
        <time>2012-02-24T08:39:25.000Z</time>
      </trkpt>
      <trkpt lat="45.60378" lon="6.59429">
        <ele>2286.6000976562</ele>
        <time>2012-02-24T08:39:32.000Z</time>
      </trkpt>
      <trkpt lat="45.60376" lon="6.59427">
        <ele>2286.8000488281</ele>
        <time>2012-02-24T08:39:38.000Z</time>
      </trkpt>
      <trkpt lat="45.6037" lon="6.59425">
        <ele>2287.3999023438</ele>
        <time>2012-02-24T08:39:44.000Z</time>
      </trkpt>
      <trkpt lat="45.60366" lon="6.59422">
        <ele>2291.3999023438</ele>
        <time>2012-02-24T08:39:51.000Z</time>
      </trkpt>
      <trkpt lat="45.6036" lon="6.59422">
        <ele>2291.1999511719</ele>
        <time>2012-02-24T08:39:59.000Z</time>
      </trkpt>
      <trkpt lat="45.60357" lon="6.59424">
        <ele>2291.6000976562</ele>
        <time>2012-02-24T08:40:05.000Z</time>
      </trkpt>
      <trkpt lat="45.60354" lon="6.59427">
        <ele>2292.1999511719</ele>
        <time>2012-02-24T08:40:10.000Z</time>
      </trkpt>
      <trkpt lat="45.60352" lon="6.5943">
        <ele>2295</ele>
        <time>2012-02-24T08:40:15.000Z</time>
      </trkpt>
      <trkpt lat="45.60352" lon="6.5943">
        <ele>2294.8000488281</ele>
        <time>2012-02-24T08:40:21.000Z</time>
      </trkpt>
      <trkpt lat="45.60351" lon="6.59427">
        <ele>2295.8000488281</ele>
        <time>2012-02-24T08:40:24.000Z</time>
      </trkpt>
      <trkpt lat="45.60351" lon="6.59424">
        <ele>2295.3999023438</ele>
        <time>2012-02-24T08:40:27.000Z</time>
      </trkpt>
      <trkpt lat="45.60355" lon="6.59414">
        <ele>2296.1999511719</ele>
        <time>2012-02-24T08:40:37.000Z</time>
      </trkpt>
      <trkpt lat="45.6036" lon="6.59407">
        <ele>2298</ele>
        <time>2012-02-24T08:40:46.000Z</time>
      </trkpt>
      <trkpt lat="45.60361" lon="6.59406">
        <ele>2297.8000488281</ele>
        <time>2012-02-24T08:40:47.000Z</time>
      </trkpt>
      <trkpt lat="45.60369" lon="6.59398">
        <ele>2300.3999023438</ele>
        <time>2012-02-24T08:40:58.000Z</time>
      </trkpt>
      <trkpt lat="45.60374" lon="6.59392">
        <ele>2300.6000976562</ele>
        <time>2012-02-24T08:41:06.000Z</time>
      </trkpt>
      <trkpt lat="45.60378" lon="6.59387">
        <ele>2300.1999511719</ele>
        <time>2012-02-24T08:41:15.000Z</time>
      </trkpt>
      <trkpt lat="45.60386" lon="6.59384">
        <ele>2301.6000976562</ele>
        <time>2012-02-24T08:41:23.000Z</time>
      </trkpt>
      <trkpt lat="45.60394" lon="6.59379">
        <ele>2302.8000488281</ele>
        <time>2012-02-24T08:41:32.000Z</time>
      </trkpt>
      <trkpt lat="45.604" lon="6.59373">
        <ele>2304.1999511719</ele>
        <time>2012-02-24T08:41:39.000Z</time>
      </trkpt>
      <trkpt lat="45.60406" lon="6.59365">
        <ele>2305.6000976562</ele>
        <time>2012-02-24T08:41:48.000Z</time>
      </trkpt>
      <trkpt lat="45.6041" lon="6.59357">
        <ele>2307.8000488281</ele>
        <time>2012-02-24T08:41:56.000Z</time>
      </trkpt>
      <trkpt lat="45.60409" lon="6.59346">
        <ele>2310.1999511719</ele>
        <time>2012-02-24T08:42:06.000Z</time>
      </trkpt>
      <trkpt lat="45.60406" lon="6.59337">
        <ele>2311.3999023438</ele>
        <time>2012-02-24T08:42:14.000Z</time>
      </trkpt>
      <trkpt lat="45.60401" lon="6.59327">
        <ele>2312.6000976562</ele>
        <time>2012-02-24T08:42:24.000Z</time>
      </trkpt>
      <trkpt lat="45.60396" lon="6.59319">
        <ele>2314.1999511719</ele>
        <time>2012-02-24T08:42:33.000Z</time>
      </trkpt>
      <trkpt lat="45.60396" lon="6.59318">
        <ele>2314.3999023438</ele>
        <time>2012-02-24T08:42:34.000Z</time>
      </trkpt>
      <trkpt lat="45.60393" lon="6.59306">
        <ele>2316.1999511719</ele>
        <time>2012-02-24T08:42:44.000Z</time>
      </trkpt>
      <trkpt lat="45.60389" lon="6.59294">
        <ele>2318.1999511719</ele>
        <time>2012-02-24T08:42:55.000Z</time>
      </trkpt>
      <trkpt lat="45.60385" lon="6.59286">
        <ele>2319.8000488281</ele>
        <time>2012-02-24T08:43:03.000Z</time>
      </trkpt>
      <trkpt lat="45.60381" lon="6.5928">
        <ele>2321.8000488281</ele>
        <time>2012-02-24T08:43:10.000Z</time>
      </trkpt>
      <trkpt lat="45.60375" lon="6.59273">
        <ele>2323</ele>
        <time>2012-02-24T08:43:17.000Z</time>
      </trkpt>
      <trkpt lat="45.60369" lon="6.59267">
        <ele>2324.3999023438</ele>
        <time>2012-02-24T08:43:27.000Z</time>
      </trkpt>
      <trkpt lat="45.60365" lon="6.59266">
        <ele>2326.1999511719</ele>
        <time>2012-02-24T08:43:31.000Z</time>
      </trkpt>
      <trkpt lat="45.60359" lon="6.59264">
        <ele>2327.1999511719</ele>
        <time>2012-02-24T08:43:38.000Z</time>
      </trkpt>
      <trkpt lat="45.60352" lon="6.59261">
        <ele>2328.1999511719</ele>
        <time>2012-02-24T08:43:46.000Z</time>
      </trkpt>
      <trkpt lat="45.60347" lon="6.59259">
        <ele>2329.1999511719</ele>
        <time>2012-02-24T08:43:51.000Z</time>
      </trkpt>
      <trkpt lat="45.60345" lon="6.59257">
        <ele>2328.8000488281</ele>
        <time>2012-02-24T08:43:54.000Z</time>
      </trkpt>
      <trkpt lat="45.60338" lon="6.59253">
        <ele>2331</ele>
        <time>2012-02-24T08:44:03.000Z</time>
      </trkpt>
      <trkpt lat="45.60332" lon="6.59246">
        <ele>2331.8000488281</ele>
        <time>2012-02-24T08:44:12.000Z</time>
      </trkpt>
      <trkpt lat="45.60327" lon="6.5924">
        <ele>2333.1999511719</ele>
        <time>2012-02-24T08:44:19.000Z</time>
      </trkpt>
      <trkpt lat="45.60321" lon="6.59234">
        <ele>2334.3999023438</ele>
        <time>2012-02-24T08:44:27.000Z</time>
      </trkpt>
      <trkpt lat="45.60317" lon="6.59227">
        <ele>2336.1999511719</ele>
        <time>2012-02-24T08:44:35.000Z</time>
      </trkpt>
      <trkpt lat="45.60315" lon="6.59223">
        <ele>2338.3999023438</ele>
        <time>2012-02-24T08:44:39.000Z</time>
      </trkpt>
      <trkpt lat="45.60312" lon="6.59217">
        <ele>2338</ele>
        <time>2012-02-24T08:44:46.000Z</time>
      </trkpt>
      <trkpt lat="45.6031" lon="6.59213">
        <ele>2341.6000976562</ele>
        <time>2012-02-24T08:44:51.000Z</time>
      </trkpt>
      <trkpt lat="45.60305" lon="6.59206">
        <ele>2342.1999511719</ele>
        <time>2012-02-24T08:44:59.000Z</time>
      </trkpt>
      <trkpt lat="45.603" lon="6.59199">
        <ele>2343.8000488281</ele>
        <time>2012-02-24T08:45:10.000Z</time>
      </trkpt>
      <trkpt lat="45.60298" lon="6.59192">
        <ele>2346</ele>
        <time>2012-02-24T08:45:19.000Z</time>
      </trkpt>
      <trkpt lat="45.60294" lon="6.59185">
        <ele>2348.1999511719</ele>
        <time>2012-02-24T08:45:28.000Z</time>
      </trkpt>
      <trkpt lat="45.60293" lon="6.59185">
        <ele>2348</ele>
        <time>2012-02-24T08:45:30.000Z</time>
      </trkpt>
      <trkpt lat="45.60291" lon="6.59186">
        <ele>2348</ele>
        <time>2012-02-24T08:45:32.000Z</time>
      </trkpt>
      <trkpt lat="45.60286" lon="6.59197">
        <ele>2350</ele>
        <time>2012-02-24T08:45:43.000Z</time>
      </trkpt>
      <trkpt lat="45.60282" lon="6.59209">
        <ele>2350.3999023438</ele>
        <time>2012-02-24T08:45:52.000Z</time>
      </trkpt>
      <trkpt lat="45.60281" lon="6.59218">
        <ele>2352</ele>
        <time>2012-02-24T08:46:01.000Z</time>
      </trkpt>
      <trkpt lat="45.60278" lon="6.59222">
        <ele>2353</ele>
        <time>2012-02-24T08:46:05.000Z</time>
      </trkpt>
      <trkpt lat="45.6027" lon="6.59225">
        <ele>2354.6000976562</ele>
        <time>2012-02-24T08:46:15.000Z</time>
      </trkpt>
      <trkpt lat="45.6026" lon="6.59227">
        <ele>2355.1999511719</ele>
        <time>2012-02-24T08:46:25.000Z</time>
      </trkpt>
      <trkpt lat="45.60253" lon="6.59229">
        <ele>2356.1999511719</ele>
        <time>2012-02-24T08:46:32.000Z</time>
      </trkpt>
      <trkpt lat="45.60246" lon="6.5923">
        <ele>2358.6000976562</ele>
        <time>2012-02-24T08:46:41.000Z</time>
      </trkpt>
      <trkpt lat="45.60238" lon="6.59231">
        <ele>2359</ele>
        <time>2012-02-24T08:46:49.000Z</time>
      </trkpt>
      <trkpt lat="45.6023" lon="6.59233">
        <ele>2359.8000488281</ele>
        <time>2012-02-24T08:46:56.000Z</time>
      </trkpt>
      <trkpt lat="45.60221" lon="6.59234">
        <ele>2360.6000976562</ele>
        <time>2012-02-24T08:47:05.000Z</time>
      </trkpt>
      <trkpt lat="45.60219" lon="6.59233">
        <ele>2361</ele>
        <time>2012-02-24T08:47:06.000Z</time>
      </trkpt>
      <trkpt lat="45.60216" lon="6.59234">
        <ele>2362</ele>
        <time>2012-02-24T08:47:10.000Z</time>
      </trkpt>
      <trkpt lat="45.60206" lon="6.59236">
        <ele>2363.3999023438</ele>
        <time>2012-02-24T08:47:20.000Z</time>
      </trkpt>
      <trkpt lat="45.60198" lon="6.59237">
        <ele>2364</ele>
        <time>2012-02-24T08:47:28.000Z</time>
      </trkpt>
      <trkpt lat="45.60189" lon="6.59237">
        <ele>2365</ele>
        <time>2012-02-24T08:47:37.000Z</time>
      </trkpt>
      <trkpt lat="45.60179" lon="6.59237">
        <ele>2365.8000488281</ele>
        <time>2012-02-24T08:47:45.000Z</time>
      </trkpt>
      <trkpt lat="45.60169" lon="6.59239">
        <ele>2366</ele>
        <time>2012-02-24T08:47:55.000Z</time>
      </trkpt>
      <trkpt lat="45.6016" lon="6.59238">
        <ele>2368.1999511719</ele>
        <time>2012-02-24T08:48:03.000Z</time>
      </trkpt>
      <trkpt lat="45.60155" lon="6.59239">
        <ele>2369.6000976562</ele>
        <time>2012-02-24T08:48:08.000Z</time>
      </trkpt>
      <trkpt lat="45.60147" lon="6.59244">
        <ele>2370.3999023438</ele>
        <time>2012-02-24T08:48:17.000Z</time>
      </trkpt>
      <trkpt lat="45.60144" lon="6.59252">
        <ele>2370</ele>
        <time>2012-02-24T08:48:23.000Z</time>
      </trkpt>
      <trkpt lat="45.60144" lon="6.59253">
        <ele>2370</ele>
        <time>2012-02-24T08:48:55.000Z</time>
      </trkpt>
      <trkpt lat="45.60144" lon="6.59252">
        <ele>2370.1999511719</ele>
        <time>2012-02-24T08:49:00.000Z</time>
      </trkpt>
      <trkpt lat="45.60145" lon="6.59253">
        <ele>2371</ele>
        <time>2012-02-24T08:51:12.000Z</time>
      </trkpt>
      <trkpt lat="45.60146" lon="6.59254">
        <ele>2371.8000488281</ele>
        <time>2012-02-24T08:51:30.000Z</time>
      </trkpt>
      <trkpt lat="45.60146" lon="6.59254">
        <ele>2370.1999511719</ele>
        <time>2012-02-24T08:51:40.000Z</time>
      </trkpt>
      <trkpt lat="45.60147" lon="6.59252">
        <ele>2370</ele>
        <time>2012-02-24T08:52:04.000Z</time>
      </trkpt>
      <trkpt lat="45.60148" lon="6.59253">
        <ele>2369.8000488281</ele>
        <time>2012-02-24T08:52:06.000Z</time>
      </trkpt>
      <trkpt lat="45.6016" lon="6.59253">
        <ele>2369.1999511719</ele>
        <time>2012-02-24T08:52:12.000Z</time>
      </trkpt>
      <trkpt lat="45.60195" lon="6.59253">
        <ele>2364.8000488281</ele>
        <time>2012-02-24T08:52:18.000Z</time>
      </trkpt>
      <trkpt lat="45.60202" lon="6.59255">
        <ele>2363.6000976562</ele>
        <time>2012-02-24T08:52:19.000Z</time>
      </trkpt>
      <trkpt lat="45.60216" lon="6.59258">
        <ele>2362</ele>
        <time>2012-02-24T08:52:21.000Z</time>
      </trkpt>
      <trkpt lat="45.60236" lon="6.59266">
        <ele>2359.1999511719</ele>
        <time>2012-02-24T08:52:24.000Z</time>
      </trkpt>
      <trkpt lat="45.6026" lon="6.59275">
        <ele>2356.3999023438</ele>
        <time>2012-02-24T08:52:29.000Z</time>
      </trkpt>
      <trkpt lat="45.60275" lon="6.59286">
        <ele>2354.8000488281</ele>
        <time>2012-02-24T08:52:32.000Z</time>
      </trkpt>
      <trkpt lat="45.6028" lon="6.59298">
        <ele>2354</ele>
        <time>2012-02-24T08:52:34.000Z</time>
      </trkpt>
      <trkpt lat="45.60281" lon="6.59303">
        <ele>2353.6000976562</ele>
        <time>2012-02-24T08:52:35.000Z</time>
      </trkpt>
      <trkpt lat="45.60284" lon="6.59327">
        <ele>2352.1999511719</ele>
        <time>2012-02-24T08:52:41.000Z</time>
      </trkpt>
      <trkpt lat="45.60285" lon="6.59332">
        <ele>2351.6000976562</ele>
        <time>2012-02-24T08:52:42.000Z</time>
      </trkpt>
      <trkpt lat="45.60284" lon="6.59344">
        <ele>2350</ele>
        <time>2012-02-24T08:52:45.000Z</time>
      </trkpt>
      <trkpt lat="45.60284" lon="6.59345">
        <ele>2349.6000976562</ele>
        <time>2012-02-24T08:52:50.000Z</time>
      </trkpt>
      <trkpt lat="45.60296" lon="6.59339">
        <ele>2347.6000976562</ele>
        <time>2012-02-24T08:52:54.000Z</time>
      </trkpt>
      <trkpt lat="45.60304" lon="6.59333">
        <ele>2344.6000976562</ele>
        <time>2012-02-24T08:52:57.000Z</time>
      </trkpt>
      <trkpt lat="45.60304" lon="6.59345">
        <ele>2342.1999511719</ele>
        <time>2012-02-24T08:53:01.000Z</time>
      </trkpt>
      <trkpt lat="45.603" lon="6.59355">
        <ele>2340.3999023438</ele>
        <time>2012-02-24T08:53:03.000Z</time>
      </trkpt>
      <trkpt lat="45.60305" lon="6.59355">
        <ele>2337.6000976562</ele>
        <time>2012-02-24T08:53:06.000Z</time>
      </trkpt>
      <trkpt lat="45.60308" lon="6.59354">
        <ele>2336.6000976562</ele>
        <time>2012-02-24T08:53:07.000Z</time>
      </trkpt>
      <trkpt lat="45.60321" lon="6.59363">
        <ele>2330.6000976562</ele>
        <time>2012-02-24T08:53:12.000Z</time>
      </trkpt>
      <trkpt lat="45.6033" lon="6.59374">
        <ele>2325.3999023438</ele>
        <time>2012-02-24T08:53:15.000Z</time>
      </trkpt>
      <trkpt lat="45.60334" lon="6.59375">
        <ele>2322.8000488281</ele>
        <time>2012-02-24T08:53:16.000Z</time>
      </trkpt>
      <trkpt lat="45.6034" lon="6.5938">
        <ele>2318.8000488281</ele>
        <time>2012-02-24T08:53:18.000Z</time>
      </trkpt>
      <trkpt lat="45.60347" lon="6.59387">
        <ele>2313.1999511719</ele>
        <time>2012-02-24T08:53:22.000Z</time>
      </trkpt>
      <trkpt lat="45.60352" lon="6.59391">
        <ele>2310.1999511719</ele>
        <time>2012-02-24T08:53:25.000Z</time>
      </trkpt>
      <trkpt lat="45.60359" lon="6.59398">
        <ele>2304.6000976562</ele>
        <time>2012-02-24T08:53:28.000Z</time>
      </trkpt>
      <trkpt lat="45.60365" lon="6.59408">
        <ele>2298.3999023438</ele>
        <time>2012-02-24T08:53:32.000Z</time>
      </trkpt>
      <trkpt lat="45.60373" lon="6.5943">
        <ele>2291.6000976562</ele>
        <time>2012-02-24T08:53:36.000Z</time>
      </trkpt>
      <trkpt lat="45.60376" lon="6.59432">
        <ele>2289.8000488281</ele>
        <time>2012-02-24T08:53:37.000Z</time>
      </trkpt>
      <trkpt lat="45.60379" lon="6.59452">
        <ele>2281.3999023438</ele>
        <time>2012-02-24T08:53:42.000Z</time>
      </trkpt>
      <trkpt lat="45.60387" lon="6.59457">
        <ele>2277.1999511719</ele>
        <time>2012-02-24T08:53:45.000Z</time>
      </trkpt>
      <trkpt lat="45.60394" lon="6.59469">
        <ele>2271.6000976562</ele>
        <time>2012-02-24T08:53:48.000Z</time>
      </trkpt>
      <trkpt lat="45.60404" lon="6.59484">
        <ele>2267.3999023438</ele>
        <time>2012-02-24T08:53:51.000Z</time>
      </trkpt>
      <trkpt lat="45.60406" lon="6.59493">
        <ele>2265</ele>
        <time>2012-02-24T08:53:53.000Z</time>
      </trkpt>
      <trkpt lat="45.60404" lon="6.59495">
        <ele>2264.1999511719</ele>
        <time>2012-02-24T08:53:55.000Z</time>
      </trkpt>
      <trkpt lat="45.60399" lon="6.59498">
        <ele>2264</ele>
        <time>2012-02-24T08:54:00.000Z</time>
      </trkpt>
      <trkpt lat="45.60399" lon="6.59501">
        <ele>2264</ele>
        <time>2012-02-24T08:54:04.000Z</time>
      </trkpt>
      <trkpt lat="45.60401" lon="6.59502">
        <ele>2266.3999023438</ele>
        <time>2012-02-24T08:54:12.000Z</time>
      </trkpt>
      <trkpt lat="45.60402" lon="6.59502">
        <ele>2266.3999023438</ele>
        <time>2012-02-24T08:54:13.000Z</time>
      </trkpt>
      <trkpt lat="45.60404" lon="6.59504">
        <ele>2263.3999023438</ele>
        <time>2012-02-24T08:54:18.000Z</time>
      </trkpt>
      <trkpt lat="45.60412" lon="6.59507">
        <ele>2263.6000976562</ele>
        <time>2012-02-24T08:54:53.000Z</time>
      </trkpt>
      <trkpt lat="45.60413" lon="6.59505">
        <ele>2263.6000976562</ele>
        <time>2012-02-24T08:55:08.000Z</time>
      </trkpt>
      <trkpt lat="45.60386" lon="6.59504">
        <ele>2263.6000976562</ele>
        <time>2012-02-24T08:55:19.000Z</time>
      </trkpt>
      <trkpt lat="45.60385" lon="6.59506">
        <ele>2263.6000976562</ele>
        <time>2012-02-24T08:55:28.000Z</time>
      </trkpt>
      <trkpt lat="45.60396" lon="6.59504">
        <ele>2263.1999511719</ele>
        <time>2012-02-24T08:56:13.000Z</time>
      </trkpt>
      <trkpt lat="45.60397" lon="6.59492">
        <ele>2263.6000976562</ele>
        <time>2012-02-24T08:57:16.000Z</time>
      </trkpt>
      <trkpt lat="45.60405" lon="6.595">
        <ele>2262.6000976562</ele>
        <time>2012-02-24T08:57:39.000Z</time>
      </trkpt>
      <trkpt lat="45.60411" lon="6.59498">
        <ele>2264.1999511719</ele>
        <time>2012-02-24T08:57:48.000Z</time>
      </trkpt>
      <trkpt lat="45.60391" lon="6.59504">
        <ele>2262.6000976562</ele>
        <time>2012-02-24T08:58:05.000Z</time>
      </trkpt>
      <trkpt lat="45.60387" lon="6.59501">
        <ele>2262.8000488281</ele>
        <time>2012-02-24T08:58:13.000Z</time>
      </trkpt>
      <trkpt lat="45.60389" lon="6.59501">
        <ele>2262.3999023438</ele>
        <time>2012-02-24T08:58:21.000Z</time>
      </trkpt>
      <trkpt lat="45.60399" lon="6.59492">
        <ele>2262.3999023438</ele>
        <time>2012-02-24T08:58:40.000Z</time>
      </trkpt>
      <trkpt lat="45.60378" lon="6.59507">
        <ele>2261.6000976562</ele>
        <time>2012-02-24T08:59:18.000Z</time>
      </trkpt>
      <trkpt lat="45.60381" lon="6.59505">
        <ele>2261.6000976562</ele>
        <time>2012-02-24T08:59:24.000Z</time>
      </trkpt>
      <trkpt lat="45.60401" lon="6.59501">
        <ele>2260.8000488281</ele>
        <time>2012-02-24T08:59:52.000Z</time>
      </trkpt>
      <trkpt lat="45.60406" lon="6.59501">
        <ele>2260.6000976562</ele>
        <time>2012-02-24T08:59:54.000Z</time>
      </trkpt>
      <trkpt lat="45.60405" lon="6.595">
        <ele>2260.6000976562</ele>
        <time>2012-02-24T09:00:02.000Z</time>
      </trkpt>
      <trkpt lat="45.60405" lon="6.59493">
        <ele>2258.6000976562</ele>
        <time>2012-02-24T09:00:19.000Z</time>
      </trkpt>
      <trkpt lat="45.60404" lon="6.5949">
        <ele>2262.8000488281</ele>
        <time>2012-02-24T09:00:24.000Z</time>
      </trkpt>
      <trkpt lat="45.60403" lon="6.5949">
        <ele>2259.8000488281</ele>
        <time>2012-02-24T09:00:29.000Z</time>
      </trkpt>
      <trkpt lat="45.60405" lon="6.5949">
        <ele>2260.8000488281</ele>
        <time>2012-02-24T09:00:33.000Z</time>
      </trkpt>
      <trkpt lat="45.604" lon="6.59493">
        <ele>2259.8000488281</ele>
        <time>2012-02-24T09:00:38.000Z</time>
      </trkpt>
      <trkpt lat="45.60401" lon="6.5949">
        <ele>2260.6000976562</ele>
        <time>2012-02-24T09:00:43.000Z</time>
      </trkpt>
      <trkpt lat="45.60401" lon="6.59478">
        <ele>2260.3999023438</ele>
        <time>2012-02-24T09:00:50.000Z</time>
      </trkpt>
      <trkpt lat="45.60401" lon="6.59468">
        <ele>2259.8000488281</ele>
        <time>2012-02-24T09:00:57.000Z</time>
      </trkpt>
      <trkpt lat="45.60401" lon="6.59465">
        <ele>2261.3999023438</ele>
        <time>2012-02-24T09:01:08.000Z</time>
      </trkpt>
      <trkpt lat="45.60403" lon="6.5946">
        <ele>2259.8000488281</ele>
        <time>2012-02-24T09:01:15.000Z</time>
      </trkpt>
      <trkpt lat="45.60397" lon="6.59457">
        <ele>2261.3999023438</ele>
        <time>2012-02-24T09:01:20.000Z</time>
      </trkpt>
      <trkpt lat="45.60398" lon="6.59454">
        <ele>2259.1999511719</ele>
        <time>2012-02-24T09:01:47.000Z</time>
      </trkpt>
      <trkpt lat="45.60398" lon="6.59455">
        <ele>2262.1999511719</ele>
        <time>2012-02-24T09:01:53.000Z</time>
      </trkpt>
      <trkpt lat="45.60396" lon="6.59449">
        <ele>2261.1999511719</ele>
        <time>2012-02-24T09:02:05.000Z</time>
      </trkpt>
      <trkpt lat="45.6039" lon="6.59449">
        <ele>2263.6000976562</ele>
        <time>2012-02-24T09:02:11.000Z</time>
      </trkpt>
      <trkpt lat="45.60386" lon="6.59452">
        <ele>2265</ele>
        <time>2012-02-24T09:02:16.000Z</time>
      </trkpt>
      <trkpt lat="45.60383" lon="6.59454">
        <ele>2266</ele>
        <time>2012-02-24T09:02:24.000Z</time>
      </trkpt>
      <trkpt lat="45.60381" lon="6.59454">
        <ele>2268</ele>
        <time>2012-02-24T09:02:30.000Z</time>
      </trkpt>
      <trkpt lat="45.60376" lon="6.59454">
        <ele>2268.1999511719</ele>
        <time>2012-02-24T09:02:35.000Z</time>
      </trkpt>
      <trkpt lat="45.60371" lon="6.59454">
        <ele>2271</ele>
        <time>2012-02-24T09:02:40.000Z</time>
      </trkpt>
      <trkpt lat="45.60369" lon="6.59456">
        <ele>2272</ele>
        <time>2012-02-24T09:02:42.000Z</time>
      </trkpt>
      <trkpt lat="45.60364" lon="6.59461">
        <ele>2271.3999023438</ele>
        <time>2012-02-24T09:02:50.000Z</time>
      </trkpt>
      <trkpt lat="45.60354" lon="6.5947">
        <ele>2270.8000488281</ele>
        <time>2012-02-24T09:03:09.000Z</time>
      </trkpt>
      <trkpt lat="45.60354" lon="6.59468">
        <ele>2272.6000976562</ele>
        <time>2012-02-24T09:03:16.000Z</time>
      </trkpt>
      <trkpt lat="45.60359" lon="6.59457">
        <ele>2273.6000976562</ele>
        <time>2012-02-24T09:03:22.000Z</time>
      </trkpt>
      <trkpt lat="45.60363" lon="6.59448">
        <ele>2274.6000976562</ele>
        <time>2012-02-24T09:03:28.000Z</time>
      </trkpt>
      <trkpt lat="45.60367" lon="6.5944">
        <ele>2277</ele>
        <time>2012-02-24T09:03:34.000Z</time>
      </trkpt>
      <trkpt lat="45.6037" lon="6.59434">
        <ele>2277.3999023438</ele>
        <time>2012-02-24T09:03:39.000Z</time>
      </trkpt>
      <trkpt lat="45.60374" lon="6.59431">
        <ele>2278.1999511719</ele>
        <time>2012-02-24T09:03:43.000Z</time>
      </trkpt>
      <trkpt lat="45.60372" lon="6.59429">
        <ele>2279.6000976562</ele>
        <time>2012-02-24T09:03:49.000Z</time>
      </trkpt>
      <trkpt lat="45.60364" lon="6.59426">
        <ele>2280.8000488281</ele>
        <time>2012-02-24T09:03:55.000Z</time>
      </trkpt>
      <trkpt lat="45.60362" lon="6.59424">
        <ele>2282.1999511719</ele>
        <time>2012-02-24T09:03:58.000Z</time>
      </trkpt>
      <trkpt lat="45.60356" lon="6.59425">
        <ele>2284.6000976562</ele>
        <time>2012-02-24T09:04:03.000Z</time>
      </trkpt>
      <trkpt lat="45.60353" lon="6.59426">
        <ele>2285.6000976562</ele>
        <time>2012-02-24T09:04:09.000Z</time>
      </trkpt>
      <trkpt lat="45.6035" lon="6.5943">
        <ele>2284.3999023438</ele>
        <time>2012-02-24T09:04:14.000Z</time>
      </trkpt>
      <trkpt lat="45.60347" lon="6.59433">
        <ele>2286</ele>
        <time>2012-02-24T09:04:18.000Z</time>
      </trkpt>
      <trkpt lat="45.60345" lon="6.59438">
        <ele>2288</ele>
        <time>2012-02-24T09:04:23.000Z</time>
      </trkpt>
      <trkpt lat="45.60346" lon="6.59432">
        <ele>2288.1999511719</ele>
        <time>2012-02-24T09:04:29.000Z</time>
      </trkpt>
      <trkpt lat="45.60349" lon="6.59426">
        <ele>2288.6000976562</ele>
        <time>2012-02-24T09:04:34.000Z</time>
      </trkpt>
      <trkpt lat="45.6035" lon="6.59423">
        <ele>2288.8000488281</ele>
        <time>2012-02-24T09:04:36.000Z</time>
      </trkpt>
      <trkpt lat="45.60354" lon="6.59413">
        <ele>2289.1999511719</ele>
        <time>2012-02-24T09:04:43.000Z</time>
      </trkpt>
      <trkpt lat="45.60361" lon="6.59404">
        <ele>2290.6000976562</ele>
        <time>2012-02-24T09:04:51.000Z</time>
      </trkpt>
      <trkpt lat="45.60367" lon="6.59401">
        <ele>2291.8000488281</ele>
        <time>2012-02-24T09:04:56.000Z</time>
      </trkpt>
      <trkpt lat="45.60377" lon="6.5939">
        <ele>2293.6000976562</ele>
        <time>2012-02-24T09:05:06.000Z</time>
      </trkpt>
      <trkpt lat="45.60387" lon="6.59382">
        <ele>2294.8000488281</ele>
        <time>2012-02-24T09:05:16.000Z</time>
      </trkpt>
      <trkpt lat="45.604" lon="6.59378">
        <ele>2295.6000976562</ele>
        <time>2012-02-24T09:05:25.000Z</time>
      </trkpt>
      <trkpt lat="45.60409" lon="6.59368">
        <ele>2298</ele>
        <time>2012-02-24T09:05:35.000Z</time>
      </trkpt>
      <trkpt lat="45.60413" lon="6.59359">
        <ele>2300.8000488281</ele>
        <time>2012-02-24T09:05:43.000Z</time>
      </trkpt>
      <trkpt lat="45.60412" lon="6.59354">
        <ele>2301.1999511719</ele>
        <time>2012-02-24T09:05:47.000Z</time>
      </trkpt>
      <trkpt lat="45.60409" lon="6.59342">
        <ele>2304.1999511719</ele>
        <time>2012-02-24T09:05:55.000Z</time>
      </trkpt>
      <trkpt lat="45.60401" lon="6.5933">
        <ele>2306</ele>
        <time>2012-02-24T09:06:05.000Z</time>
      </trkpt>
      <trkpt lat="45.60396" lon="6.5932">
        <ele>2307</ele>
        <time>2012-02-24T09:06:13.000Z</time>
      </trkpt>
      <trkpt lat="45.60394" lon="6.59309">
        <ele>2309.1999511719</ele>
        <time>2012-02-24T09:06:21.000Z</time>
      </trkpt>
      <trkpt lat="45.60393" lon="6.59307">
        <ele>2309</ele>
        <time>2012-02-24T09:06:23.000Z</time>
      </trkpt>
      <trkpt lat="45.60392" lon="6.59299">
        <ele>2309.6000976562</ele>
        <time>2012-02-24T09:06:28.000Z</time>
      </trkpt>
      <trkpt lat="45.60387" lon="6.59288">
        <ele>2311.3999023438</ele>
        <time>2012-02-24T09:06:37.000Z</time>
      </trkpt>
      <trkpt lat="45.60383" lon="6.5928">
        <ele>2313.3999023438</ele>
        <time>2012-02-24T09:06:44.000Z</time>
      </trkpt>
      <trkpt lat="45.60375" lon="6.59271">
        <ele>2315.8000488281</ele>
        <time>2012-02-24T09:06:54.000Z</time>
      </trkpt>
      <trkpt lat="45.6037" lon="6.59266">
        <ele>2317.3999023438</ele>
        <time>2012-02-24T09:07:01.000Z</time>
      </trkpt>
      <trkpt lat="45.60361" lon="6.59261">
        <ele>2320.1999511719</ele>
        <time>2012-02-24T09:07:11.000Z</time>
      </trkpt>
      <trkpt lat="45.60352" lon="6.59258">
        <ele>2321.6000976562</ele>
        <time>2012-02-24T09:07:20.000Z</time>
      </trkpt>
      <trkpt lat="45.60341" lon="6.59253">
        <ele>2323.8000488281</ele>
        <time>2012-02-24T09:07:31.000Z</time>
      </trkpt>
      <trkpt lat="45.60337" lon="6.59249">
        <ele>2324.3999023438</ele>
        <time>2012-02-24T09:07:35.000Z</time>
      </trkpt>
      <trkpt lat="45.6033" lon="6.59242">
        <ele>2325.6000976562</ele>
        <time>2012-02-24T09:07:42.000Z</time>
      </trkpt>
      <trkpt lat="45.60324" lon="6.59234">
        <ele>2327.1999511719</ele>
        <time>2012-02-24T09:07:50.000Z</time>
      </trkpt>
      <trkpt lat="45.60318" lon="6.59226">
        <ele>2330.3999023438</ele>
        <time>2012-02-24T09:07:59.000Z</time>
      </trkpt>
      <trkpt lat="45.60312" lon="6.59215">
        <ele>2332.6000976562</ele>
        <time>2012-02-24T09:08:10.000Z</time>
      </trkpt>
      <trkpt lat="45.60306" lon="6.59206">
        <ele>2334.8000488281</ele>
        <time>2012-02-24T09:08:19.000Z</time>
      </trkpt>
      <trkpt lat="45.60299" lon="6.59196">
        <ele>2337.6000976562</ele>
        <time>2012-02-24T09:08:30.000Z</time>
      </trkpt>
      <trkpt lat="45.60297" lon="6.59192">
        <ele>2339.3999023438</ele>
        <time>2012-02-24T09:08:34.000Z</time>
      </trkpt>
      <trkpt lat="45.60297" lon="6.59191">
        <ele>2340</ele>
        <time>2012-02-24T09:08:35.000Z</time>
      </trkpt>
      <trkpt lat="45.60294" lon="6.59184">
        <ele>2342.1999511719</ele>
        <time>2012-02-24T09:08:45.000Z</time>
      </trkpt>
      <trkpt lat="45.60292" lon="6.59186">
        <ele>2342.3999023438</ele>
        <time>2012-02-24T09:08:48.000Z</time>
      </trkpt>
      <trkpt lat="45.60287" lon="6.59198">
        <ele>2343.6000976562</ele>
        <time>2012-02-24T09:08:57.000Z</time>
      </trkpt>
      <trkpt lat="45.60284" lon="6.59213">
        <ele>2344.6000976562</ele>
        <time>2012-02-24T09:09:07.000Z</time>
      </trkpt>
      <trkpt lat="45.60282" lon="6.59221">
        <ele>2346.3999023438</ele>
        <time>2012-02-24T09:09:13.000Z</time>
      </trkpt>
      <trkpt lat="45.60274" lon="6.59226">
        <ele>2347.6000976562</ele>
        <time>2012-02-24T09:09:21.000Z</time>
      </trkpt>
      <trkpt lat="45.6027" lon="6.5922">
        <ele>2349.8000488281</ele>
        <time>2012-02-24T09:09:27.000Z</time>
      </trkpt>
      <trkpt lat="45.60266" lon="6.59206">
        <ele>2351.8000488281</ele>
        <time>2012-02-24T09:09:37.000Z</time>
      </trkpt>
      <trkpt lat="45.60262" lon="6.59202">
        <ele>2353</ele>
        <time>2012-02-24T09:09:43.000Z</time>
      </trkpt>
      <trkpt lat="45.60258" lon="6.59201">
        <ele>2354.3999023438</ele>
        <time>2012-02-24T09:09:48.000Z</time>
      </trkpt>
      <trkpt lat="45.60256" lon="6.59199">
        <ele>2355</ele>
        <time>2012-02-24T09:09:52.000Z</time>
      </trkpt>
      <trkpt lat="45.60256" lon="6.59186">
        <ele>2357.1999511719</ele>
        <time>2012-02-24T09:10:02.000Z</time>
      </trkpt>
      <trkpt lat="45.60256" lon="6.59182">
        <ele>2357.6000976562</ele>
        <time>2012-02-24T09:10:05.000Z</time>
      </trkpt>
      <trkpt lat="45.60253" lon="6.59178">
        <ele>2359.3999023438</ele>
        <time>2012-02-24T09:10:09.000Z</time>
      </trkpt>
      <trkpt lat="45.60252" lon="6.59177">
        <ele>2359.8000488281</ele>
        <time>2012-02-24T09:10:10.000Z</time>
      </trkpt>
      <trkpt lat="45.60246" lon="6.59169">
        <ele>2361.8000488281</ele>
        <time>2012-02-24T09:10:19.000Z</time>
      </trkpt>
      <trkpt lat="45.60244" lon="6.59167">
        <ele>2362.1999511719</ele>
        <time>2012-02-24T09:10:21.000Z</time>
      </trkpt>
      <trkpt lat="45.60238" lon="6.5917">
        <ele>2364.8000488281</ele>
        <time>2012-02-24T09:10:28.000Z</time>
      </trkpt>
      <trkpt lat="45.60231" lon="6.59171">
        <ele>2366.3999023438</ele>
        <time>2012-02-24T09:10:36.000Z</time>
      </trkpt>
      <trkpt lat="45.60223" lon="6.5917">
        <ele>2368.3999023438</ele>
        <time>2012-02-24T09:10:44.000Z</time>
      </trkpt>
      <trkpt lat="45.60215" lon="6.5917">
        <ele>2370.8000488281</ele>
        <time>2012-02-24T09:10:53.000Z</time>
      </trkpt>
      <trkpt lat="45.60207" lon="6.59168">
        <ele>2373.1999511719</ele>
        <time>2012-02-24T09:11:00.000Z</time>
      </trkpt>
      <trkpt lat="45.60198" lon="6.59169">
        <ele>2375.3999023438</ele>
        <time>2012-02-24T09:11:09.000Z</time>
      </trkpt>
      <trkpt lat="45.60192" lon="6.5917">
        <ele>2376.3999023438</ele>
        <time>2012-02-24T09:11:16.000Z</time>
      </trkpt>
      <trkpt lat="45.60193" lon="6.59168">
        <ele>2376.8000488281</ele>
        <time>2012-02-24T09:11:23.000Z</time>
      </trkpt>
      <trkpt lat="45.60193" lon="6.59168">
        <ele>2377.1999511719</ele>
        <time>2012-02-24T09:11:24.000Z</time>
      </trkpt>
      <trkpt lat="45.60195" lon="6.59163">
        <ele>2378.3999023438</ele>
        <time>2012-02-24T09:11:30.000Z</time>
      </trkpt>
      <trkpt lat="45.60185" lon="6.59165">
        <ele>2380.6000976562</ele>
        <time>2012-02-24T09:11:40.000Z</time>
      </trkpt>
      <trkpt lat="45.6018" lon="6.59164">
        <ele>2384</ele>
        <time>2012-02-24T09:11:46.000Z</time>
      </trkpt>
      <trkpt lat="45.60177" lon="6.59164">
        <ele>2383.1999511719</ele>
        <time>2012-02-24T09:11:53.000Z</time>
      </trkpt>
      <trkpt lat="45.60178" lon="6.59164">
        <ele>2384.8000488281</ele>
        <time>2012-02-24T09:12:35.000Z</time>
      </trkpt>
      <trkpt lat="45.60179" lon="6.59163">
        <ele>2383.8000488281</ele>
        <time>2012-02-24T09:12:40.000Z</time>
      </trkpt>
      <trkpt lat="45.60176" lon="6.59161">
        <ele>2385.8000488281</ele>
        <time>2012-02-24T09:13:15.000Z</time>
      </trkpt>
      <trkpt lat="45.60174" lon="6.5916">
        <ele>2384</ele>
        <time>2012-02-24T09:13:19.000Z</time>
      </trkpt>
      <trkpt lat="45.60176" lon="6.59157">
        <ele>2383</ele>
        <time>2012-02-24T09:13:35.000Z</time>
      </trkpt>
      <trkpt lat="45.60176" lon="6.59159">
        <ele>2385</ele>
        <time>2012-02-24T09:13:43.000Z</time>
      </trkpt>
      <trkpt lat="45.60176" lon="6.59159">
        <ele>2383</ele>
        <time>2012-02-24T09:13:57.000Z</time>
      </trkpt>
      <trkpt lat="45.60175" lon="6.59163">
        <ele>2382.1999511719</ele>
        <time>2012-02-24T09:13:59.000Z</time>
      </trkpt>
      <trkpt lat="45.60177" lon="6.59166">
        <ele>2385.1999511719</ele>
        <time>2012-02-24T09:14:03.000Z</time>
      </trkpt>
      <trkpt lat="45.60178" lon="6.59161">
        <ele>2385.6000976562</ele>
        <time>2012-02-24T09:14:13.000Z</time>
      </trkpt>
      <trkpt lat="45.60178" lon="6.5916">
        <ele>2383.8000488281</ele>
        <time>2012-02-24T09:14:15.000Z</time>
      </trkpt>
      <trkpt lat="45.60182" lon="6.59163">
        <ele>2383.6000976562</ele>
        <time>2012-02-24T09:15:20.000Z</time>
      </trkpt>
      <trkpt lat="45.60183" lon="6.59163">
        <ele>2383.1999511719</ele>
        <time>2012-02-24T09:15:23.000Z</time>
      </trkpt>
      <trkpt lat="45.60193" lon="6.59164">
        <ele>2380.8000488281</ele>
        <time>2012-02-24T09:15:28.000Z</time>
      </trkpt>
      <trkpt lat="45.60195" lon="6.59164">
        <ele>2380</ele>
        <time>2012-02-24T09:15:30.000Z</time>
      </trkpt>
      <trkpt lat="45.60195" lon="6.59166">
        <ele>2378.8000488281</ele>
        <time>2012-02-24T09:15:36.000Z</time>
      </trkpt>
      <trkpt lat="45.60194" lon="6.59167">
        <ele>2379.1999511719</ele>
        <time>2012-02-24T09:15:38.000Z</time>
      </trkpt>
      <trkpt lat="45.60189" lon="6.59176">
        <ele>2377.3999023438</ele>
        <time>2012-02-24T09:15:44.000Z</time>
      </trkpt>
      <trkpt lat="45.60189" lon="6.59177">
        <ele>2377.1999511719</ele>
        <time>2012-02-24T09:15:45.000Z</time>
      </trkpt>
      <trkpt lat="45.60185" lon="6.59183">
        <ele>2376.1999511719</ele>
        <time>2012-02-24T09:15:53.000Z</time>
      </trkpt>
      <trkpt lat="45.60178" lon="6.59187">
        <ele>2375.1999511719</ele>
        <time>2012-02-24T09:16:01.000Z</time>
      </trkpt>
      <trkpt lat="45.60172" lon="6.59195">
        <ele>2374</ele>
        <time>2012-02-24T09:16:10.000Z</time>
      </trkpt>
      <trkpt lat="45.60168" lon="6.59197">
        <ele>2373.6000976562</ele>
        <time>2012-02-24T09:16:32.000Z</time>
      </trkpt>
      <trkpt lat="45.60164" lon="6.59207">
        <ele>2372.3999023438</ele>
        <time>2012-02-24T09:16:38.000Z</time>
      </trkpt>
      <trkpt lat="45.60158" lon="6.5922">
        <ele>2370.6000976562</ele>
        <time>2012-02-24T09:16:45.000Z</time>
      </trkpt>
      <trkpt lat="45.60153" lon="6.59234">
        <ele>2368</ele>
        <time>2012-02-24T09:16:50.000Z</time>
      </trkpt>
      <trkpt lat="45.60149" lon="6.59243">
        <ele>2366.3999023438</ele>
        <time>2012-02-24T09:16:56.000Z</time>
      </trkpt>
      <trkpt lat="45.60146" lon="6.59251">
        <ele>2365.1999511719</ele>
        <time>2012-02-24T09:17:01.000Z</time>
      </trkpt>
      <trkpt lat="45.60145" lon="6.59253">
        <ele>2364.3999023438</ele>
        <time>2012-02-24T09:17:08.000Z</time>
      </trkpt>
      <trkpt lat="45.60144" lon="6.59253">
        <ele>2362.6000976562</ele>
        <time>2012-02-24T09:18:40.000Z</time>
      </trkpt>
      <trkpt lat="45.60145" lon="6.59252">
        <ele>2365.6000976562</ele>
        <time>2012-02-24T09:18:44.000Z</time>
      </trkpt>
      <trkpt lat="45.60142" lon="6.5926">
        <ele>2364</ele>
        <time>2012-02-24T09:21:49.000Z</time>
      </trkpt>
      <trkpt lat="45.60138" lon="6.59271">
        <ele>2364.6000976562</ele>
        <time>2012-02-24T09:21:57.000Z</time>
      </trkpt>
      <trkpt lat="45.60136" lon="6.59281">
        <ele>2365.1999511719</ele>
        <time>2012-02-24T09:22:05.000Z</time>
      </trkpt>
      <trkpt lat="45.60134" lon="6.59291">
        <ele>2365.3999023438</ele>
        <time>2012-02-24T09:22:12.000Z</time>
      </trkpt>
      <trkpt lat="45.60131" lon="6.59304">
        <ele>2366.3999023438</ele>
        <time>2012-02-24T09:22:21.000Z</time>
      </trkpt>
      <trkpt lat="45.60129" lon="6.59313">
        <ele>2366.3999023438</ele>
        <time>2012-02-24T09:22:28.000Z</time>
      </trkpt>
      <trkpt lat="45.60127" lon="6.59319">
        <ele>2367</ele>
        <time>2012-02-24T09:22:33.000Z</time>
      </trkpt>
      <trkpt lat="45.60125" lon="6.59328">
        <ele>2367.6000976562</ele>
        <time>2012-02-24T09:22:41.000Z</time>
      </trkpt>
      <trkpt lat="45.60128" lon="6.59337">
        <ele>2367.6000976562</ele>
        <time>2012-02-24T09:22:48.000Z</time>
      </trkpt>
      <trkpt lat="45.60127" lon="6.59345">
        <ele>2368.6000976562</ele>
        <time>2012-02-24T09:22:54.000Z</time>
      </trkpt>
      <trkpt lat="45.60127" lon="6.59351">
        <ele>2367.8000488281</ele>
        <time>2012-02-24T09:22:58.000Z</time>
      </trkpt>
      <trkpt lat="45.60126" lon="6.59356">
        <ele>2369.6000976562</ele>
        <time>2012-02-24T09:23:02.000Z</time>
      </trkpt>
      <trkpt lat="45.60123" lon="6.59361">
        <ele>2370.1999511719</ele>
        <time>2012-02-24T09:23:07.000Z</time>
      </trkpt>
      <trkpt lat="45.60122" lon="6.59366">
        <ele>2371</ele>
        <time>2012-02-24T09:23:11.000Z</time>
      </trkpt>
      <trkpt lat="45.60119" lon="6.59372">
        <ele>2370.6000976562</ele>
        <time>2012-02-24T09:23:18.000Z</time>
      </trkpt>
      <trkpt lat="45.60117" lon="6.59379">
        <ele>2370.3999023438</ele>
        <time>2012-02-24T09:23:24.000Z</time>
      </trkpt>
      <trkpt lat="45.60115" lon="6.59384">
        <ele>2372.8000488281</ele>
        <time>2012-02-24T09:23:29.000Z</time>
      </trkpt>
      <trkpt lat="45.60113" lon="6.59388">
        <ele>2372.6000976562</ele>
        <time>2012-02-24T09:23:33.000Z</time>
      </trkpt>
      <trkpt lat="45.60112" lon="6.59394">
        <ele>2373</ele>
        <time>2012-02-24T09:23:38.000Z</time>
      </trkpt>
      <trkpt lat="45.60111" lon="6.594">
        <ele>2374</ele>
        <time>2012-02-24T09:23:44.000Z</time>
      </trkpt>
      <trkpt lat="45.60112" lon="6.59409">
        <ele>2375</ele>
        <time>2012-02-24T09:23:51.000Z</time>
      </trkpt>
      <trkpt lat="45.60112" lon="6.59417">
        <ele>2375.6000976562</ele>
        <time>2012-02-24T09:23:58.000Z</time>
      </trkpt>
      <trkpt lat="45.60111" lon="6.59422">
        <ele>2376.6000976562</ele>
        <time>2012-02-24T09:24:05.000Z</time>
      </trkpt>
      <trkpt lat="45.6011" lon="6.59427">
        <ele>2377.6000976562</ele>
        <time>2012-02-24T09:24:11.000Z</time>
      </trkpt>
      <trkpt lat="45.60109" lon="6.59432">
        <ele>2377.8000488281</ele>
        <time>2012-02-24T09:24:16.000Z</time>
      </trkpt>
      <trkpt lat="45.60109" lon="6.59435">
        <ele>2378.3999023438</ele>
        <time>2012-02-24T09:24:25.000Z</time>
      </trkpt>
      <trkpt lat="45.60106" lon="6.59438">
        <ele>2379</ele>
        <time>2012-02-24T09:24:35.000Z</time>
      </trkpt>
      <trkpt lat="45.60106" lon="6.5944">
        <ele>2380</ele>
        <time>2012-02-24T09:24:39.000Z</time>
      </trkpt>
      <trkpt lat="45.60103" lon="6.59442">
        <ele>2381.6000976562</ele>
        <time>2012-02-24T09:24:46.000Z</time>
      </trkpt>
      <trkpt lat="45.601" lon="6.59444">
        <ele>2383</ele>
        <time>2012-02-24T09:24:53.000Z</time>
      </trkpt>
      <trkpt lat="45.60098" lon="6.59447">
        <ele>2384</ele>
        <time>2012-02-24T09:24:59.000Z</time>
      </trkpt>
      <trkpt lat="45.60096" lon="6.5945">
        <ele>2385.1999511719</ele>
        <time>2012-02-24T09:25:06.000Z</time>
      </trkpt>
      <trkpt lat="45.60094" lon="6.59451">
        <ele>2385.8000488281</ele>
        <time>2012-02-24T09:25:19.000Z</time>
      </trkpt>
      <trkpt lat="45.60096" lon="6.59446">
        <ele>2386.6000976562</ele>
        <time>2012-02-24T09:25:24.000Z</time>
      </trkpt>
      <trkpt lat="45.601" lon="6.5944">
        <ele>2388.6000976562</ele>
        <time>2012-02-24T09:25:33.000Z</time>
      </trkpt>
      <trkpt lat="45.601" lon="6.59439">
        <ele>2389</ele>
        <time>2012-02-24T09:25:35.000Z</time>
      </trkpt>
      <trkpt lat="45.60102" lon="6.59437">
        <ele>2389.1999511719</ele>
        <time>2012-02-24T09:25:41.000Z</time>
      </trkpt>
      <trkpt lat="45.60105" lon="6.59434">
        <ele>2391.3999023438</ele>
        <time>2012-02-24T09:25:49.000Z</time>
      </trkpt>
      <trkpt lat="45.60111" lon="6.59443">
        <ele>2391.6000976562</ele>
        <time>2012-02-24T09:26:44.000Z</time>
      </trkpt>
      <trkpt lat="45.6011" lon="6.59461">
        <ele>2391.6000976562</ele>
        <time>2012-02-24T09:27:27.000Z</time>
      </trkpt>
      <trkpt lat="45.6011" lon="6.59466">
        <ele>2392.1999511719</ele>
        <time>2012-02-24T09:27:43.000Z</time>
      </trkpt>
      <trkpt lat="45.6011" lon="6.59467">
        <ele>2392.3999023438</ele>
        <time>2012-02-24T09:27:44.000Z</time>
      </trkpt>
      <trkpt lat="45.60108" lon="6.59469">
        <ele>2394</ele>
        <time>2012-02-24T09:27:49.000Z</time>
      </trkpt>
      <trkpt lat="45.60106" lon="6.5947">
        <ele>2395.3999023438</ele>
        <time>2012-02-24T09:27:54.000Z</time>
      </trkpt>
      <trkpt lat="45.60105" lon="6.59471">
        <ele>2395.6000976562</ele>
        <time>2012-02-24T09:27:55.000Z</time>
      </trkpt>
      <trkpt lat="45.60104" lon="6.59473">
        <ele>2396</ele>
        <time>2012-02-24T09:28:04.000Z</time>
      </trkpt>
      <trkpt lat="45.60105" lon="6.59471">
        <ele>2397</ele>
        <time>2012-02-24T09:28:10.000Z</time>
      </trkpt>
      <trkpt lat="45.60108" lon="6.59467">
        <ele>2397.8000488281</ele>
        <time>2012-02-24T09:28:15.000Z</time>
      </trkpt>
      <trkpt lat="45.60109" lon="6.59465">
        <ele>2399.3999023438</ele>
        <time>2012-02-24T09:28:18.000Z</time>
      </trkpt>
      <trkpt lat="45.60116" lon="6.59459">
        <ele>2400.6000976562</ele>
        <time>2012-02-24T09:28:30.000Z</time>
      </trkpt>
      <trkpt lat="45.60118" lon="6.59455">
        <ele>2401.3999023438</ele>
        <time>2012-02-24T09:28:38.000Z</time>
      </trkpt>
      <trkpt lat="45.60115" lon="6.59456">
        <ele>2402.3999023438</ele>
        <time>2012-02-24T09:28:46.000Z</time>
      </trkpt>
      <trkpt lat="45.60112" lon="6.59462">
        <ele>2403.6000976562</ele>
        <time>2012-02-24T09:28:55.000Z</time>
      </trkpt>
      <trkpt lat="45.60111" lon="6.5947">
        <ele>2405</ele>
        <time>2012-02-24T09:29:03.000Z</time>
      </trkpt>
      <trkpt lat="45.60109" lon="6.59475">
        <ele>2406.1999511719</ele>
        <time>2012-02-24T09:29:09.000Z</time>
      </trkpt>
      <trkpt lat="45.60108" lon="6.59478">
        <ele>2406.3999023438</ele>
        <time>2012-02-24T09:29:13.000Z</time>
      </trkpt>
      <trkpt lat="45.60107" lon="6.5948">
        <ele>2407.8000488281</ele>
        <time>2012-02-24T09:29:18.000Z</time>
      </trkpt>
      <trkpt lat="45.60111" lon="6.59477">
        <ele>2408.6000976562</ele>
        <time>2012-02-24T09:29:32.000Z</time>
      </trkpt>
      <trkpt lat="45.60112" lon="6.59475">
        <ele>2409.8000488281</ele>
        <time>2012-02-24T09:29:35.000Z</time>
      </trkpt>
      <trkpt lat="45.60115" lon="6.59472">
        <ele>2409.8000488281</ele>
        <time>2012-02-24T09:29:42.000Z</time>
      </trkpt>
      <trkpt lat="45.60119" lon="6.59468">
        <ele>2412.1999511719</ele>
        <time>2012-02-24T09:29:49.000Z</time>
      </trkpt>
      <trkpt lat="45.60123" lon="6.59466">
        <ele>2413</ele>
        <time>2012-02-24T09:29:55.000Z</time>
      </trkpt>
      <trkpt lat="45.60124" lon="6.59464">
        <ele>2411.3999023438</ele>
        <time>2012-02-24T09:29:59.000Z</time>
      </trkpt>
      <trkpt lat="45.60124" lon="6.59464">
        <ele>2413</ele>
        <time>2012-02-24T09:30:03.000Z</time>
      </trkpt>
      <trkpt lat="45.60125" lon="6.59471">
        <ele>2413</ele>
        <time>2012-02-24T09:30:21.000Z</time>
      </trkpt>
      <trkpt lat="45.60122" lon="6.59475">
        <ele>2414.1999511719</ele>
        <time>2012-02-24T09:30:27.000Z</time>
      </trkpt>
      <trkpt lat="45.60121" lon="6.59479">
        <ele>2416</ele>
        <time>2012-02-24T09:30:33.000Z</time>
      </trkpt>
      <trkpt lat="45.60118" lon="6.59484">
        <ele>2417.8000488281</ele>
        <time>2012-02-24T09:30:42.000Z</time>
      </trkpt>
      <trkpt lat="45.60116" lon="6.59488">
        <ele>2418.3999023438</ele>
        <time>2012-02-24T09:30:51.000Z</time>
      </trkpt>
      <trkpt lat="45.60115" lon="6.59491">
        <ele>2419.6000976562</ele>
        <time>2012-02-24T09:30:56.000Z</time>
      </trkpt>
      <trkpt lat="45.60116" lon="6.59497">
        <ele>2420.6000976562</ele>
        <time>2012-02-24T09:31:03.000Z</time>
      </trkpt>
      <trkpt lat="45.60117" lon="6.59503">
        <ele>2421.8000488281</ele>
        <time>2012-02-24T09:31:12.000Z</time>
      </trkpt>
      <trkpt lat="45.60124" lon="6.59512">
        <ele>2421.8000488281</ele>
        <time>2012-02-24T09:31:24.000Z</time>
      </trkpt>
      <trkpt lat="45.60125" lon="6.5951">
        <ele>2423.6000976562</ele>
        <time>2012-02-24T09:31:28.000Z</time>
      </trkpt>
      <trkpt lat="45.60126" lon="6.59507">
        <ele>2424.6000976562</ele>
        <time>2012-02-24T09:31:31.000Z</time>
      </trkpt>
      <trkpt lat="45.6013" lon="6.59502">
        <ele>2424.6000976562</ele>
        <time>2012-02-24T09:31:37.000Z</time>
      </trkpt>
      <trkpt lat="45.60131" lon="6.59501">
        <ele>2426.1999511719</ele>
        <time>2012-02-24T09:31:40.000Z</time>
      </trkpt>
      <trkpt lat="45.60132" lon="6.59497">
        <ele>2425.6000976562</ele>
        <time>2012-02-24T09:31:46.000Z</time>
      </trkpt>
      <trkpt lat="45.60132" lon="6.59495">
        <ele>2427</ele>
        <time>2012-02-24T09:31:48.000Z</time>
      </trkpt>
      <trkpt lat="45.60134" lon="6.59492">
        <ele>2427.6000976562</ele>
        <time>2012-02-24T09:31:53.000Z</time>
      </trkpt>
      <trkpt lat="45.60136" lon="6.59488">
        <ele>2428</ele>
        <time>2012-02-24T09:31:59.000Z</time>
      </trkpt>
      <trkpt lat="45.60137" lon="6.59487">
        <ele>2429.6000976562</ele>
        <time>2012-02-24T09:32:01.000Z</time>
      </trkpt>
      <trkpt lat="45.6014" lon="6.59483">
        <ele>2429.6000976562</ele>
        <time>2012-02-24T09:32:08.000Z</time>
      </trkpt>
      <trkpt lat="45.60143" lon="6.5948">
        <ele>2430.6000976562</ele>
        <time>2012-02-24T09:32:22.000Z</time>
      </trkpt>
      <trkpt lat="45.60147" lon="6.59474">
        <ele>2431.6000976562</ele>
        <time>2012-02-24T09:32:31.000Z</time>
      </trkpt>
      <trkpt lat="45.60149" lon="6.59472">
        <ele>2432.1999511719</ele>
        <time>2012-02-24T09:32:36.000Z</time>
      </trkpt>
      <trkpt lat="45.60153" lon="6.59471">
        <ele>2433.8000488281</ele>
        <time>2012-02-24T09:32:42.000Z</time>
      </trkpt>
      <trkpt lat="45.60157" lon="6.59469">
        <ele>2435.1999511719</ele>
        <time>2012-02-24T09:32:49.000Z</time>
      </trkpt>
      <trkpt lat="45.60158" lon="6.59476">
        <ele>2436.1999511719</ele>
        <time>2012-02-24T09:33:02.000Z</time>
      </trkpt>
      <trkpt lat="45.60158" lon="6.5948">
        <ele>2437.3999023438</ele>
        <time>2012-02-24T09:33:09.000Z</time>
      </trkpt>
      <trkpt lat="45.60159" lon="6.59484">
        <ele>2437.8000488281</ele>
        <time>2012-02-24T09:33:13.000Z</time>
      </trkpt>
      <trkpt lat="45.60162" lon="6.59489">
        <ele>2439.8000488281</ele>
        <time>2012-02-24T09:33:20.000Z</time>
      </trkpt>
      <trkpt lat="45.60165" lon="6.59492">
        <ele>2440</ele>
        <time>2012-02-24T09:33:26.000Z</time>
      </trkpt>
      <trkpt lat="45.60166" lon="6.59494">
        <ele>2440</ele>
        <time>2012-02-24T09:33:36.000Z</time>
      </trkpt>
      <trkpt lat="45.60165" lon="6.59496">
        <ele>2440</ele>
        <time>2012-02-24T09:33:45.000Z</time>
      </trkpt>
      <trkpt lat="45.60165" lon="6.59493">
        <ele>2439.3999023438</ele>
        <time>2012-02-24T09:34:01.000Z</time>
      </trkpt>
      <trkpt lat="45.60165" lon="6.59493">
        <ele>2438.3999023438</ele>
        <time>2012-02-24T09:34:16.000Z</time>
      </trkpt>
      <trkpt lat="45.60165" lon="6.59492">
        <ele>2441.1999511719</ele>
        <time>2012-02-24T09:34:23.000Z</time>
      </trkpt>
      <trkpt lat="45.60164" lon="6.59492">
        <ele>2439.8000488281</ele>
        <time>2012-02-24T09:34:27.000Z</time>
      </trkpt>
      <trkpt lat="45.60164" lon="6.59492">
        <ele>2439.6000976562</ele>
        <time>2012-02-24T09:35:15.000Z</time>
      </trkpt>
      <trkpt lat="45.6016" lon="6.59488">
        <ele>2439.3999023438</ele>
        <time>2012-02-24T09:36:59.000Z</time>
      </trkpt>
      <trkpt lat="45.60159" lon="6.59483">
        <ele>2438</ele>
        <time>2012-02-24T09:37:07.000Z</time>
      </trkpt>
      <trkpt lat="45.60158" lon="6.59482">
        <ele>2437.3999023438</ele>
        <time>2012-02-24T09:37:17.000Z</time>
      </trkpt>
      <trkpt lat="45.60159" lon="6.59486">
        <ele>2437.8000488281</ele>
        <time>2012-02-24T09:39:40.000Z</time>
      </trkpt>
      <trkpt lat="45.6016" lon="6.59486">
        <ele>2439.1999511719</ele>
        <time>2012-02-24T09:39:42.000Z</time>
      </trkpt>
      <trkpt lat="45.6016" lon="6.59486">
        <ele>2437</ele>
        <time>2012-02-24T09:39:45.000Z</time>
      </trkpt>
      <trkpt lat="45.60162" lon="6.59486">
        <ele>2438.3999023438</ele>
        <time>2012-02-24T09:39:50.000Z</time>
      </trkpt>
      <trkpt lat="45.60163" lon="6.59489">
        <ele>2439.8000488281</ele>
        <time>2012-02-24T09:39:56.000Z</time>
      </trkpt>
      <trkpt lat="45.60163" lon="6.59491">
        <ele>2440.6000976562</ele>
        <time>2012-02-24T09:40:10.000Z</time>
      </trkpt>
      <trkpt lat="45.60164" lon="6.59492">
        <ele>2440.8000488281</ele>
        <time>2012-02-24T09:41:04.000Z</time>
      </trkpt>
      <trkpt lat="45.60162" lon="6.59489">
        <ele>2440.8000488281</ele>
        <time>2012-02-24T09:42:14.000Z</time>
      </trkpt>
      <trkpt lat="45.60162" lon="6.59487">
        <ele>2441</ele>
        <time>2012-02-24T09:46:13.000Z</time>
      </trkpt>
      <trkpt lat="45.60164" lon="6.59487">
        <ele>2437</ele>
        <time>2012-02-24T09:47:18.000Z</time>
      </trkpt>
      <trkpt lat="45.60164" lon="6.59487">
        <ele>2440.6000976562</ele>
        <time>2012-02-24T09:47:21.000Z</time>
      </trkpt>
      <trkpt lat="45.60163" lon="6.59488">
        <ele>2441.1999511719</ele>
        <time>2012-02-24T09:48:51.000Z</time>
      </trkpt>
      <trkpt lat="45.60164" lon="6.59486">
        <ele>2440</ele>
        <time>2012-02-24T09:51:21.000Z</time>
      </trkpt>
      <trkpt lat="45.60163" lon="6.59491">
        <ele>2441.8000488281</ele>
        <time>2012-02-24T09:51:49.000Z</time>
      </trkpt>
      <trkpt lat="45.60162" lon="6.59493">
        <ele>2441.6000976562</ele>
        <time>2012-02-24T09:52:07.000Z</time>
      </trkpt>
      <trkpt lat="45.60163" lon="6.59493">
        <ele>2442.6000976562</ele>
        <time>2012-02-24T09:52:18.000Z</time>
      </trkpt>
      <trkpt lat="45.60162" lon="6.59495">
        <ele>2442.3999023438</ele>
        <time>2012-02-24T09:52:42.000Z</time>
      </trkpt>
      <trkpt lat="45.60163" lon="6.59494">
        <ele>2442.6000976562</ele>
        <time>2012-02-24T09:53:00.000Z</time>
      </trkpt>
      <trkpt lat="45.60163" lon="6.59493">
        <ele>2441.6000976562</ele>
        <time>2012-02-24T09:53:09.000Z</time>
      </trkpt>
      <trkpt lat="45.60162" lon="6.59492">
        <ele>2442.8000488281</ele>
        <time>2012-02-24T09:53:27.000Z</time>
      </trkpt>
      <trkpt lat="45.60162" lon="6.59492">
        <ele>2441.6000976562</ele>
        <time>2012-02-24T09:53:38.000Z</time>
      </trkpt>
      <trkpt lat="45.60157" lon="6.595">
        <ele>2442.6000976562</ele>
        <time>2012-02-24T09:54:37.000Z</time>
      </trkpt>
      <trkpt lat="45.60157" lon="6.59499">
        <ele>2442.8000488281</ele>
        <time>2012-02-24T09:54:57.000Z</time>
      </trkpt>
      <trkpt lat="45.60154" lon="6.59502">
        <ele>2442.1999511719</ele>
        <time>2012-02-24T09:55:03.000Z</time>
      </trkpt>
      <trkpt lat="45.60157" lon="6.59503">
        <ele>2440.6000976562</ele>
        <time>2012-02-24T09:56:51.000Z</time>
      </trkpt>
      <trkpt lat="45.60156" lon="6.59507">
        <ele>2439.8000488281</ele>
        <time>2012-02-24T09:56:55.000Z</time>
      </trkpt>
      <trkpt lat="45.60157" lon="6.59506">
        <ele>2439.3999023438</ele>
        <time>2012-02-24T09:57:00.000Z</time>
      </trkpt>
      <trkpt lat="45.60162" lon="6.59506">
        <ele>2437.1999511719</ele>
        <time>2012-02-24T09:57:04.000Z</time>
      </trkpt>
      <trkpt lat="45.60163" lon="6.59505">
        <ele>2436.3999023438</ele>
        <time>2012-02-24T09:57:06.000Z</time>
      </trkpt>
      <trkpt lat="45.60163" lon="6.59506">
        <ele>2436.1999511719</ele>
        <time>2012-02-24T09:57:09.000Z</time>
      </trkpt>
      <trkpt lat="45.60163" lon="6.59513">
        <ele>2435.3999023438</ele>
        <time>2012-02-24T09:57:13.000Z</time>
      </trkpt>
      <trkpt lat="45.60171" lon="6.59516">
        <ele>2430.6000976562</ele>
        <time>2012-02-24T09:57:17.000Z</time>
      </trkpt>
      <trkpt lat="45.60173" lon="6.59515">
        <ele>2429</ele>
        <time>2012-02-24T09:57:22.000Z</time>
      </trkpt>
      <trkpt lat="45.60174" lon="6.59525">
        <ele>2426</ele>
        <time>2012-02-24T09:57:27.000Z</time>
      </trkpt>
      <trkpt lat="45.60175" lon="6.59528">
        <ele>2425</ele>
        <time>2012-02-24T09:57:30.000Z</time>
      </trkpt>
      <trkpt lat="45.60175" lon="6.5953">
        <ele>2423.8000488281</ele>
        <time>2012-02-24T09:57:35.000Z</time>
      </trkpt>
      <trkpt lat="45.6018" lon="6.5953">
        <ele>2420.8000488281</ele>
        <time>2012-02-24T09:57:40.000Z</time>
      </trkpt>
      <trkpt lat="45.60181" lon="6.59532">
        <ele>2419.3999023438</ele>
        <time>2012-02-24T09:57:42.000Z</time>
      </trkpt>
      <trkpt lat="45.60182" lon="6.59536">
        <ele>2416.1999511719</ele>
        <time>2012-02-24T09:57:49.000Z</time>
      </trkpt>
      <trkpt lat="45.60187" lon="6.59539">
        <ele>2411.1999511719</ele>
        <time>2012-02-24T09:57:53.000Z</time>
      </trkpt>
      <trkpt lat="45.60193" lon="6.59538">
        <ele>2407.6000976562</ele>
        <time>2012-02-24T09:57:56.000Z</time>
      </trkpt>
      <trkpt lat="45.60195" lon="6.59539">
        <ele>2407.1999511719</ele>
        <time>2012-02-24T09:57:57.000Z</time>
      </trkpt>
      <trkpt lat="45.60199" lon="6.59544">
        <ele>2402.6000976562</ele>
        <time>2012-02-24T09:58:01.000Z</time>
      </trkpt>
      <trkpt lat="45.60205" lon="6.59554">
        <ele>2398.3999023438</ele>
        <time>2012-02-24T09:58:04.000Z</time>
      </trkpt>
      <trkpt lat="45.60212" lon="6.59547">
        <ele>2395.8000488281</ele>
        <time>2012-02-24T09:58:06.000Z</time>
      </trkpt>
      <trkpt lat="45.60217" lon="6.59544">
        <ele>2392.1999511719</ele>
        <time>2012-02-24T09:58:09.000Z</time>
      </trkpt>
      <trkpt lat="45.60211" lon="6.59532">
        <ele>2390.8000488281</ele>
        <time>2012-02-24T09:58:16.000Z</time>
      </trkpt>
      <trkpt lat="45.60219" lon="6.59535">
        <ele>2390</ele>
        <time>2012-02-24T09:58:31.000Z</time>
      </trkpt>
      <trkpt lat="45.60215" lon="6.5955">
        <ele>2389.8000488281</ele>
        <time>2012-02-24T10:00:58.000Z</time>
      </trkpt>
      <trkpt lat="45.60222" lon="6.59544">
        <ele>2387.1999511719</ele>
        <time>2012-02-24T10:01:02.000Z</time>
      </trkpt>
      <trkpt lat="45.60232" lon="6.59534">
        <ele>2382.1999511719</ele>
        <time>2012-02-24T10:01:05.000Z</time>
      </trkpt>
      <trkpt lat="45.6024" lon="6.59532">
        <ele>2376.6000976562</ele>
        <time>2012-02-24T10:01:08.000Z</time>
      </trkpt>
      <trkpt lat="45.60244" lon="6.59529">
        <ele>2373.1999511719</ele>
        <time>2012-02-24T10:01:11.000Z</time>
      </trkpt>
      <trkpt lat="45.60249" lon="6.59531">
        <ele>2368.1999511719</ele>
        <time>2012-02-24T10:01:14.000Z</time>
      </trkpt>
      <trkpt lat="45.60257" lon="6.59524">
        <ele>2363.6000976562</ele>
        <time>2012-02-24T10:01:17.000Z</time>
      </trkpt>
      <trkpt lat="45.60263" lon="6.59531">
        <ele>2359.1999511719</ele>
        <time>2012-02-24T10:01:19.000Z</time>
      </trkpt>
      <trkpt lat="45.60272" lon="6.59528">
        <ele>2353.1999511719</ele>
        <time>2012-02-24T10:01:22.000Z</time>
      </trkpt>
      <trkpt lat="45.6028" lon="6.59531">
        <ele>2345.8000488281</ele>
        <time>2012-02-24T10:01:25.000Z</time>
      </trkpt>
      <trkpt lat="45.60282" lon="6.59531">
        <ele>2344.6000976562</ele>
        <time>2012-02-24T10:01:28.000Z</time>
      </trkpt>
      <trkpt lat="45.60283" lon="6.59519">
        <ele>2341.3999023438</ele>
        <time>2012-02-24T10:01:31.000Z</time>
      </trkpt>
      <trkpt lat="45.60286" lon="6.59522">
        <ele>2340.6000976562</ele>
        <time>2012-02-24T10:01:33.000Z</time>
      </trkpt>
      <trkpt lat="45.60286" lon="6.59523">
        <ele>2337.8000488281</ele>
        <time>2012-02-24T10:01:35.000Z</time>
      </trkpt>
      <trkpt lat="45.60287" lon="6.59531">
        <ele>2336.3999023438</ele>
        <time>2012-02-24T10:01:38.000Z</time>
      </trkpt>
      <trkpt lat="45.60295" lon="6.59526">
        <ele>2334.3999023438</ele>
        <time>2012-02-24T10:01:41.000Z</time>
      </trkpt>
      <trkpt lat="45.60296" lon="6.5952">
        <ele>2333.1999511719</ele>
        <time>2012-02-24T10:01:42.000Z</time>
      </trkpt>
      <trkpt lat="45.60298" lon="6.59494">
        <ele>2329.3999023438</ele>
        <time>2012-02-24T10:01:47.000Z</time>
      </trkpt>
      <trkpt lat="45.60299" lon="6.59493">
        <ele>2328.1999511719</ele>
        <time>2012-02-24T10:01:50.000Z</time>
      </trkpt>
      <trkpt lat="45.603" lon="6.59499">
        <ele>2328</ele>
        <time>2012-02-24T10:01:57.000Z</time>
      </trkpt>
      <trkpt lat="45.603" lon="6.59502">
        <ele>2327.8000488281</ele>
        <time>2012-02-24T10:04:18.000Z</time>
      </trkpt>
      <trkpt lat="45.6031" lon="6.59502">
        <ele>2326.1999511719</ele>
        <time>2012-02-24T10:04:22.000Z</time>
      </trkpt>
      <trkpt lat="45.60314" lon="6.59507">
        <ele>2326.1999511719</ele>
        <time>2012-02-24T10:04:23.000Z</time>
      </trkpt>
      <trkpt lat="45.6032" lon="6.59506">
        <ele>2321.6000976562</ele>
        <time>2012-02-24T10:04:25.000Z</time>
      </trkpt>
      <trkpt lat="45.60328" lon="6.59516">
        <ele>2313.8000488281</ele>
        <time>2012-02-24T10:04:28.000Z</time>
      </trkpt>
      <trkpt lat="45.60336" lon="6.5952">
        <ele>2310</ele>
        <time>2012-02-24T10:04:31.000Z</time>
      </trkpt>
      <trkpt lat="45.6035" lon="6.59522">
        <ele>2303.8000488281</ele>
        <time>2012-02-24T10:04:34.000Z</time>
      </trkpt>
      <trkpt lat="45.60356" lon="6.5952">
        <ele>2300.6000976562</ele>
        <time>2012-02-24T10:04:35.000Z</time>
      </trkpt>
      <trkpt lat="45.60351" lon="6.59509">
        <ele>2295.8000488281</ele>
        <time>2012-02-24T10:04:38.000Z</time>
      </trkpt>
      <trkpt lat="45.60351" lon="6.5951">
        <ele>2295.8000488281</ele>
        <time>2012-02-24T10:04:39.000Z</time>
      </trkpt>
      <trkpt lat="45.60349" lon="6.59509">
        <ele>2295.6000976562</ele>
        <time>2012-02-24T10:04:46.000Z</time>
      </trkpt>
      <trkpt lat="45.60349" lon="6.59509">
        <ele>2295.6000976562</ele>
        <time>2012-02-24T10:04:47.000Z</time>
      </trkpt>
      <trkpt lat="45.60352" lon="6.59519">
        <ele>2294.6000976562</ele>
        <time>2012-02-24T10:04:51.000Z</time>
      </trkpt>
      <trkpt lat="45.60352" lon="6.5952">
        <ele>2292.3999023438</ele>
        <time>2012-02-24T10:04:59.000Z</time>
      </trkpt>
      <trkpt lat="45.6035" lon="6.59535">
        <ele>2292.3999023438</ele>
        <time>2012-02-24T10:05:43.000Z</time>
      </trkpt>
      <trkpt lat="45.60355" lon="6.59544">
        <ele>2291.3999023438</ele>
        <time>2012-02-24T10:05:47.000Z</time>
      </trkpt>
      <trkpt lat="45.60372" lon="6.59544">
        <ele>2287</ele>
        <time>2012-02-24T10:05:51.000Z</time>
      </trkpt>
      <trkpt lat="45.60384" lon="6.59543">
        <ele>2283</ele>
        <time>2012-02-24T10:05:54.000Z</time>
      </trkpt>
      <trkpt lat="45.60396" lon="6.59545">
        <ele>2275.3999023438</ele>
        <time>2012-02-24T10:05:58.000Z</time>
      </trkpt>
      <trkpt lat="45.60404" lon="6.59542">
        <ele>2269.3999023438</ele>
        <time>2012-02-24T10:06:01.000Z</time>
      </trkpt>
      <trkpt lat="45.60419" lon="6.59539">
        <ele>2265</ele>
        <time>2012-02-24T10:06:04.000Z</time>
      </trkpt>
      <trkpt lat="45.60429" lon="6.59531">
        <ele>2260</ele>
        <time>2012-02-24T10:06:07.000Z</time>
      </trkpt>
      <trkpt lat="45.60441" lon="6.59515">
        <ele>2253.8000488281</ele>
        <time>2012-02-24T10:06:10.000Z</time>
      </trkpt>
      <trkpt lat="45.60436" lon="6.595">
        <ele>2250.6000976562</ele>
        <time>2012-02-24T10:06:14.000Z</time>
      </trkpt>
      <trkpt lat="45.60438" lon="6.59493">
        <ele>2250</ele>
        <time>2012-02-24T10:06:20.000Z</time>
      </trkpt>
      <trkpt lat="45.6043" lon="6.59489">
        <ele>2249.8000488281</ele>
        <time>2012-02-24T10:07:58.000Z</time>
      </trkpt>
      <trkpt lat="45.60435" lon="6.59495">
        <ele>2248.1999511719</ele>
        <time>2012-02-24T10:08:03.000Z</time>
      </trkpt>
      <trkpt lat="45.60439" lon="6.59495">
        <ele>2248</ele>
        <time>2012-02-24T10:08:09.000Z</time>
      </trkpt>
      <trkpt lat="45.60449" lon="6.59502">
        <ele>2247</ele>
        <time>2012-02-24T10:08:13.000Z</time>
      </trkpt>
      <trkpt lat="45.60474" lon="6.59515">
        <ele>2240.3999023438</ele>
        <time>2012-02-24T10:08:18.000Z</time>
      </trkpt>
      <trkpt lat="45.60484" lon="6.59523">
        <ele>2235.3999023438</ele>
        <time>2012-02-24T10:08:21.000Z</time>
      </trkpt>
      <trkpt lat="45.60493" lon="6.59542">
        <ele>2231.6000976562</ele>
        <time>2012-02-24T10:08:24.000Z</time>
      </trkpt>
      <trkpt lat="45.60508" lon="6.59563">
        <ele>2223</ele>
        <time>2012-02-24T10:08:29.000Z</time>
      </trkpt>
      <trkpt lat="45.60521" lon="6.59575">
        <ele>2217.3999023438</ele>
        <time>2012-02-24T10:08:32.000Z</time>
      </trkpt>
      <trkpt lat="45.6053" lon="6.59576">
        <ele>2215</ele>
        <time>2012-02-24T10:08:34.000Z</time>
      </trkpt>
      <trkpt lat="45.60535" lon="6.59576">
        <ele>2211.6000976562</ele>
        <time>2012-02-24T10:08:37.000Z</time>
      </trkpt>
      <trkpt lat="45.60533" lon="6.59579">
        <ele>2210.3999023438</ele>
        <time>2012-02-24T10:08:41.000Z</time>
      </trkpt>
      <trkpt lat="45.60528" lon="6.59589">
        <ele>2210.3999023438</ele>
        <time>2012-02-24T10:09:57.000Z</time>
      </trkpt>
      <trkpt lat="45.60529" lon="6.59598">
        <ele>2209.6000976562</ele>
        <time>2012-02-24T10:10:01.000Z</time>
      </trkpt>
      <trkpt lat="45.60536" lon="6.59636">
        <ele>2204.8000488281</ele>
        <time>2012-02-24T10:10:07.000Z</time>
      </trkpt>
      <trkpt lat="45.60553" lon="6.59663">
        <ele>2198.3999023438</ele>
        <time>2012-02-24T10:10:12.000Z</time>
      </trkpt>
      <trkpt lat="45.60562" lon="6.59685">
        <ele>2194.6000976562</ele>
        <time>2012-02-24T10:10:15.000Z</time>
      </trkpt>
      <trkpt lat="45.60588" lon="6.59729">
        <ele>2186.6000976562</ele>
        <time>2012-02-24T10:10:20.000Z</time>
      </trkpt>
      <trkpt lat="45.60612" lon="6.59765">
        <ele>2181</ele>
        <time>2012-02-24T10:10:24.000Z</time>
      </trkpt>
      <trkpt lat="45.60647" lon="6.59804">
        <ele>2174.6000976562</ele>
        <time>2012-02-24T10:10:29.000Z</time>
      </trkpt>
      <trkpt lat="45.60695" lon="6.59854">
        <ele>2164.8000488281</ele>
        <time>2012-02-24T10:10:35.000Z</time>
      </trkpt>
      <trkpt lat="45.60727" lon="6.59886">
        <ele>2159.3999023438</ele>
        <time>2012-02-24T10:10:39.000Z</time>
      </trkpt>
      <trkpt lat="45.60735" lon="6.59893">
        <ele>2158.3999023438</ele>
        <time>2012-02-24T10:10:40.000Z</time>
      </trkpt>
      <trkpt lat="45.60784" lon="6.59915">
        <ele>2151</ele>
        <time>2012-02-24T10:10:46.000Z</time>
      </trkpt>
      <trkpt lat="45.60805" lon="6.59922">
        <ele>2148.6000976562</ele>
        <time>2012-02-24T10:10:49.000Z</time>
      </trkpt>
      <trkpt lat="45.60821" lon="6.5993">
        <ele>2147</ele>
        <time>2012-02-24T10:10:52.000Z</time>
      </trkpt>
      <trkpt lat="45.60837" lon="6.59943">
        <ele>2147.3999023438</ele>
        <time>2012-02-24T10:10:57.000Z</time>
      </trkpt>
      <trkpt lat="45.60841" lon="6.59945">
        <ele>2147.1999511719</ele>
        <time>2012-02-24T10:10:58.000Z</time>
      </trkpt>
      <trkpt lat="45.60853" lon="6.59957">
        <ele>2145.3999023438</ele>
        <time>2012-02-24T10:11:02.000Z</time>
      </trkpt>
      <trkpt lat="45.6087" lon="6.5997">
        <ele>2145</ele>
        <time>2012-02-24T10:11:09.000Z</time>
      </trkpt>
      <trkpt lat="45.60879" lon="6.59979">
        <ele>2145.1999511719</ele>
        <time>2012-02-24T10:11:16.000Z</time>
      </trkpt>
      <trkpt lat="45.60882" lon="6.59987">
        <ele>2146.1999511719</ele>
        <time>2012-02-24T10:11:22.000Z</time>
      </trkpt>
      <trkpt lat="45.60888" lon="6.59995">
        <ele>2146</ele>
        <time>2012-02-24T10:11:29.000Z</time>
      </trkpt>
      <trkpt lat="45.60895" lon="6.59999">
        <ele>2145.6000976562</ele>
        <time>2012-02-24T10:11:37.000Z</time>
      </trkpt>
      <trkpt lat="45.60903" lon="6.60001">
        <ele>2145.1999511719</ele>
        <time>2012-02-24T10:11:44.000Z</time>
      </trkpt>
      <trkpt lat="45.60908" lon="6.60005">
        <ele>2145.8000488281</ele>
        <time>2012-02-24T10:11:51.000Z</time>
      </trkpt>
      <trkpt lat="45.60915" lon="6.6001">
        <ele>2145.8000488281</ele>
        <time>2012-02-24T10:11:59.000Z</time>
      </trkpt>
      <trkpt lat="45.60924" lon="6.60019">
        <ele>2145</ele>
        <time>2012-02-24T10:12:04.000Z</time>
      </trkpt>
      <trkpt lat="45.60938" lon="6.60036">
        <ele>2144</ele>
        <time>2012-02-24T10:12:11.000Z</time>
      </trkpt>
      <trkpt lat="45.60948" lon="6.60047">
        <ele>2144</ele>
        <time>2012-02-24T10:12:18.000Z</time>
      </trkpt>
      <trkpt lat="45.60955" lon="6.60058">
        <ele>2142.8000488281</ele>
        <time>2012-02-24T10:12:25.000Z</time>
      </trkpt>
      <trkpt lat="45.60961" lon="6.60065">
        <ele>2143.1999511719</ele>
        <time>2012-02-24T10:12:32.000Z</time>
      </trkpt>
      <trkpt lat="45.60968" lon="6.60071">
        <ele>2143</ele>
        <time>2012-02-24T10:12:39.000Z</time>
      </trkpt>
      <trkpt lat="45.60977" lon="6.60076">
        <ele>2142.6000976562</ele>
        <time>2012-02-24T10:12:45.000Z</time>
      </trkpt>
      <trkpt lat="45.60989" lon="6.60088">
        <ele>2141.6000976562</ele>
        <time>2012-02-24T10:12:52.000Z</time>
      </trkpt>
      <trkpt lat="45.61008" lon="6.60103">
        <ele>2140.3999023438</ele>
        <time>2012-02-24T10:13:00.000Z</time>
      </trkpt>
      <trkpt lat="45.61026" lon="6.60125">
        <ele>2138.3999023438</ele>
        <time>2012-02-24T10:13:06.000Z</time>
      </trkpt>
      <trkpt lat="45.61052" lon="6.60156">
        <ele>2135.3999023438</ele>
        <time>2012-02-24T10:13:13.000Z</time>
      </trkpt>
      <trkpt lat="45.61067" lon="6.60175">
        <ele>2133.8000488281</ele>
        <time>2012-02-24T10:13:18.000Z</time>
      </trkpt>
      <trkpt lat="45.61086" lon="6.602">
        <ele>2132.6000976562</ele>
        <time>2012-02-24T10:13:27.000Z</time>
      </trkpt>
      <trkpt lat="45.61101" lon="6.6022">
        <ele>2131.1999511719</ele>
        <time>2012-02-24T10:13:34.000Z</time>
      </trkpt>
      <trkpt lat="45.61123" lon="6.60242">
        <ele>2127.8000488281</ele>
        <time>2012-02-24T10:13:39.000Z</time>
      </trkpt>
      <trkpt lat="45.61128" lon="6.60246">
        <ele>2127.1999511719</ele>
        <time>2012-02-24T10:13:40.000Z</time>
      </trkpt>
      <trkpt lat="45.61145" lon="6.6027">
        <ele>2125</ele>
        <time>2012-02-24T10:13:45.000Z</time>
      </trkpt>
      <trkpt lat="45.61155" lon="6.6029">
        <ele>2124.8000488281</ele>
        <time>2012-02-24T10:13:52.000Z</time>
      </trkpt>
      <trkpt lat="45.61164" lon="6.60308">
        <ele>2123</ele>
        <time>2012-02-24T10:13:58.000Z</time>
      </trkpt>
      <trkpt lat="45.61164" lon="6.60318">
        <ele>2122.1999511719</ele>
        <time>2012-02-24T10:14:02.000Z</time>
      </trkpt>
      <trkpt lat="45.61165" lon="6.60325">
        <ele>2119.6000976562</ele>
        <time>2012-02-24T10:17:15.000Z</time>
      </trkpt>
      <trkpt lat="45.61161" lon="6.60349">
        <ele>2118.1999511719</ele>
        <time>2012-02-24T10:17:22.000Z</time>
      </trkpt>
      <trkpt lat="45.61159" lon="6.60364">
        <ele>2117.1999511719</ele>
        <time>2012-02-24T10:17:24.000Z</time>
      </trkpt>
      <trkpt lat="45.61152" lon="6.60391">
        <ele>2113.8000488281</ele>
        <time>2012-02-24T10:17:28.000Z</time>
      </trkpt>
      <trkpt lat="45.61149" lon="6.60401">
        <ele>2113</ele>
        <time>2012-02-24T10:17:30.000Z</time>
      </trkpt>
      <trkpt lat="45.61146" lon="6.60412">
        <ele>2112.3999023438</ele>
        <time>2012-02-24T10:17:32.000Z</time>
      </trkpt>
      <trkpt lat="45.61137" lon="6.60438">
        <ele>2108.8000488281</ele>
        <time>2012-02-24T10:17:36.000Z</time>
      </trkpt>
      <trkpt lat="45.61133" lon="6.60459">
        <ele>2106</ele>
        <time>2012-02-24T10:17:39.000Z</time>
      </trkpt>
      <trkpt lat="45.61133" lon="6.60493">
        <ele>2102</ele>
        <time>2012-02-24T10:17:44.000Z</time>
      </trkpt>
      <trkpt lat="45.61141" lon="6.60518">
        <ele>2097.8000488281</ele>
        <time>2012-02-24T10:17:48.000Z</time>
      </trkpt>
      <trkpt lat="45.61146" lon="6.60534">
        <ele>2094.1999511719</ele>
        <time>2012-02-24T10:17:50.000Z</time>
      </trkpt>
      <trkpt lat="45.61167" lon="6.60564">
        <ele>2082.3999023438</ele>
        <time>2012-02-24T10:17:55.000Z</time>
      </trkpt>
      <trkpt lat="45.61169" lon="6.6057">
        <ele>2079.8000488281</ele>
        <time>2012-02-24T10:17:56.000Z</time>
      </trkpt>
      <trkpt lat="45.61173" lon="6.60602">
        <ele>2073.6000976562</ele>
        <time>2012-02-24T10:18:01.000Z</time>
      </trkpt>
      <trkpt lat="45.61172" lon="6.60606">
        <ele>2073.1999511719</ele>
        <time>2012-02-24T10:18:03.000Z</time>
      </trkpt>
      <trkpt lat="45.61177" lon="6.60618">
        <ele>2072</ele>
        <time>2012-02-24T10:18:07.000Z</time>
      </trkpt>
      <trkpt lat="45.61189" lon="6.60663">
        <ele>2065.6000976562</ele>
        <time>2012-02-24T10:18:12.000Z</time>
      </trkpt>
      <trkpt lat="45.61192" lon="6.6069">
        <ele>2063.1999511719</ele>
        <time>2012-02-24T10:18:16.000Z</time>
      </trkpt>
      <trkpt lat="45.61191" lon="6.60694">
        <ele>2063</ele>
        <time>2012-02-24T10:18:17.000Z</time>
      </trkpt>
      <trkpt lat="45.61191" lon="6.60695">
        <ele>2062.6000976562</ele>
        <time>2012-02-24T10:18:21.000Z</time>
      </trkpt>
      <trkpt lat="45.61191" lon="6.60688">
        <ele>2062.8000488281</ele>
        <time>2012-02-24T10:18:47.000Z</time>
      </trkpt>
      <trkpt lat="45.6119" lon="6.60685">
        <ele>2062.6000976562</ele>
        <time>2012-02-24T10:19:14.000Z</time>
      </trkpt>
      <trkpt lat="45.61185" lon="6.60686">
        <ele>2063</ele>
        <time>2012-02-24T10:21:42.000Z</time>
      </trkpt>
      <trkpt lat="45.61187" lon="6.60688">
        <ele>2062.8000488281</ele>
        <time>2012-02-24T10:22:37.000Z</time>
      </trkpt>
      <trkpt lat="45.61186" lon="6.60686">
        <ele>2063.8000488281</ele>
        <time>2012-02-24T10:22:46.000Z</time>
      </trkpt>
      <trkpt lat="45.61185" lon="6.6069">
        <ele>2061.3999023438</ele>
        <time>2012-02-24T10:29:01.000Z</time>
      </trkpt>
      <trkpt lat="45.61182" lon="6.60695">
        <ele>2062.6000976562</ele>
        <time>2012-02-24T10:29:08.000Z</time>
      </trkpt>
      <trkpt lat="45.61178" lon="6.60702">
        <ele>2064.1999511719</ele>
        <time>2012-02-24T10:29:18.000Z</time>
      </trkpt>
      <trkpt lat="45.61177" lon="6.60703">
        <ele>2064.1999511719</ele>
        <time>2012-02-24T10:29:27.000Z</time>
      </trkpt>
      <trkpt lat="45.61176" lon="6.60704">
        <ele>2065</ele>
        <time>2012-02-24T10:29:37.000Z</time>
      </trkpt>
      <trkpt lat="45.6117" lon="6.60711">
        <ele>2065.8000488281</ele>
        <time>2012-02-24T10:29:46.000Z</time>
      </trkpt>
      <trkpt lat="45.61169" lon="6.60712">
        <ele>2066.6000976562</ele>
        <time>2012-02-24T10:29:48.000Z</time>
      </trkpt>
      <trkpt lat="45.61169" lon="6.60708">
        <ele>2067.3999023438</ele>
        <time>2012-02-24T10:29:55.000Z</time>
      </trkpt>
      <trkpt lat="45.61169" lon="6.60702">
        <ele>2069.3999023438</ele>
        <time>2012-02-24T10:30:02.000Z</time>
      </trkpt>
      <trkpt lat="45.61168" lon="6.60696">
        <ele>2069.3999023438</ele>
        <time>2012-02-24T10:30:09.000Z</time>
      </trkpt>
      <trkpt lat="45.61167" lon="6.60692">
        <ele>2071.1999511719</ele>
        <time>2012-02-24T10:30:14.000Z</time>
      </trkpt>
      <trkpt lat="45.61166" lon="6.60689">
        <ele>2070.8000488281</ele>
        <time>2012-02-24T10:30:19.000Z</time>
      </trkpt>
      <trkpt lat="45.61162" lon="6.6069">
        <ele>2072.6000976562</ele>
        <time>2012-02-24T10:30:26.000Z</time>
      </trkpt>
      <trkpt lat="45.61157" lon="6.60693">
        <ele>2074.3999023438</ele>
        <time>2012-02-24T10:30:33.000Z</time>
      </trkpt>
      <trkpt lat="45.61153" lon="6.60696">
        <ele>2075.8000488281</ele>
        <time>2012-02-24T10:30:41.000Z</time>
      </trkpt>
      <trkpt lat="45.61147" lon="6.607">
        <ele>2076.1999511719</ele>
        <time>2012-02-24T10:30:50.000Z</time>
      </trkpt>
      <trkpt lat="45.61144" lon="6.60701">
        <ele>2077.8000488281</ele>
        <time>2012-02-24T10:30:54.000Z</time>
      </trkpt>
      <trkpt lat="45.61138" lon="6.60705">
        <ele>2077</ele>
        <time>2012-02-24T10:31:02.000Z</time>
      </trkpt>
      <trkpt lat="45.61133" lon="6.60708">
        <ele>2077.8000488281</ele>
        <time>2012-02-24T10:31:09.000Z</time>
      </trkpt>
      <trkpt lat="45.61128" lon="6.60712">
        <ele>2077.6000976562</ele>
        <time>2012-02-24T10:31:16.000Z</time>
      </trkpt>
      <trkpt lat="45.61122" lon="6.60716">
        <ele>2081</ele>
        <time>2012-02-24T10:31:25.000Z</time>
      </trkpt>
      <trkpt lat="45.61119" lon="6.60719">
        <ele>2080</ele>
        <time>2012-02-24T10:31:30.000Z</time>
      </trkpt>
      <trkpt lat="45.61114" lon="6.60728">
        <ele>2081.3999023438</ele>
        <time>2012-02-24T10:31:39.000Z</time>
      </trkpt>
      <trkpt lat="45.6111" lon="6.60734">
        <ele>2082</ele>
        <time>2012-02-24T10:31:47.000Z</time>
      </trkpt>
      <trkpt lat="45.61105" lon="6.60741">
        <ele>2082.3999023438</ele>
        <time>2012-02-24T10:31:55.000Z</time>
      </trkpt>
      <trkpt lat="45.61098" lon="6.60753">
        <ele>2084</ele>
        <time>2012-02-24T10:32:06.000Z</time>
      </trkpt>
      <trkpt lat="45.61092" lon="6.60762">
        <ele>2084</ele>
        <time>2012-02-24T10:32:15.000Z</time>
      </trkpt>
      <trkpt lat="45.61087" lon="6.60768">
        <ele>2084.6000976562</ele>
        <time>2012-02-24T10:32:23.000Z</time>
      </trkpt>
      <trkpt lat="45.61081" lon="6.60773">
        <ele>2085.1999511719</ele>
        <time>2012-02-24T10:32:31.000Z</time>
      </trkpt>
      <trkpt lat="45.61075" lon="6.60783">
        <ele>2086.3999023438</ele>
        <time>2012-02-24T10:32:41.000Z</time>
      </trkpt>
      <trkpt lat="45.61075" lon="6.60784">
        <ele>2086.3999023438</ele>
        <time>2012-02-24T10:32:42.000Z</time>
      </trkpt>
      <trkpt lat="45.6107" lon="6.6079">
        <ele>2087.3999023438</ele>
        <time>2012-02-24T10:32:50.000Z</time>
      </trkpt>
      <trkpt lat="45.61067" lon="6.60796">
        <ele>2087.1999511719</ele>
        <time>2012-02-24T10:32:58.000Z</time>
      </trkpt>
      <trkpt lat="45.61063" lon="6.60803">
        <ele>2088.3999023438</ele>
        <time>2012-02-24T10:33:06.000Z</time>
      </trkpt>
      <trkpt lat="45.61061" lon="6.60812">
        <ele>2089.3999023438</ele>
        <time>2012-02-24T10:33:14.000Z</time>
      </trkpt>
      <trkpt lat="45.61062" lon="6.60824">
        <ele>2091</ele>
        <time>2012-02-24T10:33:23.000Z</time>
      </trkpt>
      <trkpt lat="45.61064" lon="6.60835">
        <ele>2090.1999511719</ele>
        <time>2012-02-24T10:33:31.000Z</time>
      </trkpt>
      <trkpt lat="45.61068" lon="6.60844">
        <ele>2092.6000976562</ele>
        <time>2012-02-24T10:33:39.000Z</time>
      </trkpt>
      <trkpt lat="45.61071" lon="6.60852">
        <ele>2093</ele>
        <time>2012-02-24T10:33:47.000Z</time>
      </trkpt>
      <trkpt lat="45.61073" lon="6.60858">
        <ele>2094.8000488281</ele>
        <time>2012-02-24T10:33:55.000Z</time>
      </trkpt>
      <trkpt lat="45.61073" lon="6.6086">
        <ele>2095</ele>
        <time>2012-02-24T10:35:03.000Z</time>
      </trkpt>
      <trkpt lat="45.61073" lon="6.60871">
        <ele>2096.3999023438</ele>
        <time>2012-02-24T10:35:12.000Z</time>
      </trkpt>
      <trkpt lat="45.61076" lon="6.60881">
        <ele>2097.3999023438</ele>
        <time>2012-02-24T10:35:20.000Z</time>
      </trkpt>
      <trkpt lat="45.61079" lon="6.60889">
        <ele>2098.3999023438</ele>
        <time>2012-02-24T10:35:28.000Z</time>
      </trkpt>
      <trkpt lat="45.61074" lon="6.6089">
        <ele>2098.6000976562</ele>
        <time>2012-02-24T10:35:36.000Z</time>
      </trkpt>
      <trkpt lat="45.61067" lon="6.60891">
        <ele>2101.3999023438</ele>
        <time>2012-02-24T10:35:46.000Z</time>
      </trkpt>
      <trkpt lat="45.61061" lon="6.60891">
        <ele>2102.1999511719</ele>
        <time>2012-02-24T10:35:55.000Z</time>
      </trkpt>
      <trkpt lat="45.61054" lon="6.6089">
        <ele>2103.6000976562</ele>
        <time>2012-02-24T10:36:06.000Z</time>
      </trkpt>
      <trkpt lat="45.6105" lon="6.60892">
        <ele>2106.3999023438</ele>
        <time>2012-02-24T10:36:16.000Z</time>
      </trkpt>
      <trkpt lat="45.61051" lon="6.60901">
        <ele>2108.1999511719</ele>
        <time>2012-02-24T10:36:25.000Z</time>
      </trkpt>
      <trkpt lat="45.61053" lon="6.6091">
        <ele>2109.3999023438</ele>
        <time>2012-02-24T10:36:35.000Z</time>
      </trkpt>
      <trkpt lat="45.61053" lon="6.60912">
        <ele>2110.8000488281</ele>
        <time>2012-02-24T10:36:38.000Z</time>
      </trkpt>
      <trkpt lat="45.61053" lon="6.60913">
        <ele>2111</ele>
        <time>2012-02-24T10:36:39.000Z</time>
      </trkpt>
      <trkpt lat="45.61054" lon="6.60922">
        <ele>2111.6000976562</ele>
        <time>2012-02-24T10:36:47.000Z</time>
      </trkpt>
      <trkpt lat="45.61054" lon="6.60925">
        <ele>2112.8000488281</ele>
        <time>2012-02-24T10:36:50.000Z</time>
      </trkpt>
      <trkpt lat="45.61051" lon="6.60928">
        <ele>2112.1999511719</ele>
        <time>2012-02-24T10:36:56.000Z</time>
      </trkpt>
      <trkpt lat="45.61047" lon="6.60934">
        <ele>2114.1999511719</ele>
        <time>2012-02-24T10:37:06.000Z</time>
      </trkpt>
      <trkpt lat="45.61044" lon="6.60939">
        <ele>2116.6000976562</ele>
        <time>2012-02-24T10:37:13.000Z</time>
      </trkpt>
      <trkpt lat="45.61043" lon="6.6094">
        <ele>2117.1999511719</ele>
        <time>2012-02-24T10:37:15.000Z</time>
      </trkpt>
      <trkpt lat="45.61038" lon="6.60946">
        <ele>2118.3999023438</ele>
        <time>2012-02-24T10:37:24.000Z</time>
      </trkpt>
      <trkpt lat="45.61035" lon="6.60952">
        <ele>2119.1999511719</ele>
        <time>2012-02-24T10:37:32.000Z</time>
      </trkpt>
      <trkpt lat="45.61032" lon="6.60958">
        <ele>2120.8000488281</ele>
        <time>2012-02-24T10:37:39.000Z</time>
      </trkpt>
      <trkpt lat="45.61028" lon="6.60965">
        <ele>2120.3999023438</ele>
        <time>2012-02-24T10:37:48.000Z</time>
      </trkpt>
      <trkpt lat="45.61025" lon="6.60971">
        <ele>2123.1999511719</ele>
        <time>2012-02-24T10:37:55.000Z</time>
      </trkpt>
      <trkpt lat="45.6102" lon="6.60979">
        <ele>2122.8000488281</ele>
        <time>2012-02-24T10:38:05.000Z</time>
      </trkpt>
      <trkpt lat="45.6102" lon="6.6098">
        <ele>2123.3999023438</ele>
        <time>2012-02-24T10:38:07.000Z</time>
      </trkpt>
      <trkpt lat="45.61018" lon="6.60987">
        <ele>2126.8000488281</ele>
        <time>2012-02-24T10:38:14.000Z</time>
      </trkpt>
      <trkpt lat="45.61016" lon="6.60996">
        <ele>2127.3999023438</ele>
        <time>2012-02-24T10:38:23.000Z</time>
      </trkpt>
      <trkpt lat="45.61011" lon="6.61004">
        <ele>2128.1999511719</ele>
        <time>2012-02-24T10:38:33.000Z</time>
      </trkpt>
      <trkpt lat="45.61007" lon="6.61011">
        <ele>2130.1999511719</ele>
        <time>2012-02-24T10:38:42.000Z</time>
      </trkpt>
      <trkpt lat="45.61003" lon="6.6102">
        <ele>2133.3999023438</ele>
        <time>2012-02-24T10:38:53.000Z</time>
      </trkpt>
      <trkpt lat="45.61002" lon="6.61024">
        <ele>2134</ele>
        <time>2012-02-24T10:39:01.000Z</time>
      </trkpt>
      <trkpt lat="45.61001" lon="6.61017">
        <ele>2134.3999023438</ele>
        <time>2012-02-24T10:40:24.000Z</time>
      </trkpt>
      <trkpt lat="45.60995" lon="6.61007">
        <ele>2134.1999511719</ele>
        <time>2012-02-24T10:40:35.000Z</time>
      </trkpt>
      <trkpt lat="45.60996" lon="6.61008">
        <ele>2133.8000488281</ele>
        <time>2012-02-24T10:41:00.000Z</time>
      </trkpt>
      <trkpt lat="45.61" lon="6.61015">
        <ele>2134.1999511719</ele>
        <time>2012-02-24T10:41:09.000Z</time>
      </trkpt>
      <trkpt lat="45.61" lon="6.61017">
        <ele>2134.1999511719</ele>
        <time>2012-02-24T10:41:19.000Z</time>
      </trkpt>
      <trkpt lat="45.61" lon="6.61027">
        <ele>2135.8000488281</ele>
        <time>2012-02-24T10:45:40.000Z</time>
      </trkpt>
      <trkpt lat="45.60997" lon="6.61038">
        <ele>2137.3999023438</ele>
        <time>2012-02-24T10:45:51.000Z</time>
      </trkpt>
      <trkpt lat="45.60996" lon="6.61044">
        <ele>2138.1999511719</ele>
        <time>2012-02-24T10:45:58.000Z</time>
      </trkpt>
      <trkpt lat="45.60995" lon="6.61045">
        <ele>2138.1999511719</ele>
        <time>2012-02-24T10:46:00.000Z</time>
      </trkpt>
      <trkpt lat="45.60989" lon="6.61051">
        <ele>2139.8000488281</ele>
        <time>2012-02-24T10:46:10.000Z</time>
      </trkpt>
      <trkpt lat="45.60983" lon="6.61055">
        <ele>2142.6000976562</ele>
        <time>2012-02-24T10:46:19.000Z</time>
      </trkpt>
      <trkpt lat="45.60978" lon="6.6106">
        <ele>2143.6000976562</ele>
        <time>2012-02-24T10:46:28.000Z</time>
      </trkpt>
      <trkpt lat="45.60974" lon="6.61064">
        <ele>2143.8000488281</ele>
        <time>2012-02-24T10:46:35.000Z</time>
      </trkpt>
      <trkpt lat="45.6097" lon="6.61071">
        <ele>2146.6000976562</ele>
        <time>2012-02-24T10:46:43.000Z</time>
      </trkpt>
      <trkpt lat="45.60965" lon="6.61079">
        <ele>2148.3999023438</ele>
        <time>2012-02-24T10:46:54.000Z</time>
      </trkpt>
      <trkpt lat="45.60959" lon="6.61084">
        <ele>2147</ele>
        <time>2012-02-24T10:47:02.000Z</time>
      </trkpt>
      <trkpt lat="45.60954" lon="6.61091">
        <ele>2148</ele>
        <time>2012-02-24T10:47:10.000Z</time>
      </trkpt>
      <trkpt lat="45.60947" lon="6.61099">
        <ele>2148.3999023438</ele>
        <time>2012-02-24T10:47:20.000Z</time>
      </trkpt>
      <trkpt lat="45.60941" lon="6.61105">
        <ele>2148.3999023438</ele>
        <time>2012-02-24T10:47:28.000Z</time>
      </trkpt>
      <trkpt lat="45.60935" lon="6.6112">
        <ele>2148.8000488281</ele>
        <time>2012-02-24T10:47:39.000Z</time>
      </trkpt>
      <trkpt lat="45.60932" lon="6.6113">
        <ele>2149.1999511719</ele>
        <time>2012-02-24T10:47:47.000Z</time>
      </trkpt>
      <trkpt lat="45.60932" lon="6.61131">
        <ele>2148.8000488281</ele>
        <time>2012-02-24T10:47:48.000Z</time>
      </trkpt>
      <trkpt lat="45.6093" lon="6.6114">
        <ele>2150.1999511719</ele>
        <time>2012-02-24T10:47:55.000Z</time>
      </trkpt>
      <trkpt lat="45.60928" lon="6.61148">
        <ele>2150.3999023438</ele>
        <time>2012-02-24T10:48:03.000Z</time>
      </trkpt>
      <trkpt lat="45.60926" lon="6.61154">
        <ele>2152.8000488281</ele>
        <time>2012-02-24T10:48:09.000Z</time>
      </trkpt>
      <trkpt lat="45.60925" lon="6.61164">
        <ele>2152.6000976562</ele>
        <time>2012-02-24T10:48:18.000Z</time>
      </trkpt>
      <trkpt lat="45.60925" lon="6.61173">
        <ele>2154.8000488281</ele>
        <time>2012-02-24T10:48:27.000Z</time>
      </trkpt>
      <trkpt lat="45.60925" lon="6.61175">
        <ele>2155.8000488281</ele>
        <time>2012-02-24T10:48:29.000Z</time>
      </trkpt>
      <trkpt lat="45.60925" lon="6.61185">
        <ele>2155.3999023438</ele>
        <time>2012-02-24T10:48:39.000Z</time>
      </trkpt>
      <trkpt lat="45.60925" lon="6.61189">
        <ele>2156.8000488281</ele>
        <time>2012-02-24T10:48:43.000Z</time>
      </trkpt>
      <trkpt lat="45.60923" lon="6.61199">
        <ele>2157.8000488281</ele>
        <time>2012-02-24T10:48:53.000Z</time>
      </trkpt>
      <trkpt lat="45.60921" lon="6.61207">
        <ele>2157.3999023438</ele>
        <time>2012-02-24T10:49:00.000Z</time>
      </trkpt>
      <trkpt lat="45.60919" lon="6.61216">
        <ele>2158.6000976562</ele>
        <time>2012-02-24T10:49:08.000Z</time>
      </trkpt>
      <trkpt lat="45.60916" lon="6.61225">
        <ele>2160.3999023438</ele>
        <time>2012-02-24T10:49:16.000Z</time>
      </trkpt>
      <trkpt lat="45.60912" lon="6.61232">
        <ele>2161.1999511719</ele>
        <time>2012-02-24T10:49:24.000Z</time>
      </trkpt>
      <trkpt lat="45.60907" lon="6.61238">
        <ele>2161.6000976562</ele>
        <time>2012-02-24T10:49:31.000Z</time>
      </trkpt>
      <trkpt lat="45.60901" lon="6.61244">
        <ele>2162.8000488281</ele>
        <time>2012-02-24T10:49:40.000Z</time>
      </trkpt>
      <trkpt lat="45.60895" lon="6.6125">
        <ele>2164</ele>
        <time>2012-02-24T10:49:50.000Z</time>
      </trkpt>
      <trkpt lat="45.60887" lon="6.61257">
        <ele>2166.1999511719</ele>
        <time>2012-02-24T10:50:01.000Z</time>
      </trkpt>
      <trkpt lat="45.60883" lon="6.61261">
        <ele>2166.1999511719</ele>
        <time>2012-02-24T10:50:08.000Z</time>
      </trkpt>
      <trkpt lat="45.60878" lon="6.61265">
        <ele>2166</ele>
        <time>2012-02-24T10:50:15.000Z</time>
      </trkpt>
      <trkpt lat="45.60873" lon="6.61271">
        <ele>2166.8000488281</ele>
        <time>2012-02-24T10:50:24.000Z</time>
      </trkpt>
      <trkpt lat="45.60866" lon="6.61276">
        <ele>2168.6000976562</ele>
        <time>2012-02-24T10:50:34.000Z</time>
      </trkpt>
      <trkpt lat="45.60864" lon="6.61277">
        <ele>2169.1999511719</ele>
        <time>2012-02-24T10:50:37.000Z</time>
      </trkpt>
      <trkpt lat="45.60861" lon="6.61281">
        <ele>2169.8000488281</ele>
        <time>2012-02-24T10:50:42.000Z</time>
      </trkpt>
      <trkpt lat="45.60853" lon="6.6128">
        <ele>2173.8000488281</ele>
        <time>2012-02-24T10:50:53.000Z</time>
      </trkpt>
      <trkpt lat="45.60845" lon="6.6128">
        <ele>2173.6000976562</ele>
        <time>2012-02-24T10:51:04.000Z</time>
      </trkpt>
      <trkpt lat="45.60843" lon="6.6128">
        <ele>2174.6000976562</ele>
        <time>2012-02-24T10:51:06.000Z</time>
      </trkpt>
      <trkpt lat="45.60838" lon="6.61281">
        <ele>2177.3999023438</ele>
        <time>2012-02-24T10:51:14.000Z</time>
      </trkpt>
      <trkpt lat="45.60833" lon="6.61281">
        <ele>2176.3999023438</ele>
        <time>2012-02-24T10:51:21.000Z</time>
      </trkpt>
      <trkpt lat="45.60829" lon="6.61282">
        <ele>2178.1999511719</ele>
        <time>2012-02-24T10:51:28.000Z</time>
      </trkpt>
      <trkpt lat="45.60824" lon="6.61281">
        <ele>2179.8000488281</ele>
        <time>2012-02-24T10:51:37.000Z</time>
      </trkpt>
      <trkpt lat="45.60821" lon="6.61278">
        <ele>2182.3999023438</ele>
        <time>2012-02-24T10:51:43.000Z</time>
      </trkpt>
      <trkpt lat="45.60816" lon="6.61273">
        <ele>2181.6000976562</ele>
        <time>2012-02-24T10:51:53.000Z</time>
      </trkpt>
      <trkpt lat="45.60811" lon="6.61269">
        <ele>2184.3999023438</ele>
        <time>2012-02-24T10:52:02.000Z</time>
      </trkpt>
      <trkpt lat="45.60807" lon="6.61267">
        <ele>2185.3999023438</ele>
        <time>2012-02-24T10:52:08.000Z</time>
      </trkpt>
      <trkpt lat="45.60805" lon="6.61266">
        <ele>2186.8000488281</ele>
        <time>2012-02-24T10:52:11.000Z</time>
      </trkpt>
      <trkpt lat="45.608" lon="6.61265">
        <ele>2186.8000488281</ele>
        <time>2012-02-24T10:52:19.000Z</time>
      </trkpt>
      <trkpt lat="45.60798" lon="6.61265">
        <ele>2187.8000488281</ele>
        <time>2012-02-24T10:52:22.000Z</time>
      </trkpt>
      <trkpt lat="45.60794" lon="6.61266">
        <ele>2189.6000976562</ele>
        <time>2012-02-24T10:52:26.000Z</time>
      </trkpt>
      <trkpt lat="45.60793" lon="6.61266">
        <ele>2190.6000976562</ele>
        <time>2012-02-24T10:52:28.000Z</time>
      </trkpt>
      <trkpt lat="45.60786" lon="6.61263">
        <ele>2189.3999023438</ele>
        <time>2012-02-24T10:52:38.000Z</time>
      </trkpt>
      <trkpt lat="45.60783" lon="6.61261">
        <ele>2190.8000488281</ele>
        <time>2012-02-24T10:52:43.000Z</time>
      </trkpt>
      <trkpt lat="45.60777" lon="6.61261">
        <ele>2193.6000976562</ele>
        <time>2012-02-24T10:52:50.000Z</time>
      </trkpt>
      <trkpt lat="45.60772" lon="6.61261">
        <ele>2192.3999023438</ele>
        <time>2012-02-24T10:52:56.000Z</time>
      </trkpt>
      <trkpt lat="45.60765" lon="6.61258">
        <ele>2192.8000488281</ele>
        <time>2012-02-24T10:53:05.000Z</time>
      </trkpt>
      <trkpt lat="45.60762" lon="6.61257">
        <ele>2194.6000976562</ele>
        <time>2012-02-24T10:53:09.000Z</time>
      </trkpt>
      <trkpt lat="45.60756" lon="6.61253">
        <ele>2197</ele>
        <time>2012-02-24T10:53:18.000Z</time>
      </trkpt>
      <trkpt lat="45.6075" lon="6.6125">
        <ele>2197.8000488281</ele>
        <time>2012-02-24T10:53:27.000Z</time>
      </trkpt>
      <trkpt lat="45.60744" lon="6.61248">
        <ele>2199.1999511719</ele>
        <time>2012-02-24T10:53:36.000Z</time>
      </trkpt>
      <trkpt lat="45.60735" lon="6.61244">
        <ele>2198.6000976562</ele>
        <time>2012-02-24T10:53:47.000Z</time>
      </trkpt>
      <trkpt lat="45.60734" lon="6.6124">
        <ele>2200</ele>
        <time>2012-02-24T10:53:51.000Z</time>
      </trkpt>
      <trkpt lat="45.60735" lon="6.61231">
        <ele>2199.1999511719</ele>
        <time>2012-02-24T10:54:01.000Z</time>
      </trkpt>
      <trkpt lat="45.60736" lon="6.61224">
        <ele>2201.1999511719</ele>
        <time>2012-02-24T10:54:08.000Z</time>
      </trkpt>
      <trkpt lat="45.60736" lon="6.61214">
        <ele>2202.3999023438</ele>
        <time>2012-02-24T10:54:17.000Z</time>
      </trkpt>
      <trkpt lat="45.60737" lon="6.61204">
        <ele>2203.8000488281</ele>
        <time>2012-02-24T10:54:27.000Z</time>
      </trkpt>
      <trkpt lat="45.60736" lon="6.61197">
        <ele>2206.6000976562</ele>
        <time>2012-02-24T10:54:35.000Z</time>
      </trkpt>
      <trkpt lat="45.60734" lon="6.61188">
        <ele>2205.6000976562</ele>
        <time>2012-02-24T10:54:44.000Z</time>
      </trkpt>
      <trkpt lat="45.60732" lon="6.61181">
        <ele>2206.3999023438</ele>
        <time>2012-02-24T10:54:51.000Z</time>
      </trkpt>
      <trkpt lat="45.60729" lon="6.61175">
        <ele>2207.3999023438</ele>
        <time>2012-02-24T10:54:58.000Z</time>
      </trkpt>
      <trkpt lat="45.60726" lon="6.61171">
        <ele>2209</ele>
        <time>2012-02-24T10:55:06.000Z</time>
      </trkpt>
      <trkpt lat="45.60725" lon="6.61169">
        <ele>2209.6000976562</ele>
        <time>2012-02-24T10:55:09.000Z</time>
      </trkpt>
      <trkpt lat="45.60719" lon="6.61161">
        <ele>2211.6000976562</ele>
        <time>2012-02-24T10:55:20.000Z</time>
      </trkpt>
      <trkpt lat="45.60714" lon="6.61156">
        <ele>2212.6000976562</ele>
        <time>2012-02-24T10:55:28.000Z</time>
      </trkpt>
      <trkpt lat="45.60709" lon="6.61149">
        <ele>2212</ele>
        <time>2012-02-24T10:55:36.000Z</time>
      </trkpt>
      <trkpt lat="45.60702" lon="6.61139">
        <ele>2212.8000488281</ele>
        <time>2012-02-24T10:55:47.000Z</time>
      </trkpt>
      <trkpt lat="45.60697" lon="6.61132">
        <ele>2214.8000488281</ele>
        <time>2012-02-24T10:55:56.000Z</time>
      </trkpt>
      <trkpt lat="45.60697" lon="6.61131">
        <ele>2215</ele>
        <time>2012-02-24T10:55:57.000Z</time>
      </trkpt>
      <trkpt lat="45.60692" lon="6.61123">
        <ele>2214.6000976562</ele>
        <time>2012-02-24T10:56:06.000Z</time>
      </trkpt>
      <trkpt lat="45.60691" lon="6.61122">
        <ele>2215.1999511719</ele>
        <time>2012-02-24T10:56:13.000Z</time>
      </trkpt>
      <trkpt lat="45.60691" lon="6.61123">
        <ele>2216</ele>
        <time>2012-02-24T10:56:51.000Z</time>
      </trkpt>
      <trkpt lat="45.6069" lon="6.61123">
        <ele>2215.3999023438</ele>
        <time>2012-02-24T10:57:01.000Z</time>
      </trkpt>
      <trkpt lat="45.60686" lon="6.6112">
        <ele>2216.8000488281</ele>
        <time>2012-02-24T11:01:39.000Z</time>
      </trkpt>
      <trkpt lat="45.60684" lon="6.61115">
        <ele>2216.3999023438</ele>
        <time>2012-02-24T11:01:47.000Z</time>
      </trkpt>
      <trkpt lat="45.60678" lon="6.61102">
        <ele>2217.1999511719</ele>
        <time>2012-02-24T11:01:59.000Z</time>
      </trkpt>
      <trkpt lat="45.60675" lon="6.61094">
        <ele>2216.8000488281</ele>
        <time>2012-02-24T11:02:08.000Z</time>
      </trkpt>
      <trkpt lat="45.60673" lon="6.61091">
        <ele>2217</ele>
        <time>2012-02-24T11:02:18.000Z</time>
      </trkpt>
      <trkpt lat="45.60674" lon="6.61091">
        <ele>2218.8000488281</ele>
        <time>2012-02-24T11:02:22.000Z</time>
      </trkpt>
      <trkpt lat="45.60671" lon="6.61086">
        <ele>2218.6000976562</ele>
        <time>2012-02-24T11:02:32.000Z</time>
      </trkpt>
      <trkpt lat="45.60665" lon="6.61075">
        <ele>2219.3999023438</ele>
        <time>2012-02-24T11:02:43.000Z</time>
      </trkpt>
      <trkpt lat="45.6066" lon="6.61065">
        <ele>2221.6000976562</ele>
        <time>2012-02-24T11:02:53.000Z</time>
      </trkpt>
      <trkpt lat="45.60657" lon="6.61056">
        <ele>2221.3999023438</ele>
        <time>2012-02-24T11:03:00.000Z</time>
      </trkpt>
      <trkpt lat="45.60654" lon="6.61048">
        <ele>2222.1999511719</ele>
        <time>2012-02-24T11:03:07.000Z</time>
      </trkpt>
      <trkpt lat="45.6065" lon="6.61037">
        <ele>2223</ele>
        <time>2012-02-24T11:03:16.000Z</time>
      </trkpt>
      <trkpt lat="45.60646" lon="6.6103">
        <ele>2224</ele>
        <time>2012-02-24T11:03:24.000Z</time>
      </trkpt>
      <trkpt lat="45.60641" lon="6.61021">
        <ele>2225.1999511719</ele>
        <time>2012-02-24T11:03:34.000Z</time>
      </trkpt>
      <trkpt lat="45.60637" lon="6.61015">
        <ele>2225.3999023438</ele>
        <time>2012-02-24T11:03:44.000Z</time>
      </trkpt>
      <trkpt lat="45.60631" lon="6.61006">
        <ele>2226.1999511719</ele>
        <time>2012-02-24T11:03:53.000Z</time>
      </trkpt>
      <trkpt lat="45.60626" lon="6.60999">
        <ele>2226.3999023438</ele>
        <time>2012-02-24T11:04:01.000Z</time>
      </trkpt>
      <trkpt lat="45.60621" lon="6.60992">
        <ele>2226.1999511719</ele>
        <time>2012-02-24T11:04:09.000Z</time>
      </trkpt>
      <trkpt lat="45.60617" lon="6.60983">
        <ele>2227.3999023438</ele>
        <time>2012-02-24T11:04:17.000Z</time>
      </trkpt>
      <trkpt lat="45.60614" lon="6.60978">
        <ele>2227.3999023438</ele>
        <time>2012-02-24T11:04:23.000Z</time>
      </trkpt>
      <trkpt lat="45.6061" lon="6.6097">
        <ele>2227.8000488281</ele>
        <time>2012-02-24T11:04:31.000Z</time>
      </trkpt>
      <trkpt lat="45.60606" lon="6.60964">
        <ele>2229.3999023438</ele>
        <time>2012-02-24T11:04:38.000Z</time>
      </trkpt>
      <trkpt lat="45.60602" lon="6.60958">
        <ele>2230.6000976562</ele>
        <time>2012-02-24T11:04:46.000Z</time>
      </trkpt>
      <trkpt lat="45.60597" lon="6.60951">
        <ele>2231</ele>
        <time>2012-02-24T11:04:55.000Z</time>
      </trkpt>
      <trkpt lat="45.60595" lon="6.60949">
        <ele>2231.8000488281</ele>
        <time>2012-02-24T11:04:57.000Z</time>
      </trkpt>
      <trkpt lat="45.60591" lon="6.60944">
        <ele>2232.8000488281</ele>
        <time>2012-02-24T11:05:05.000Z</time>
      </trkpt>
      <trkpt lat="45.60587" lon="6.60938">
        <ele>2233.6000976562</ele>
        <time>2012-02-24T11:05:12.000Z</time>
      </trkpt>
      <trkpt lat="45.60583" lon="6.60931">
        <ele>2234</ele>
        <time>2012-02-24T11:05:20.000Z</time>
      </trkpt>
      <trkpt lat="45.60582" lon="6.60929">
        <ele>2234.8000488281</ele>
        <time>2012-02-24T11:05:22.000Z</time>
      </trkpt>
      <trkpt lat="45.60578" lon="6.60922">
        <ele>2235.1999511719</ele>
        <time>2012-02-24T11:05:30.000Z</time>
      </trkpt>
      <trkpt lat="45.60575" lon="6.60915">
        <ele>2235.3999023438</ele>
        <time>2012-02-24T11:05:37.000Z</time>
      </trkpt>
      <trkpt lat="45.60571" lon="6.60908">
        <ele>2236.3999023438</ele>
        <time>2012-02-24T11:05:44.000Z</time>
      </trkpt>
      <trkpt lat="45.60566" lon="6.609">
        <ele>2238</ele>
        <time>2012-02-24T11:05:53.000Z</time>
      </trkpt>
      <trkpt lat="45.60562" lon="6.60894">
        <ele>2237.8000488281</ele>
        <time>2012-02-24T11:06:02.000Z</time>
      </trkpt>
      <trkpt lat="45.60559" lon="6.60889">
        <ele>2238.6000976562</ele>
        <time>2012-02-24T11:06:09.000Z</time>
      </trkpt>
      <trkpt lat="45.60554" lon="6.60883">
        <ele>2242</ele>
        <time>2012-02-24T11:06:18.000Z</time>
      </trkpt>
      <trkpt lat="45.60552" lon="6.6088">
        <ele>2241</ele>
        <time>2012-02-24T11:06:23.000Z</time>
      </trkpt>
      <trkpt lat="45.6055" lon="6.60878">
        <ele>2243</ele>
        <time>2012-02-24T11:06:29.000Z</time>
      </trkpt>
      <trkpt lat="45.60547" lon="6.60871">
        <ele>2244.3999023438</ele>
        <time>2012-02-24T11:06:38.000Z</time>
      </trkpt>
      <trkpt lat="45.60546" lon="6.60869">
        <ele>2245.6000976562</ele>
        <time>2012-02-24T11:06:40.000Z</time>
      </trkpt>
      <trkpt lat="45.60545" lon="6.60866">
        <ele>2245.8000488281</ele>
        <time>2012-02-24T11:06:43.000Z</time>
      </trkpt>
      <trkpt lat="45.60543" lon="6.60854">
        <ele>2246</ele>
        <time>2012-02-24T11:06:54.000Z</time>
      </trkpt>
      <trkpt lat="45.60541" lon="6.60843">
        <ele>2246</ele>
        <time>2012-02-24T11:07:03.000Z</time>
      </trkpt>
      <trkpt lat="45.6054" lon="6.60833">
        <ele>2247.3999023438</ele>
        <time>2012-02-24T11:07:11.000Z</time>
      </trkpt>
      <trkpt lat="45.60537" lon="6.60818">
        <ele>2247.6000976562</ele>
        <time>2012-02-24T11:07:21.000Z</time>
      </trkpt>
      <trkpt lat="45.60536" lon="6.60807">
        <ele>2247.6000976562</ele>
        <time>2012-02-24T11:07:28.000Z</time>
      </trkpt>
      <trkpt lat="45.60532" lon="6.60798">
        <ele>2247</ele>
        <time>2012-02-24T11:07:35.000Z</time>
      </trkpt>
      <trkpt lat="45.60526" lon="6.60788">
        <ele>2247.8000488281</ele>
        <time>2012-02-24T11:07:44.000Z</time>
      </trkpt>
      <trkpt lat="45.60521" lon="6.60779">
        <ele>2249.6000976562</ele>
        <time>2012-02-24T11:07:54.000Z</time>
      </trkpt>
      <trkpt lat="45.60515" lon="6.60771">
        <ele>2250.3999023438</ele>
        <time>2012-02-24T11:08:04.000Z</time>
      </trkpt>
      <trkpt lat="45.60508" lon="6.60765">
        <ele>2251.8000488281</ele>
        <time>2012-02-24T11:08:14.000Z</time>
      </trkpt>
      <trkpt lat="45.60499" lon="6.60762">
        <ele>2252.1999511719</ele>
        <time>2012-02-24T11:08:22.000Z</time>
      </trkpt>
      <trkpt lat="45.60492" lon="6.60764">
        <ele>2251.3999023438</ele>
        <time>2012-02-24T11:08:29.000Z</time>
      </trkpt>
      <trkpt lat="45.60486" lon="6.60767">
        <ele>2251.8000488281</ele>
        <time>2012-02-24T11:08:37.000Z</time>
      </trkpt>
      <trkpt lat="45.60482" lon="6.60775">
        <ele>2254</ele>
        <time>2012-02-24T11:08:46.000Z</time>
      </trkpt>
      <trkpt lat="45.60477" lon="6.60777">
        <ele>2255.1999511719</ele>
        <time>2012-02-24T11:08:53.000Z</time>
      </trkpt>
      <trkpt lat="45.60472" lon="6.60776">
        <ele>2256.3999023438</ele>
        <time>2012-02-24T11:08:59.000Z</time>
      </trkpt>
      <trkpt lat="45.60472" lon="6.60773">
        <ele>2255.1999511719</ele>
        <time>2012-02-24T11:09:02.000Z</time>
      </trkpt>
      <trkpt lat="45.60467" lon="6.60771">
        <ele>2258.1999511719</ele>
        <time>2012-02-24T11:09:09.000Z</time>
      </trkpt>
      <trkpt lat="45.60462" lon="6.60768">
        <ele>2258</ele>
        <time>2012-02-24T11:09:17.000Z</time>
      </trkpt>
      <trkpt lat="45.60459" lon="6.60766">
        <ele>2258.6000976562</ele>
        <time>2012-02-24T11:09:23.000Z</time>
      </trkpt>
      <trkpt lat="45.60456" lon="6.60764">
        <ele>2260</ele>
        <time>2012-02-24T11:09:29.000Z</time>
      </trkpt>
      <trkpt lat="45.60452" lon="6.60762">
        <ele>2263</ele>
        <time>2012-02-24T11:09:37.000Z</time>
      </trkpt>
      <trkpt lat="45.60448" lon="6.60757">
        <ele>2263.8000488281</ele>
        <time>2012-02-24T11:09:46.000Z</time>
      </trkpt>
      <trkpt lat="45.60445" lon="6.60755">
        <ele>2265</ele>
        <time>2012-02-24T11:09:51.000Z</time>
      </trkpt>
      <trkpt lat="45.6044" lon="6.60749">
        <ele>2266.3999023438</ele>
        <time>2012-02-24T11:10:02.000Z</time>
      </trkpt>
      <trkpt lat="45.60436" lon="6.60745">
        <ele>2267.3999023438</ele>
        <time>2012-02-24T11:10:08.000Z</time>
      </trkpt>
      <trkpt lat="45.60433" lon="6.60741">
        <ele>2269.3999023438</ele>
        <time>2012-02-24T11:10:15.000Z</time>
      </trkpt>
      <trkpt lat="45.60428" lon="6.60736">
        <ele>2270.1999511719</ele>
        <time>2012-02-24T11:10:24.000Z</time>
      </trkpt>
      <trkpt lat="45.60423" lon="6.60731">
        <ele>2272.1999511719</ele>
        <time>2012-02-24T11:10:32.000Z</time>
      </trkpt>
      <trkpt lat="45.60419" lon="6.60726">
        <ele>2272.8000488281</ele>
        <time>2012-02-24T11:10:40.000Z</time>
      </trkpt>
      <trkpt lat="45.60413" lon="6.60718">
        <ele>2274.8000488281</ele>
        <time>2012-02-24T11:10:50.000Z</time>
      </trkpt>
      <trkpt lat="45.60408" lon="6.60713">
        <ele>2274.1999511719</ele>
        <time>2012-02-24T11:10:59.000Z</time>
      </trkpt>
      <trkpt lat="45.60405" lon="6.60712">
        <ele>2275.3999023438</ele>
        <time>2012-02-24T11:11:13.000Z</time>
      </trkpt>
      <trkpt lat="45.60402" lon="6.60709">
        <ele>2275.8000488281</ele>
        <time>2012-02-24T11:11:21.000Z</time>
      </trkpt>
      <trkpt lat="45.60399" lon="6.60705">
        <ele>2276.1999511719</ele>
        <time>2012-02-24T11:12:09.000Z</time>
      </trkpt>
      <trkpt lat="45.60404" lon="6.60698">
        <ele>2277.3999023438</ele>
        <time>2012-02-24T11:12:18.000Z</time>
      </trkpt>
      <trkpt lat="45.60407" lon="6.60694">
        <ele>2278</ele>
        <time>2012-02-24T11:12:24.000Z</time>
      </trkpt>
      <trkpt lat="45.60408" lon="6.60692">
        <ele>2279.1999511719</ele>
        <time>2012-02-24T11:12:26.000Z</time>
      </trkpt>
      <trkpt lat="45.60409" lon="6.60691">
        <ele>2280.3999023438</ele>
        <time>2012-02-24T11:12:28.000Z</time>
      </trkpt>
      <trkpt lat="45.60409" lon="6.6069">
        <ele>2281</ele>
        <time>2012-02-24T11:12:29.000Z</time>
      </trkpt>
      <trkpt lat="45.60412" lon="6.60687">
        <ele>2281.3999023438</ele>
        <time>2012-02-24T11:12:34.000Z</time>
      </trkpt>
      <trkpt lat="45.60414" lon="6.60684">
        <ele>2282.1999511719</ele>
        <time>2012-02-24T11:12:40.000Z</time>
      </trkpt>
      <trkpt lat="45.6041" lon="6.6068">
        <ele>2282.6000976562</ele>
        <time>2012-02-24T11:12:48.000Z</time>
      </trkpt>
      <trkpt lat="45.60405" lon="6.60675">
        <ele>2285.3999023438</ele>
        <time>2012-02-24T11:12:58.000Z</time>
      </trkpt>
      <trkpt lat="45.604" lon="6.60672">
        <ele>2287.8000488281</ele>
        <time>2012-02-24T11:13:07.000Z</time>
      </trkpt>
      <trkpt lat="45.60396" lon="6.60669">
        <ele>2288.6000976562</ele>
        <time>2012-02-24T11:13:15.000Z</time>
      </trkpt>
      <trkpt lat="45.60393" lon="6.60666">
        <ele>2288.6000976562</ele>
        <time>2012-02-24T11:13:20.000Z</time>
      </trkpt>
      <trkpt lat="45.60391" lon="6.60664">
        <ele>2290.6000976562</ele>
        <time>2012-02-24T11:13:24.000Z</time>
      </trkpt>
      <trkpt lat="45.60387" lon="6.60657">
        <ele>2292</ele>
        <time>2012-02-24T11:13:35.000Z</time>
      </trkpt>
      <trkpt lat="45.60385" lon="6.60653">
        <ele>2294.1999511719</ele>
        <time>2012-02-24T11:13:41.000Z</time>
      </trkpt>
      <trkpt lat="45.60381" lon="6.60647">
        <ele>2293.8000488281</ele>
        <time>2012-02-24T11:13:50.000Z</time>
      </trkpt>
      <trkpt lat="45.60377" lon="6.60643">
        <ele>2295.6000976562</ele>
        <time>2012-02-24T11:13:59.000Z</time>
      </trkpt>
      <trkpt lat="45.60377" lon="6.60642">
        <ele>2296.3999023438</ele>
        <time>2012-02-24T11:14:01.000Z</time>
      </trkpt>
      <trkpt lat="45.60373" lon="6.60637">
        <ele>2297.3999023438</ele>
        <time>2012-02-24T11:14:09.000Z</time>
      </trkpt>
      <trkpt lat="45.60371" lon="6.60633">
        <ele>2298</ele>
        <time>2012-02-24T11:14:15.000Z</time>
      </trkpt>
      <trkpt lat="45.60367" lon="6.60627">
        <ele>2299</ele>
        <time>2012-02-24T11:14:24.000Z</time>
      </trkpt>
      <trkpt lat="45.60364" lon="6.60622">
        <ele>2301.3999023438</ele>
        <time>2012-02-24T11:14:31.000Z</time>
      </trkpt>
      <trkpt lat="45.6036" lon="6.60616">
        <ele>2302</ele>
        <time>2012-02-24T11:14:40.000Z</time>
      </trkpt>
      <trkpt lat="45.60355" lon="6.6061">
        <ele>2304.1999511719</ele>
        <time>2012-02-24T11:14:49.000Z</time>
      </trkpt>
      <trkpt lat="45.60351" lon="6.60604">
        <ele>2304.8000488281</ele>
        <time>2012-02-24T11:14:57.000Z</time>
      </trkpt>
      <trkpt lat="45.60347" lon="6.606">
        <ele>2305.6000976562</ele>
        <time>2012-02-24T11:15:06.000Z</time>
      </trkpt>
      <trkpt lat="45.60344" lon="6.60599">
        <ele>2307.8000488281</ele>
        <time>2012-02-24T11:15:10.000Z</time>
      </trkpt>
      <trkpt lat="45.60338" lon="6.60597">
        <ele>2308.3999023438</ele>
        <time>2012-02-24T11:15:22.000Z</time>
      </trkpt>
      <trkpt lat="45.60334" lon="6.60594">
        <ele>2311.1999511719</ele>
        <time>2012-02-24T11:15:29.000Z</time>
      </trkpt>
      <trkpt lat="45.6033" lon="6.60587">
        <ele>2311.3999023438</ele>
        <time>2012-02-24T11:15:38.000Z</time>
      </trkpt>
      <trkpt lat="45.6033" lon="6.60587">
        <ele>2312.6000976562</ele>
        <time>2012-02-24T11:15:46.000Z</time>
      </trkpt>
      <trkpt lat="45.60327" lon="6.60582">
        <ele>2313.8000488281</ele>
        <time>2012-02-24T11:15:54.000Z</time>
      </trkpt>
      <trkpt lat="45.60326" lon="6.60581">
        <ele>2314</ele>
        <time>2012-02-24T11:15:55.000Z</time>
      </trkpt>
      <trkpt lat="45.60321" lon="6.60575">
        <ele>2314.1999511719</ele>
        <time>2012-02-24T11:16:02.000Z</time>
      </trkpt>
      <trkpt lat="45.60316" lon="6.60568">
        <ele>2315.3999023438</ele>
        <time>2012-02-24T11:16:11.000Z</time>
      </trkpt>
      <trkpt lat="45.60309" lon="6.60562">
        <ele>2316.3999023438</ele>
        <time>2012-02-24T11:16:20.000Z</time>
      </trkpt>
      <trkpt lat="45.60303" lon="6.60557">
        <ele>2317.6000976562</ele>
        <time>2012-02-24T11:16:28.000Z</time>
      </trkpt>
      <trkpt lat="45.60297" lon="6.60552">
        <ele>2317.6000976562</ele>
        <time>2012-02-24T11:16:36.000Z</time>
      </trkpt>
      <trkpt lat="45.60292" lon="6.60546">
        <ele>2319.8000488281</ele>
        <time>2012-02-24T11:16:45.000Z</time>
      </trkpt>
      <trkpt lat="45.60286" lon="6.60542">
        <ele>2321.1999511719</ele>
        <time>2012-02-24T11:16:54.000Z</time>
      </trkpt>
      <trkpt lat="45.6028" lon="6.60538">
        <ele>2324.1999511719</ele>
        <time>2012-02-24T11:17:04.000Z</time>
      </trkpt>
      <trkpt lat="45.60273" lon="6.60534">
        <ele>2323.8000488281</ele>
        <time>2012-02-24T11:17:13.000Z</time>
      </trkpt>
      <trkpt lat="45.60266" lon="6.6053">
        <ele>2326</ele>
        <time>2012-02-24T11:17:22.000Z</time>
      </trkpt>
      <trkpt lat="45.60265" lon="6.60529">
        <ele>2326.1999511719</ele>
        <time>2012-02-24T11:17:23.000Z</time>
      </trkpt>
      <trkpt lat="45.6026" lon="6.60525">
        <ele>2327.8000488281</ele>
        <time>2012-02-24T11:17:31.000Z</time>
      </trkpt>
      <trkpt lat="45.60254" lon="6.60522">
        <ele>2329.6000976562</ele>
        <time>2012-02-24T11:17:40.000Z</time>
      </trkpt>
      <trkpt lat="45.60247" lon="6.60519">
        <ele>2329</ele>
        <time>2012-02-24T11:17:50.000Z</time>
      </trkpt>
      <trkpt lat="45.60242" lon="6.60516">
        <ele>2330.8000488281</ele>
        <time>2012-02-24T11:17:59.000Z</time>
      </trkpt>
      <trkpt lat="45.60238" lon="6.60515">
        <ele>2331.8000488281</ele>
        <time>2012-02-24T11:18:05.000Z</time>
      </trkpt>
      <trkpt lat="45.60236" lon="6.60515">
        <ele>2332.8000488281</ele>
        <time>2012-02-24T11:18:08.000Z</time>
      </trkpt>
      <trkpt lat="45.60231" lon="6.60521">
        <ele>2334.6000976562</ele>
        <time>2012-02-24T11:18:18.000Z</time>
      </trkpt>
      <trkpt lat="45.60228" lon="6.60528">
        <ele>2335.8000488281</ele>
        <time>2012-02-24T11:18:26.000Z</time>
      </trkpt>
      <trkpt lat="45.60226" lon="6.60525">
        <ele>2336.6000976562</ele>
        <time>2012-02-24T11:18:32.000Z</time>
      </trkpt>
      <trkpt lat="45.60223" lon="6.60521">
        <ele>2337.8000488281</ele>
        <time>2012-02-24T11:18:40.000Z</time>
      </trkpt>
      <trkpt lat="45.6022" lon="6.60519">
        <ele>2338.8000488281</ele>
        <time>2012-02-24T11:18:47.000Z</time>
      </trkpt>
      <trkpt lat="45.60216" lon="6.60525">
        <ele>2340.8000488281</ele>
        <time>2012-02-24T11:18:56.000Z</time>
      </trkpt>
      <trkpt lat="45.60211" lon="6.60529">
        <ele>2341.3999023438</ele>
        <time>2012-02-24T11:19:06.000Z</time>
      </trkpt>
      <trkpt lat="45.60207" lon="6.60529">
        <ele>2342.1999511719</ele>
        <time>2012-02-24T11:19:12.000Z</time>
      </trkpt>
      <trkpt lat="45.60204" lon="6.60527">
        <ele>2343</ele>
        <time>2012-02-24T11:19:17.000Z</time>
      </trkpt>
      <trkpt lat="45.60198" lon="6.60524">
        <ele>2342.8000488281</ele>
        <time>2012-02-24T11:19:25.000Z</time>
      </trkpt>
      <trkpt lat="45.60193" lon="6.60518">
        <ele>2343.8000488281</ele>
        <time>2012-02-24T11:19:33.000Z</time>
      </trkpt>
      <trkpt lat="45.60189" lon="6.60511">
        <ele>2346.1999511719</ele>
        <time>2012-02-24T11:19:43.000Z</time>
      </trkpt>
      <trkpt lat="45.60186" lon="6.6051">
        <ele>2345.3999023438</ele>
        <time>2012-02-24T11:19:54.000Z</time>
      </trkpt>
      <trkpt lat="45.60183" lon="6.60508">
        <ele>2345.8000488281</ele>
        <time>2012-02-24T11:20:02.000Z</time>
      </trkpt>
      <trkpt lat="45.60188" lon="6.60501">
        <ele>2348.1999511719</ele>
        <time>2012-02-24T11:27:52.000Z</time>
      </trkpt>
      <trkpt lat="45.60186" lon="6.60502">
        <ele>2347.8000488281</ele>
        <time>2012-02-24T11:28:07.000Z</time>
      </trkpt>
      <trkpt lat="45.60174" lon="6.60497">
        <ele>2345.8000488281</ele>
        <time>2012-02-24T11:28:13.000Z</time>
      </trkpt>
      <trkpt lat="45.60156" lon="6.60488">
        <ele>2341.3999023438</ele>
        <time>2012-02-24T11:28:17.000Z</time>
      </trkpt>
      <trkpt lat="45.60146" lon="6.60485">
        <ele>2338</ele>
        <time>2012-02-24T11:28:21.000Z</time>
      </trkpt>
      <trkpt lat="45.60142" lon="6.60485">
        <ele>2337.1999511719</ele>
        <time>2012-02-24T11:28:23.000Z</time>
      </trkpt>
      <trkpt lat="45.60127" lon="6.60484">
        <ele>2334.3999023438</ele>
        <time>2012-02-24T11:28:31.000Z</time>
      </trkpt>
      <trkpt lat="45.60108" lon="6.60486">
        <ele>2329.8000488281</ele>
        <time>2012-02-24T11:28:37.000Z</time>
      </trkpt>
      <trkpt lat="45.60098" lon="6.60489">
        <ele>2327.6000976562</ele>
        <time>2012-02-24T11:28:44.000Z</time>
      </trkpt>
      <trkpt lat="45.6009" lon="6.60489">
        <ele>2327.6000976562</ele>
        <time>2012-02-24T11:28:51.000Z</time>
      </trkpt>
      <trkpt lat="45.60082" lon="6.60489">
        <ele>2328.6000976562</ele>
        <time>2012-02-24T11:28:58.000Z</time>
      </trkpt>
      <trkpt lat="45.60069" lon="6.60487">
        <ele>2327.3999023438</ele>
        <time>2012-02-24T11:29:07.000Z</time>
      </trkpt>
      <trkpt lat="45.60059" lon="6.60483">
        <ele>2326.6000976562</ele>
        <time>2012-02-24T11:29:15.000Z</time>
      </trkpt>
      <trkpt lat="45.60049" lon="6.6048">
        <ele>2325.6000976562</ele>
        <time>2012-02-24T11:29:23.000Z</time>
      </trkpt>
      <trkpt lat="45.60037" lon="6.60478">
        <ele>2324.1999511719</ele>
        <time>2012-02-24T11:29:31.000Z</time>
      </trkpt>
      <trkpt lat="45.60023" lon="6.60474">
        <ele>2321.3999023438</ele>
        <time>2012-02-24T11:29:38.000Z</time>
      </trkpt>
      <trkpt lat="45.60013" lon="6.60478">
        <ele>2319.1999511719</ele>
        <time>2012-02-24T11:29:45.000Z</time>
      </trkpt>
      <trkpt lat="45.60002" lon="6.60482">
        <ele>2318</ele>
        <time>2012-02-24T11:29:53.000Z</time>
      </trkpt>
      <trkpt lat="45.59992" lon="6.60487">
        <ele>2317</ele>
        <time>2012-02-24T11:30:01.000Z</time>
      </trkpt>
      <trkpt lat="45.5998" lon="6.60494">
        <ele>2316.6000976562</ele>
        <time>2012-02-24T11:30:11.000Z</time>
      </trkpt>
      <trkpt lat="45.59973" lon="6.60501">
        <ele>2315.3999023438</ele>
        <time>2012-02-24T11:30:18.000Z</time>
      </trkpt>
      <trkpt lat="45.59963" lon="6.6051">
        <ele>2313.8000488281</ele>
        <time>2012-02-24T11:30:27.000Z</time>
      </trkpt>
      <trkpt lat="45.59955" lon="6.60517">
        <ele>2313.3999023438</ele>
        <time>2012-02-24T11:30:35.000Z</time>
      </trkpt>
      <trkpt lat="45.59947" lon="6.60524">
        <ele>2312.8000488281</ele>
        <time>2012-02-24T11:30:43.000Z</time>
      </trkpt>
      <trkpt lat="45.59941" lon="6.60531">
        <ele>2312.1999511719</ele>
        <time>2012-02-24T11:30:50.000Z</time>
      </trkpt>
      <trkpt lat="45.59935" lon="6.60537">
        <ele>2313.6000976562</ele>
        <time>2012-02-24T11:30:58.000Z</time>
      </trkpt>
      <trkpt lat="45.59928" lon="6.60546">
        <ele>2312.8000488281</ele>
        <time>2012-02-24T11:31:06.000Z</time>
      </trkpt>
      <trkpt lat="45.59922" lon="6.60554">
        <ele>2313</ele>
        <time>2012-02-24T11:31:14.000Z</time>
      </trkpt>
      <trkpt lat="45.59917" lon="6.6056">
        <ele>2312.8000488281</ele>
        <time>2012-02-24T11:31:21.000Z</time>
      </trkpt>
      <trkpt lat="45.5991" lon="6.60568">
        <ele>2313.1999511719</ele>
        <time>2012-02-24T11:31:30.000Z</time>
      </trkpt>
      <trkpt lat="45.59904" lon="6.60576">
        <ele>2313.8000488281</ele>
        <time>2012-02-24T11:31:39.000Z</time>
      </trkpt>
      <trkpt lat="45.599" lon="6.60583">
        <ele>2314.3999023438</ele>
        <time>2012-02-24T11:31:46.000Z</time>
      </trkpt>
      <trkpt lat="45.59895" lon="6.6059">
        <ele>2314.3999023438</ele>
        <time>2012-02-24T11:31:54.000Z</time>
      </trkpt>
      <trkpt lat="45.5989" lon="6.60598">
        <ele>2314.3999023438</ele>
        <time>2012-02-24T11:32:03.000Z</time>
      </trkpt>
      <trkpt lat="45.59886" lon="6.60607">
        <ele>2315.6000976562</ele>
        <time>2012-02-24T11:32:11.000Z</time>
      </trkpt>
      <trkpt lat="45.59884" lon="6.60608">
        <ele>2315.6000976562</ele>
        <time>2012-02-24T11:32:13.000Z</time>
      </trkpt>
      <trkpt lat="45.59879" lon="6.60614">
        <ele>2316.6000976562</ele>
        <time>2012-02-24T11:32:22.000Z</time>
      </trkpt>
      <trkpt lat="45.59874" lon="6.60617">
        <ele>2317.6000976562</ele>
        <time>2012-02-24T11:32:29.000Z</time>
      </trkpt>
      <trkpt lat="45.59869" lon="6.60622">
        <ele>2318</ele>
        <time>2012-02-24T11:32:38.000Z</time>
      </trkpt>
      <trkpt lat="45.59866" lon="6.60624">
        <ele>2319.1999511719</ele>
        <time>2012-02-24T11:32:45.000Z</time>
      </trkpt>
      <trkpt lat="45.59863" lon="6.60632">
        <ele>2320.3999023438</ele>
        <time>2012-02-24T11:32:53.000Z</time>
      </trkpt>
      <trkpt lat="45.5986" lon="6.60638">
        <ele>2321.8000488281</ele>
        <time>2012-02-24T11:32:59.000Z</time>
      </trkpt>
      <trkpt lat="45.59858" lon="6.60642">
        <ele>2322.8000488281</ele>
        <time>2012-02-24T11:33:05.000Z</time>
      </trkpt>
      <trkpt lat="45.59858" lon="6.60643">
        <ele>2323</ele>
        <time>2012-02-24T11:33:11.000Z</time>
      </trkpt>
      <trkpt lat="45.59856" lon="6.60639">
        <ele>2324.8000488281</ele>
        <time>2012-02-24T11:33:25.000Z</time>
      </trkpt>
      <trkpt lat="45.59856" lon="6.60636">
        <ele>2325.3999023438</ele>
        <time>2012-02-24T11:33:30.000Z</time>
      </trkpt>
      <trkpt lat="45.59853" lon="6.60637">
        <ele>2326</ele>
        <time>2012-02-24T11:33:40.000Z</time>
      </trkpt>
      <trkpt lat="45.59851" lon="6.60638">
        <ele>2327.3999023438</ele>
        <time>2012-02-24T11:33:43.000Z</time>
      </trkpt>
      <trkpt lat="45.59849" lon="6.60641">
        <ele>2328</ele>
        <time>2012-02-24T11:33:47.000Z</time>
      </trkpt>
      <trkpt lat="45.59847" lon="6.60644">
        <ele>2329</ele>
        <time>2012-02-24T11:33:54.000Z</time>
      </trkpt>
      <trkpt lat="45.59846" lon="6.60639">
        <ele>2329.8000488281</ele>
        <time>2012-02-24T11:34:05.000Z</time>
      </trkpt>
      <trkpt lat="45.59845" lon="6.60636">
        <ele>2330.8000488281</ele>
        <time>2012-02-24T11:34:10.000Z</time>
      </trkpt>
      <trkpt lat="45.59845" lon="6.60631">
        <ele>2332</ele>
        <time>2012-02-24T11:34:16.000Z</time>
      </trkpt>
      <trkpt lat="45.59845" lon="6.60629">
        <ele>2332.6000976562</ele>
        <time>2012-02-24T11:34:21.000Z</time>
      </trkpt>
      <trkpt lat="45.59841" lon="6.60631">
        <ele>2333.1999511719</ele>
        <time>2012-02-24T11:34:32.000Z</time>
      </trkpt>
      <trkpt lat="45.59838" lon="6.60633">
        <ele>2334.1999511719</ele>
        <time>2012-02-24T11:34:39.000Z</time>
      </trkpt>
      <trkpt lat="45.59836" lon="6.60635">
        <ele>2336</ele>
        <time>2012-02-24T11:34:44.000Z</time>
      </trkpt>
      <trkpt lat="45.59834" lon="6.60635">
        <ele>2336.1999511719</ele>
        <time>2012-02-24T11:34:53.000Z</time>
      </trkpt>
      <trkpt lat="45.59833" lon="6.60634">
        <ele>2337.3999023438</ele>
        <time>2012-02-24T11:34:57.000Z</time>
      </trkpt>
      <trkpt lat="45.59832" lon="6.60631">
        <ele>2338</ele>
        <time>2012-02-24T11:35:03.000Z</time>
      </trkpt>
      <trkpt lat="45.59831" lon="6.60625">
        <ele>2339.3999023438</ele>
        <time>2012-02-24T11:35:12.000Z</time>
      </trkpt>
      <trkpt lat="45.59831" lon="6.60623">
        <ele>2340.1999511719</ele>
        <time>2012-02-24T11:35:16.000Z</time>
      </trkpt>
      <trkpt lat="45.59827" lon="6.60624">
        <ele>2341.8000488281</ele>
        <time>2012-02-24T11:35:28.000Z</time>
      </trkpt>
      <trkpt lat="45.59827" lon="6.60624">
        <ele>2341.8000488281</ele>
        <time>2012-02-24T11:35:29.000Z</time>
      </trkpt>
      <trkpt lat="45.59823" lon="6.60627">
        <ele>2343.3999023438</ele>
        <time>2012-02-24T11:35:38.000Z</time>
      </trkpt>
      <trkpt lat="45.59819" lon="6.60628">
        <ele>2344.3999023438</ele>
        <time>2012-02-24T11:35:45.000Z</time>
      </trkpt>
      <trkpt lat="45.59818" lon="6.60624">
        <ele>2344.6000976562</ele>
        <time>2012-02-24T11:35:51.000Z</time>
      </trkpt>
      <trkpt lat="45.59816" lon="6.6062">
        <ele>2346</ele>
        <time>2012-02-24T11:35:58.000Z</time>
      </trkpt>
      <trkpt lat="45.59813" lon="6.6062">
        <ele>2347.3999023438</ele>
        <time>2012-02-24T11:36:02.000Z</time>
      </trkpt>
      <trkpt lat="45.59807" lon="6.60619">
        <ele>2348</ele>
        <time>2012-02-24T11:36:12.000Z</time>
      </trkpt>
      <trkpt lat="45.59803" lon="6.60618">
        <ele>2350.1999511719</ele>
        <time>2012-02-24T11:36:17.000Z</time>
      </trkpt>
      <trkpt lat="45.59796" lon="6.60615">
        <ele>2350.6000976562</ele>
        <time>2012-02-24T11:36:27.000Z</time>
      </trkpt>
      <trkpt lat="45.59793" lon="6.60614">
        <ele>2350.1999511719</ele>
        <time>2012-02-24T11:36:33.000Z</time>
      </trkpt>
      <trkpt lat="45.59789" lon="6.60616">
        <ele>2350</ele>
        <time>2012-02-24T11:36:41.000Z</time>
      </trkpt>
      <trkpt lat="45.59786" lon="6.60617">
        <ele>2349</ele>
        <time>2012-02-24T11:36:51.000Z</time>
      </trkpt>
      <trkpt lat="45.59785" lon="6.60617">
        <ele>2349.1999511719</ele>
        <time>2012-02-24T11:37:06.000Z</time>
      </trkpt>
      <trkpt lat="45.59775" lon="6.60617">
        <ele>2347.1999511719</ele>
        <time>2012-02-24T11:37:14.000Z</time>
      </trkpt>
      <trkpt lat="45.59767" lon="6.60617">
        <ele>2345</ele>
        <time>2012-02-24T11:37:19.000Z</time>
      </trkpt>
      <trkpt lat="45.59762" lon="6.60618">
        <ele>2343.3999023438</ele>
        <time>2012-02-24T11:37:24.000Z</time>
      </trkpt>
      <trkpt lat="45.59755" lon="6.60621">
        <ele>2342</ele>
        <time>2012-02-24T11:37:31.000Z</time>
      </trkpt>
      <trkpt lat="45.5975" lon="6.60626">
        <ele>2341</ele>
        <time>2012-02-24T11:37:38.000Z</time>
      </trkpt>
      <trkpt lat="45.59747" lon="6.60624">
        <ele>2341</ele>
        <time>2012-02-24T11:38:12.000Z</time>
      </trkpt>
      <trkpt lat="45.59735" lon="6.60624">
        <ele>2338.1999511719</ele>
        <time>2012-02-24T11:38:18.000Z</time>
      </trkpt>
      <trkpt lat="45.59725" lon="6.60628">
        <ele>2335</ele>
        <time>2012-02-24T11:38:23.000Z</time>
      </trkpt>
      <trkpt lat="45.59716" lon="6.60634">
        <ele>2332.3999023438</ele>
        <time>2012-02-24T11:38:28.000Z</time>
      </trkpt>
      <trkpt lat="45.59715" lon="6.60635">
        <ele>2331</ele>
        <time>2012-02-24T11:38:32.000Z</time>
      </trkpt>
      <trkpt lat="45.59724" lon="6.6064">
        <ele>2333.1999511719</ele>
        <time>2012-02-24T11:41:05.000Z</time>
      </trkpt>
      <trkpt lat="45.59723" lon="6.6064">
        <ele>2333</ele>
        <time>2012-02-24T11:41:06.000Z</time>
      </trkpt>
      <trkpt lat="45.59723" lon="6.60638">
        <ele>2332.1999511719</ele>
        <time>2012-02-24T11:43:38.000Z</time>
      </trkpt>
      <trkpt lat="45.59724" lon="6.60633">
        <ele>2334.6000976562</ele>
        <time>2012-02-24T11:44:33.000Z</time>
      </trkpt>
      <trkpt lat="45.59724" lon="6.60633">
        <ele>2332.3999023438</ele>
        <time>2012-02-24T11:44:37.000Z</time>
      </trkpt>
      <trkpt lat="45.59723" lon="6.60635">
        <ele>2333.6000976562</ele>
        <time>2012-02-24T11:44:43.000Z</time>
      </trkpt>
      <trkpt lat="45.59722" lon="6.60637">
        <ele>2334.1999511719</ele>
        <time>2012-02-24T11:44:58.000Z</time>
      </trkpt>
      <trkpt lat="45.59722" lon="6.60637">
        <ele>2334.6000976562</ele>
        <time>2012-02-24T11:45:04.000Z</time>
      </trkpt>
      <trkpt lat="45.59725" lon="6.60639">
        <ele>2333</ele>
        <time>2012-02-24T11:45:55.000Z</time>
      </trkpt>
      <trkpt lat="45.59712" lon="6.60641">
        <ele>2330.8000488281</ele>
        <time>2012-02-24T11:45:59.000Z</time>
      </trkpt>
      <trkpt lat="45.59704" lon="6.60638">
        <ele>2328.1999511719</ele>
        <time>2012-02-24T11:46:01.000Z</time>
      </trkpt>
      <trkpt lat="45.59697" lon="6.6064">
        <ele>2326</ele>
        <time>2012-02-24T11:46:03.000Z</time>
      </trkpt>
      <trkpt lat="45.59692" lon="6.60658">
        <ele>2322</ele>
        <time>2012-02-24T11:46:06.000Z</time>
      </trkpt>
      <trkpt lat="45.59683" lon="6.6066">
        <ele>2320.6000976562</ele>
        <time>2012-02-24T11:46:08.000Z</time>
      </trkpt>
      <trkpt lat="45.59675" lon="6.60666">
        <ele>2317</ele>
        <time>2012-02-24T11:46:10.000Z</time>
      </trkpt>
      <trkpt lat="45.59672" lon="6.60688">
        <ele>2312.3999023438</ele>
        <time>2012-02-24T11:46:13.000Z</time>
      </trkpt>
      <trkpt lat="45.59661" lon="6.60692">
        <ele>2310.3999023438</ele>
        <time>2012-02-24T11:46:16.000Z</time>
      </trkpt>
      <trkpt lat="45.5965" lon="6.60694">
        <ele>2308.1999511719</ele>
        <time>2012-02-24T11:46:18.000Z</time>
      </trkpt>
      <trkpt lat="45.59644" lon="6.60698">
        <ele>2306.6000976562</ele>
        <time>2012-02-24T11:46:19.000Z</time>
      </trkpt>
      <trkpt lat="45.59619" lon="6.60723">
        <ele>2299.3999023438</ele>
        <time>2012-02-24T11:46:24.000Z</time>
      </trkpt>
      <trkpt lat="45.59613" lon="6.60736">
        <ele>2296.3999023438</ele>
        <time>2012-02-24T11:46:26.000Z</time>
      </trkpt>
      <trkpt lat="45.59607" lon="6.60743">
        <ele>2294</ele>
        <time>2012-02-24T11:46:28.000Z</time>
      </trkpt>
      <trkpt lat="45.59607" lon="6.60742">
        <ele>2291.1999511719</ele>
        <time>2012-02-24T11:46:31.000Z</time>
      </trkpt>
      <trkpt lat="45.59606" lon="6.60743">
        <ele>2291.1999511719</ele>
        <time>2012-02-24T11:46:41.000Z</time>
      </trkpt>
      <trkpt lat="45.59601" lon="6.60757">
        <ele>2289.3999023438</ele>
        <time>2012-02-24T11:46:44.000Z</time>
      </trkpt>
      <trkpt lat="45.59583" lon="6.60783">
        <ele>2284</ele>
        <time>2012-02-24T11:46:48.000Z</time>
      </trkpt>
      <trkpt lat="45.59576" lon="6.60787">
        <ele>2279.8000488281</ele>
        <time>2012-02-24T11:46:50.000Z</time>
      </trkpt>
      <trkpt lat="45.59571" lon="6.60792">
        <ele>2278</ele>
        <time>2012-02-24T11:46:51.000Z</time>
      </trkpt>
      <trkpt lat="45.59538" lon="6.60821">
        <ele>2269.6000976562</ele>
        <time>2012-02-24T11:46:55.000Z</time>
      </trkpt>
      <trkpt lat="45.59498" lon="6.60858">
        <ele>2259.6000976562</ele>
        <time>2012-02-24T11:46:59.000Z</time>
      </trkpt>
      <trkpt lat="45.59473" lon="6.60882">
        <ele>2254.3999023438</ele>
        <time>2012-02-24T11:47:03.000Z</time>
      </trkpt>
      <trkpt lat="45.59462" lon="6.60891">
        <ele>2254.1999511719</ele>
        <time>2012-02-24T11:47:06.000Z</time>
      </trkpt>
      <trkpt lat="45.59434" lon="6.6091">
        <ele>2251</ele>
        <time>2012-02-24T11:47:13.000Z</time>
      </trkpt>
      <trkpt lat="45.59423" lon="6.60917">
        <ele>2249.6000976562</ele>
        <time>2012-02-24T11:47:17.000Z</time>
      </trkpt>
      <trkpt lat="45.5941" lon="6.60923">
        <ele>2248.8000488281</ele>
        <time>2012-02-24T11:47:23.000Z</time>
      </trkpt>
      <trkpt lat="45.59403" lon="6.60925">
        <ele>2249.1999511719</ele>
        <time>2012-02-24T11:47:28.000Z</time>
      </trkpt>
      <trkpt lat="45.59391" lon="6.60931">
        <ele>2248.1999511719</ele>
        <time>2012-02-24T11:47:35.000Z</time>
      </trkpt>
      <trkpt lat="45.59374" lon="6.6094">
        <ele>2247.3999023438</ele>
        <time>2012-02-24T11:47:43.000Z</time>
      </trkpt>
      <trkpt lat="45.59364" lon="6.60943">
        <ele>2246.1999511719</ele>
        <time>2012-02-24T11:47:50.000Z</time>
      </trkpt>
      <trkpt lat="45.5935" lon="6.60944">
        <ele>2244.8000488281</ele>
        <time>2012-02-24T11:47:58.000Z</time>
      </trkpt>
      <trkpt lat="45.59339" lon="6.60944">
        <ele>2243.3999023438</ele>
        <time>2012-02-24T11:48:05.000Z</time>
      </trkpt>
      <trkpt lat="45.59334" lon="6.60944">
        <ele>2242.8000488281</ele>
        <time>2012-02-24T11:48:11.000Z</time>
      </trkpt>
      <trkpt lat="45.59328" lon="6.60946">
        <ele>2244.6000976562</ele>
        <time>2012-02-24T11:48:46.000Z</time>
      </trkpt>
      <trkpt lat="45.5933" lon="6.60946">
        <ele>2242.1999511719</ele>
        <time>2012-02-24T11:48:51.000Z</time>
      </trkpt>
      <trkpt lat="45.59336" lon="6.60946">
        <ele>2242.6000976562</ele>
        <time>2012-02-24T11:49:50.000Z</time>
      </trkpt>
      <trkpt lat="45.59339" lon="6.60947">
        <ele>2244</ele>
        <time>2012-02-24T11:50:06.000Z</time>
      </trkpt>
      <trkpt lat="45.59346" lon="6.60954">
        <ele>2243</ele>
        <time>2012-02-24T11:52:32.000Z</time>
      </trkpt>
      <trkpt lat="45.59333" lon="6.60947">
        <ele>2243.6000976562</ele>
        <time>2012-02-24T11:53:20.000Z</time>
      </trkpt>
      <trkpt lat="45.59338" lon="6.60945">
        <ele>2244.6000976562</ele>
        <time>2012-02-24T11:53:39.000Z</time>
      </trkpt>
      <trkpt lat="45.59332" lon="6.60946">
        <ele>2243.3999023438</ele>
        <time>2012-02-24T11:54:56.000Z</time>
      </trkpt>
      <trkpt lat="45.59333" lon="6.60947">
        <ele>2243.3999023438</ele>
        <time>2012-02-24T11:55:03.000Z</time>
      </trkpt>
      <trkpt lat="45.59334" lon="6.60945">
        <ele>2244.3999023438</ele>
        <time>2012-02-24T11:55:18.000Z</time>
      </trkpt>
      <trkpt lat="45.59328" lon="6.60947">
        <ele>2243.3999023438</ele>
        <time>2012-02-24T11:55:36.000Z</time>
      </trkpt>
      <trkpt lat="45.59327" lon="6.60948">
        <ele>2244.3999023438</ele>
        <time>2012-02-24T11:55:42.000Z</time>
      </trkpt>
      <trkpt lat="45.59327" lon="6.60949">
        <ele>2243</ele>
        <time>2012-02-24T11:55:46.000Z</time>
      </trkpt>
      <trkpt lat="45.59324" lon="6.60952">
        <ele>2245.1999511719</ele>
        <time>2012-02-24T11:55:52.000Z</time>
      </trkpt>
      <trkpt lat="45.59324" lon="6.60955">
        <ele>2245.1999511719</ele>
        <time>2012-02-24T11:55:57.000Z</time>
      </trkpt>
      <trkpt lat="45.5932" lon="6.60958">
        <ele>2246</ele>
        <time>2012-02-24T11:56:04.000Z</time>
      </trkpt>
      <trkpt lat="45.59313" lon="6.60961">
        <ele>2247.6000976562</ele>
        <time>2012-02-24T11:56:14.000Z</time>
      </trkpt>
      <trkpt lat="45.59308" lon="6.60963">
        <ele>2247.6000976562</ele>
        <time>2012-02-24T11:56:23.000Z</time>
      </trkpt>
      <trkpt lat="45.5931" lon="6.60965">
        <ele>2249.1999511719</ele>
        <time>2012-02-24T11:56:28.000Z</time>
      </trkpt>
      <trkpt lat="45.5932" lon="6.60971">
        <ele>2249.1999511719</ele>
        <time>2012-02-24T11:56:36.000Z</time>
      </trkpt>
      <trkpt lat="45.59324" lon="6.60974">
        <ele>2250.1999511719</ele>
        <time>2012-02-24T11:56:41.000Z</time>
      </trkpt>
      <trkpt lat="45.59328" lon="6.60975">
        <ele>2251.1999511719</ele>
        <time>2012-02-24T11:56:46.000Z</time>
      </trkpt>
      <trkpt lat="45.59332" lon="6.60977">
        <ele>2252.3999023438</ele>
        <time>2012-02-24T11:56:55.000Z</time>
      </trkpt>
      <trkpt lat="45.59333" lon="6.60979">
        <ele>2252.8000488281</ele>
        <time>2012-02-24T11:57:01.000Z</time>
      </trkpt>
      <trkpt lat="45.59334" lon="6.60982">
        <ele>2254.3999023438</ele>
        <time>2012-02-24T11:57:07.000Z</time>
      </trkpt>
      <trkpt lat="45.59324" lon="6.60984">
        <ele>2254.1999511719</ele>
        <time>2012-02-24T11:57:19.000Z</time>
      </trkpt>
      <trkpt lat="45.59321" lon="6.60985">
        <ele>2254.8000488281</ele>
        <time>2012-02-24T11:57:27.000Z</time>
      </trkpt>
      <trkpt lat="45.5932" lon="6.60985">
        <ele>2255</ele>
        <time>2012-02-24T11:57:29.000Z</time>
      </trkpt>
      <trkpt lat="45.59316" lon="6.60986">
        <ele>2257.3999023438</ele>
        <time>2012-02-24T11:57:35.000Z</time>
      </trkpt>
      <trkpt lat="45.59315" lon="6.60986">
        <ele>2257.1999511719</ele>
        <time>2012-02-24T11:57:41.000Z</time>
      </trkpt>
      <trkpt lat="45.59312" lon="6.60986">
        <ele>2258.3999023438</ele>
        <time>2012-02-24T11:57:49.000Z</time>
      </trkpt>
      <trkpt lat="45.59308" lon="6.60986">
        <ele>2259</ele>
        <time>2012-02-24T11:57:54.000Z</time>
      </trkpt>
      <trkpt lat="45.59307" lon="6.60986">
        <ele>2260.3999023438</ele>
        <time>2012-02-24T11:57:57.000Z</time>
      </trkpt>
      <trkpt lat="45.59303" lon="6.60986">
        <ele>2261</ele>
        <time>2012-02-24T11:58:01.000Z</time>
      </trkpt>
      <trkpt lat="45.59294" lon="6.60989">
        <ele>2260.3999023438</ele>
        <time>2012-02-24T11:58:12.000Z</time>
      </trkpt>
      <trkpt lat="45.59287" lon="6.6099">
        <ele>2261.3999023438</ele>
        <time>2012-02-24T11:58:21.000Z</time>
      </trkpt>
      <trkpt lat="45.5928" lon="6.60992">
        <ele>2262.6000976562</ele>
        <time>2012-02-24T11:58:30.000Z</time>
      </trkpt>
      <trkpt lat="45.59279" lon="6.60993">
        <ele>2262.3999023438</ele>
        <time>2012-02-24T11:58:31.000Z</time>
      </trkpt>
      <trkpt lat="45.59274" lon="6.60995">
        <ele>2262</ele>
        <time>2012-02-24T11:58:38.000Z</time>
      </trkpt>
      <trkpt lat="45.5927" lon="6.60996">
        <ele>2262.8000488281</ele>
        <time>2012-02-24T11:58:46.000Z</time>
      </trkpt>
      <trkpt lat="45.59265" lon="6.60997">
        <ele>2263.3999023438</ele>
        <time>2012-02-24T11:58:54.000Z</time>
      </trkpt>
      <trkpt lat="45.59258" lon="6.60997">
        <ele>2264</ele>
        <time>2012-02-24T11:59:03.000Z</time>
      </trkpt>
      <trkpt lat="45.5925" lon="6.60999">
        <ele>2264</ele>
        <time>2012-02-24T11:59:12.000Z</time>
      </trkpt>
      <trkpt lat="45.59243" lon="6.60998">
        <ele>2265.6000976562</ele>
        <time>2012-02-24T11:59:22.000Z</time>
      </trkpt>
      <trkpt lat="45.59238" lon="6.60995">
        <ele>2267</ele>
        <time>2012-02-24T11:59:31.000Z</time>
      </trkpt>
      <trkpt lat="45.5923" lon="6.60996">
        <ele>2269</ele>
        <time>2012-02-24T11:59:39.000Z</time>
      </trkpt>
      <trkpt lat="45.59224" lon="6.60995">
        <ele>2271.6000976562</ele>
        <time>2012-02-24T11:59:48.000Z</time>
      </trkpt>
      <trkpt lat="45.59216" lon="6.60995">
        <ele>2271.6000976562</ele>
        <time>2012-02-24T11:59:57.000Z</time>
      </trkpt>
      <trkpt lat="45.59208" lon="6.60995">
        <ele>2273.6000976562</ele>
        <time>2012-02-24T12:00:08.000Z</time>
      </trkpt>
      <trkpt lat="45.59202" lon="6.60996">
        <ele>2273.1999511719</ele>
        <time>2012-02-24T12:00:17.000Z</time>
      </trkpt>
      <trkpt lat="45.59197" lon="6.60996">
        <ele>2275.3999023438</ele>
        <time>2012-02-24T12:00:25.000Z</time>
      </trkpt>
      <trkpt lat="45.59193" lon="6.60998">
        <ele>2275.8000488281</ele>
        <time>2012-02-24T12:00:34.000Z</time>
      </trkpt>
      <trkpt lat="45.59194" lon="6.61">
        <ele>2275.1999511719</ele>
        <time>2012-02-24T12:00:43.000Z</time>
      </trkpt>
      <trkpt lat="45.59197" lon="6.61005">
        <ele>2276.3999023438</ele>
        <time>2012-02-24T12:00:50.000Z</time>
      </trkpt>
      <trkpt lat="45.59202" lon="6.61007">
        <ele>2277</ele>
        <time>2012-02-24T12:00:58.000Z</time>
      </trkpt>
      <trkpt lat="45.59205" lon="6.61008">
        <ele>2278.8000488281</ele>
        <time>2012-02-24T12:01:02.000Z</time>
      </trkpt>
      <trkpt lat="45.5921" lon="6.61013">
        <ele>2280.3999023438</ele>
        <time>2012-02-24T12:01:11.000Z</time>
      </trkpt>
      <trkpt lat="45.59214" lon="6.61017">
        <ele>2281.6000976562</ele>
        <time>2012-02-24T12:01:18.000Z</time>
      </trkpt>
      <trkpt lat="45.59221" lon="6.61023">
        <ele>2281.6000976562</ele>
        <time>2012-02-24T12:01:29.000Z</time>
      </trkpt>
      <trkpt lat="45.59221" lon="6.61024">
        <ele>2281.3999023438</ele>
        <time>2012-02-24T12:01:30.000Z</time>
      </trkpt>
      <trkpt lat="45.59227" lon="6.61028">
        <ele>2283.1999511719</ele>
        <time>2012-02-24T12:01:38.000Z</time>
      </trkpt>
      <trkpt lat="45.59232" lon="6.61034">
        <ele>2284.8000488281</ele>
        <time>2012-02-24T12:01:48.000Z</time>
      </trkpt>
      <trkpt lat="45.59235" lon="6.61039">
        <ele>2287</ele>
        <time>2012-02-24T12:01:54.000Z</time>
      </trkpt>
      <trkpt lat="45.59238" lon="6.61046">
        <ele>2288.3999023438</ele>
        <time>2012-02-24T12:02:03.000Z</time>
      </trkpt>
      <trkpt lat="45.59238" lon="6.61049">
        <ele>2287.6000976562</ele>
        <time>2012-02-24T12:02:08.000Z</time>
      </trkpt>
      <trkpt lat="45.59241" lon="6.61053">
        <ele>2289</ele>
        <time>2012-02-24T12:02:14.000Z</time>
      </trkpt>
      <trkpt lat="45.59245" lon="6.61057">
        <ele>2290.1999511719</ele>
        <time>2012-02-24T12:02:21.000Z</time>
      </trkpt>
      <trkpt lat="45.59246" lon="6.6106">
        <ele>2291</ele>
        <time>2012-02-24T12:02:26.000Z</time>
      </trkpt>
      <trkpt lat="45.59248" lon="6.61065">
        <ele>2292.6000976562</ele>
        <time>2012-02-24T12:02:33.000Z</time>
      </trkpt>
      <trkpt lat="45.59251" lon="6.61068">
        <ele>2292.8000488281</ele>
        <time>2012-02-24T12:02:38.000Z</time>
      </trkpt>
      <trkpt lat="45.59254" lon="6.6107">
        <ele>2293.3999023438</ele>
        <time>2012-02-24T12:02:43.000Z</time>
      </trkpt>
      <trkpt lat="45.59253" lon="6.6107">
        <ele>2294.1999511719</ele>
        <time>2012-02-24T12:02:50.000Z</time>
      </trkpt>
      <trkpt lat="45.59256" lon="6.61074">
        <ele>2295</ele>
        <time>2012-02-24T12:02:57.000Z</time>
      </trkpt>
      <trkpt lat="45.59258" lon="6.61075">
        <ele>2296.1999511719</ele>
        <time>2012-02-24T12:03:00.000Z</time>
      </trkpt>
      <trkpt lat="45.59259" lon="6.61076">
        <ele>2295.6000976562</ele>
        <time>2012-02-24T12:03:04.000Z</time>
      </trkpt>
      <trkpt lat="45.59261" lon="6.6108">
        <ele>2297.3999023438</ele>
        <time>2012-02-24T12:03:10.000Z</time>
      </trkpt>
      <trkpt lat="45.59265" lon="6.61083">
        <ele>2298</ele>
        <time>2012-02-24T12:03:16.000Z</time>
      </trkpt>
      <trkpt lat="45.59267" lon="6.61086">
        <ele>2298.8000488281</ele>
        <time>2012-02-24T12:03:20.000Z</time>
      </trkpt>
      <trkpt lat="45.59272" lon="6.61091">
        <ele>2301.1999511719</ele>
        <time>2012-02-24T12:03:30.000Z</time>
      </trkpt>
      <trkpt lat="45.59268" lon="6.6109">
        <ele>2300.6000976562</ele>
        <time>2012-02-24T12:03:42.000Z</time>
      </trkpt>
      <trkpt lat="45.59262" lon="6.61089">
        <ele>2301.3999023438</ele>
        <time>2012-02-24T12:03:48.000Z</time>
      </trkpt>
      <trkpt lat="45.59256" lon="6.61087">
        <ele>2301.8000488281</ele>
        <time>2012-02-24T12:03:58.000Z</time>
      </trkpt>
      <trkpt lat="45.59253" lon="6.61085">
        <ele>2302.6000976562</ele>
        <time>2012-02-24T12:04:05.000Z</time>
      </trkpt>
      <trkpt lat="45.59249" lon="6.61085">
        <ele>2303.6000976562</ele>
        <time>2012-02-24T12:04:12.000Z</time>
      </trkpt>
      <trkpt lat="45.59245" lon="6.61085">
        <ele>2303</ele>
        <time>2012-02-24T12:04:19.000Z</time>
      </trkpt>
      <trkpt lat="45.59242" lon="6.61085">
        <ele>2303.8000488281</ele>
        <time>2012-02-24T12:04:25.000Z</time>
      </trkpt>
      <trkpt lat="45.5924" lon="6.61085">
        <ele>2304.6000976562</ele>
        <time>2012-02-24T12:04:32.000Z</time>
      </trkpt>
      <trkpt lat="45.59239" lon="6.61084">
        <ele>2305.3999023438</ele>
        <time>2012-02-24T12:04:37.000Z</time>
      </trkpt>
      <trkpt lat="45.59237" lon="6.61083">
        <ele>2305.1999511719</ele>
        <time>2012-02-24T12:04:42.000Z</time>
      </trkpt>
      <trkpt lat="45.59235" lon="6.61082">
        <ele>2306</ele>
        <time>2012-02-24T12:04:48.000Z</time>
      </trkpt>
      <trkpt lat="45.59235" lon="6.61083">
        <ele>2306.3999023438</ele>
        <time>2012-02-24T12:04:53.000Z</time>
      </trkpt>
      <trkpt lat="45.59236" lon="6.61084">
        <ele>2307.6000976562</ele>
        <time>2012-02-24T12:05:09.000Z</time>
      </trkpt>
      <trkpt lat="45.59238" lon="6.61089">
        <ele>2308</ele>
        <time>2012-02-24T12:05:15.000Z</time>
      </trkpt>
      <trkpt lat="45.59238" lon="6.61094">
        <ele>2309</ele>
        <time>2012-02-24T12:05:22.000Z</time>
      </trkpt>
      <trkpt lat="45.59239" lon="6.61098">
        <ele>2308.6000976562</ele>
        <time>2012-02-24T12:05:28.000Z</time>
      </trkpt>
      <trkpt lat="45.59242" lon="6.61102">
        <ele>2309.8000488281</ele>
        <time>2012-02-24T12:05:40.000Z</time>
      </trkpt>
      <trkpt lat="45.59244" lon="6.61106">
        <ele>2311.8000488281</ele>
        <time>2012-02-24T12:05:54.000Z</time>
      </trkpt>
      <trkpt lat="45.59245" lon="6.61109">
        <ele>2311.3999023438</ele>
        <time>2012-02-24T12:06:00.000Z</time>
      </trkpt>
      <trkpt lat="45.5925" lon="6.6111">
        <ele>2311.6000976562</ele>
        <time>2012-02-24T12:06:12.000Z</time>
      </trkpt>
      <trkpt lat="45.5925" lon="6.61107">
        <ele>2312.3999023438</ele>
        <time>2012-02-24T12:06:22.000Z</time>
      </trkpt>
      <trkpt lat="45.59251" lon="6.61109">
        <ele>2313.1999511719</ele>
        <time>2012-02-24T12:07:14.000Z</time>
      </trkpt>
      <trkpt lat="45.59251" lon="6.61108">
        <ele>2312.3999023438</ele>
        <time>2012-02-24T12:07:18.000Z</time>
      </trkpt>
      <trkpt lat="45.59248" lon="6.61106">
        <ele>2313</ele>
        <time>2012-02-24T12:07:51.000Z</time>
      </trkpt>
      <trkpt lat="45.59244" lon="6.61105">
        <ele>2312.8000488281</ele>
        <time>2012-02-24T12:07:57.000Z</time>
      </trkpt>
      <trkpt lat="45.59239" lon="6.61103">
        <ele>2314</ele>
        <time>2012-02-24T12:08:05.000Z</time>
      </trkpt>
      <trkpt lat="45.59233" lon="6.61101">
        <ele>2315.3999023438</ele>
        <time>2012-02-24T12:08:13.000Z</time>
      </trkpt>
      <trkpt lat="45.59232" lon="6.61098">
        <ele>2315.3999023438</ele>
        <time>2012-02-24T12:08:20.000Z</time>
      </trkpt>
      <trkpt lat="45.5923" lon="6.61097">
        <ele>2315.6000976562</ele>
        <time>2012-02-24T12:08:26.000Z</time>
      </trkpt>
      <trkpt lat="45.59226" lon="6.61096">
        <ele>2317.1999511719</ele>
        <time>2012-02-24T12:08:34.000Z</time>
      </trkpt>
      <trkpt lat="45.59222" lon="6.61096">
        <ele>2318.1999511719</ele>
        <time>2012-02-24T12:08:42.000Z</time>
      </trkpt>
      <trkpt lat="45.59222" lon="6.61096">
        <ele>2318.3999023438</ele>
        <time>2012-02-24T12:08:43.000Z</time>
      </trkpt>
      <trkpt lat="45.59218" lon="6.61093">
        <ele>2318.8000488281</ele>
        <time>2012-02-24T12:08:53.000Z</time>
      </trkpt>
      <trkpt lat="45.59212" lon="6.61091">
        <ele>2320</ele>
        <time>2012-02-24T12:09:01.000Z</time>
      </trkpt>
      <trkpt lat="45.59205" lon="6.61091">
        <ele>2321.1999511719</ele>
        <time>2012-02-24T12:09:10.000Z</time>
      </trkpt>
      <trkpt lat="45.59196" lon="6.61091">
        <ele>2321.3999023438</ele>
        <time>2012-02-24T12:09:23.000Z</time>
      </trkpt>
      <trkpt lat="45.5919" lon="6.61091">
        <ele>2322.8000488281</ele>
        <time>2012-02-24T12:09:32.000Z</time>
      </trkpt>
      <trkpt lat="45.59186" lon="6.61092">
        <ele>2323.1999511719</ele>
        <time>2012-02-24T12:09:40.000Z</time>
      </trkpt>
      <trkpt lat="45.59183" lon="6.61092">
        <ele>2324.1999511719</ele>
        <time>2012-02-24T12:09:46.000Z</time>
      </trkpt>
      <trkpt lat="45.59183" lon="6.61097">
        <ele>2326</ele>
        <time>2012-02-24T12:10:05.000Z</time>
      </trkpt>
      <trkpt lat="45.59188" lon="6.61101">
        <ele>2325.3999023438</ele>
        <time>2012-02-24T12:10:13.000Z</time>
      </trkpt>
      <trkpt lat="45.59192" lon="6.61105">
        <ele>2325.8000488281</ele>
        <time>2012-02-24T12:10:20.000Z</time>
      </trkpt>
      <trkpt lat="45.59197" lon="6.61109">
        <ele>2326.8000488281</ele>
        <time>2012-02-24T12:10:28.000Z</time>
      </trkpt>
      <trkpt lat="45.59197" lon="6.6111">
        <ele>2327.6000976562</ele>
        <time>2012-02-24T12:10:29.000Z</time>
      </trkpt>
      <trkpt lat="45.59202" lon="6.61113">
        <ele>2329.1999511719</ele>
        <time>2012-02-24T12:10:38.000Z</time>
      </trkpt>
      <trkpt lat="45.59207" lon="6.61116">
        <ele>2329.3999023438</ele>
        <time>2012-02-24T12:10:49.000Z</time>
      </trkpt>
      <trkpt lat="45.5921" lon="6.61121">
        <ele>2331.3999023438</ele>
        <time>2012-02-24T12:10:57.000Z</time>
      </trkpt>
      <trkpt lat="45.59215" lon="6.61129">
        <ele>2333.3999023438</ele>
        <time>2012-02-24T12:11:06.000Z</time>
      </trkpt>
      <trkpt lat="45.59219" lon="6.61135">
        <ele>2334.8000488281</ele>
        <time>2012-02-24T12:11:15.000Z</time>
      </trkpt>
      <trkpt lat="45.59221" lon="6.61138">
        <ele>2335</ele>
        <time>2012-02-24T12:11:20.000Z</time>
      </trkpt>
      <trkpt lat="45.59223" lon="6.61139">
        <ele>2336.6000976562</ele>
        <time>2012-02-24T12:11:27.000Z</time>
      </trkpt>
      <trkpt lat="45.59225" lon="6.61142">
        <ele>2336.8000488281</ele>
        <time>2012-02-24T12:11:32.000Z</time>
      </trkpt>
      <trkpt lat="45.59227" lon="6.61144">
        <ele>2338.1999511719</ele>
        <time>2012-02-24T12:11:37.000Z</time>
      </trkpt>
      <trkpt lat="45.59232" lon="6.61149">
        <ele>2338.8000488281</ele>
        <time>2012-02-24T12:11:45.000Z</time>
      </trkpt>
      <trkpt lat="45.59233" lon="6.6115">
        <ele>2339.6000976562</ele>
        <time>2012-02-24T12:11:50.000Z</time>
      </trkpt>
      <trkpt lat="45.59235" lon="6.61152">
        <ele>2340.6000976562</ele>
        <time>2012-02-24T12:11:56.000Z</time>
      </trkpt>
      <trkpt lat="45.59238" lon="6.61158">
        <ele>2342</ele>
        <time>2012-02-24T12:12:04.000Z</time>
      </trkpt>
      <trkpt lat="45.59242" lon="6.61162">
        <ele>2343.1999511719</ele>
        <time>2012-02-24T12:12:13.000Z</time>
      </trkpt>
      <trkpt lat="45.59244" lon="6.61165">
        <ele>2343.3999023438</ele>
        <time>2012-02-24T12:12:19.000Z</time>
      </trkpt>
      <trkpt lat="45.59246" lon="6.61167">
        <ele>2345</ele>
        <time>2012-02-24T12:12:25.000Z</time>
      </trkpt>
      <trkpt lat="45.5925" lon="6.61171">
        <ele>2345.8000488281</ele>
        <time>2012-02-24T12:12:32.000Z</time>
      </trkpt>
      <trkpt lat="45.59252" lon="6.61171">
        <ele>2347</ele>
        <time>2012-02-24T12:12:37.000Z</time>
      </trkpt>
      <trkpt lat="45.59254" lon="6.61173">
        <ele>2347</ele>
        <time>2012-02-24T12:12:43.000Z</time>
      </trkpt>
      <trkpt lat="45.59257" lon="6.61177">
        <ele>2348.1999511719</ele>
        <time>2012-02-24T12:12:49.000Z</time>
      </trkpt>
      <trkpt lat="45.59259" lon="6.6118">
        <ele>2349.1999511719</ele>
        <time>2012-02-24T12:12:54.000Z</time>
      </trkpt>
      <trkpt lat="45.59264" lon="6.61186">
        <ele>2350.6000976562</ele>
        <time>2012-02-24T12:13:03.000Z</time>
      </trkpt>
      <trkpt lat="45.59267" lon="6.61189">
        <ele>2350.8000488281</ele>
        <time>2012-02-24T12:13:12.000Z</time>
      </trkpt>
      <trkpt lat="45.59269" lon="6.61193">
        <ele>2352.3999023438</ele>
        <time>2012-02-24T12:13:21.000Z</time>
      </trkpt>
      <trkpt lat="45.59271" lon="6.61195">
        <ele>2353.1999511719</ele>
        <time>2012-02-24T12:13:26.000Z</time>
      </trkpt>
      <trkpt lat="45.59276" lon="6.61201">
        <ele>2354.8000488281</ele>
        <time>2012-02-24T12:13:38.000Z</time>
      </trkpt>
      <trkpt lat="45.59276" lon="6.61201">
        <ele>2355</ele>
        <time>2012-02-24T12:13:48.000Z</time>
      </trkpt>
      <trkpt lat="45.59272" lon="6.612">
        <ele>2355.8000488281</ele>
        <time>2012-02-24T12:13:56.000Z</time>
      </trkpt>
      <trkpt lat="45.59268" lon="6.61199">
        <ele>2356.1999511719</ele>
        <time>2012-02-24T12:14:05.000Z</time>
      </trkpt>
      <trkpt lat="45.59261" lon="6.61198">
        <ele>2357.8000488281</ele>
        <time>2012-02-24T12:14:14.000Z</time>
      </trkpt>
      <trkpt lat="45.59257" lon="6.61197">
        <ele>2358.6000976562</ele>
        <time>2012-02-24T12:14:22.000Z</time>
      </trkpt>
      <trkpt lat="45.59255" lon="6.61197">
        <ele>2359.3999023438</ele>
        <time>2012-02-24T12:14:26.000Z</time>
      </trkpt>
      <trkpt lat="45.5925" lon="6.61196">
        <ele>2360</ele>
        <time>2012-02-24T12:14:41.000Z</time>
      </trkpt>
      <trkpt lat="45.59245" lon="6.61195">
        <ele>2361.1999511719</ele>
        <time>2012-02-24T12:14:50.000Z</time>
      </trkpt>
      <trkpt lat="45.59241" lon="6.61195">
        <ele>2362.3999023438</ele>
        <time>2012-02-24T12:14:59.000Z</time>
      </trkpt>
      <trkpt lat="45.5924" lon="6.61195">
        <ele>2362.8000488281</ele>
        <time>2012-02-24T12:15:10.000Z</time>
      </trkpt>
      <trkpt lat="45.59236" lon="6.61196">
        <ele>2364.1999511719</ele>
        <time>2012-02-24T12:15:17.000Z</time>
      </trkpt>
      <trkpt lat="45.59233" lon="6.61196">
        <ele>2364.8000488281</ele>
        <time>2012-02-24T12:15:26.000Z</time>
      </trkpt>
      <trkpt lat="45.59231" lon="6.61196">
        <ele>2365.1999511719</ele>
        <time>2012-02-24T12:15:31.000Z</time>
      </trkpt>
      <trkpt lat="45.59228" lon="6.61196">
        <ele>2365.1999511719</ele>
        <time>2012-02-24T12:15:37.000Z</time>
      </trkpt>
      <trkpt lat="45.59224" lon="6.61194">
        <ele>2365.8000488281</ele>
        <time>2012-02-24T12:16:00.000Z</time>
      </trkpt>
      <trkpt lat="45.59219" lon="6.61194">
        <ele>2366.8000488281</ele>
        <time>2012-02-24T12:16:10.000Z</time>
      </trkpt>
      <trkpt lat="45.59215" lon="6.61194">
        <ele>2367.8000488281</ele>
        <time>2012-02-24T12:16:18.000Z</time>
      </trkpt>
      <trkpt lat="45.59209" lon="6.61194">
        <ele>2368.1999511719</ele>
        <time>2012-02-24T12:16:28.000Z</time>
      </trkpt>
      <trkpt lat="45.59206" lon="6.61193">
        <ele>2368.8000488281</ele>
        <time>2012-02-24T12:16:37.000Z</time>
      </trkpt>
      <trkpt lat="45.59202" lon="6.61192">
        <ele>2370</ele>
        <time>2012-02-24T12:16:48.000Z</time>
      </trkpt>
      <trkpt lat="45.59199" lon="6.61193">
        <ele>2370.8000488281</ele>
        <time>2012-02-24T12:16:56.000Z</time>
      </trkpt>
      <trkpt lat="45.59195" lon="6.61193">
        <ele>2371.8000488281</ele>
        <time>2012-02-24T12:17:03.000Z</time>
      </trkpt>
      <trkpt lat="45.59191" lon="6.61195">
        <ele>2372.6000976562</ele>
        <time>2012-02-24T12:17:11.000Z</time>
      </trkpt>
      <trkpt lat="45.59191" lon="6.61196">
        <ele>2373.6000976562</ele>
        <time>2012-02-24T12:17:14.000Z</time>
      </trkpt>
      <trkpt lat="45.59191" lon="6.61199">
        <ele>2374.3999023438</ele>
        <time>2012-02-24T12:17:19.000Z</time>
      </trkpt>
      <trkpt lat="45.59192" lon="6.61202">
        <ele>2375.6000976562</ele>
        <time>2012-02-24T12:17:31.000Z</time>
      </trkpt>
      <trkpt lat="45.59192" lon="6.61207">
        <ele>2376.1999511719</ele>
        <time>2012-02-24T12:17:39.000Z</time>
      </trkpt>
      <trkpt lat="45.59193" lon="6.61212">
        <ele>2377.1999511719</ele>
        <time>2012-02-24T12:17:46.000Z</time>
      </trkpt>
      <trkpt lat="45.59196" lon="6.61218">
        <ele>2378.1999511719</ele>
        <time>2012-02-24T12:18:08.000Z</time>
      </trkpt>
      <trkpt lat="45.59197" lon="6.61218">
        <ele>2378.8000488281</ele>
        <time>2012-02-24T12:18:09.000Z</time>
      </trkpt>
      <trkpt lat="45.59202" lon="6.61225">
        <ele>2380.3999023438</ele>
        <time>2012-02-24T12:18:18.000Z</time>
      </trkpt>
      <trkpt lat="45.59203" lon="6.61228">
        <ele>2381.6000976562</ele>
        <time>2012-02-24T12:18:24.000Z</time>
      </trkpt>
      <trkpt lat="45.59205" lon="6.61232">
        <ele>2382.6000976562</ele>
        <time>2012-02-24T12:18:31.000Z</time>
      </trkpt>
      <trkpt lat="45.59207" lon="6.61235">
        <ele>2383.3999023438</ele>
        <time>2012-02-24T12:18:36.000Z</time>
      </trkpt>
      <trkpt lat="45.59208" lon="6.61236">
        <ele>2383.8000488281</ele>
        <time>2012-02-24T12:18:40.000Z</time>
      </trkpt>
      <trkpt lat="45.59211" lon="6.6124">
        <ele>2384.8000488281</ele>
        <time>2012-02-24T12:18:46.000Z</time>
      </trkpt>
      <trkpt lat="45.59214" lon="6.61245">
        <ele>2386.6000976562</ele>
        <time>2012-02-24T12:18:53.000Z</time>
      </trkpt>
      <trkpt lat="45.59221" lon="6.61251">
        <ele>2387.6000976562</ele>
        <time>2012-02-24T12:19:00.000Z</time>
      </trkpt>
      <trkpt lat="45.59226" lon="6.61254">
        <ele>2387.6000976562</ele>
        <time>2012-02-24T12:19:09.000Z</time>
      </trkpt>
      <trkpt lat="45.59234" lon="6.6126">
        <ele>2387.6000976562</ele>
        <time>2012-02-24T12:19:36.000Z</time>
      </trkpt>
      <trkpt lat="45.59231" lon="6.61256">
        <ele>2388.3999023438</ele>
        <time>2012-02-24T12:19:55.000Z</time>
      </trkpt>
      <trkpt lat="45.59231" lon="6.6126">
        <ele>2389.6000976562</ele>
        <time>2012-02-24T12:20:03.000Z</time>
      </trkpt>
      <trkpt lat="45.59233" lon="6.61265">
        <ele>2391.3999023438</ele>
        <time>2012-02-24T12:20:12.000Z</time>
      </trkpt>
      <trkpt lat="45.59233" lon="6.61266">
        <ele>2392.1999511719</ele>
        <time>2012-02-24T12:20:13.000Z</time>
      </trkpt>
      <trkpt lat="45.59233" lon="6.61272">
        <ele>2391</ele>
        <time>2012-02-24T12:20:20.000Z</time>
      </trkpt>
      <trkpt lat="45.59232" lon="6.61277">
        <ele>2394.6000976562</ele>
        <time>2012-02-24T12:20:27.000Z</time>
      </trkpt>
      <trkpt lat="45.59232" lon="6.61283">
        <ele>2394</ele>
        <time>2012-02-24T12:20:33.000Z</time>
      </trkpt>
      <trkpt lat="45.59232" lon="6.61284">
        <ele>2394.8000488281</ele>
        <time>2012-02-24T12:20:34.000Z</time>
      </trkpt>
      <trkpt lat="45.59231" lon="6.6129">
        <ele>2395.6000976562</ele>
        <time>2012-02-24T12:20:42.000Z</time>
      </trkpt>
      <trkpt lat="45.59231" lon="6.61297">
        <ele>2396.6000976562</ele>
        <time>2012-02-24T12:20:50.000Z</time>
      </trkpt>
      <trkpt lat="45.59231" lon="6.61303">
        <ele>2397.6000976562</ele>
        <time>2012-02-24T12:20:58.000Z</time>
      </trkpt>
      <trkpt lat="45.59232" lon="6.61305">
        <ele>2398.8000488281</ele>
        <time>2012-02-24T12:21:05.000Z</time>
      </trkpt>
      <trkpt lat="45.59236" lon="6.61303">
        <ele>2400.3999023438</ele>
        <time>2012-02-24T12:21:13.000Z</time>
      </trkpt>
      <trkpt lat="45.5924" lon="6.61301">
        <ele>2401.3999023438</ele>
        <time>2012-02-24T12:21:21.000Z</time>
      </trkpt>
      <trkpt lat="45.59244" lon="6.613">
        <ele>2402.8000488281</ele>
        <time>2012-02-24T12:21:29.000Z</time>
      </trkpt>
      <trkpt lat="45.59247" lon="6.61298">
        <ele>2404</ele>
        <time>2012-02-24T12:21:33.000Z</time>
      </trkpt>
      <trkpt lat="45.59249" lon="6.61298">
        <ele>2404</ele>
        <time>2012-02-24T12:21:35.000Z</time>
      </trkpt>
      <trkpt lat="45.59252" lon="6.61298">
        <ele>2405.6000976562</ele>
        <time>2012-02-24T12:21:39.000Z</time>
      </trkpt>
      <trkpt lat="45.59256" lon="6.613">
        <ele>2405.1999511719</ele>
        <time>2012-02-24T12:21:47.000Z</time>
      </trkpt>
      <trkpt lat="45.59261" lon="6.61302">
        <ele>2407.6000976562</ele>
        <time>2012-02-24T12:21:55.000Z</time>
      </trkpt>
      <trkpt lat="45.59263" lon="6.61303">
        <ele>2407.1999511719</ele>
        <time>2012-02-24T12:22:03.000Z</time>
      </trkpt>
      <trkpt lat="45.59265" lon="6.61305">
        <ele>2406.3999023438</ele>
        <time>2012-02-24T12:22:10.000Z</time>
      </trkpt>
      <trkpt lat="45.59264" lon="6.61307">
        <ele>2408.6000976562</ele>
        <time>2012-02-24T12:22:16.000Z</time>
      </trkpt>
      <trkpt lat="45.59262" lon="6.61312">
        <ele>2409.8000488281</ele>
        <time>2012-02-24T12:22:22.000Z</time>
      </trkpt>
      <trkpt lat="45.5926" lon="6.61319">
        <ele>2410.6000976562</ele>
        <time>2012-02-24T12:22:31.000Z</time>
      </trkpt>
      <trkpt lat="45.59258" lon="6.61326">
        <ele>2412</ele>
        <time>2012-02-24T12:22:40.000Z</time>
      </trkpt>
      <trkpt lat="45.59259" lon="6.61332">
        <ele>2412.8000488281</ele>
        <time>2012-02-24T12:22:47.000Z</time>
      </trkpt>
      <trkpt lat="45.59259" lon="6.61338">
        <ele>2414</ele>
        <time>2012-02-24T12:22:54.000Z</time>
      </trkpt>
      <trkpt lat="45.5926" lon="6.61345">
        <ele>2416.3999023438</ele>
        <time>2012-02-24T12:23:03.000Z</time>
      </trkpt>
      <trkpt lat="45.5926" lon="6.61348">
        <ele>2416.6000976562</ele>
        <time>2012-02-24T12:23:11.000Z</time>
      </trkpt>
      <trkpt lat="45.59263" lon="6.61344">
        <ele>2417.1999511719</ele>
        <time>2012-02-24T12:23:19.000Z</time>
      </trkpt>
      <trkpt lat="45.59267" lon="6.61341">
        <ele>2418.3999023438</ele>
        <time>2012-02-24T12:23:26.000Z</time>
      </trkpt>
      <trkpt lat="45.59271" lon="6.61338">
        <ele>2419.3999023438</ele>
        <time>2012-02-24T12:23:34.000Z</time>
      </trkpt>
      <trkpt lat="45.59276" lon="6.61338">
        <ele>2420.8000488281</ele>
        <time>2012-02-24T12:23:42.000Z</time>
      </trkpt>
      <trkpt lat="45.59277" lon="6.61338">
        <ele>2422.1999511719</ele>
        <time>2012-02-24T12:23:45.000Z</time>
      </trkpt>
      <trkpt lat="45.5928" lon="6.61339">
        <ele>2422.1999511719</ele>
        <time>2012-02-24T12:23:53.000Z</time>
      </trkpt>
      <trkpt lat="45.59278" lon="6.61343">
        <ele>2422.8000488281</ele>
        <time>2012-02-24T12:24:10.000Z</time>
      </trkpt>
      <trkpt lat="45.59277" lon="6.6135">
        <ele>2424.6000976562</ele>
        <time>2012-02-24T12:24:17.000Z</time>
      </trkpt>
      <trkpt lat="45.59275" lon="6.61358">
        <ele>2424.8000488281</ele>
        <time>2012-02-24T12:24:27.000Z</time>
      </trkpt>
      <trkpt lat="45.59274" lon="6.61364">
        <ele>2426</ele>
        <time>2012-02-24T12:24:35.000Z</time>
      </trkpt>
      <trkpt lat="45.59272" lon="6.61371">
        <ele>2425.8000488281</ele>
        <time>2012-02-24T12:24:43.000Z</time>
      </trkpt>
      <trkpt lat="45.59272" lon="6.61375">
        <ele>2426.1999511719</ele>
        <time>2012-02-24T12:24:49.000Z</time>
      </trkpt>
      <trkpt lat="45.59272" lon="6.61381">
        <ele>2425.6000976562</ele>
        <time>2012-02-24T12:25:00.000Z</time>
      </trkpt>
      <trkpt lat="45.59271" lon="6.61386">
        <ele>2425.1999511719</ele>
        <time>2012-02-24T12:25:06.000Z</time>
      </trkpt>
      <trkpt lat="45.59269" lon="6.61394">
        <ele>2424</ele>
        <time>2012-02-24T12:25:14.000Z</time>
      </trkpt>
      <trkpt lat="45.59264" lon="6.61403">
        <ele>2424.3999023438</ele>
        <time>2012-02-24T12:25:22.000Z</time>
      </trkpt>
      <trkpt lat="45.59259" lon="6.6141">
        <ele>2425.6000976562</ele>
        <time>2012-02-24T12:25:30.000Z</time>
      </trkpt>
      <trkpt lat="45.59253" lon="6.61416">
        <ele>2425.8000488281</ele>
        <time>2012-02-24T12:25:38.000Z</time>
      </trkpt>
      <trkpt lat="45.59251" lon="6.61417">
        <ele>2426.8000488281</ele>
        <time>2012-02-24T12:25:40.000Z</time>
      </trkpt>
      <trkpt lat="45.59243" lon="6.61422">
        <ele>2427.8000488281</ele>
        <time>2012-02-24T12:25:49.000Z</time>
      </trkpt>
      <trkpt lat="45.59237" lon="6.61425">
        <ele>2426.8000488281</ele>
        <time>2012-02-24T12:25:56.000Z</time>
      </trkpt>
      <trkpt lat="45.59233" lon="6.61428">
        <ele>2427.8000488281</ele>
        <time>2012-02-24T12:26:02.000Z</time>
      </trkpt>
      <trkpt lat="45.59227" lon="6.61431">
        <ele>2429</ele>
        <time>2012-02-24T12:26:10.000Z</time>
      </trkpt>
      <trkpt lat="45.59222" lon="6.61435">
        <ele>2428.8000488281</ele>
        <time>2012-02-24T12:26:18.000Z</time>
      </trkpt>
      <trkpt lat="45.59216" lon="6.6144">
        <ele>2431</ele>
        <time>2012-02-24T12:26:26.000Z</time>
      </trkpt>
      <trkpt lat="45.59214" lon="6.61442">
        <ele>2431</ele>
        <time>2012-02-24T12:26:31.000Z</time>
      </trkpt>
      <trkpt lat="45.59213" lon="6.61443">
        <ele>2431</ele>
        <time>2012-02-24T12:26:32.000Z</time>
      </trkpt>
      <trkpt lat="45.59211" lon="6.61447">
        <ele>2431.1999511719</ele>
        <time>2012-02-24T12:26:38.000Z</time>
      </trkpt>
      <trkpt lat="45.59208" lon="6.6145">
        <ele>2431.8000488281</ele>
        <time>2012-02-24T12:26:44.000Z</time>
      </trkpt>
      <trkpt lat="45.59204" lon="6.61455">
        <ele>2431.8000488281</ele>
        <time>2012-02-24T12:26:53.000Z</time>
      </trkpt>
      <trkpt lat="45.59202" lon="6.61457">
        <ele>2432.3999023438</ele>
        <time>2012-02-24T12:27:00.000Z</time>
      </trkpt>
      <trkpt lat="45.592" lon="6.6146">
        <ele>2432.6000976562</ele>
        <time>2012-02-24T12:27:07.000Z</time>
      </trkpt>
      <trkpt lat="45.59197" lon="6.61464">
        <ele>2432</ele>
        <time>2012-02-24T12:27:13.000Z</time>
      </trkpt>
      <trkpt lat="45.59193" lon="6.6147">
        <ele>2432.3999023438</ele>
        <time>2012-02-24T12:27:21.000Z</time>
      </trkpt>
      <trkpt lat="45.59189" lon="6.61475">
        <ele>2433</ele>
        <time>2012-02-24T12:27:29.000Z</time>
      </trkpt>
      <trkpt lat="45.59184" lon="6.6148">
        <ele>2432.3999023438</ele>
        <time>2012-02-24T12:27:38.000Z</time>
      </trkpt>
      <trkpt lat="45.59182" lon="6.61482">
        <ele>2432</ele>
        <time>2012-02-24T12:27:41.000Z</time>
      </trkpt>
      <trkpt lat="45.59178" lon="6.61487">
        <ele>2431.3999023438</ele>
        <time>2012-02-24T12:27:48.000Z</time>
      </trkpt>
      <trkpt lat="45.59175" lon="6.61493">
        <ele>2431.3999023438</ele>
        <time>2012-02-24T12:27:55.000Z</time>
      </trkpt>
      <trkpt lat="45.5917" lon="6.61499">
        <ele>2430.3999023438</ele>
        <time>2012-02-24T12:28:04.000Z</time>
      </trkpt>
      <trkpt lat="45.59168" lon="6.61501">
        <ele>2430.3999023438</ele>
        <time>2012-02-24T12:28:07.000Z</time>
      </trkpt>
      <trkpt lat="45.59162" lon="6.61509">
        <ele>2430.8000488281</ele>
        <time>2012-02-24T12:28:17.000Z</time>
      </trkpt>
      <trkpt lat="45.59158" lon="6.61512">
        <ele>2430</ele>
        <time>2012-02-24T12:28:24.000Z</time>
      </trkpt>
      <trkpt lat="45.59154" lon="6.61516">
        <ele>2431.3999023438</ele>
        <time>2012-02-24T12:28:32.000Z</time>
      </trkpt>
      <trkpt lat="45.59153" lon="6.61518">
        <ele>2432.1999511719</ele>
        <time>2012-02-24T12:28:37.000Z</time>
      </trkpt>
      <trkpt lat="45.59146" lon="6.61524">
        <ele>2432</ele>
        <time>2012-02-24T12:28:46.000Z</time>
      </trkpt>
      <trkpt lat="45.59139" lon="6.61527">
        <ele>2431.1999511719</ele>
        <time>2012-02-24T12:28:53.000Z</time>
      </trkpt>
      <trkpt lat="45.59129" lon="6.61532">
        <ele>2431</ele>
        <time>2012-02-24T12:29:01.000Z</time>
      </trkpt>
      <trkpt lat="45.59121" lon="6.61535">
        <ele>2429.8000488281</ele>
        <time>2012-02-24T12:29:08.000Z</time>
      </trkpt>
      <trkpt lat="45.5911" lon="6.61538">
        <ele>2430.6000976562</ele>
        <time>2012-02-24T12:29:18.000Z</time>
      </trkpt>
      <trkpt lat="45.591" lon="6.61542">
        <ele>2428.8000488281</ele>
        <time>2012-02-24T12:29:26.000Z</time>
      </trkpt>
      <trkpt lat="45.59088" lon="6.61546">
        <ele>2426.6000976562</ele>
        <time>2012-02-24T12:29:34.000Z</time>
      </trkpt>
      <trkpt lat="45.59071" lon="6.61551">
        <ele>2423.8000488281</ele>
        <time>2012-02-24T12:29:43.000Z</time>
      </trkpt>
      <trkpt lat="45.59062" lon="6.61555">
        <ele>2421.8000488281</ele>
        <time>2012-02-24T12:29:50.000Z</time>
      </trkpt>
      <trkpt lat="45.59051" lon="6.61559">
        <ele>2421.6000976562</ele>
        <time>2012-02-24T12:29:59.000Z</time>
      </trkpt>
      <trkpt lat="45.59043" lon="6.61562">
        <ele>2422</ele>
        <time>2012-02-24T12:30:07.000Z</time>
      </trkpt>
      <trkpt lat="45.5904" lon="6.61563">
        <ele>2424.1999511719</ele>
        <time>2012-02-24T12:30:10.000Z</time>
      </trkpt>
      <trkpt lat="45.59033" lon="6.61565">
        <ele>2425</ele>
        <time>2012-02-24T12:30:18.000Z</time>
      </trkpt>
      <trkpt lat="45.59028" lon="6.61567">
        <ele>2426.6000976562</ele>
        <time>2012-02-24T12:30:25.000Z</time>
      </trkpt>
      <trkpt lat="45.59022" lon="6.61569">
        <ele>2428.8000488281</ele>
        <time>2012-02-24T12:30:34.000Z</time>
      </trkpt>
      <trkpt lat="45.59017" lon="6.6157">
        <ele>2429.8000488281</ele>
        <time>2012-02-24T12:30:42.000Z</time>
      </trkpt>
      <trkpt lat="45.59013" lon="6.61571">
        <ele>2431</ele>
        <time>2012-02-24T12:30:47.000Z</time>
      </trkpt>
      <trkpt lat="45.59006" lon="6.61574">
        <ele>2431.1999511719</ele>
        <time>2012-02-24T12:30:57.000Z</time>
      </trkpt>
      <trkpt lat="45.58998" lon="6.61578">
        <ele>2432</ele>
        <time>2012-02-24T12:31:08.000Z</time>
      </trkpt>
      <trkpt lat="45.58989" lon="6.61581">
        <ele>2432</ele>
        <time>2012-02-24T12:31:19.000Z</time>
      </trkpt>
      <trkpt lat="45.58982" lon="6.61584">
        <ele>2436.1999511719</ele>
        <time>2012-02-24T12:31:30.000Z</time>
      </trkpt>
      <trkpt lat="45.58974" lon="6.61586">
        <ele>2437</ele>
        <time>2012-02-24T12:31:41.000Z</time>
      </trkpt>
      <trkpt lat="45.58972" lon="6.61587">
        <ele>2438.1999511719</ele>
        <time>2012-02-24T12:31:44.000Z</time>
      </trkpt>
      <trkpt lat="45.5897" lon="6.61587">
        <ele>2440.1999511719</ele>
        <time>2012-02-24T12:31:47.000Z</time>
      </trkpt>
      <trkpt lat="45.58963" lon="6.6159">
        <ele>2441.3999023438</ele>
        <time>2012-02-24T12:31:57.000Z</time>
      </trkpt>
      <trkpt lat="45.58958" lon="6.61593">
        <ele>2441.6000976562</ele>
        <time>2012-02-24T12:32:05.000Z</time>
      </trkpt>
      <trkpt lat="45.58954" lon="6.61594">
        <ele>2443.8000488281</ele>
        <time>2012-02-24T12:32:14.000Z</time>
      </trkpt>
      <trkpt lat="45.58949" lon="6.61595">
        <ele>2445</ele>
        <time>2012-02-24T12:32:22.000Z</time>
      </trkpt>
      <trkpt lat="45.58946" lon="6.61596">
        <ele>2446.6000976562</ele>
        <time>2012-02-24T12:32:29.000Z</time>
      </trkpt>
      <trkpt lat="45.58943" lon="6.61596">
        <ele>2447.1999511719</ele>
        <time>2012-02-24T12:32:39.000Z</time>
      </trkpt>
      <trkpt lat="45.58944" lon="6.61597">
        <ele>2448.1999511719</ele>
        <time>2012-02-24T12:33:12.000Z</time>
      </trkpt>
      <trkpt lat="45.58944" lon="6.61598">
        <ele>2447.1999511719</ele>
        <time>2012-02-24T12:33:20.000Z</time>
      </trkpt>
      <trkpt lat="45.58944" lon="6.61596">
        <ele>2447.1999511719</ele>
        <time>2012-02-24T12:33:42.000Z</time>
      </trkpt>
      <trkpt lat="45.58942" lon="6.61599">
        <ele>2447</ele>
        <time>2012-02-24T12:34:35.000Z</time>
      </trkpt>
      <trkpt lat="45.58943" lon="6.61598">
        <ele>2448</ele>
        <time>2012-02-24T12:35:00.000Z</time>
      </trkpt>
      <trkpt lat="45.58944" lon="6.61597">
        <ele>2448.6000976562</ele>
        <time>2012-02-24T12:35:28.000Z</time>
      </trkpt>
      <trkpt lat="45.58943" lon="6.61599">
        <ele>2448.1999511719</ele>
        <time>2012-02-24T12:36:06.000Z</time>
      </trkpt>
      <trkpt lat="45.58946" lon="6.61598">
        <ele>2447.1999511719</ele>
        <time>2012-02-24T12:37:11.000Z</time>
      </trkpt>
      <trkpt lat="45.58945" lon="6.61599">
        <ele>2446.6000976562</ele>
        <time>2012-02-24T12:37:19.000Z</time>
      </trkpt>
      <trkpt lat="45.58945" lon="6.61595">
        <ele>2447.1999511719</ele>
        <time>2012-02-24T12:38:50.000Z</time>
      </trkpt>
      <trkpt lat="45.58943" lon="6.61596">
        <ele>2447.8000488281</ele>
        <time>2012-02-24T12:38:57.000Z</time>
      </trkpt>
      <trkpt lat="45.58943" lon="6.61597">
        <ele>2447.8000488281</ele>
        <time>2012-02-24T12:38:58.000Z</time>
      </trkpt>
      <trkpt lat="45.58944" lon="6.61601">
        <ele>2447.3999023438</ele>
        <time>2012-02-24T12:39:06.000Z</time>
      </trkpt>
      <trkpt lat="45.58945" lon="6.61603">
        <ele>2447.8000488281</ele>
        <time>2012-02-24T12:40:11.000Z</time>
      </trkpt>
      <trkpt lat="45.58945" lon="6.61602">
        <ele>2446.6000976562</ele>
        <time>2012-02-24T12:40:51.000Z</time>
      </trkpt>
      <trkpt lat="45.58945" lon="6.616">
        <ele>2447.6000976562</ele>
        <time>2012-02-24T12:41:11.000Z</time>
      </trkpt>
      <trkpt lat="45.58945" lon="6.61598">
        <ele>2447.6000976562</ele>
        <time>2012-02-24T12:41:34.000Z</time>
      </trkpt>
      <trkpt lat="45.58945" lon="6.616">
        <ele>2447.6000976562</ele>
        <time>2012-02-24T12:42:06.000Z</time>
      </trkpt>
      <trkpt lat="45.58945" lon="6.61598">
        <ele>2447.3999023438</ele>
        <time>2012-02-24T12:42:31.000Z</time>
      </trkpt>
      <trkpt lat="45.58944" lon="6.61596">
        <ele>2448</ele>
        <time>2012-02-24T12:42:35.000Z</time>
      </trkpt>
      <trkpt lat="45.58946" lon="6.61594">
        <ele>2449.6000976562</ele>
        <time>2012-02-24T12:43:20.000Z</time>
      </trkpt>
      <trkpt lat="45.58947" lon="6.61595">
        <ele>2448.6000976562</ele>
        <time>2012-02-24T12:43:23.000Z</time>
      </trkpt>
      <trkpt lat="45.5895" lon="6.61596">
        <ele>2447.6000976562</ele>
        <time>2012-02-24T12:43:25.000Z</time>
      </trkpt>
      <trkpt lat="45.5896" lon="6.61594">
        <ele>2445.8000488281</ele>
        <time>2012-02-24T12:43:28.000Z</time>
      </trkpt>
      <trkpt lat="45.58974" lon="6.61589">
        <ele>2442.8000488281</ele>
        <time>2012-02-24T12:43:31.000Z</time>
      </trkpt>
      <trkpt lat="45.58983" lon="6.61585">
        <ele>2441.6000976562</ele>
        <time>2012-02-24T12:43:33.000Z</time>
      </trkpt>
      <trkpt lat="45.58993" lon="6.61583">
        <ele>2439.1999511719</ele>
        <time>2012-02-24T12:43:35.000Z</time>
      </trkpt>
      <trkpt lat="45.59013" lon="6.61576">
        <ele>2435.3999023438</ele>
        <time>2012-02-24T12:43:38.000Z</time>
      </trkpt>
      <trkpt lat="45.59036" lon="6.61572">
        <ele>2430</ele>
        <time>2012-02-24T12:43:42.000Z</time>
      </trkpt>
      <trkpt lat="45.59066" lon="6.61557">
        <ele>2424.8000488281</ele>
        <time>2012-02-24T12:43:46.000Z</time>
      </trkpt>
      <trkpt lat="45.59075" lon="6.61552">
        <ele>2423.8000488281</ele>
        <time>2012-02-24T12:43:48.000Z</time>
      </trkpt>
      <trkpt lat="45.59077" lon="6.61551">
        <ele>2424.6000976562</ele>
        <time>2012-02-24T12:43:51.000Z</time>
      </trkpt>
      <trkpt lat="45.59076" lon="6.61547">
        <ele>2424.6000976562</ele>
        <time>2012-02-24T12:44:49.000Z</time>
      </trkpt>
      <trkpt lat="45.59075" lon="6.6155">
        <ele>2424.3999023438</ele>
        <time>2012-02-24T12:45:05.000Z</time>
      </trkpt>
      <trkpt lat="45.5908" lon="6.61552">
        <ele>2426.1999511719</ele>
        <time>2012-02-24T12:46:17.000Z</time>
      </trkpt>
      <trkpt lat="45.59084" lon="6.61553">
        <ele>2426.3999023438</ele>
        <time>2012-02-24T12:46:51.000Z</time>
      </trkpt>
      <trkpt lat="45.59094" lon="6.61551">
        <ele>2428</ele>
        <time>2012-02-24T12:47:01.000Z</time>
      </trkpt>
      <trkpt lat="45.59103" lon="6.61549">
        <ele>2429</ele>
        <time>2012-02-24T12:47:10.000Z</time>
      </trkpt>
      <trkpt lat="45.59105" lon="6.61548">
        <ele>2430.8000488281</ele>
        <time>2012-02-24T12:47:13.000Z</time>
      </trkpt>
      <trkpt lat="45.59113" lon="6.61545">
        <ele>2430.1999511719</ele>
        <time>2012-02-24T12:47:21.000Z</time>
      </trkpt>
      <trkpt lat="45.59118" lon="6.61543">
        <ele>2431.6000976562</ele>
        <time>2012-02-24T12:47:27.000Z</time>
      </trkpt>
      <trkpt lat="45.59128" lon="6.6154">
        <ele>2431.3999023438</ele>
        <time>2012-02-24T12:47:37.000Z</time>
      </trkpt>
      <trkpt lat="45.59137" lon="6.61539">
        <ele>2431.1999511719</ele>
        <time>2012-02-24T12:47:47.000Z</time>
      </trkpt>
      <trkpt lat="45.59142" lon="6.61539">
        <ele>2433</ele>
        <time>2012-02-24T12:47:52.000Z</time>
      </trkpt>
      <trkpt lat="45.59149" lon="6.61537">
        <ele>2435.1999511719</ele>
        <time>2012-02-24T12:48:01.000Z</time>
      </trkpt>
      <trkpt lat="45.59156" lon="6.61534">
        <ele>2436.1999511719</ele>
        <time>2012-02-24T12:48:11.000Z</time>
      </trkpt>
      <trkpt lat="45.59162" lon="6.61534">
        <ele>2438.3999023438</ele>
        <time>2012-02-24T12:48:22.000Z</time>
      </trkpt>
      <trkpt lat="45.59165" lon="6.61536">
        <ele>2439.3999023438</ele>
        <time>2012-02-24T12:48:37.000Z</time>
      </trkpt>
      <trkpt lat="45.59167" lon="6.61537">
        <ele>2440.1999511719</ele>
        <time>2012-02-24T12:48:40.000Z</time>
      </trkpt>
      <trkpt lat="45.59172" lon="6.61541">
        <ele>2441</ele>
        <time>2012-02-24T12:48:50.000Z</time>
      </trkpt>
      <trkpt lat="45.59176" lon="6.61544">
        <ele>2442.3999023438</ele>
        <time>2012-02-24T12:48:58.000Z</time>
      </trkpt>
      <trkpt lat="45.59179" lon="6.61548">
        <ele>2443.6000976562</ele>
        <time>2012-02-24T12:49:07.000Z</time>
      </trkpt>
      <trkpt lat="45.59181" lon="6.61545">
        <ele>2445.3999023438</ele>
        <time>2012-02-24T12:49:14.000Z</time>
      </trkpt>
      <trkpt lat="45.59182" lon="6.6154">
        <ele>2445.6000976562</ele>
        <time>2012-02-24T12:49:20.000Z</time>
      </trkpt>
      <trkpt lat="45.59186" lon="6.61535">
        <ele>2447.3999023438</ele>
        <time>2012-02-24T12:49:29.000Z</time>
      </trkpt>
      <trkpt lat="45.59188" lon="6.61532">
        <ele>2448.6000976562</ele>
        <time>2012-02-24T12:49:33.000Z</time>
      </trkpt>
      <trkpt lat="45.5919" lon="6.61528">
        <ele>2450.1999511719</ele>
        <time>2012-02-24T12:49:40.000Z</time>
      </trkpt>
      <trkpt lat="45.59193" lon="6.61529">
        <ele>2450.6000976562</ele>
        <time>2012-02-24T12:49:45.000Z</time>
      </trkpt>
      <trkpt lat="45.59198" lon="6.61533">
        <ele>2452.3999023438</ele>
        <time>2012-02-24T12:49:55.000Z</time>
      </trkpt>
      <trkpt lat="45.59204" lon="6.61536">
        <ele>2453.3999023438</ele>
        <time>2012-02-24T12:50:04.000Z</time>
      </trkpt>
      <trkpt lat="45.59209" lon="6.61539">
        <ele>2455.3999023438</ele>
        <time>2012-02-24T12:50:13.000Z</time>
      </trkpt>
      <trkpt lat="45.59215" lon="6.6154">
        <ele>2457.3999023438</ele>
        <time>2012-02-24T12:50:23.000Z</time>
      </trkpt>
      <trkpt lat="45.5922" lon="6.61542">
        <ele>2457</ele>
        <time>2012-02-24T12:50:31.000Z</time>
      </trkpt>
      <trkpt lat="45.59227" lon="6.6154">
        <ele>2461.1999511719</ele>
        <time>2012-02-24T12:50:40.000Z</time>
      </trkpt>
      <trkpt lat="45.59233" lon="6.61536">
        <ele>2461.6000976562</ele>
        <time>2012-02-24T12:50:50.000Z</time>
      </trkpt>
      <trkpt lat="45.59236" lon="6.61531">
        <ele>2463.8000488281</ele>
        <time>2012-02-24T12:50:57.000Z</time>
      </trkpt>
      <trkpt lat="45.59242" lon="6.61524">
        <ele>2464.1999511719</ele>
        <time>2012-02-24T12:51:07.000Z</time>
      </trkpt>
      <trkpt lat="45.59247" lon="6.61521">
        <ele>2466.6000976562</ele>
        <time>2012-02-24T12:51:15.000Z</time>
      </trkpt>
      <trkpt lat="45.59251" lon="6.61518">
        <ele>2465.8000488281</ele>
        <time>2012-02-24T12:51:23.000Z</time>
      </trkpt>
      <trkpt lat="45.59254" lon="6.61518">
        <ele>2465.8000488281</ele>
        <time>2012-02-24T12:51:28.000Z</time>
      </trkpt>
      <trkpt lat="45.5926" lon="6.61518">
        <ele>2467.6000976562</ele>
        <time>2012-02-24T12:51:37.000Z</time>
      </trkpt>
      <trkpt lat="45.59268" lon="6.61517">
        <ele>2471</ele>
        <time>2012-02-24T12:51:47.000Z</time>
      </trkpt>
      <trkpt lat="45.59269" lon="6.61517">
        <ele>2470.8000488281</ele>
        <time>2012-02-24T12:51:48.000Z</time>
      </trkpt>
      <trkpt lat="45.59275" lon="6.61512">
        <ele>2472</ele>
        <time>2012-02-24T12:51:57.000Z</time>
      </trkpt>
      <trkpt lat="45.59281" lon="6.61513">
        <ele>2473.6000976562</ele>
        <time>2012-02-24T12:52:05.000Z</time>
      </trkpt>
      <trkpt lat="45.59282" lon="6.61513">
        <ele>2473.8000488281</ele>
        <time>2012-02-24T12:52:06.000Z</time>
      </trkpt>
      <trkpt lat="45.59286" lon="6.61515">
        <ele>2474.1999511719</ele>
        <time>2012-02-24T12:52:12.000Z</time>
      </trkpt>
      <trkpt lat="45.59293" lon="6.61518">
        <ele>2477.3999023438</ele>
        <time>2012-02-24T12:52:22.000Z</time>
      </trkpt>
      <trkpt lat="45.59299" lon="6.6152">
        <ele>2479.1999511719</ele>
        <time>2012-02-24T12:52:31.000Z</time>
      </trkpt>
      <trkpt lat="45.59306" lon="6.61523">
        <ele>2479.1999511719</ele>
        <time>2012-02-24T12:52:41.000Z</time>
      </trkpt>
      <trkpt lat="45.59312" lon="6.61525">
        <ele>2480</ele>
        <time>2012-02-24T12:52:50.000Z</time>
      </trkpt>
      <trkpt lat="45.59315" lon="6.61525">
        <ele>2482</ele>
        <time>2012-02-24T12:52:56.000Z</time>
      </trkpt>
      <trkpt lat="45.59319" lon="6.61525">
        <ele>2483.1999511719</ele>
        <time>2012-02-24T12:53:03.000Z</time>
      </trkpt>
      <trkpt lat="45.59324" lon="6.61524">
        <ele>2485.8000488281</ele>
        <time>2012-02-24T12:53:11.000Z</time>
      </trkpt>
      <trkpt lat="45.59328" lon="6.61524">
        <ele>2486</ele>
        <time>2012-02-24T12:53:17.000Z</time>
      </trkpt>
      <trkpt lat="45.5934" lon="6.61522">
        <ele>2485.8000488281</ele>
        <time>2012-02-24T12:53:28.000Z</time>
      </trkpt>
      <trkpt lat="45.59348" lon="6.61518">
        <ele>2487.8000488281</ele>
        <time>2012-02-24T12:53:38.000Z</time>
      </trkpt>
      <trkpt lat="45.59355" lon="6.61514">
        <ele>2488.3999023438</ele>
        <time>2012-02-24T12:53:47.000Z</time>
      </trkpt>
      <trkpt lat="45.59362" lon="6.61511">
        <ele>2488.8000488281</ele>
        <time>2012-02-24T12:53:56.000Z</time>
      </trkpt>
      <trkpt lat="45.59366" lon="6.6151">
        <ele>2491</ele>
        <time>2012-02-24T12:54:00.000Z</time>
      </trkpt>
      <trkpt lat="45.59372" lon="6.61508">
        <ele>2491.6000976562</ele>
        <time>2012-02-24T12:54:08.000Z</time>
      </trkpt>
      <trkpt lat="45.59382" lon="6.61509">
        <ele>2493.1999511719</ele>
        <time>2012-02-24T12:54:20.000Z</time>
      </trkpt>
      <trkpt lat="45.59392" lon="6.61509">
        <ele>2495</ele>
        <time>2012-02-24T12:54:31.000Z</time>
      </trkpt>
      <trkpt lat="45.594" lon="6.6151">
        <ele>2497</ele>
        <time>2012-02-24T12:54:41.000Z</time>
      </trkpt>
      <trkpt lat="45.59401" lon="6.6151">
        <ele>2497.3999023438</ele>
        <time>2012-02-24T12:54:42.000Z</time>
      </trkpt>
      <trkpt lat="45.5941" lon="6.61511">
        <ele>2497.8000488281</ele>
        <time>2012-02-24T12:54:53.000Z</time>
      </trkpt>
      <trkpt lat="45.59417" lon="6.61511">
        <ele>2499.1999511719</ele>
        <time>2012-02-24T12:55:02.000Z</time>
      </trkpt>
      <trkpt lat="45.5942" lon="6.61511">
        <ele>2502.1999511719</ele>
        <time>2012-02-24T12:55:07.000Z</time>
      </trkpt>
      <trkpt lat="45.59426" lon="6.61511">
        <ele>2501.3999023438</ele>
        <time>2012-02-24T12:55:16.000Z</time>
      </trkpt>
      <trkpt lat="45.5943" lon="6.61511">
        <ele>2504.3999023438</ele>
        <time>2012-02-24T12:55:22.000Z</time>
      </trkpt>
      <trkpt lat="45.59432" lon="6.61511">
        <ele>2505.6000976562</ele>
        <time>2012-02-24T12:55:24.000Z</time>
      </trkpt>
      <trkpt lat="45.5944" lon="6.61512">
        <ele>2506.1999511719</ele>
        <time>2012-02-24T12:55:35.000Z</time>
      </trkpt>
      <trkpt lat="45.59447" lon="6.61514">
        <ele>2507.1999511719</ele>
        <time>2012-02-24T12:55:44.000Z</time>
      </trkpt>
      <trkpt lat="45.5945" lon="6.61515">
        <ele>2507.8000488281</ele>
        <time>2012-02-24T12:55:53.000Z</time>
      </trkpt>
      <trkpt lat="45.5945" lon="6.61514">
        <ele>2506.6000976562</ele>
        <time>2012-02-24T12:56:03.000Z</time>
      </trkpt>
      <trkpt lat="45.59451" lon="6.61514">
        <ele>2509.1999511719</ele>
        <time>2012-02-24T12:56:07.000Z</time>
      </trkpt>
      <trkpt lat="45.59452" lon="6.61513">
        <ele>2507.8000488281</ele>
        <time>2012-02-24T12:56:11.000Z</time>
      </trkpt>
      <trkpt lat="45.59451" lon="6.6151">
        <ele>2507.8000488281</ele>
        <time>2012-02-24T12:56:24.000Z</time>
      </trkpt>
      <trkpt lat="45.5945" lon="6.61508">
        <ele>2507.6000976562</ele>
        <time>2012-02-24T12:56:29.000Z</time>
      </trkpt>
      <trkpt lat="45.59451" lon="6.61513">
        <ele>2508.1999511719</ele>
        <time>2012-02-24T12:56:49.000Z</time>
      </trkpt>
      <trkpt lat="45.59451" lon="6.61512">
        <ele>2508</ele>
        <time>2012-02-24T12:56:54.000Z</time>
      </trkpt>
      <trkpt lat="45.59451" lon="6.6151">
        <ele>2507.8000488281</ele>
        <time>2012-02-24T12:57:02.000Z</time>
      </trkpt>
      <trkpt lat="45.59452" lon="6.6151">
        <ele>2506.8000488281</ele>
        <time>2012-02-24T12:57:21.000Z</time>
      </trkpt>
      <trkpt lat="45.59452" lon="6.6151">
        <ele>2508</ele>
        <time>2012-02-24T12:57:23.000Z</time>
      </trkpt>
      <trkpt lat="45.59452" lon="6.61512">
        <ele>2508.1999511719</ele>
        <time>2012-02-24T12:57:34.000Z</time>
      </trkpt>
      <trkpt lat="45.59453" lon="6.61513">
        <ele>2508</ele>
        <time>2012-02-24T12:57:40.000Z</time>
      </trkpt>
      <trkpt lat="45.59453" lon="6.61511">
        <ele>2508</ele>
        <time>2012-02-24T12:57:50.000Z</time>
      </trkpt>
      <trkpt lat="45.59451" lon="6.61513">
        <ele>2508</ele>
        <time>2012-02-24T12:58:46.000Z</time>
      </trkpt>
      <trkpt lat="45.59451" lon="6.61511">
        <ele>2508.1999511719</ele>
        <time>2012-02-24T12:59:20.000Z</time>
      </trkpt>
      <trkpt lat="45.5945" lon="6.61511">
        <ele>2507.1999511719</ele>
        <time>2012-02-24T13:02:03.000Z</time>
      </trkpt>
      <trkpt lat="45.59453" lon="6.61509">
        <ele>2508</ele>
        <time>2012-02-24T13:02:32.000Z</time>
      </trkpt>
      <trkpt lat="45.5945" lon="6.61513">
        <ele>2508.6000976562</ele>
        <time>2012-02-24T13:03:41.000Z</time>
      </trkpt>
      <trkpt lat="45.59452" lon="6.61514">
        <ele>2507.6000976562</ele>
        <time>2012-02-24T13:06:48.000Z</time>
      </trkpt>
      <trkpt lat="45.5945" lon="6.61517">
        <ele>2507.3999023438</ele>
        <time>2012-02-24T13:07:31.000Z</time>
      </trkpt>
      <trkpt lat="45.59449" lon="6.61513">
        <ele>2507.1999511719</ele>
        <time>2012-02-24T13:09:08.000Z</time>
      </trkpt>
      <trkpt lat="45.5945" lon="6.61514">
        <ele>2506.8000488281</ele>
        <time>2012-02-24T13:12:39.000Z</time>
      </trkpt>
      <trkpt lat="45.59451" lon="6.61515">
        <ele>2508.1999511719</ele>
        <time>2012-02-24T13:13:24.000Z</time>
      </trkpt>
      <trkpt lat="45.59453" lon="6.61515">
        <ele>2507.3999023438</ele>
        <time>2012-02-24T13:13:29.000Z</time>
      </trkpt>
      <trkpt lat="45.59457" lon="6.61519">
        <ele>2507.3999023438</ele>
        <time>2012-02-24T13:13:38.000Z</time>
      </trkpt>
      <trkpt lat="45.59456" lon="6.61519">
        <ele>2507.6000976562</ele>
        <time>2012-02-24T13:13:57.000Z</time>
      </trkpt>
      <trkpt lat="45.59451" lon="6.61516">
        <ele>2507.3999023438</ele>
        <time>2012-02-24T13:14:05.000Z</time>
      </trkpt>
      <trkpt lat="45.59451" lon="6.61514">
        <ele>2508.8000488281</ele>
        <time>2012-02-24T13:16:02.000Z</time>
      </trkpt>
      <trkpt lat="45.5945" lon="6.61515">
        <ele>2507.6000976562</ele>
        <time>2012-02-24T13:16:11.000Z</time>
      </trkpt>
      <trkpt lat="45.59446" lon="6.6151">
        <ele>2507.3999023438</ele>
        <time>2012-02-24T13:16:37.000Z</time>
      </trkpt>
      <trkpt lat="45.59445" lon="6.61507">
        <ele>2506.3999023438</ele>
        <time>2012-02-24T13:16:44.000Z</time>
      </trkpt>
      <trkpt lat="45.59447" lon="6.61509">
        <ele>2506.6000976562</ele>
        <time>2012-02-24T13:17:08.000Z</time>
      </trkpt>
      <trkpt lat="45.59447" lon="6.6151">
        <ele>2506.8000488281</ele>
        <time>2012-02-24T13:17:11.000Z</time>
      </trkpt>
      <trkpt lat="45.59448" lon="6.61512">
        <ele>2507.3999023438</ele>
        <time>2012-02-24T13:17:18.000Z</time>
      </trkpt>
      <trkpt lat="45.59444" lon="6.61509">
        <ele>2506.8000488281</ele>
        <time>2012-02-24T13:17:26.000Z</time>
      </trkpt>
      <trkpt lat="45.59443" lon="6.61506">
        <ele>2506.3999023438</ele>
        <time>2012-02-24T13:17:33.000Z</time>
      </trkpt>
      <trkpt lat="45.59446" lon="6.6151">
        <ele>2507.1999511719</ele>
        <time>2012-02-24T13:18:08.000Z</time>
      </trkpt>
      <trkpt lat="45.59448" lon="6.61512">
        <ele>2507.6000976562</ele>
        <time>2012-02-24T13:18:17.000Z</time>
      </trkpt>
      <trkpt lat="45.59449" lon="6.61513">
        <ele>2507</ele>
        <time>2012-02-24T13:18:26.000Z</time>
      </trkpt>
      <trkpt lat="45.59451" lon="6.61513">
        <ele>2509</ele>
        <time>2012-02-24T13:19:39.000Z</time>
      </trkpt>
      <trkpt lat="45.59451" lon="6.61513">
        <ele>2507.6000976562</ele>
        <time>2012-02-24T13:19:44.000Z</time>
      </trkpt>
      <trkpt lat="45.59451" lon="6.61514">
        <ele>2506.3999023438</ele>
        <time>2012-02-24T13:19:47.000Z</time>
      </trkpt>
      <trkpt lat="45.59451" lon="6.61514">
        <ele>2508</ele>
        <time>2012-02-24T13:19:49.000Z</time>
      </trkpt>
      <trkpt lat="45.59451" lon="6.61514">
        <ele>2509.1999511719</ele>
        <time>2012-02-24T13:19:51.000Z</time>
      </trkpt>
      <trkpt lat="45.59451" lon="6.61515">
        <ele>2507.3999023438</ele>
        <time>2012-02-24T13:19:54.000Z</time>
      </trkpt>
      <trkpt lat="45.59451" lon="6.61515">
        <ele>2508</ele>
        <time>2012-02-24T13:20:00.000Z</time>
      </trkpt>
      <trkpt lat="45.59451" lon="6.61513">
        <ele>2507.8000488281</ele>
        <time>2012-02-24T13:22:33.000Z</time>
      </trkpt>
      <trkpt lat="45.59453" lon="6.61514">
        <ele>2508</ele>
        <time>2012-02-24T13:22:44.000Z</time>
      </trkpt>
      <trkpt lat="45.59453" lon="6.61515">
        <ele>2508.1999511719</ele>
        <time>2012-02-24T13:22:51.000Z</time>
      </trkpt>
      <trkpt lat="45.59448" lon="6.61515">
        <ele>2507.8000488281</ele>
        <time>2012-02-24T13:22:55.000Z</time>
      </trkpt>
      <trkpt lat="45.59441" lon="6.61514">
        <ele>2507</ele>
        <time>2012-02-24T13:22:58.000Z</time>
      </trkpt>
      <trkpt lat="45.59438" lon="6.6151">
        <ele>2506</ele>
        <time>2012-02-24T13:23:02.000Z</time>
      </trkpt>
      <trkpt lat="45.59431" lon="6.61505">
        <ele>2505.3999023438</ele>
        <time>2012-02-24T13:23:06.000Z</time>
      </trkpt>
      <trkpt lat="45.59428" lon="6.61504">
        <ele>2504.6000976562</ele>
        <time>2012-02-24T13:23:07.000Z</time>
      </trkpt>
      <trkpt lat="45.59432" lon="6.61486">
        <ele>2501.1999511719</ele>
        <time>2012-02-24T13:23:11.000Z</time>
      </trkpt>
      <trkpt lat="45.59432" lon="6.61487">
        <ele>2499.3999023438</ele>
        <time>2012-02-24T13:23:14.000Z</time>
      </trkpt>
      <trkpt lat="45.59432" lon="6.61486">
        <ele>2499.6000976562</ele>
        <time>2012-02-24T13:23:16.000Z</time>
      </trkpt>
      <trkpt lat="45.5943" lon="6.61471">
        <ele>2497.1999511719</ele>
        <time>2012-02-24T13:23:20.000Z</time>
      </trkpt>
      <trkpt lat="45.59444" lon="6.61459">
        <ele>2491.3999023438</ele>
        <time>2012-02-24T13:23:23.000Z</time>
      </trkpt>
      <trkpt lat="45.59458" lon="6.61455">
        <ele>2489.1999511719</ele>
        <time>2012-02-24T13:23:26.000Z</time>
      </trkpt>
      <trkpt lat="45.59468" lon="6.61449">
        <ele>2487.8000488281</ele>
        <time>2012-02-24T13:23:31.000Z</time>
      </trkpt>
      <trkpt lat="45.59472" lon="6.61449">
        <ele>2486.1999511719</ele>
        <time>2012-02-24T13:23:34.000Z</time>
      </trkpt>
      <trkpt lat="45.59471" lon="6.61453">
        <ele>2485.8000488281</ele>
        <time>2012-02-24T13:24:31.000Z</time>
      </trkpt>
      <trkpt lat="45.59469" lon="6.61442">
        <ele>2484.3999023438</ele>
        <time>2012-02-24T13:24:35.000Z</time>
      </trkpt>
      <trkpt lat="45.59466" lon="6.61439">
        <ele>2483.6000976562</ele>
        <time>2012-02-24T13:24:37.000Z</time>
      </trkpt>
      <trkpt lat="45.59466" lon="6.61437">
        <ele>2483.3999023438</ele>
        <time>2012-02-24T13:24:45.000Z</time>
      </trkpt>
      <trkpt lat="45.5946" lon="6.6143">
        <ele>2482.3999023438</ele>
        <time>2012-02-24T13:24:51.000Z</time>
      </trkpt>
      <trkpt lat="45.59461" lon="6.61417">
        <ele>2479.6000976562</ele>
        <time>2012-02-24T13:24:54.000Z</time>
      </trkpt>
      <trkpt lat="45.59461" lon="6.61416">
        <ele>2477.6000976562</ele>
        <time>2012-02-24T13:24:57.000Z</time>
      </trkpt>
      <trkpt lat="45.59461" lon="6.61416">
        <ele>2477.3999023438</ele>
        <time>2012-02-24T13:24:58.000Z</time>
      </trkpt>
      <trkpt lat="45.59459" lon="6.61411">
        <ele>2476.8000488281</ele>
        <time>2012-02-24T13:25:01.000Z</time>
      </trkpt>
      <trkpt lat="45.59466" lon="6.61397">
        <ele>2472.6000976562</ele>
        <time>2012-02-24T13:25:06.000Z</time>
      </trkpt>
      <trkpt lat="45.59467" lon="6.61396">
        <ele>2470.8000488281</ele>
        <time>2012-02-24T13:25:09.000Z</time>
      </trkpt>
      <trkpt lat="45.59467" lon="6.61396">
        <ele>2471.1999511719</ele>
        <time>2012-02-24T13:25:11.000Z</time>
      </trkpt>
      <trkpt lat="45.5947" lon="6.61385">
        <ele>2468.6000976562</ele>
        <time>2012-02-24T13:25:16.000Z</time>
      </trkpt>
      <trkpt lat="45.59471" lon="6.61381">
        <ele>2467.8000488281</ele>
        <time>2012-02-24T13:25:18.000Z</time>
      </trkpt>
      <trkpt lat="45.5947" lon="6.61374">
        <ele>2464.3999023438</ele>
        <time>2012-02-24T13:25:21.000Z</time>
      </trkpt>
      <trkpt lat="45.59465" lon="6.61369">
        <ele>2461.3999023438</ele>
        <time>2012-02-24T13:25:25.000Z</time>
      </trkpt>
      <trkpt lat="45.59465" lon="6.61367">
        <ele>2459.6000976562</ele>
        <time>2012-02-24T13:25:28.000Z</time>
      </trkpt>
      <trkpt lat="45.59468" lon="6.61363">
        <ele>2458.6000976562</ele>
        <time>2012-02-24T13:25:51.000Z</time>
      </trkpt>
      <trkpt lat="45.59473" lon="6.61356">
        <ele>2457</ele>
        <time>2012-02-24T13:25:56.000Z</time>
      </trkpt>
      <trkpt lat="45.59473" lon="6.61345">
        <ele>2454.8000488281</ele>
        <time>2012-02-24T13:25:59.000Z</time>
      </trkpt>
      <trkpt lat="45.59475" lon="6.61329">
        <ele>2450</ele>
        <time>2012-02-24T13:26:02.000Z</time>
      </trkpt>
      <trkpt lat="45.59475" lon="6.61316">
        <ele>2445.8000488281</ele>
        <time>2012-02-24T13:26:05.000Z</time>
      </trkpt>
      <trkpt lat="45.59478" lon="6.61302">
        <ele>2441.1999511719</ele>
        <time>2012-02-24T13:26:08.000Z</time>
      </trkpt>
      <trkpt lat="45.59482" lon="6.61289">
        <ele>2438.1999511719</ele>
        <time>2012-02-24T13:26:10.000Z</time>
      </trkpt>
      <trkpt lat="45.59483" lon="6.61284">
        <ele>2436</ele>
        <time>2012-02-24T13:26:13.000Z</time>
      </trkpt>
      <trkpt lat="45.59484" lon="6.61284">
        <ele>2436.1999511719</ele>
        <time>2012-02-24T13:26:24.000Z</time>
      </trkpt>
      <trkpt lat="45.59486" lon="6.6128">
        <ele>2435.3999023438</ele>
        <time>2012-02-24T13:26:29.000Z</time>
      </trkpt>
      <trkpt lat="45.59486" lon="6.61279">
        <ele>2435.3999023438</ele>
        <time>2012-02-24T13:26:39.000Z</time>
      </trkpt>
      <trkpt lat="45.59488" lon="6.61282">
        <ele>2434.8000488281</ele>
        <time>2012-02-24T13:26:46.000Z</time>
      </trkpt>
      <trkpt lat="45.59489" lon="6.61286">
        <ele>2434.8000488281</ele>
        <time>2012-02-24T13:26:57.000Z</time>
      </trkpt>
      <trkpt lat="45.5949" lon="6.61302">
        <ele>2433.3999023438</ele>
        <time>2012-02-24T13:27:01.000Z</time>
      </trkpt>
      <trkpt lat="45.5949" lon="6.61305">
        <ele>2432.6000976562</ele>
        <time>2012-02-24T13:27:03.000Z</time>
      </trkpt>
      <trkpt lat="45.5949" lon="6.61306">
        <ele>2432.3999023438</ele>
        <time>2012-02-24T13:27:06.000Z</time>
      </trkpt>
      <trkpt lat="45.59498" lon="6.61306">
        <ele>2430.6000976562</ele>
        <time>2012-02-24T13:27:10.000Z</time>
      </trkpt>
      <trkpt lat="45.595" lon="6.61299">
        <ele>2427.3999023438</ele>
        <time>2012-02-24T13:27:12.000Z</time>
      </trkpt>
      <trkpt lat="45.59499" lon="6.61298">
        <ele>2425.8000488281</ele>
        <time>2012-02-24T13:27:14.000Z</time>
      </trkpt>
      <trkpt lat="45.59505" lon="6.61299">
        <ele>2422.1999511719</ele>
        <time>2012-02-24T13:27:18.000Z</time>
      </trkpt>
      <trkpt lat="45.59506" lon="6.61292">
        <ele>2419.6000976562</ele>
        <time>2012-02-24T13:27:21.000Z</time>
      </trkpt>
      <trkpt lat="45.59506" lon="6.61291">
        <ele>2418.3999023438</ele>
        <time>2012-02-24T13:27:26.000Z</time>
      </trkpt>
      <trkpt lat="45.59511" lon="6.61296">
        <ele>2416.6000976562</ele>
        <time>2012-02-24T13:27:29.000Z</time>
      </trkpt>
      <trkpt lat="45.59517" lon="6.61295">
        <ele>2415</ele>
        <time>2012-02-24T13:27:31.000Z</time>
      </trkpt>
      <trkpt lat="45.59518" lon="6.61286">
        <ele>2412.6000976562</ele>
        <time>2012-02-24T13:27:33.000Z</time>
      </trkpt>
      <trkpt lat="45.59518" lon="6.61284">
        <ele>2409.8000488281</ele>
        <time>2012-02-24T13:27:37.000Z</time>
      </trkpt>
      <trkpt lat="45.59517" lon="6.61284">
        <ele>2408.6000976562</ele>
        <time>2012-02-24T13:28:54.000Z</time>
      </trkpt>
      <trkpt lat="45.59524" lon="6.61291">
        <ele>2406</ele>
        <time>2012-02-24T13:28:58.000Z</time>
      </trkpt>
      <trkpt lat="45.59529" lon="6.61287">
        <ele>2404.8000488281</ele>
        <time>2012-02-24T13:29:00.000Z</time>
      </trkpt>
      <trkpt lat="45.5953" lon="6.61281">
        <ele>2402.6000976562</ele>
        <time>2012-02-24T13:29:02.000Z</time>
      </trkpt>
      <trkpt lat="45.5953" lon="6.61281">
        <ele>2400.3999023438</ele>
        <time>2012-02-24T13:29:06.000Z</time>
      </trkpt>
      <trkpt lat="45.59531" lon="6.6128">
        <ele>2400</ele>
        <time>2012-02-24T13:29:08.000Z</time>
      </trkpt>
      <trkpt lat="45.59537" lon="6.61288">
        <ele>2397.8000488281</ele>
        <time>2012-02-24T13:29:12.000Z</time>
      </trkpt>
      <trkpt lat="45.5954" lon="6.61294">
        <ele>2395.1999511719</ele>
        <time>2012-02-24T13:29:16.000Z</time>
      </trkpt>
      <trkpt lat="45.59543" lon="6.6129">
        <ele>2394.1999511719</ele>
        <time>2012-02-24T13:29:19.000Z</time>
      </trkpt>
      <trkpt lat="45.59545" lon="6.61285">
        <ele>2392</ele>
        <time>2012-02-24T13:29:21.000Z</time>
      </trkpt>
      <trkpt lat="45.59546" lon="6.61288">
        <ele>2390.1999511719</ele>
        <time>2012-02-24T13:29:22.000Z</time>
      </trkpt>
      <trkpt lat="45.59547" lon="6.61291">
        <ele>2388.6000976562</ele>
        <time>2012-02-24T13:29:24.000Z</time>
      </trkpt>
      <trkpt lat="45.59551" lon="6.61279">
        <ele>2385.1999511719</ele>
        <time>2012-02-24T13:29:28.000Z</time>
      </trkpt>
      <trkpt lat="45.59552" lon="6.6127">
        <ele>2381</ele>
        <time>2012-02-24T13:29:32.000Z</time>
      </trkpt>
      <trkpt lat="45.59553" lon="6.61268">
        <ele>2380.3999023438</ele>
        <time>2012-02-24T13:29:33.000Z</time>
      </trkpt>
      <trkpt lat="45.59558" lon="6.61273">
        <ele>2379</ele>
        <time>2012-02-24T13:29:36.000Z</time>
      </trkpt>
      <trkpt lat="45.59561" lon="6.61272">
        <ele>2376.8000488281</ele>
        <time>2012-02-24T13:29:39.000Z</time>
      </trkpt>
      <trkpt lat="45.59565" lon="6.61272">
        <ele>2373</ele>
        <time>2012-02-24T13:29:42.000Z</time>
      </trkpt>
      <trkpt lat="45.5957" lon="6.61276">
        <ele>2370.1999511719</ele>
        <time>2012-02-24T13:29:45.000Z</time>
      </trkpt>
      <trkpt lat="45.59573" lon="6.61268">
        <ele>2366.3999023438</ele>
        <time>2012-02-24T13:29:48.000Z</time>
      </trkpt>
      <trkpt lat="45.59579" lon="6.61274">
        <ele>2363</ele>
        <time>2012-02-24T13:29:50.000Z</time>
      </trkpt>
      <trkpt lat="45.59581" lon="6.6128">
        <ele>2360.8000488281</ele>
        <time>2012-02-24T13:29:53.000Z</time>
      </trkpt>
      <trkpt lat="45.59581" lon="6.61279">
        <ele>2360.8000488281</ele>
        <time>2012-02-24T13:29:55.000Z</time>
      </trkpt>
      <trkpt lat="45.59585" lon="6.61269">
        <ele>2359.1999511719</ele>
        <time>2012-02-24T13:29:58.000Z</time>
      </trkpt>
      <trkpt lat="45.59582" lon="6.61264">
        <ele>2356.6000976562</ele>
        <time>2012-02-24T13:30:00.000Z</time>
      </trkpt>
      <trkpt lat="45.59582" lon="6.61264">
        <ele>2355.8000488281</ele>
        <time>2012-02-24T13:30:01.000Z</time>
      </trkpt>
      <trkpt lat="45.5959" lon="6.6127">
        <ele>2353.3999023438</ele>
        <time>2012-02-24T13:30:05.000Z</time>
      </trkpt>
      <trkpt lat="45.5959" lon="6.61271">
        <ele>2352.6000976562</ele>
        <time>2012-02-24T13:30:06.000Z</time>
      </trkpt>
      <trkpt lat="45.59592" lon="6.61271">
        <ele>2352.1999511719</ele>
        <time>2012-02-24T13:30:13.000Z</time>
      </trkpt>
      <trkpt lat="45.59596" lon="6.61277">
        <ele>2349.6000976562</ele>
        <time>2012-02-24T13:30:22.000Z</time>
      </trkpt>
      <trkpt lat="45.59598" lon="6.6128">
        <ele>2349.1999511719</ele>
        <time>2012-02-24T13:30:23.000Z</time>
      </trkpt>
      <trkpt lat="45.59608" lon="6.61299">
        <ele>2345.6000976562</ele>
        <time>2012-02-24T13:30:28.000Z</time>
      </trkpt>
      <trkpt lat="45.59616" lon="6.6132">
        <ele>2342</ele>
        <time>2012-02-24T13:30:32.000Z</time>
      </trkpt>
      <trkpt lat="45.59617" lon="6.61323">
        <ele>2341.6000976562</ele>
        <time>2012-02-24T13:30:36.000Z</time>
      </trkpt>
      <trkpt lat="45.59617" lon="6.61323">
        <ele>2341.1999511719</ele>
        <time>2012-02-24T13:30:38.000Z</time>
      </trkpt>
      <trkpt lat="45.59622" lon="6.61319">
        <ele>2339.8000488281</ele>
        <time>2012-02-24T13:30:41.000Z</time>
      </trkpt>
      <trkpt lat="45.59626" lon="6.61318">
        <ele>2338.8000488281</ele>
        <time>2012-02-24T13:30:42.000Z</time>
      </trkpt>
      <trkpt lat="45.59639" lon="6.61319">
        <ele>2329.1999511719</ele>
        <time>2012-02-24T13:30:47.000Z</time>
      </trkpt>
      <trkpt lat="45.59649" lon="6.61318">
        <ele>2325.1999511719</ele>
        <time>2012-02-24T13:30:50.000Z</time>
      </trkpt>
      <trkpt lat="45.59651" lon="6.61317">
        <ele>2318.6000976562</ele>
        <time>2012-02-24T13:30:54.000Z</time>
      </trkpt>
      <trkpt lat="45.59651" lon="6.61317">
        <ele>2317.6000976562</ele>
        <time>2012-02-24T13:30:56.000Z</time>
      </trkpt>
      <trkpt lat="45.5965" lon="6.61316">
        <ele>2319.8000488281</ele>
        <time>2012-02-24T13:31:01.000Z</time>
      </trkpt>
      <trkpt lat="45.59652" lon="6.61317">
        <ele>2320</ele>
        <time>2012-02-24T13:31:06.000Z</time>
      </trkpt>
      <trkpt lat="45.59657" lon="6.61326">
        <ele>2318.3999023438</ele>
        <time>2012-02-24T13:31:10.000Z</time>
      </trkpt>
      <trkpt lat="45.59664" lon="6.61338">
        <ele>2316.8000488281</ele>
        <time>2012-02-24T13:31:13.000Z</time>
      </trkpt>
      <trkpt lat="45.59671" lon="6.61355">
        <ele>2314</ele>
        <time>2012-02-24T13:31:17.000Z</time>
      </trkpt>
      <trkpt lat="45.59679" lon="6.61352">
        <ele>2311</ele>
        <time>2012-02-24T13:31:20.000Z</time>
      </trkpt>
      <trkpt lat="45.59687" lon="6.61352">
        <ele>2307.6000976562</ele>
        <time>2012-02-24T13:31:22.000Z</time>
      </trkpt>
      <trkpt lat="45.59692" lon="6.61344">
        <ele>2304.3999023438</ele>
        <time>2012-02-24T13:31:24.000Z</time>
      </trkpt>
      <trkpt lat="45.59702" lon="6.61349">
        <ele>2298</ele>
        <time>2012-02-24T13:31:27.000Z</time>
      </trkpt>
      <trkpt lat="45.59702" lon="6.61347">
        <ele>2295.8000488281</ele>
        <time>2012-02-24T13:31:29.000Z</time>
      </trkpt>
      <trkpt lat="45.59701" lon="6.61345">
        <ele>2293.3999023438</ele>
        <time>2012-02-24T13:31:32.000Z</time>
      </trkpt>
      <trkpt lat="45.59702" lon="6.61342">
        <ele>2293.1999511719</ele>
        <time>2012-02-24T13:31:35.000Z</time>
      </trkpt>
      <trkpt lat="45.59711" lon="6.61341">
        <ele>2290.3999023438</ele>
        <time>2012-02-24T13:31:38.000Z</time>
      </trkpt>
      <trkpt lat="45.59711" lon="6.61337">
        <ele>2288.3999023438</ele>
        <time>2012-02-24T13:31:40.000Z</time>
      </trkpt>
      <trkpt lat="45.59711" lon="6.61336">
        <ele>2287.3999023438</ele>
        <time>2012-02-24T13:31:41.000Z</time>
      </trkpt>
      <trkpt lat="45.59725" lon="6.6133">
        <ele>2281.6000976562</ele>
        <time>2012-02-24T13:31:46.000Z</time>
      </trkpt>
      <trkpt lat="45.59738" lon="6.61337">
        <ele>2278</ele>
        <time>2012-02-24T13:31:49.000Z</time>
      </trkpt>
      <trkpt lat="45.5974" lon="6.61325">
        <ele>2274.3999023438</ele>
        <time>2012-02-24T13:31:51.000Z</time>
      </trkpt>
      <trkpt lat="45.59734" lon="6.61308">
        <ele>2270</ele>
        <time>2012-02-24T13:31:54.000Z</time>
      </trkpt>
      <trkpt lat="45.59732" lon="6.61304">
        <ele>2269.1999511719</ele>
        <time>2012-02-24T13:31:56.000Z</time>
      </trkpt>
      <trkpt lat="45.59736" lon="6.61301">
        <ele>2268.3999023438</ele>
        <time>2012-02-24T13:32:18.000Z</time>
      </trkpt>
      <trkpt lat="45.59741" lon="6.61304">
        <ele>2265.6000976562</ele>
        <time>2012-02-24T13:32:22.000Z</time>
      </trkpt>
      <trkpt lat="45.59744" lon="6.613">
        <ele>2264</ele>
        <time>2012-02-24T13:32:24.000Z</time>
      </trkpt>
      <trkpt lat="45.5975" lon="6.61307">
        <ele>2261.6000976562</ele>
        <time>2012-02-24T13:32:26.000Z</time>
      </trkpt>
      <trkpt lat="45.59756" lon="6.61311">
        <ele>2260</ele>
        <time>2012-02-24T13:32:28.000Z</time>
      </trkpt>
      <trkpt lat="45.5977" lon="6.61299">
        <ele>2253.6000976562</ele>
        <time>2012-02-24T13:32:33.000Z</time>
      </trkpt>
      <trkpt lat="45.59781" lon="6.61292">
        <ele>2247.1999511719</ele>
        <time>2012-02-24T13:32:36.000Z</time>
      </trkpt>
      <trkpt lat="45.59791" lon="6.61288">
        <ele>2243.1999511719</ele>
        <time>2012-02-24T13:32:38.000Z</time>
      </trkpt>
      <trkpt lat="45.59817" lon="6.61271">
        <ele>2233.1999511719</ele>
        <time>2012-02-24T13:32:43.000Z</time>
      </trkpt>
      <trkpt lat="45.59827" lon="6.61261">
        <ele>2229</ele>
        <time>2012-02-24T13:32:45.000Z</time>
      </trkpt>
      <trkpt lat="45.59844" lon="6.61251">
        <ele>2222.6000976562</ele>
        <time>2012-02-24T13:32:48.000Z</time>
      </trkpt>
      <trkpt lat="45.59857" lon="6.61239">
        <ele>2216.8000488281</ele>
        <time>2012-02-24T13:32:51.000Z</time>
      </trkpt>
      <trkpt lat="45.59852" lon="6.61233">
        <ele>2214.6000976562</ele>
        <time>2012-02-24T13:32:53.000Z</time>
      </trkpt>
      <trkpt lat="45.59852" lon="6.61227">
        <ele>2212.6000976562</ele>
        <time>2012-02-24T13:32:56.000Z</time>
      </trkpt>
      <trkpt lat="45.5984" lon="6.61243">
        <ele>2213.1999511719</ele>
        <time>2012-02-24T13:34:09.000Z</time>
      </trkpt>
      <trkpt lat="45.5984" lon="6.61244">
        <ele>2211.3999023438</ele>
        <time>2012-02-24T13:34:11.000Z</time>
      </trkpt>
      <trkpt lat="45.59842" lon="6.61245">
        <ele>2211.3999023438</ele>
        <time>2012-02-24T13:34:27.000Z</time>
      </trkpt>
      <trkpt lat="45.59844" lon="6.61229">
        <ele>2209.8000488281</ele>
        <time>2012-02-24T13:34:31.000Z</time>
      </trkpt>
      <trkpt lat="45.59844" lon="6.61223">
        <ele>2209</ele>
        <time>2012-02-24T13:34:32.000Z</time>
      </trkpt>
      <trkpt lat="45.59843" lon="6.61212">
        <ele>2207.8000488281</ele>
        <time>2012-02-24T13:34:34.000Z</time>
      </trkpt>
      <trkpt lat="45.59857" lon="6.61205">
        <ele>2206.1999511719</ele>
        <time>2012-02-24T13:34:38.000Z</time>
      </trkpt>
      <trkpt lat="45.59868" lon="6.612">
        <ele>2201.8000488281</ele>
        <time>2012-02-24T13:34:41.000Z</time>
      </trkpt>
      <trkpt lat="45.59881" lon="6.61205">
        <ele>2197.3999023438</ele>
        <time>2012-02-24T13:34:44.000Z</time>
      </trkpt>
      <trkpt lat="45.59885" lon="6.61196">
        <ele>2192.8000488281</ele>
        <time>2012-02-24T13:34:47.000Z</time>
      </trkpt>
      <trkpt lat="45.59885" lon="6.61195">
        <ele>2192</ele>
        <time>2012-02-24T13:34:48.000Z</time>
      </trkpt>
      <trkpt lat="45.59893" lon="6.61202">
        <ele>2188.8000488281</ele>
        <time>2012-02-24T13:34:52.000Z</time>
      </trkpt>
      <trkpt lat="45.59903" lon="6.61205">
        <ele>2184.8000488281</ele>
        <time>2012-02-24T13:34:55.000Z</time>
      </trkpt>
      <trkpt lat="45.59911" lon="6.61197">
        <ele>2178.3999023438</ele>
        <time>2012-02-24T13:34:58.000Z</time>
      </trkpt>
      <trkpt lat="45.59925" lon="6.61188">
        <ele>2173</ele>
        <time>2012-02-24T13:35:01.000Z</time>
      </trkpt>
      <trkpt lat="45.59923" lon="6.61181">
        <ele>2172.1999511719</ele>
        <time>2012-02-24T13:35:02.000Z</time>
      </trkpt>
      <trkpt lat="45.5992" lon="6.61171">
        <ele>2169.1999511719</ele>
        <time>2012-02-24T13:35:06.000Z</time>
      </trkpt>
      <trkpt lat="45.59919" lon="6.61171">
        <ele>2168.1999511719</ele>
        <time>2012-02-24T13:35:08.000Z</time>
      </trkpt>
      <trkpt lat="45.59919" lon="6.61168">
        <ele>2168</ele>
        <time>2012-02-24T13:35:15.000Z</time>
      </trkpt>
      <trkpt lat="45.59927" lon="6.61171">
        <ele>2166.8000488281</ele>
        <time>2012-02-24T13:35:18.000Z</time>
      </trkpt>
      <trkpt lat="45.59928" lon="6.61157">
        <ele>2163.3999023438</ele>
        <time>2012-02-24T13:35:20.000Z</time>
      </trkpt>
      <trkpt lat="45.59933" lon="6.61152">
        <ele>2160</ele>
        <time>2012-02-24T13:35:23.000Z</time>
      </trkpt>
      <trkpt lat="45.59948" lon="6.61152">
        <ele>2155</ele>
        <time>2012-02-24T13:35:26.000Z</time>
      </trkpt>
      <trkpt lat="45.59956" lon="6.61165">
        <ele>2152.6000976562</ele>
        <time>2012-02-24T13:35:28.000Z</time>
      </trkpt>
      <trkpt lat="45.5996" lon="6.61191">
        <ele>2149.3999023438</ele>
        <time>2012-02-24T13:35:32.000Z</time>
      </trkpt>
      <trkpt lat="45.59961" lon="6.61191">
        <ele>2149.1999511719</ele>
        <time>2012-02-24T13:35:37.000Z</time>
      </trkpt>
      <trkpt lat="45.59961" lon="6.61188">
        <ele>2148.8000488281</ele>
        <time>2012-02-24T13:36:26.000Z</time>
      </trkpt>
      <trkpt lat="45.59966" lon="6.61194">
        <ele>2148.1999511719</ele>
        <time>2012-02-24T13:36:30.000Z</time>
      </trkpt>
      <trkpt lat="45.59974" lon="6.61205">
        <ele>2147.1999511719</ele>
        <time>2012-02-24T13:36:33.000Z</time>
      </trkpt>
      <trkpt lat="45.59983" lon="6.61202">
        <ele>2144.8000488281</ele>
        <time>2012-02-24T13:36:36.000Z</time>
      </trkpt>
      <trkpt lat="45.59992" lon="6.61211">
        <ele>2142.1999511719</ele>
        <time>2012-02-24T13:36:38.000Z</time>
      </trkpt>
      <trkpt lat="45.60011" lon="6.61236">
        <ele>2137.8000488281</ele>
        <time>2012-02-24T13:36:43.000Z</time>
      </trkpt>
      <trkpt lat="45.60026" lon="6.61245">
        <ele>2134.1999511719</ele>
        <time>2012-02-24T13:36:47.000Z</time>
      </trkpt>
      <trkpt lat="45.6003" lon="6.61248">
        <ele>2133</ele>
        <time>2012-02-24T13:36:48.000Z</time>
      </trkpt>
      <trkpt lat="45.60046" lon="6.61264">
        <ele>2130</ele>
        <time>2012-02-24T13:36:53.000Z</time>
      </trkpt>
      <trkpt lat="45.60057" lon="6.61265">
        <ele>2127.3999023438</ele>
        <time>2012-02-24T13:36:55.000Z</time>
      </trkpt>
      <trkpt lat="45.60062" lon="6.61278">
        <ele>2124.6000976562</ele>
        <time>2012-02-24T13:36:58.000Z</time>
      </trkpt>
      <trkpt lat="45.60062" lon="6.61281">
        <ele>2123.3999023438</ele>
        <time>2012-02-24T13:37:02.000Z</time>
      </trkpt>
      <trkpt lat="45.60059" lon="6.61291">
        <ele>2122.8000488281</ele>
        <time>2012-02-24T13:40:11.000Z</time>
      </trkpt>
      <trkpt lat="45.6006" lon="6.61306">
        <ele>2122.3999023438</ele>
        <time>2012-02-24T13:40:17.000Z</time>
      </trkpt>
      <trkpt lat="45.6006" lon="6.61315">
        <ele>2121.8000488281</ele>
        <time>2012-02-24T13:40:19.000Z</time>
      </trkpt>
      <trkpt lat="45.6006" lon="6.61334">
        <ele>2120.3999023438</ele>
        <time>2012-02-24T13:40:22.000Z</time>
      </trkpt>
      <trkpt lat="45.60064" lon="6.61376">
        <ele>2117.1999511719</ele>
        <time>2012-02-24T13:40:28.000Z</time>
      </trkpt>
      <trkpt lat="45.60072" lon="6.61407">
        <ele>2114.3999023438</ele>
        <time>2012-02-24T13:40:32.000Z</time>
      </trkpt>
      <trkpt lat="45.60085" lon="6.61445">
        <ele>2110.6000976562</ele>
        <time>2012-02-24T13:40:37.000Z</time>
      </trkpt>
      <trkpt lat="45.60094" lon="6.61468">
        <ele>2108</ele>
        <time>2012-02-24T13:40:40.000Z</time>
      </trkpt>
      <trkpt lat="45.60098" lon="6.61482">
        <ele>2107.1999511719</ele>
        <time>2012-02-24T13:40:42.000Z</time>
      </trkpt>
      <trkpt lat="45.60104" lon="6.6151">
        <ele>2105.6000976562</ele>
        <time>2012-02-24T13:40:48.000Z</time>
      </trkpt>
      <trkpt lat="45.60106" lon="6.61536">
        <ele>2104</ele>
        <time>2012-02-24T13:40:54.000Z</time>
      </trkpt>
      <trkpt lat="45.60105" lon="6.61549">
        <ele>2102.8000488281</ele>
        <time>2012-02-24T13:40:59.000Z</time>
      </trkpt>
      <trkpt lat="45.60104" lon="6.61552">
        <ele>2102.6000976562</ele>
        <time>2012-02-24T13:41:09.000Z</time>
      </trkpt>
      <trkpt lat="45.60105" lon="6.61556">
        <ele>2102</ele>
        <time>2012-02-24T13:41:54.000Z</time>
      </trkpt>
      <trkpt lat="45.60114" lon="6.61554">
        <ele>2099.6000976562</ele>
        <time>2012-02-24T13:41:57.000Z</time>
      </trkpt>
      <trkpt lat="45.60123" lon="6.61564">
        <ele>2095.6000976562</ele>
        <time>2012-02-24T13:41:59.000Z</time>
      </trkpt>
      <trkpt lat="45.6012" lon="6.61594">
        <ele>2091.1999511719</ele>
        <time>2012-02-24T13:42:02.000Z</time>
      </trkpt>
      <trkpt lat="45.60118" lon="6.61602">
        <ele>2089.8000488281</ele>
        <time>2012-02-24T13:42:03.000Z</time>
      </trkpt>
      <trkpt lat="45.60123" lon="6.61599">
        <ele>2087.1999511719</ele>
        <time>2012-02-24T13:42:05.000Z</time>
      </trkpt>
      <trkpt lat="45.60137" lon="6.61613">
        <ele>2081.8000488281</ele>
        <time>2012-02-24T13:42:08.000Z</time>
      </trkpt>
      <trkpt lat="45.6014" lon="6.61623">
        <ele>2079.3999023438</ele>
        <time>2012-02-24T13:42:09.000Z</time>
      </trkpt>
      <trkpt lat="45.60156" lon="6.61651">
        <ele>2073.1999511719</ele>
        <time>2012-02-24T13:42:12.000Z</time>
      </trkpt>
      <trkpt lat="45.60177" lon="6.61687">
        <ele>2065</ele>
        <time>2012-02-24T13:42:15.000Z</time>
      </trkpt>
      <trkpt lat="45.60182" lon="6.617">
        <ele>2062.8000488281</ele>
        <time>2012-02-24T13:42:16.000Z</time>
      </trkpt>
      <trkpt lat="45.60208" lon="6.61793">
        <ele>2054.3999023438</ele>
        <time>2012-02-24T13:42:23.000Z</time>
      </trkpt>
      <trkpt lat="45.60231" lon="6.61875">
        <ele>2049.6000976562</ele>
        <time>2012-02-24T13:42:30.000Z</time>
      </trkpt>
      <trkpt lat="45.60234" lon="6.61885">
        <ele>2049</ele>
        <time>2012-02-24T13:42:31.000Z</time>
      </trkpt>
      <trkpt lat="45.60252" lon="6.61917">
        <ele>2047</ele>
        <time>2012-02-24T13:42:36.000Z</time>
      </trkpt>
      <trkpt lat="45.60263" lon="6.61926">
        <ele>2045.8000488281</ele>
        <time>2012-02-24T13:42:39.000Z</time>
      </trkpt>
      <trkpt lat="45.60276" lon="6.6194">
        <ele>2043.5999755859</ele>
        <time>2012-02-24T13:42:42.000Z</time>
      </trkpt>
      <trkpt lat="45.60289" lon="6.61958">
        <ele>2041.8000488281</ele>
        <time>2012-02-24T13:42:46.000Z</time>
      </trkpt>
      <trkpt lat="45.60292" lon="6.61967">
        <ele>2041.4000244141</ele>
        <time>2012-02-24T13:42:50.000Z</time>
      </trkpt>
      <trkpt lat="45.60291" lon="6.61969">
        <ele>2041.4000244141</ele>
        <time>2012-02-24T13:43:01.000Z</time>
      </trkpt>
      <trkpt lat="45.60292" lon="6.61969">
        <ele>2041</ele>
        <time>2012-02-24T13:43:35.000Z</time>
      </trkpt>
      <trkpt lat="45.60298" lon="6.61961">
        <ele>2039.4000244141</ele>
        <time>2012-02-24T13:43:39.000Z</time>
      </trkpt>
      <trkpt lat="45.60306" lon="6.61957">
        <ele>2036.4000244141</ele>
        <time>2012-02-24T13:43:41.000Z</time>
      </trkpt>
      <trkpt lat="45.60318" lon="6.61952">
        <ele>2033</ele>
        <time>2012-02-24T13:43:44.000Z</time>
      </trkpt>
      <trkpt lat="45.60327" lon="6.61958">
        <ele>2028.4000244141</ele>
        <time>2012-02-24T13:43:47.000Z</time>
      </trkpt>
      <trkpt lat="45.6033" lon="6.61961">
        <ele>2026.8000488281</ele>
        <time>2012-02-24T13:43:48.000Z</time>
      </trkpt>
      <trkpt lat="45.60336" lon="6.61967">
        <ele>2022.4000244141</ele>
        <time>2012-02-24T13:43:50.000Z</time>
      </trkpt>
      <trkpt lat="45.60344" lon="6.61986">
        <ele>2016</ele>
        <time>2012-02-24T13:43:54.000Z</time>
      </trkpt>
      <trkpt lat="45.60345" lon="6.61997">
        <ele>2013.5999755859</ele>
        <time>2012-02-24T13:43:57.000Z</time>
      </trkpt>
      <trkpt lat="45.60342" lon="6.61997">
        <ele>2013.5999755859</ele>
        <time>2012-02-24T13:44:06.000Z</time>
      </trkpt>
      <trkpt lat="45.60338" lon="6.62002">
        <ele>2013</ele>
        <time>2012-02-24T13:44:15.000Z</time>
      </trkpt>
      <trkpt lat="45.60349" lon="6.61991">
        <ele>2010.4000244141</ele>
        <time>2012-02-24T13:44:19.000Z</time>
      </trkpt>
      <trkpt lat="45.60359" lon="6.61997">
        <ele>2007.4000244141</ele>
        <time>2012-02-24T13:44:22.000Z</time>
      </trkpt>
      <trkpt lat="45.60365" lon="6.61994">
        <ele>2004.1999511719</ele>
        <time>2012-02-24T13:44:24.000Z</time>
      </trkpt>
      <trkpt lat="45.60367" lon="6.62002">
        <ele>2000.5999755859</ele>
        <time>2012-02-24T13:44:26.000Z</time>
      </trkpt>
      <trkpt lat="45.60372" lon="6.62006">
        <ele>1996.4000244141</ele>
        <time>2012-02-24T13:44:29.000Z</time>
      </trkpt>
      <trkpt lat="45.6038" lon="6.62009">
        <ele>1992</ele>
        <time>2012-02-24T13:44:32.000Z</time>
      </trkpt>
      <trkpt lat="45.60378" lon="6.62023">
        <ele>1987</ele>
        <time>2012-02-24T13:44:35.000Z</time>
      </trkpt>
      <trkpt lat="45.60384" lon="6.6202">
        <ele>1986</ele>
        <time>2012-02-24T13:44:37.000Z</time>
      </trkpt>
      <trkpt lat="45.60387" lon="6.62016">
        <ele>1983.4000244141</ele>
        <time>2012-02-24T13:44:41.000Z</time>
      </trkpt>
      <trkpt lat="45.60387" lon="6.62016">
        <ele>1983.1999511719</ele>
        <time>2012-02-24T13:44:43.000Z</time>
      </trkpt>
      <trkpt lat="45.60387" lon="6.6202">
        <ele>1982</ele>
        <time>2012-02-24T13:44:45.000Z</time>
      </trkpt>
      <trkpt lat="45.60386" lon="6.6203">
        <ele>1979.5999755859</ele>
        <time>2012-02-24T13:44:49.000Z</time>
      </trkpt>
      <trkpt lat="45.60387" lon="6.6203">
        <ele>1979.8000488281</ele>
        <time>2012-02-24T13:44:50.000Z</time>
      </trkpt>
      <trkpt lat="45.60398" lon="6.62024">
        <ele>1977</ele>
        <time>2012-02-24T13:44:55.000Z</time>
      </trkpt>
      <trkpt lat="45.60404" lon="6.6202">
        <ele>1974</ele>
        <time>2012-02-24T13:44:59.000Z</time>
      </trkpt>
      <trkpt lat="45.604" lon="6.62019">
        <ele>1973</ele>
        <time>2012-02-24T13:45:31.000Z</time>
      </trkpt>
      <trkpt lat="45.604" lon="6.62033">
        <ele>1970.5999755859</ele>
        <time>2012-02-24T13:45:35.000Z</time>
      </trkpt>
      <trkpt lat="45.60403" lon="6.62035">
        <ele>1968.5999755859</ele>
        <time>2012-02-24T13:45:37.000Z</time>
      </trkpt>
      <trkpt lat="45.60412" lon="6.62043">
        <ele>1966.1999511719</ele>
        <time>2012-02-24T13:45:41.000Z</time>
      </trkpt>
      <trkpt lat="45.60423" lon="6.62036">
        <ele>1961.8000488281</ele>
        <time>2012-02-24T13:45:44.000Z</time>
      </trkpt>
      <trkpt lat="45.60428" lon="6.62044">
        <ele>1954.1999511719</ele>
        <time>2012-02-24T13:45:47.000Z</time>
      </trkpt>
      <trkpt lat="45.60433" lon="6.62051">
        <ele>1948.1999511719</ele>
        <time>2012-02-24T13:45:51.000Z</time>
      </trkpt>
      <trkpt lat="45.60439" lon="6.62052">
        <ele>1944.5999755859</ele>
        <time>2012-02-24T13:45:54.000Z</time>
      </trkpt>
      <trkpt lat="45.60441" lon="6.6205">
        <ele>1943.1999511719</ele>
        <time>2012-02-24T13:45:55.000Z</time>
      </trkpt>
      <trkpt lat="45.60445" lon="6.62049">
        <ele>1941.4000244141</ele>
        <time>2012-02-24T13:45:58.000Z</time>
      </trkpt>
      <trkpt lat="45.60444" lon="6.62065">
        <ele>1937.4000244141</ele>
        <time>2012-02-24T13:46:03.000Z</time>
      </trkpt>
      <trkpt lat="45.60452" lon="6.62063">
        <ele>1934.1999511719</ele>
        <time>2012-02-24T13:46:06.000Z</time>
      </trkpt>
      <trkpt lat="45.60456" lon="6.62074">
        <ele>1930.4000244141</ele>
        <time>2012-02-24T13:46:11.000Z</time>
      </trkpt>
      <trkpt lat="45.60471" lon="6.62089">
        <ele>1920.5999755859</ele>
        <time>2012-02-24T13:46:16.000Z</time>
      </trkpt>
      <trkpt lat="45.60475" lon="6.62099">
        <ele>1915.4000244141</ele>
        <time>2012-02-24T13:46:19.000Z</time>
      </trkpt>
      <trkpt lat="45.60478" lon="6.62096">
        <ele>1912.1999511719</ele>
        <time>2012-02-24T13:46:24.000Z</time>
      </trkpt>
      <trkpt lat="45.60481" lon="6.62093">
        <ele>1911.1999511719</ele>
        <time>2012-02-24T13:46:39.000Z</time>
      </trkpt>
      <trkpt lat="45.60484" lon="6.62113">
        <ele>1909</ele>
        <time>2012-02-24T13:46:43.000Z</time>
      </trkpt>
      <trkpt lat="45.60495" lon="6.62128">
        <ele>1903.5999755859</ele>
        <time>2012-02-24T13:46:47.000Z</time>
      </trkpt>
      <trkpt lat="45.60495" lon="6.62134">
        <ele>1901</ele>
        <time>2012-02-24T13:46:48.000Z</time>
      </trkpt>
      <trkpt lat="45.60502" lon="6.62147">
        <ele>1895.8000488281</ele>
        <time>2012-02-24T13:46:52.000Z</time>
      </trkpt>
      <trkpt lat="45.605" lon="6.6215">
        <ele>1891.4000244141</ele>
        <time>2012-02-24T13:46:56.000Z</time>
      </trkpt>
      <trkpt lat="45.60493" lon="6.62154">
        <ele>1890.8000488281</ele>
        <time>2012-02-24T13:47:06.000Z</time>
      </trkpt>
      <trkpt lat="45.6049" lon="6.62165">
        <ele>1889.4000244141</ele>
        <time>2012-02-24T13:47:11.000Z</time>
      </trkpt>
      <trkpt lat="45.60491" lon="6.62165">
        <ele>1888.8000488281</ele>
        <time>2012-02-24T13:47:14.000Z</time>
      </trkpt>
      <trkpt lat="45.60493" lon="6.62178">
        <ele>1886.8000488281</ele>
        <time>2012-02-24T13:47:18.000Z</time>
      </trkpt>
      <trkpt lat="45.60506" lon="6.62181">
        <ele>1881.5999755859</ele>
        <time>2012-02-24T13:47:21.000Z</time>
      </trkpt>
      <trkpt lat="45.6051" lon="6.62182">
        <ele>1879.4000244141</ele>
        <time>2012-02-24T13:47:44.000Z</time>
      </trkpt>
      <trkpt lat="45.60506" lon="6.62192">
        <ele>1878.4000244141</ele>
        <time>2012-02-24T13:47:49.000Z</time>
      </trkpt>
      <trkpt lat="45.60503" lon="6.62199">
        <ele>1877.5999755859</ele>
        <time>2012-02-24T13:47:51.000Z</time>
      </trkpt>
      <trkpt lat="45.60503" lon="6.62198">
        <ele>1877.5999755859</ele>
        <time>2012-02-24T13:47:56.000Z</time>
      </trkpt>
      <trkpt lat="45.60507" lon="6.62196">
        <ele>1875</ele>
        <time>2012-02-24T13:48:01.000Z</time>
      </trkpt>
      <trkpt lat="45.60511" lon="6.62196">
        <ele>1872.8000488281</ele>
        <time>2012-02-24T13:48:06.000Z</time>
      </trkpt>
      <trkpt lat="45.60512" lon="6.62204">
        <ele>1870.8000488281</ele>
        <time>2012-02-24T13:48:10.000Z</time>
      </trkpt>
      <trkpt lat="45.60512" lon="6.62204">
        <ele>1870.5999755859</ele>
        <time>2012-02-24T13:48:11.000Z</time>
      </trkpt>
      <trkpt lat="45.60513" lon="6.62203">
        <ele>1869.8000488281</ele>
        <time>2012-02-24T13:48:13.000Z</time>
      </trkpt>
      <trkpt lat="45.60517" lon="6.62207">
        <ele>1867</ele>
        <time>2012-02-24T13:48:18.000Z</time>
      </trkpt>
      <trkpt lat="45.60517" lon="6.62211">
        <ele>1865.4000244141</ele>
        <time>2012-02-24T13:48:22.000Z</time>
      </trkpt>
      <trkpt lat="45.60521" lon="6.62222">
        <ele>1862.1999511719</ele>
        <time>2012-02-24T13:48:27.000Z</time>
      </trkpt>
      <trkpt lat="45.60522" lon="6.62227">
        <ele>1859.5999755859</ele>
        <time>2012-02-24T13:48:30.000Z</time>
      </trkpt>
      <trkpt lat="45.60523" lon="6.62229">
        <ele>1856</ele>
        <time>2012-02-24T13:48:35.000Z</time>
      </trkpt>
      <trkpt lat="45.60523" lon="6.62229">
        <ele>1856</ele>
        <time>2012-02-24T13:48:36.000Z</time>
      </trkpt>
      <trkpt lat="45.60524" lon="6.62241">
        <ele>1854.4000244141</ele>
        <time>2012-02-24T13:48:40.000Z</time>
      </trkpt>
      <trkpt lat="45.60525" lon="6.62242">
        <ele>1853.8000488281</ele>
        <time>2012-02-24T13:48:41.000Z</time>
      </trkpt>
      <trkpt lat="45.6053" lon="6.62251">
        <ele>1848.5999755859</ele>
        <time>2012-02-24T13:48:45.000Z</time>
      </trkpt>
      <trkpt lat="45.60535" lon="6.6226">
        <ele>1843.5999755859</ele>
        <time>2012-02-24T13:48:49.000Z</time>
      </trkpt>
      <trkpt lat="45.60542" lon="6.62273">
        <ele>1835.4000244141</ele>
        <time>2012-02-24T13:48:54.000Z</time>
      </trkpt>
      <trkpt lat="45.60554" lon="6.62274">
        <ele>1831.4000244141</ele>
        <time>2012-02-24T13:48:57.000Z</time>
      </trkpt>
      <trkpt lat="45.60555" lon="6.6227">
        <ele>1827.5999755859</ele>
        <time>2012-02-24T13:49:00.000Z</time>
      </trkpt>
      <trkpt lat="45.60555" lon="6.6227">
        <ele>1827.8000488281</ele>
        <time>2012-02-24T13:49:01.000Z</time>
      </trkpt>
      <trkpt lat="45.60558" lon="6.62268">
        <ele>1827.4000244141</ele>
        <time>2012-02-24T13:49:20.000Z</time>
      </trkpt>
      <trkpt lat="45.60559" lon="6.62288">
        <ele>1823.5999755859</ele>
        <time>2012-02-24T13:49:25.000Z</time>
      </trkpt>
      <trkpt lat="45.60569" lon="6.62288">
        <ele>1818.5999755859</ele>
        <time>2012-02-24T13:49:29.000Z</time>
      </trkpt>
      <trkpt lat="45.60571" lon="6.623">
        <ele>1816.4000244141</ele>
        <time>2012-02-24T13:49:32.000Z</time>
      </trkpt>
      <trkpt lat="45.60576" lon="6.62311">
        <ele>1812.4000244141</ele>
        <time>2012-02-24T13:49:35.000Z</time>
      </trkpt>
      <trkpt lat="45.60582" lon="6.6231">
        <ele>1807.1999511719</ele>
        <time>2012-02-24T13:49:38.000Z</time>
      </trkpt>
      <trkpt lat="45.60583" lon="6.62309">
        <ele>1805.8000488281</ele>
        <time>2012-02-24T13:49:39.000Z</time>
      </trkpt>
      <trkpt lat="45.60587" lon="6.62318">
        <ele>1802.4000244141</ele>
        <time>2012-02-24T13:49:43.000Z</time>
      </trkpt>
      <trkpt lat="45.60586" lon="6.62319">
        <ele>1801.4000244141</ele>
        <time>2012-02-24T13:49:47.000Z</time>
      </trkpt>
      <trkpt lat="45.60586" lon="6.62321">
        <ele>1800.8000488281</ele>
        <time>2012-02-24T13:49:58.000Z</time>
      </trkpt>
      <trkpt lat="45.60586" lon="6.62322">
        <ele>1801</ele>
        <time>2012-02-24T13:50:04.000Z</time>
      </trkpt>
      <trkpt lat="45.60593" lon="6.62324">
        <ele>1797.5999755859</ele>
        <time>2012-02-24T13:50:09.000Z</time>
      </trkpt>
      <trkpt lat="45.60595" lon="6.62326">
        <ele>1796</ele>
        <time>2012-02-24T13:50:14.000Z</time>
      </trkpt>
      <trkpt lat="45.60596" lon="6.62328">
        <ele>1795.5999755859</ele>
        <time>2012-02-24T13:50:22.000Z</time>
      </trkpt>
      <trkpt lat="45.60595" lon="6.62344">
        <ele>1794.4000244141</ele>
        <time>2012-02-24T13:50:26.000Z</time>
      </trkpt>
      <trkpt lat="45.60595" lon="6.62349">
        <ele>1793.5999755859</ele>
        <time>2012-02-24T13:50:27.000Z</time>
      </trkpt>
      <trkpt lat="45.6059" lon="6.62373">
        <ele>1790.8000488281</ele>
        <time>2012-02-24T13:50:33.000Z</time>
      </trkpt>
      <trkpt lat="45.60581" lon="6.62395">
        <ele>1787</ele>
        <time>2012-02-24T13:50:39.000Z</time>
      </trkpt>
      <trkpt lat="45.60575" lon="6.6241">
        <ele>1785.1999511719</ele>
        <time>2012-02-24T13:50:42.000Z</time>
      </trkpt>
      <trkpt lat="45.60565" lon="6.62422">
        <ele>1782.4000244141</ele>
        <time>2012-02-24T13:50:46.000Z</time>
      </trkpt>
      <trkpt lat="45.60564" lon="6.62423">
        <ele>1781.8000488281</ele>
        <time>2012-02-24T13:50:51.000Z</time>
      </trkpt>
      <trkpt lat="45.60565" lon="6.62423">
        <ele>1782.1999511719</ele>
        <time>2012-02-24T13:51:01.000Z</time>
      </trkpt>
      <trkpt lat="45.60557" lon="6.62431">
        <ele>1780.8000488281</ele>
        <time>2012-02-24T13:51:06.000Z</time>
      </trkpt>
      <trkpt lat="45.60549" lon="6.6244">
        <ele>1779</ele>
        <time>2012-02-24T13:51:11.000Z</time>
      </trkpt>
      <trkpt lat="45.60549" lon="6.62441">
        <ele>1778.5999755859</ele>
        <time>2012-02-24T13:51:16.000Z</time>
      </trkpt>
      <trkpt lat="45.60546" lon="6.62453">
        <ele>1777.4000244141</ele>
        <time>2012-02-24T13:51:19.000Z</time>
      </trkpt>
      <trkpt lat="45.60532" lon="6.62485">
        <ele>1772.1999511719</ele>
        <time>2012-02-24T13:51:24.000Z</time>
      </trkpt>
      <trkpt lat="45.6053" lon="6.62496">
        <ele>1769.1999511719</ele>
        <time>2012-02-24T13:51:27.000Z</time>
      </trkpt>
      <trkpt lat="45.60543" lon="6.62506">
        <ele>1763.4000244141</ele>
        <time>2012-02-24T13:51:31.000Z</time>
      </trkpt>
      <trkpt lat="45.60549" lon="6.62506">
        <ele>1761</ele>
        <time>2012-02-24T13:51:32.000Z</time>
      </trkpt>
      <trkpt lat="45.6056" lon="6.62521">
        <ele>1750.4000244141</ele>
        <time>2012-02-24T13:51:38.000Z</time>
      </trkpt>
      <trkpt lat="45.60564" lon="6.62514">
        <ele>1746.1999511719</ele>
        <time>2012-02-24T13:51:42.000Z</time>
      </trkpt>
      <trkpt lat="45.60567" lon="6.62514">
        <ele>1745.8000488281</ele>
        <time>2012-02-24T13:51:59.000Z</time>
      </trkpt>
      <trkpt lat="45.60568" lon="6.62522">
        <ele>1744.4000244141</ele>
        <time>2012-02-24T13:52:02.000Z</time>
      </trkpt>
      <trkpt lat="45.60565" lon="6.62527">
        <ele>1742.8000488281</ele>
        <time>2012-02-24T13:52:05.000Z</time>
      </trkpt>
      <trkpt lat="45.6056" lon="6.62534">
        <ele>1740.1999511719</ele>
        <time>2012-02-24T13:54:02.000Z</time>
      </trkpt>
      <trkpt lat="45.60569" lon="6.62531">
        <ele>1739</ele>
        <time>2012-02-24T13:54:06.000Z</time>
      </trkpt>
      <trkpt lat="45.60573" lon="6.62528">
        <ele>1738.1999511719</ele>
        <time>2012-02-24T13:54:07.000Z</time>
      </trkpt>
      <trkpt lat="45.6059" lon="6.62516">
        <ele>1736</ele>
        <time>2012-02-24T13:54:11.000Z</time>
      </trkpt>
      <trkpt lat="45.60608" lon="6.62506">
        <ele>1734.1999511719</ele>
        <time>2012-02-24T13:54:15.000Z</time>
      </trkpt>
      <trkpt lat="45.60618" lon="6.62501">
        <ele>1733</ele>
        <time>2012-02-24T13:54:19.000Z</time>
      </trkpt>
      <trkpt lat="45.6062" lon="6.625">
        <ele>1732.8000488281</ele>
        <time>2012-02-24T13:54:23.000Z</time>
      </trkpt>
      <trkpt lat="45.60627" lon="6.62499">
        <ele>1732</ele>
        <time>2012-02-24T13:55:05.000Z</time>
      </trkpt>
      <trkpt lat="45.60636" lon="6.62501">
        <ele>1730.1999511719</ele>
        <time>2012-02-24T13:55:10.000Z</time>
      </trkpt>
      <trkpt lat="45.6064" lon="6.62503">
        <ele>1729.1999511719</ele>
        <time>2012-02-24T13:55:12.000Z</time>
      </trkpt>
      <trkpt lat="45.60641" lon="6.62512">
        <ele>1727.5999755859</ele>
        <time>2012-02-24T13:55:15.000Z</time>
      </trkpt>
      <trkpt lat="45.60644" lon="6.62523">
        <ele>1725</ele>
        <time>2012-02-24T13:55:18.000Z</time>
      </trkpt>
      <trkpt lat="45.60645" lon="6.62539">
        <ele>1720.8000488281</ele>
        <time>2012-02-24T13:55:21.000Z</time>
      </trkpt>
      <trkpt lat="45.60655" lon="6.62566">
        <ele>1714</ele>
        <time>2012-02-24T13:55:25.000Z</time>
      </trkpt>
      <trkpt lat="45.60662" lon="6.62577">
        <ele>1709.8000488281</ele>
        <time>2012-02-24T13:55:28.000Z</time>
      </trkpt>
      <trkpt lat="45.6067" lon="6.62598">
        <ele>1703.4000244141</ele>
        <time>2012-02-24T13:55:32.000Z</time>
      </trkpt>
      <trkpt lat="45.60672" lon="6.6262">
        <ele>1698.1999511719</ele>
        <time>2012-02-24T13:55:35.000Z</time>
      </trkpt>
      <trkpt lat="45.60675" lon="6.62637">
        <ele>1692.5999755859</ele>
        <time>2012-02-24T13:55:38.000Z</time>
      </trkpt>
      <trkpt lat="45.60676" lon="6.62654">
        <ele>1689.5999755859</ele>
        <time>2012-02-24T13:55:40.000Z</time>
      </trkpt>
      <trkpt lat="45.60679" lon="6.62671">
        <ele>1684.8000488281</ele>
        <time>2012-02-24T13:55:42.000Z</time>
      </trkpt>
      <trkpt lat="45.60663" lon="6.62692">
        <ele>1682</ele>
        <time>2012-02-24T13:55:45.000Z</time>
      </trkpt>
      <trkpt lat="45.60644" lon="6.62724">
        <ele>1675.8000488281</ele>
        <time>2012-02-24T13:55:50.000Z</time>
      </trkpt>
      <trkpt lat="45.60641" lon="6.62731">
        <ele>1675.4000244141</ele>
        <time>2012-02-24T13:55:51.000Z</time>
      </trkpt>
      <trkpt lat="45.60634" lon="6.62747">
        <ele>1673.8000488281</ele>
        <time>2012-02-24T13:55:53.000Z</time>
      </trkpt>
      <trkpt lat="45.60624" lon="6.62765">
        <ele>1670.4000244141</ele>
        <time>2012-02-24T13:55:57.000Z</time>
      </trkpt>
      <trkpt lat="45.60629" lon="6.62763">
        <ele>1669.4000244141</ele>
        <time>2012-02-24T13:55:59.000Z</time>
      </trkpt>
      <trkpt lat="45.60629" lon="6.62762">
        <ele>1669</ele>
        <time>2012-02-24T13:56:00.000Z</time>
      </trkpt>
      <trkpt lat="45.60642" lon="6.62756">
        <ele>1667.5999755859</ele>
        <time>2012-02-24T13:56:57.000Z</time>
      </trkpt>
      <trkpt lat="45.60639" lon="6.62769">
        <ele>1665.5999755859</ele>
        <time>2012-02-24T13:57:01.000Z</time>
      </trkpt>
      <trkpt lat="45.60636" lon="6.62773">
        <ele>1665</ele>
        <time>2012-02-24T13:57:02.000Z</time>
      </trkpt>
      <trkpt lat="45.60619" lon="6.62794">
        <ele>1662.4000244141</ele>
        <time>2012-02-24T13:57:07.000Z</time>
      </trkpt>
      <trkpt lat="45.60604" lon="6.6281">
        <ele>1660.5999755859</ele>
        <time>2012-02-24T13:57:11.000Z</time>
      </trkpt>
      <trkpt lat="45.60595" lon="6.62838">
        <ele>1656.5999755859</ele>
        <time>2012-02-24T13:57:14.000Z</time>
      </trkpt>
      <trkpt lat="45.60588" lon="6.62842">
        <ele>1653.5999755859</ele>
        <time>2012-02-24T13:57:17.000Z</time>
      </trkpt>
      <trkpt lat="45.60583" lon="6.62859">
        <ele>1649.5999755859</ele>
        <time>2012-02-24T13:57:20.000Z</time>
      </trkpt>
      <trkpt lat="45.60573" lon="6.62872">
        <ele>1645.5999755859</ele>
        <time>2012-02-24T13:57:23.000Z</time>
      </trkpt>
      <trkpt lat="45.60555" lon="6.62909">
        <ele>1640.5999755859</ele>
        <time>2012-02-24T13:57:27.000Z</time>
      </trkpt>
      <trkpt lat="45.60544" lon="6.62928">
        <ele>1638.4000244141</ele>
        <time>2012-02-24T13:57:30.000Z</time>
      </trkpt>
      <trkpt lat="45.60531" lon="6.62951">
        <ele>1634.8000488281</ele>
        <time>2012-02-24T13:57:33.000Z</time>
      </trkpt>
      <trkpt lat="45.60521" lon="6.62965">
        <ele>1633</ele>
        <time>2012-02-24T13:57:35.000Z</time>
      </trkpt>
      <trkpt lat="45.60512" lon="6.6298">
        <ele>1630.4000244141</ele>
        <time>2012-02-24T13:57:37.000Z</time>
      </trkpt>
      <trkpt lat="45.60501" lon="6.62991">
        <ele>1628.1999511719</ele>
        <time>2012-02-24T13:57:39.000Z</time>
      </trkpt>
      <trkpt lat="45.60494" lon="6.6299">
        <ele>1627.4000244141</ele>
        <time>2012-02-24T13:57:41.000Z</time>
      </trkpt>
      <trkpt lat="45.60492" lon="6.62992">
        <ele>1627.1999511719</ele>
        <time>2012-02-24T13:57:43.000Z</time>
      </trkpt>
      <trkpt lat="45.60489" lon="6.62995">
        <ele>1626.8000488281</ele>
        <time>2012-02-24T13:57:45.000Z</time>
      </trkpt>
      <trkpt lat="45.60471" lon="6.63018">
        <ele>1624.4000244141</ele>
        <time>2012-02-24T13:57:50.000Z</time>
      </trkpt>
      <trkpt lat="45.60453" lon="6.63049">
        <ele>1622</ele>
        <time>2012-02-24T13:57:55.000Z</time>
      </trkpt>
      <trkpt lat="45.60436" lon="6.63077">
        <ele>1619.1999511719</ele>
        <time>2012-02-24T13:58:00.000Z</time>
      </trkpt>
      <trkpt lat="45.60435" lon="6.63078">
        <ele>1618.8000488281</ele>
        <time>2012-02-24T13:58:05.000Z</time>
      </trkpt>
      <trkpt lat="45.60433" lon="6.63085">
        <ele>1618</ele>
        <time>2012-02-24T13:58:24.000Z</time>
      </trkpt>
      <trkpt lat="45.60432" lon="6.63091">
        <ele>1617.8000488281</ele>
        <time>2012-02-24T13:58:26.000Z</time>
      </trkpt>
      <trkpt lat="45.60417" lon="6.63114">
        <ele>1614.5999755859</ele>
        <time>2012-02-24T13:58:31.000Z</time>
      </trkpt>
      <trkpt lat="45.60408" lon="6.63124">
        <ele>1613.4000244141</ele>
        <time>2012-02-24T13:58:33.000Z</time>
      </trkpt>
      <trkpt lat="45.60383" lon="6.63151">
        <ele>1610</ele>
        <time>2012-02-24T13:58:38.000Z</time>
      </trkpt>
      <trkpt lat="45.60345" lon="6.63195">
        <ele>1604.8000488281</ele>
        <time>2012-02-24T13:58:44.000Z</time>
      </trkpt>
      <trkpt lat="45.60315" lon="6.63242">
        <ele>1600.5999755859</ele>
        <time>2012-02-24T13:58:49.000Z</time>
      </trkpt>
      <trkpt lat="45.60302" lon="6.6329">
        <ele>1596.8000488281</ele>
        <time>2012-02-24T13:58:53.000Z</time>
      </trkpt>
      <trkpt lat="45.60296" lon="6.63315">
        <ele>1595</ele>
        <time>2012-02-24T13:58:55.000Z</time>
      </trkpt>
      <trkpt lat="45.60278" lon="6.63354">
        <ele>1591.8000488281</ele>
        <time>2012-02-24T13:58:59.000Z</time>
      </trkpt>
      <trkpt lat="45.6026" lon="6.634">
        <ele>1590.5999755859</ele>
        <time>2012-02-24T13:59:06.000Z</time>
      </trkpt>
      <trkpt lat="45.60247" lon="6.63432">
        <ele>1589.4000244141</ele>
        <time>2012-02-24T13:59:13.000Z</time>
      </trkpt>
      <trkpt lat="45.60236" lon="6.63457">
        <ele>1588.8000488281</ele>
        <time>2012-02-24T13:59:20.000Z</time>
      </trkpt>
      <trkpt lat="45.60226" lon="6.63481">
        <ele>1588</ele>
        <time>2012-02-24T13:59:28.000Z</time>
      </trkpt>
      <trkpt lat="45.60221" lon="6.63493">
        <ele>1587.4000244141</ele>
        <time>2012-02-24T13:59:32.000Z</time>
      </trkpt>
      <trkpt lat="45.6022" lon="6.63494">
        <ele>1586.8000488281</ele>
        <time>2012-02-24T13:59:38.000Z</time>
      </trkpt>
      <trkpt lat="45.60218" lon="6.63489">
        <ele>1586.5999755859</ele>
        <time>2012-02-24T14:00:50.000Z</time>
      </trkpt>
      <trkpt lat="45.60223" lon="6.63494">
        <ele>1585.8000488281</ele>
        <time>2012-02-24T14:00:54.000Z</time>
      </trkpt>
      <trkpt lat="45.60226" lon="6.6349">
        <ele>1585</ele>
        <time>2012-02-24T14:00:56.000Z</time>
      </trkpt>
      <trkpt lat="45.60234" lon="6.63481">
        <ele>1584</ele>
        <time>2012-02-24T14:01:04.000Z</time>
      </trkpt>
      <trkpt lat="45.60237" lon="6.63492">
        <ele>1584</ele>
        <time>2012-02-24T14:01:33.000Z</time>
      </trkpt>
      <trkpt lat="45.60241" lon="6.63491">
        <ele>1583.5999755859</ele>
        <time>2012-02-24T14:01:37.000Z</time>
      </trkpt>
      <trkpt lat="45.60253" lon="6.63495">
        <ele>1582.4000244141</ele>
        <time>2012-02-24T14:01:41.000Z</time>
      </trkpt>
      <trkpt lat="45.60272" lon="6.63523">
        <ele>1579.4000244141</ele>
        <time>2012-02-24T14:01:45.000Z</time>
      </trkpt>
      <trkpt lat="45.6027" lon="6.63542">
        <ele>1577</ele>
        <time>2012-02-24T14:01:50.000Z</time>
      </trkpt>
      <trkpt lat="45.60266" lon="6.63553">
        <ele>1576.1999511719</ele>
        <time>2012-02-24T14:01:54.000Z</time>
      </trkpt>
      <trkpt lat="45.60257" lon="6.63574">
        <ele>1574.5999755859</ele>
        <time>2012-02-24T14:01:59.000Z</time>
      </trkpt>
      <trkpt lat="45.60256" lon="6.63578">
        <ele>1574.5999755859</ele>
        <time>2012-02-24T14:02:00.000Z</time>
      </trkpt>
      <trkpt lat="45.60259" lon="6.63591">
        <ele>1574.4000244141</ele>
        <time>2012-02-24T14:02:06.000Z</time>
      </trkpt>
      <trkpt lat="45.60261" lon="6.63604">
        <ele>1573.1999511719</ele>
        <time>2012-02-24T14:02:13.000Z</time>
      </trkpt>
      <trkpt lat="45.60258" lon="6.63623">
        <ele>1572</ele>
        <time>2012-02-24T14:02:19.000Z</time>
      </trkpt>
      <trkpt lat="45.60255" lon="6.63632">
        <ele>1571.4000244141</ele>
        <time>2012-02-24T14:02:21.000Z</time>
      </trkpt>
      <trkpt lat="45.6025" lon="6.63644">
        <ele>1570</ele>
        <time>2012-02-24T14:02:23.000Z</time>
      </trkpt>
      <trkpt lat="45.60239" lon="6.6368">
        <ele>1566.8000488281</ele>
        <time>2012-02-24T14:02:27.000Z</time>
      </trkpt>
      <trkpt lat="45.60234" lon="6.63694">
        <ele>1565</ele>
        <time>2012-02-24T14:02:29.000Z</time>
      </trkpt>
      <trkpt lat="45.60227" lon="6.63714">
        <ele>1564.4000244141</ele>
        <time>2012-02-24T14:02:33.000Z</time>
      </trkpt>
      <trkpt lat="45.60226" lon="6.63718">
        <ele>1564.1999511719</ele>
        <time>2012-02-24T14:02:34.000Z</time>
      </trkpt>
      <trkpt lat="45.60214" lon="6.63738">
        <ele>1561.4000244141</ele>
        <time>2012-02-24T14:02:39.000Z</time>
      </trkpt>
      <trkpt lat="45.60205" lon="6.63746">
        <ele>1559.4000244141</ele>
        <time>2012-02-24T14:02:42.000Z</time>
      </trkpt>
      <trkpt lat="45.60204" lon="6.63751">
        <ele>1559.1999511719</ele>
        <time>2012-02-24T14:02:43.000Z</time>
      </trkpt>
      <trkpt lat="45.60199" lon="6.63745">
        <ele>1558.5999755859</ele>
        <time>2012-02-24T14:03:23.000Z</time>
      </trkpt>
      <trkpt lat="45.60194" lon="6.63747">
        <ele>1557.4000244141</ele>
        <time>2012-02-24T14:03:26.000Z</time>
      </trkpt>
      <trkpt lat="45.60179" lon="6.63737">
        <ele>1553.5999755859</ele>
        <time>2012-02-24T14:03:30.000Z</time>
      </trkpt>
      <trkpt lat="45.60165" lon="6.63747">
        <ele>1550.5999755859</ele>
        <time>2012-02-24T14:03:33.000Z</time>
      </trkpt>
      <trkpt lat="45.60157" lon="6.63773">
        <ele>1547.8000488281</ele>
        <time>2012-02-24T14:03:36.000Z</time>
      </trkpt>
      <trkpt lat="45.60153" lon="6.63783">
        <ele>1547</ele>
        <time>2012-02-24T14:03:37.000Z</time>
      </trkpt>
      <trkpt lat="45.60135" lon="6.63832">
        <ele>1542.8000488281</ele>
        <time>2012-02-24T14:03:42.000Z</time>
      </trkpt>
      <trkpt lat="45.60109" lon="6.63871">
        <ele>1538.1999511719</ele>
        <time>2012-02-24T14:03:47.000Z</time>
      </trkpt>
      <trkpt lat="45.60082" lon="6.63893">
        <ele>1533</ele>
        <time>2012-02-24T14:03:52.000Z</time>
      </trkpt>
      <trkpt lat="45.60065" lon="6.6395">
        <ele>1528</ele>
        <time>2012-02-24T14:03:57.000Z</time>
      </trkpt>
      <trkpt lat="45.60064" lon="6.63978">
        <ele>1526.1999511719</ele>
        <time>2012-02-24T14:04:00.000Z</time>
      </trkpt>
      <trkpt lat="45.60053" lon="6.64002">
        <ele>1524.1999511719</ele>
        <time>2012-02-24T14:04:04.000Z</time>
      </trkpt>
      <trkpt lat="45.60045" lon="6.64013">
        <ele>1523.1999511719</ele>
        <time>2012-02-24T14:04:06.000Z</time>
      </trkpt>
      <trkpt lat="45.60031" lon="6.6402">
        <ele>1521.1999511719</ele>
        <time>2012-02-24T14:04:10.000Z</time>
      </trkpt>
      <trkpt lat="45.60016" lon="6.64032">
        <ele>1519.4000244141</ele>
        <time>2012-02-24T14:04:14.000Z</time>
      </trkpt>
      <trkpt lat="45.59998" lon="6.64044">
        <ele>1518.1999511719</ele>
        <time>2012-02-24T14:04:20.000Z</time>
      </trkpt>
      <trkpt lat="45.59986" lon="6.64052">
        <ele>1517.1999511719</ele>
        <time>2012-02-24T14:04:26.000Z</time>
      </trkpt>
      <trkpt lat="45.59974" lon="6.64062">
        <ele>1516.8000488281</ele>
        <time>2012-02-24T14:04:32.000Z</time>
      </trkpt>
      <trkpt lat="45.59959" lon="6.64079">
        <ele>1515.4000244141</ele>
        <time>2012-02-24T14:04:37.000Z</time>
      </trkpt>
      <trkpt lat="45.5995" lon="6.64088">
        <ele>1514.8000488281</ele>
        <time>2012-02-24T14:04:40.000Z</time>
      </trkpt>
      <trkpt lat="45.59929" lon="6.64119">
        <ele>1512.4000244141</ele>
        <time>2012-02-24T14:04:46.000Z</time>
      </trkpt>
      <trkpt lat="45.59917" lon="6.64142">
        <ele>1511</ele>
        <time>2012-02-24T14:04:49.000Z</time>
      </trkpt>
      <trkpt lat="45.59901" lon="6.64177">
        <ele>1508.4000244141</ele>
        <time>2012-02-24T14:04:54.000Z</time>
      </trkpt>
      <trkpt lat="45.59895" lon="6.64186">
        <ele>1507.8000488281</ele>
        <time>2012-02-24T14:04:56.000Z</time>
      </trkpt>
      <trkpt lat="45.59884" lon="6.64213">
        <ele>1506.4000244141</ele>
        <time>2012-02-24T14:05:01.000Z</time>
      </trkpt>
      <trkpt lat="45.59883" lon="6.64216">
        <ele>1506.4000244141</ele>
        <time>2012-02-24T14:05:02.000Z</time>
      </trkpt>
      <trkpt lat="45.5988" lon="6.64225">
        <ele>1506</ele>
        <time>2012-02-24T14:05:04.000Z</time>
      </trkpt>
      <trkpt lat="45.59878" lon="6.64222">
        <ele>1504.8000488281</ele>
        <time>2012-02-24T14:05:11.000Z</time>
      </trkpt>
      <trkpt lat="45.59878" lon="6.64226">
        <ele>1504.8000488281</ele>
        <time>2012-02-24T14:05:19.000Z</time>
      </trkpt>
      <trkpt lat="45.59874" lon="6.64236">
        <ele>1504.4000244141</ele>
        <time>2012-02-24T14:05:25.000Z</time>
      </trkpt>
      <trkpt lat="45.59866" lon="6.64252">
        <ele>1503.4000244141</ele>
        <time>2012-02-24T14:05:30.000Z</time>
      </trkpt>
      <trkpt lat="45.59853" lon="6.64272">
        <ele>1502.1999511719</ele>
        <time>2012-02-24T14:05:37.000Z</time>
      </trkpt>
      <trkpt lat="45.59842" lon="6.64284">
        <ele>1502.1999511719</ele>
        <time>2012-02-24T14:05:43.000Z</time>
      </trkpt>
      <trkpt lat="45.59831" lon="6.64291">
        <ele>1500.8000488281</ele>
        <time>2012-02-24T14:05:50.000Z</time>
      </trkpt>
      <trkpt lat="45.59828" lon="6.64292">
        <ele>1502.1999511719</ele>
        <time>2012-02-24T14:05:52.000Z</time>
      </trkpt>
      <trkpt lat="45.59818" lon="6.64296">
        <ele>1501.4000244141</ele>
        <time>2012-02-24T14:05:59.000Z</time>
      </trkpt>
      <trkpt lat="45.59804" lon="6.64304">
        <ele>1500.1999511719</ele>
        <time>2012-02-24T14:06:06.000Z</time>
      </trkpt>
      <trkpt lat="45.5978" lon="6.64326">
        <ele>1498</ele>
        <time>2012-02-24T14:06:14.000Z</time>
      </trkpt>
      <trkpt lat="45.59762" lon="6.64338">
        <ele>1496</ele>
        <time>2012-02-24T14:06:19.000Z</time>
      </trkpt>
      <trkpt lat="45.59748" lon="6.64345">
        <ele>1493.1999511719</ele>
        <time>2012-02-24T14:06:23.000Z</time>
      </trkpt>
      <trkpt lat="45.59735" lon="6.64367">
        <ele>1490.5999755859</ele>
        <time>2012-02-24T14:06:27.000Z</time>
      </trkpt>
      <trkpt lat="45.59728" lon="6.64374">
        <ele>1489.8000488281</ele>
        <time>2012-02-24T14:06:29.000Z</time>
      </trkpt>
      <trkpt lat="45.59709" lon="6.64388">
        <ele>1487</ele>
        <time>2012-02-24T14:06:34.000Z</time>
      </trkpt>
      <trkpt lat="45.59697" lon="6.64392">
        <ele>1485</ele>
        <time>2012-02-24T14:06:38.000Z</time>
      </trkpt>
      <trkpt lat="45.59683" lon="6.64402">
        <ele>1483.1999511719</ele>
        <time>2012-02-24T14:06:43.000Z</time>
      </trkpt>
      <trkpt lat="45.59669" lon="6.64416">
        <ele>1481.4000244141</ele>
        <time>2012-02-24T14:06:49.000Z</time>
      </trkpt>
      <trkpt lat="45.59659" lon="6.64429">
        <ele>1479.4000244141</ele>
        <time>2012-02-24T14:06:54.000Z</time>
      </trkpt>
      <trkpt lat="45.59647" lon="6.64451">
        <ele>1477.4000244141</ele>
        <time>2012-02-24T14:06:59.000Z</time>
      </trkpt>
      <trkpt lat="45.59637" lon="6.64467">
        <ele>1474.8000488281</ele>
        <time>2012-02-24T14:07:03.000Z</time>
      </trkpt>
      <trkpt lat="45.59635" lon="6.64471">
        <ele>1474.5999755859</ele>
        <time>2012-02-24T14:07:04.000Z</time>
      </trkpt>
      <trkpt lat="45.59627" lon="6.6449">
        <ele>1472</ele>
        <time>2012-02-24T14:07:08.000Z</time>
      </trkpt>
      <trkpt lat="45.59625" lon="6.64496">
        <ele>1471.5999755859</ele>
        <time>2012-02-24T14:07:09.000Z</time>
      </trkpt>
      <trkpt lat="45.59613" lon="6.64555">
        <ele>1466.4000244141</ele>
        <time>2012-02-24T14:07:16.000Z</time>
      </trkpt>
      <trkpt lat="45.59602" lon="6.64543">
        <ele>1462.4000244141</ele>
        <time>2012-02-24T14:07:20.000Z</time>
      </trkpt>
      <trkpt lat="45.59601" lon="6.64536">
        <ele>1461.5999755859</ele>
        <time>2012-02-24T14:07:21.000Z</time>
      </trkpt>
      <trkpt lat="45.59597" lon="6.64518">
        <ele>1459.4000244141</ele>
        <time>2012-02-24T14:07:24.000Z</time>
      </trkpt>
      <trkpt lat="45.59599" lon="6.64488">
        <ele>1457</ele>
        <time>2012-02-24T14:07:29.000Z</time>
      </trkpt>
      <trkpt lat="45.59599" lon="6.64467">
        <ele>1455.4000244141</ele>
        <time>2012-02-24T14:07:32.000Z</time>
      </trkpt>
      <trkpt lat="45.59587" lon="6.64457">
        <ele>1452.5999755859</ele>
        <time>2012-02-24T14:07:36.000Z</time>
      </trkpt>
      <trkpt lat="45.59581" lon="6.64468">
        <ele>1451</ele>
        <time>2012-02-24T14:07:39.000Z</time>
      </trkpt>
      <trkpt lat="45.59576" lon="6.6448">
        <ele>1449.4000244141</ele>
        <time>2012-02-24T14:07:41.000Z</time>
      </trkpt>
      <trkpt lat="45.59568" lon="6.645">
        <ele>1448</ele>
        <time>2012-02-24T14:07:43.000Z</time>
      </trkpt>
      <trkpt lat="45.5956" lon="6.64538">
        <ele>1444.4000244141</ele>
        <time>2012-02-24T14:07:47.000Z</time>
      </trkpt>
      <trkpt lat="45.59556" lon="6.6456">
        <ele>1442.5999755859</ele>
        <time>2012-02-24T14:07:50.000Z</time>
      </trkpt>
      <trkpt lat="45.59545" lon="6.6457">
        <ele>1440.1999511719</ele>
        <time>2012-02-24T14:07:54.000Z</time>
      </trkpt>
      <trkpt lat="45.59541" lon="6.64576">
        <ele>1439</ele>
        <time>2012-02-24T14:07:57.000Z</time>
      </trkpt>
      <trkpt lat="45.59546" lon="6.64565">
        <ele>1438.4000244141</ele>
        <time>2012-02-24T14:08:20.000Z</time>
      </trkpt>
      <trkpt lat="45.59547" lon="6.64563">
        <ele>1438.4000244141</ele>
        <time>2012-02-24T14:08:21.000Z</time>
      </trkpt>
      <trkpt lat="45.59546" lon="6.64541">
        <ele>1437.4000244141</ele>
        <time>2012-02-24T14:08:29.000Z</time>
      </trkpt>
      <trkpt lat="45.59549" lon="6.64528">
        <ele>1436.4000244141</ele>
        <time>2012-02-24T14:08:32.000Z</time>
      </trkpt>
      <trkpt lat="45.59544" lon="6.64512">
        <ele>1434.4000244141</ele>
        <time>2012-02-24T14:08:36.000Z</time>
      </trkpt>
      <trkpt lat="45.59534" lon="6.64521">
        <ele>1432.4000244141</ele>
        <time>2012-02-24T14:08:39.000Z</time>
      </trkpt>
      <trkpt lat="45.59531" lon="6.64528">
        <ele>1431.8000488281</ele>
        <time>2012-02-24T14:08:40.000Z</time>
      </trkpt>
      <trkpt lat="45.59514" lon="6.64574">
        <ele>1428.5999755859</ele>
        <time>2012-02-24T14:08:44.000Z</time>
      </trkpt>
      <trkpt lat="45.59509" lon="6.64595">
        <ele>1426</ele>
        <time>2012-02-24T14:08:46.000Z</time>
      </trkpt>
      <trkpt lat="45.59503" lon="6.64629">
        <ele>1422</ele>
        <time>2012-02-24T14:08:50.000Z</time>
      </trkpt>
      <trkpt lat="45.59502" lon="6.64636">
        <ele>1421.5999755859</ele>
        <time>2012-02-24T14:08:51.000Z</time>
      </trkpt>
      <trkpt lat="45.59502" lon="6.64642">
        <ele>1421.4000244141</ele>
        <time>2012-02-24T14:08:52.000Z</time>
      </trkpt>
      <trkpt lat="45.59493" lon="6.64684">
        <ele>1420.5999755859</ele>
        <time>2012-02-24T14:08:58.000Z</time>
      </trkpt>
      <trkpt lat="45.59494" lon="6.64686">
        <ele>1420.4000244141</ele>
        <time>2012-02-24T14:09:04.000Z</time>
      </trkpt>
      <trkpt lat="45.59494" lon="6.64698">
        <ele>1421.1999511719</ele>
        <time>2012-02-24T14:09:19.000Z</time>
      </trkpt>
      <trkpt lat="45.59497" lon="6.64707">
        <ele>1422</ele>
        <time>2012-02-24T14:09:33.000Z</time>
      </trkpt>
      <trkpt lat="45.59492" lon="6.64719">
        <ele>1419.5999755859</ele>
        <time>2012-02-24T14:09:58.000Z</time>
      </trkpt>
      <trkpt lat="45.59492" lon="6.64714">
        <ele>1424.8000488281</ele>
        <time>2012-02-24T14:10:04.000Z</time>
      </trkpt>
      <trkpt lat="45.59489" lon="6.64696">
        <ele>1423.4000244141</ele>
        <time>2012-02-24T14:12:13.000Z</time>
      </trkpt>
      <trkpt lat="45.59487" lon="6.64706">
        <ele>1422.4000244141</ele>
        <time>2012-02-24T14:12:18.000Z</time>
      </trkpt>
      <trkpt lat="45.59486" lon="6.64726">
        <ele>1423.5999755859</ele>
        <time>2012-02-24T14:12:35.000Z</time>
      </trkpt>
      <trkpt lat="45.59497" lon="6.64731">
        <ele>1423.4000244141</ele>
        <time>2012-02-24T14:13:08.000Z</time>
      </trkpt>
      <trkpt lat="45.59496" lon="6.64741">
        <ele>1423.1999511719</ele>
        <time>2012-02-24T14:13:16.000Z</time>
      </trkpt>
      <trkpt lat="45.59497" lon="6.64743">
        <ele>1423.1999511719</ele>
        <time>2012-02-24T14:13:20.000Z</time>
      </trkpt>
      <trkpt lat="45.59495" lon="6.64749">
        <ele>1423.8000488281</ele>
        <time>2012-02-24T14:13:29.000Z</time>
      </trkpt>
      <trkpt lat="45.59479" lon="6.64771">
        <ele>1424.8000488281</ele>
        <time>2012-02-24T14:13:56.000Z</time>
      </trkpt>
      <trkpt lat="45.59469" lon="6.64782">
        <ele>1425</ele>
        <time>2012-02-24T14:14:17.000Z</time>
      </trkpt>
      <trkpt lat="45.59467" lon="6.64791">
        <ele>1424.4000244141</ele>
        <time>2012-02-24T14:14:27.000Z</time>
      </trkpt>
      <trkpt lat="45.59469" lon="6.64797">
        <ele>1424.4000244141</ele>
        <time>2012-02-24T14:14:37.000Z</time>
      </trkpt>
      <trkpt lat="45.59467" lon="6.648">
        <ele>1424.8000488281</ele>
        <time>2012-02-24T14:14:42.000Z</time>
      </trkpt>
      <trkpt lat="45.59465" lon="6.64808">
        <ele>1425</ele>
        <time>2012-02-24T14:14:49.000Z</time>
      </trkpt>
      <trkpt lat="45.59461" lon="6.64811">
        <ele>1424.4000244141</ele>
        <time>2012-02-24T14:14:56.000Z</time>
      </trkpt>
      <trkpt lat="45.5948" lon="6.64804">
        <ele>1425.1999511719</ele>
        <time>2012-02-24T14:16:01.000Z</time>
      </trkpt>
      <trkpt lat="45.59484" lon="6.64795">
        <ele>1425.4000244141</ele>
        <time>2012-02-24T14:16:06.000Z</time>
      </trkpt>
      <trkpt lat="45.59477" lon="6.64772">
        <ele>1425.8000488281</ele>
        <time>2012-02-24T14:16:16.000Z</time>
      </trkpt>
      <trkpt lat="45.59475" lon="6.64778">
        <ele>1426</ele>
        <time>2012-02-24T14:16:22.000Z</time>
      </trkpt>
      <trkpt lat="45.59466" lon="6.6482">
        <ele>1426.4000244141</ele>
        <time>2012-02-24T14:17:13.000Z</time>
      </trkpt>
      <trkpt lat="45.59458" lon="6.64831">
        <ele>1427.4000244141</ele>
        <time>2012-02-24T14:17:20.000Z</time>
      </trkpt>
      <trkpt lat="45.59453" lon="6.6484">
        <ele>1427</ele>
        <time>2012-02-24T14:17:27.000Z</time>
      </trkpt>
      <trkpt lat="45.59449" lon="6.64843">
        <ele>1426.8000488281</ele>
        <time>2012-02-24T14:17:32.000Z</time>
      </trkpt>
      <trkpt lat="45.59443" lon="6.64848">
        <ele>1427</ele>
        <time>2012-02-24T14:17:39.000Z</time>
      </trkpt>
      <trkpt lat="45.59441" lon="6.6485">
        <ele>1426.8000488281</ele>
        <time>2012-02-24T14:17:41.000Z</time>
      </trkpt>
      <trkpt lat="45.59438" lon="6.64854">
        <ele>1427.8000488281</ele>
        <time>2012-02-24T14:17:47.000Z</time>
      </trkpt>
      <trkpt lat="45.59433" lon="6.64856">
        <ele>1428</ele>
        <time>2012-02-24T14:17:53.000Z</time>
      </trkpt>
      <trkpt lat="45.59431" lon="6.64866">
        <ele>1429</ele>
        <time>2012-02-24T14:18:04.000Z</time>
      </trkpt>
      <trkpt lat="45.59427" lon="6.64877">
        <ele>1429.5999755859</ele>
        <time>2012-02-24T14:18:17.000Z</time>
      </trkpt>
      <trkpt lat="45.59424" lon="6.64884">
        <ele>1430.5999755859</ele>
        <time>2012-02-24T14:18:23.000Z</time>
      </trkpt>
      <trkpt lat="45.59419" lon="6.64897">
        <ele>1431</ele>
        <time>2012-02-24T14:18:33.000Z</time>
      </trkpt>
      <trkpt lat="45.59419" lon="6.64897">
        <ele>1429.8000488281</ele>
        <time>2012-02-24T14:18:44.000Z</time>
      </trkpt>
      <trkpt lat="45.59418" lon="6.64904">
        <ele>1429.8000488281</ele>
        <time>2012-02-24T14:18:51.000Z</time>
      </trkpt>
      <trkpt lat="45.59416" lon="6.64913">
        <ele>1431.4000244141</ele>
        <time>2012-02-24T14:18:59.000Z</time>
      </trkpt>
      <trkpt lat="45.59411" lon="6.6492">
        <ele>1431</ele>
        <time>2012-02-24T14:19:06.000Z</time>
      </trkpt>
      <trkpt lat="45.59409" lon="6.64924">
        <ele>1432.4000244141</ele>
        <time>2012-02-24T14:19:11.000Z</time>
      </trkpt>
      <trkpt lat="45.59408" lon="6.64934">
        <ele>1432.1999511719</ele>
        <time>2012-02-24T14:19:19.000Z</time>
      </trkpt>
      <trkpt lat="45.59404" lon="6.64939">
        <ele>1432.8000488281</ele>
        <time>2012-02-24T14:19:25.000Z</time>
      </trkpt>
      <trkpt lat="45.59405" lon="6.64946">
        <ele>1434.1999511719</ele>
        <time>2012-02-24T14:19:31.000Z</time>
      </trkpt>
      <trkpt lat="45.59401" lon="6.64955">
        <ele>1433.4000244141</ele>
        <time>2012-02-24T14:19:40.000Z</time>
      </trkpt>
      <trkpt lat="45.594" lon="6.64959">
        <ele>1435.1999511719</ele>
        <time>2012-02-24T14:19:50.000Z</time>
      </trkpt>
      <trkpt lat="45.59398" lon="6.64964">
        <ele>1435.8000488281</ele>
        <time>2012-02-24T14:19:56.000Z</time>
      </trkpt>
      <trkpt lat="45.59397" lon="6.64968">
        <ele>1436.4000244141</ele>
        <time>2012-02-24T14:20:02.000Z</time>
      </trkpt>
      <trkpt lat="45.59395" lon="6.64978">
        <ele>1436.8000488281</ele>
        <time>2012-02-24T14:20:10.000Z</time>
      </trkpt>
      <trkpt lat="45.59394" lon="6.64984">
        <ele>1437.8000488281</ele>
        <time>2012-02-24T14:20:16.000Z</time>
      </trkpt>
      <trkpt lat="45.59392" lon="6.64991">
        <ele>1438</ele>
        <time>2012-02-24T14:20:22.000Z</time>
      </trkpt>
      <trkpt lat="45.59388" lon="6.64997">
        <ele>1439</ele>
        <time>2012-02-24T14:20:29.000Z</time>
      </trkpt>
      <trkpt lat="45.59385" lon="6.65">
        <ele>1440.1999511719</ele>
        <time>2012-02-24T14:20:35.000Z</time>
      </trkpt>
      <trkpt lat="45.59383" lon="6.65004">
        <ele>1439.8000488281</ele>
        <time>2012-02-24T14:20:41.000Z</time>
      </trkpt>
      <trkpt lat="45.59381" lon="6.65007">
        <ele>1440.4000244141</ele>
        <time>2012-02-24T14:20:46.000Z</time>
      </trkpt>
      <trkpt lat="45.59379" lon="6.65013">
        <ele>1440.8000488281</ele>
        <time>2012-02-24T14:20:52.000Z</time>
      </trkpt>
      <trkpt lat="45.59376" lon="6.65021">
        <ele>1441.8000488281</ele>
        <time>2012-02-24T14:20:58.000Z</time>
      </trkpt>
      <trkpt lat="45.59373" lon="6.65029">
        <ele>1442.1999511719</ele>
        <time>2012-02-24T14:21:04.000Z</time>
      </trkpt>
      <trkpt lat="45.59373" lon="6.65032">
        <ele>1443.1999511719</ele>
        <time>2012-02-24T14:21:09.000Z</time>
      </trkpt>
      <trkpt lat="45.59372" lon="6.65036">
        <ele>1443.5999755859</ele>
        <time>2012-02-24T14:21:14.000Z</time>
      </trkpt>
      <trkpt lat="45.5937" lon="6.65042">
        <ele>1444.4000244141</ele>
        <time>2012-02-24T14:21:19.000Z</time>
      </trkpt>
      <trkpt lat="45.59368" lon="6.65043">
        <ele>1444</ele>
        <time>2012-02-24T14:21:25.000Z</time>
      </trkpt>
      <trkpt lat="45.59367" lon="6.65044">
        <ele>1444</ele>
        <time>2012-02-24T14:21:26.000Z</time>
      </trkpt>
      <trkpt lat="45.59365" lon="6.6505">
        <ele>1444.5999755859</ele>
        <time>2012-02-24T14:21:32.000Z</time>
      </trkpt>
      <trkpt lat="45.59365" lon="6.65051">
        <ele>1444.8000488281</ele>
        <time>2012-02-24T14:21:33.000Z</time>
      </trkpt>
      <trkpt lat="45.59362" lon="6.65061">
        <ele>1444.5999755859</ele>
        <time>2012-02-24T14:21:39.000Z</time>
      </trkpt>
      <trkpt lat="45.5936" lon="6.65067">
        <ele>1445.8000488281</ele>
        <time>2012-02-24T14:21:44.000Z</time>
      </trkpt>
      <trkpt lat="45.59359" lon="6.65075">
        <ele>1445</ele>
        <time>2012-02-24T14:21:49.000Z</time>
      </trkpt>
      <trkpt lat="45.59358" lon="6.65081">
        <ele>1444</ele>
        <time>2012-02-24T14:21:54.000Z</time>
      </trkpt>
      <trkpt lat="45.59356" lon="6.65086">
        <ele>1444</ele>
        <time>2012-02-24T14:22:01.000Z</time>
      </trkpt>
      <trkpt lat="45.59353" lon="6.65094">
        <ele>1444.8000488281</ele>
        <time>2012-02-24T14:22:07.000Z</time>
      </trkpt>
      <trkpt lat="45.59353" lon="6.65099">
        <ele>1444.4000244141</ele>
        <time>2012-02-24T14:22:12.000Z</time>
      </trkpt>
      <trkpt lat="45.59353" lon="6.65101">
        <ele>1444.1999511719</ele>
        <time>2012-02-24T14:22:14.000Z</time>
      </trkpt>
      <trkpt lat="45.59351" lon="6.65109">
        <ele>1445.1999511719</ele>
        <time>2012-02-24T14:22:21.000Z</time>
      </trkpt>
      <trkpt lat="45.59352" lon="6.65112">
        <ele>1445</ele>
        <time>2012-02-24T14:22:26.000Z</time>
      </trkpt>
      <trkpt lat="45.59351" lon="6.65115">
        <ele>1446.1999511719</ele>
        <time>2012-02-24T14:22:29.000Z</time>
      </trkpt>
      <trkpt lat="45.59349" lon="6.65122">
        <ele>1447</ele>
        <time>2012-02-24T14:22:36.000Z</time>
      </trkpt>
      <trkpt lat="45.59346" lon="6.65128">
        <ele>1446.5999755859</ele>
        <time>2012-02-24T14:22:41.000Z</time>
      </trkpt>
      <trkpt lat="45.59344" lon="6.65135">
        <ele>1448.5999755859</ele>
        <time>2012-02-24T14:22:49.000Z</time>
      </trkpt>
      <trkpt lat="45.59342" lon="6.6514">
        <ele>1449</ele>
        <time>2012-02-24T14:22:53.000Z</time>
      </trkpt>
      <trkpt lat="45.5934" lon="6.65148">
        <ele>1449.5999755859</ele>
        <time>2012-02-24T14:22:59.000Z</time>
      </trkpt>
      <trkpt lat="45.59339" lon="6.65159">
        <ele>1449</ele>
        <time>2012-02-24T14:23:05.000Z</time>
      </trkpt>
      <trkpt lat="45.59338" lon="6.65166">
        <ele>1449.4000244141</ele>
        <time>2012-02-24T14:23:09.000Z</time>
      </trkpt>
      <trkpt lat="45.59337" lon="6.65169">
        <ele>1449.8000488281</ele>
        <time>2012-02-24T14:23:14.000Z</time>
      </trkpt>
      <trkpt lat="45.59337" lon="6.65179">
        <ele>1452.4000244141</ele>
        <time>2012-02-24T14:23:26.000Z</time>
      </trkpt>
      <trkpt lat="45.59335" lon="6.65188">
        <ele>1452</ele>
        <time>2012-02-24T14:23:34.000Z</time>
      </trkpt>
      <trkpt lat="45.59332" lon="6.65201">
        <ele>1452.1999511719</ele>
        <time>2012-02-24T14:23:43.000Z</time>
      </trkpt>
      <trkpt lat="45.59328" lon="6.65218">
        <ele>1453.8000488281</ele>
        <time>2012-02-24T14:23:55.000Z</time>
      </trkpt>
      <trkpt lat="45.59328" lon="6.65227">
        <ele>1453.8000488281</ele>
        <time>2012-02-24T14:24:01.000Z</time>
      </trkpt>
      <trkpt lat="45.59326" lon="6.65233">
        <ele>1454.4000244141</ele>
        <time>2012-02-24T14:24:08.000Z</time>
      </trkpt>
      <trkpt lat="45.59327" lon="6.65238">
        <ele>1454</ele>
        <time>2012-02-24T14:24:13.000Z</time>
      </trkpt>
      <trkpt lat="45.59316" lon="6.65296">
        <ele>1458.4000244141</ele>
        <time>2012-02-24T14:25:12.000Z</time>
      </trkpt>
      <trkpt lat="45.59308" lon="6.65345">
        <ele>1461.8000488281</ele>
        <time>2012-02-24T14:26:04.000Z</time>
      </trkpt>
      <trkpt lat="45.59307" lon="6.65354">
        <ele>1461.5999755859</ele>
        <time>2012-02-24T14:26:14.000Z</time>
      </trkpt>
      <trkpt lat="45.59305" lon="6.65365">
        <ele>1463.4000244141</ele>
        <time>2012-02-24T14:26:25.000Z</time>
      </trkpt>
      <trkpt lat="45.59304" lon="6.65377">
        <ele>1463.4000244141</ele>
        <time>2012-02-24T14:26:35.000Z</time>
      </trkpt>
      <trkpt lat="45.59301" lon="6.65388">
        <ele>1464.1999511719</ele>
        <time>2012-02-24T14:26:45.000Z</time>
      </trkpt>
      <trkpt lat="45.59302" lon="6.65398">
        <ele>1465.4000244141</ele>
        <time>2012-02-24T14:26:55.000Z</time>
      </trkpt>
      <trkpt lat="45.59301" lon="6.65403">
        <ele>1466.8000488281</ele>
        <time>2012-02-24T14:26:59.000Z</time>
      </trkpt>
      <trkpt lat="45.59298" lon="6.65422">
        <ele>1468</ele>
        <time>2012-02-24T14:27:10.000Z</time>
      </trkpt>
      <trkpt lat="45.59298" lon="6.65429">
        <ele>1468.1999511719</ele>
        <time>2012-02-24T14:27:15.000Z</time>
      </trkpt>
      <trkpt lat="45.59297" lon="6.65435">
        <ele>1469</ele>
        <time>2012-02-24T14:27:21.000Z</time>
      </trkpt>
      <trkpt lat="45.59298" lon="6.65438">
        <ele>1467.8000488281</ele>
        <time>2012-02-24T14:27:29.000Z</time>
      </trkpt>
      <trkpt lat="45.59302" lon="6.65451">
        <ele>1468.5999755859</ele>
        <time>2012-02-24T14:27:39.000Z</time>
      </trkpt>
      <trkpt lat="45.59297" lon="6.6546">
        <ele>1469.8000488281</ele>
        <time>2012-02-24T14:27:53.000Z</time>
      </trkpt>
      <trkpt lat="45.59298" lon="6.65479">
        <ele>1470</ele>
        <time>2012-02-24T14:28:06.000Z</time>
      </trkpt>
      <trkpt lat="45.59299" lon="6.65485">
        <ele>1470.4000244141</ele>
        <time>2012-02-24T14:28:10.000Z</time>
      </trkpt>
      <trkpt lat="45.59298" lon="6.65495">
        <ele>1469.8000488281</ele>
        <time>2012-02-24T14:28:16.000Z</time>
      </trkpt>
      <trkpt lat="45.59298" lon="6.65503">
        <ele>1470.1999511719</ele>
        <time>2012-02-24T14:28:23.000Z</time>
      </trkpt>
      <trkpt lat="45.59294" lon="6.65511">
        <ele>1471.4000244141</ele>
        <time>2012-02-24T14:28:31.000Z</time>
      </trkpt>
      <trkpt lat="45.59295" lon="6.65531">
        <ele>1473</ele>
        <time>2012-02-24T14:28:47.000Z</time>
      </trkpt>
      <trkpt lat="45.59294" lon="6.65536">
        <ele>1473</ele>
        <time>2012-02-24T14:28:50.000Z</time>
      </trkpt>
      <trkpt lat="45.59291" lon="6.65547">
        <ele>1472.8000488281</ele>
        <time>2012-02-24T14:28:58.000Z</time>
      </trkpt>
      <trkpt lat="45.5929" lon="6.65553">
        <ele>1474</ele>
        <time>2012-02-24T14:29:05.000Z</time>
      </trkpt>
      <trkpt lat="45.59286" lon="6.65559">
        <ele>1473.5999755859</ele>
        <time>2012-02-24T14:29:11.000Z</time>
      </trkpt>
      <trkpt lat="45.59286" lon="6.65571">
        <ele>1474.8000488281</ele>
        <time>2012-02-24T14:29:23.000Z</time>
      </trkpt>
      <trkpt lat="45.59284" lon="6.65586">
        <ele>1475.1999511719</ele>
        <time>2012-02-24T14:29:35.000Z</time>
      </trkpt>
      <trkpt lat="45.59278" lon="6.65601">
        <ele>1474.5999755859</ele>
        <time>2012-02-24T14:29:44.000Z</time>
      </trkpt>
      <trkpt lat="45.59277" lon="6.65606">
        <ele>1475.1999511719</ele>
        <time>2012-02-24T14:29:49.000Z</time>
      </trkpt>
      <trkpt lat="45.59276" lon="6.6561">
        <ele>1475.5999755859</ele>
        <time>2012-02-24T14:29:53.000Z</time>
      </trkpt>
      <trkpt lat="45.59274" lon="6.65617">
        <ele>1477</ele>
        <time>2012-02-24T14:29:59.000Z</time>
      </trkpt>
      <trkpt lat="45.59275" lon="6.65623">
        <ele>1477.5999755859</ele>
        <time>2012-02-24T14:30:08.000Z</time>
      </trkpt>
      <trkpt lat="45.59275" lon="6.6564">
        <ele>1478</ele>
        <time>2012-02-24T14:30:20.000Z</time>
      </trkpt>
      <trkpt lat="45.59271" lon="6.65658">
        <ele>1479.1999511719</ele>
        <time>2012-02-24T14:30:32.000Z</time>
      </trkpt>
      <trkpt lat="45.5927" lon="6.65665">
        <ele>1479.8000488281</ele>
        <time>2012-02-24T14:30:37.000Z</time>
      </trkpt>
      <trkpt lat="45.59269" lon="6.6567">
        <ele>1480.4000244141</ele>
        <time>2012-02-24T14:30:42.000Z</time>
      </trkpt>
      <trkpt lat="45.59268" lon="6.65677">
        <ele>1480.5999755859</ele>
        <time>2012-02-24T14:30:49.000Z</time>
      </trkpt>
      <trkpt lat="45.5927" lon="6.65682">
        <ele>1480</ele>
        <time>2012-02-24T14:30:55.000Z</time>
      </trkpt>
      <trkpt lat="45.59265" lon="6.65697">
        <ele>1482.8000488281</ele>
        <time>2012-02-24T14:31:10.000Z</time>
      </trkpt>
      <trkpt lat="45.59266" lon="6.65702">
        <ele>1483.1999511719</ele>
        <time>2012-02-24T14:31:16.000Z</time>
      </trkpt>
      <trkpt lat="45.59263" lon="6.65709">
        <ele>1482.1999511719</ele>
        <time>2012-02-24T14:31:21.000Z</time>
      </trkpt>
      <trkpt lat="45.59264" lon="6.65716">
        <ele>1484.1999511719</ele>
        <time>2012-02-24T14:31:28.000Z</time>
      </trkpt>
      <trkpt lat="45.59265" lon="6.65723">
        <ele>1484.5999755859</ele>
        <time>2012-02-24T14:31:33.000Z</time>
      </trkpt>
      <trkpt lat="45.59267" lon="6.65727">
        <ele>1483.8000488281</ele>
        <time>2012-02-24T14:31:38.000Z</time>
      </trkpt>
      <trkpt lat="45.59268" lon="6.65732">
        <ele>1484.4000244141</ele>
        <time>2012-02-24T14:31:43.000Z</time>
      </trkpt>
      <trkpt lat="45.59268" lon="6.6574">
        <ele>1484</ele>
        <time>2012-02-24T14:31:49.000Z</time>
      </trkpt>
      <trkpt lat="45.59269" lon="6.65746">
        <ele>1485</ele>
        <time>2012-02-24T14:31:54.000Z</time>
      </trkpt>
      <trkpt lat="45.5927" lon="6.65755">
        <ele>1486</ele>
        <time>2012-02-24T14:32:01.000Z</time>
      </trkpt>
      <trkpt lat="45.59272" lon="6.65758">
        <ele>1487</ele>
        <time>2012-02-24T14:32:05.000Z</time>
      </trkpt>
      <trkpt lat="45.59275" lon="6.65762">
        <ele>1486.5999755859</ele>
        <time>2012-02-24T14:32:11.000Z</time>
      </trkpt>
      <trkpt lat="45.59275" lon="6.65772">
        <ele>1487.8000488281</ele>
        <time>2012-02-24T14:32:18.000Z</time>
      </trkpt>
      <trkpt lat="45.5927" lon="6.65783">
        <ele>1489</ele>
        <time>2012-02-24T14:32:28.000Z</time>
      </trkpt>
      <trkpt lat="45.59268" lon="6.65796">
        <ele>1489.4000244141</ele>
        <time>2012-02-24T14:32:36.000Z</time>
      </trkpt>
      <trkpt lat="45.59266" lon="6.65804">
        <ele>1490.1999511719</ele>
        <time>2012-02-24T14:32:42.000Z</time>
      </trkpt>
      <trkpt lat="45.59262" lon="6.65818">
        <ele>1491.5999755859</ele>
        <time>2012-02-24T14:33:06.000Z</time>
      </trkpt>
      <trkpt lat="45.59259" lon="6.65825">
        <ele>1492.1999511719</ele>
        <time>2012-02-24T14:33:11.000Z</time>
      </trkpt>
      <trkpt lat="45.59252" lon="6.65834">
        <ele>1493.8000488281</ele>
        <time>2012-02-24T14:33:18.000Z</time>
      </trkpt>
      <trkpt lat="45.59248" lon="6.65839">
        <ele>1494.4000244141</ele>
        <time>2012-02-24T14:33:23.000Z</time>
      </trkpt>
      <trkpt lat="45.59244" lon="6.65845">
        <ele>1494.8000488281</ele>
        <time>2012-02-24T14:33:28.000Z</time>
      </trkpt>
      <trkpt lat="45.59241" lon="6.6585">
        <ele>1493.8000488281</ele>
        <time>2012-02-24T14:33:34.000Z</time>
      </trkpt>
      <trkpt lat="45.59238" lon="6.65856">
        <ele>1493.5999755859</ele>
        <time>2012-02-24T14:33:39.000Z</time>
      </trkpt>
      <trkpt lat="45.59236" lon="6.65863">
        <ele>1494.8000488281</ele>
        <time>2012-02-24T14:33:46.000Z</time>
      </trkpt>
      <trkpt lat="45.59232" lon="6.6587">
        <ele>1497.5999755859</ele>
        <time>2012-02-24T14:33:53.000Z</time>
      </trkpt>
      <trkpt lat="45.59231" lon="6.65872">
        <ele>1498</ele>
        <time>2012-02-24T14:33:54.000Z</time>
      </trkpt>
      <trkpt lat="45.59229" lon="6.65876">
        <ele>1498.5999755859</ele>
        <time>2012-02-24T14:34:00.000Z</time>
      </trkpt>
      <trkpt lat="45.59227" lon="6.65881">
        <ele>1498</ele>
        <time>2012-02-24T14:34:05.000Z</time>
      </trkpt>
      <trkpt lat="45.59223" lon="6.65886">
        <ele>1496.8000488281</ele>
        <time>2012-02-24T14:34:11.000Z</time>
      </trkpt>
      <trkpt lat="45.59219" lon="6.65888">
        <ele>1497</ele>
        <time>2012-02-24T14:34:17.000Z</time>
      </trkpt>
      <trkpt lat="45.59215" lon="6.65891">
        <ele>1498.8000488281</ele>
        <time>2012-02-24T14:34:22.000Z</time>
      </trkpt>
      <trkpt lat="45.59214" lon="6.65891">
        <ele>1499.5999755859</ele>
        <time>2012-02-24T14:34:24.000Z</time>
      </trkpt>
      <trkpt lat="45.59209" lon="6.65894">
        <ele>1499.8000488281</ele>
        <time>2012-02-24T14:34:30.000Z</time>
      </trkpt>
      <trkpt lat="45.59206" lon="6.65899">
        <ele>1499.8000488281</ele>
        <time>2012-02-24T14:34:35.000Z</time>
      </trkpt>
      <trkpt lat="45.59219" lon="6.65899">
        <ele>1499.5999755859</ele>
        <time>2012-02-24T14:35:06.000Z</time>
      </trkpt>
      <trkpt lat="45.59211" lon="6.65898">
        <ele>1500.1999511719</ele>
        <time>2012-02-24T14:36:04.000Z</time>
      </trkpt>
      <trkpt lat="45.59204" lon="6.65906">
        <ele>1500</ele>
        <time>2012-02-24T14:36:14.000Z</time>
      </trkpt>
      <trkpt lat="45.59201" lon="6.65907">
        <ele>1501.4000244141</ele>
        <time>2012-02-24T14:36:20.000Z</time>
      </trkpt>
      <trkpt lat="45.59201" lon="6.65906">
        <ele>1500.4000244141</ele>
        <time>2012-02-24T14:36:22.000Z</time>
      </trkpt>
      <trkpt lat="45.59198" lon="6.65909">
        <ele>1498.5999755859</ele>
        <time>2012-02-24T14:38:36.000Z</time>
      </trkpt>
      <trkpt lat="45.59202" lon="6.65903">
        <ele>1500.1999511719</ele>
        <time>2012-02-24T14:38:48.000Z</time>
      </trkpt>
      <trkpt lat="45.59196" lon="6.65915">
        <ele>1499.8000488281</ele>
        <time>2012-02-24T14:41:25.000Z</time>
      </trkpt>
      <trkpt lat="45.59193" lon="6.65914">
        <ele>1498.4000244141</ele>
        <time>2012-02-24T14:41:32.000Z</time>
      </trkpt>
      <trkpt lat="45.59192" lon="6.65921">
        <ele>1498</ele>
        <time>2012-02-24T14:41:50.000Z</time>
      </trkpt>
      <trkpt lat="45.59202" lon="6.65915">
        <ele>1498</ele>
        <time>2012-02-24T14:42:58.000Z</time>
      </trkpt>
      <trkpt lat="45.592" lon="6.65924">
        <ele>1497</ele>
        <time>2012-02-24T14:43:03.000Z</time>
      </trkpt>
      <trkpt lat="45.59202" lon="6.65938">
        <ele>1495.5999755859</ele>
        <time>2012-02-24T14:43:07.000Z</time>
      </trkpt>
      <trkpt lat="45.59201" lon="6.65956">
        <ele>1493.8000488281</ele>
        <time>2012-02-24T14:43:11.000Z</time>
      </trkpt>
      <trkpt lat="45.59207" lon="6.65971">
        <ele>1492.8000488281</ele>
        <time>2012-02-24T14:43:15.000Z</time>
      </trkpt>
      <trkpt lat="45.59212" lon="6.65986">
        <ele>1491</ele>
        <time>2012-02-24T14:43:19.000Z</time>
      </trkpt>
      <trkpt lat="45.59216" lon="6.66012">
        <ele>1488.8000488281</ele>
        <time>2012-02-24T14:43:24.000Z</time>
      </trkpt>
      <trkpt lat="45.59214" lon="6.66044">
        <ele>1486.4000244141</ele>
        <time>2012-02-24T14:43:28.000Z</time>
      </trkpt>
      <trkpt lat="45.59211" lon="6.66063">
        <ele>1485.1999511719</ele>
        <time>2012-02-24T14:43:30.000Z</time>
      </trkpt>
      <trkpt lat="45.59206" lon="6.66082">
        <ele>1483.5999755859</ele>
        <time>2012-02-24T14:43:32.000Z</time>
      </trkpt>
      <trkpt lat="45.59208" lon="6.66108">
        <ele>1481.8000488281</ele>
        <time>2012-02-24T14:43:35.000Z</time>
      </trkpt>
      <trkpt lat="45.5921" lon="6.66134">
        <ele>1480</ele>
        <time>2012-02-24T14:43:39.000Z</time>
      </trkpt>
      <trkpt lat="45.59209" lon="6.66142">
        <ele>1479.4000244141</ele>
        <time>2012-02-24T14:43:40.000Z</time>
      </trkpt>
      <trkpt lat="45.59207" lon="6.66154">
        <ele>1478.1999511719</ele>
        <time>2012-02-24T14:43:42.000Z</time>
      </trkpt>
      <trkpt lat="45.59214" lon="6.66172">
        <ele>1475.5999755859</ele>
        <time>2012-02-24T14:43:47.000Z</time>
      </trkpt>
      <trkpt lat="45.59223" lon="6.66181">
        <ele>1473.8000488281</ele>
        <time>2012-02-24T14:43:51.000Z</time>
      </trkpt>
      <trkpt lat="45.59229" lon="6.66188">
        <ele>1472.5999755859</ele>
        <time>2012-02-24T14:43:55.000Z</time>
      </trkpt>
      <trkpt lat="45.59245" lon="6.66202">
        <ele>1471</ele>
        <time>2012-02-24T14:44:02.000Z</time>
      </trkpt>
      <trkpt lat="45.59259" lon="6.66211">
        <ele>1469.4000244141</ele>
        <time>2012-02-24T14:44:07.000Z</time>
      </trkpt>
      <trkpt lat="45.59268" lon="6.66219">
        <ele>1467.5999755859</ele>
        <time>2012-02-24T14:44:10.000Z</time>
      </trkpt>
      <trkpt lat="45.59283" lon="6.66233">
        <ele>1465.4000244141</ele>
        <time>2012-02-24T14:44:15.000Z</time>
      </trkpt>
      <trkpt lat="45.59289" lon="6.66243">
        <ele>1464</ele>
        <time>2012-02-24T14:44:18.000Z</time>
      </trkpt>
      <trkpt lat="45.59299" lon="6.66262">
        <ele>1461.5999755859</ele>
        <time>2012-02-24T14:44:22.000Z</time>
      </trkpt>
      <trkpt lat="45.59303" lon="6.66265">
        <ele>1461.4000244141</ele>
        <time>2012-02-24T14:44:23.000Z</time>
      </trkpt>
      <trkpt lat="45.59308" lon="6.66292">
        <ele>1459.1999511719</ele>
        <time>2012-02-24T14:44:28.000Z</time>
      </trkpt>
      <trkpt lat="45.59311" lon="6.66302">
        <ele>1457.4000244141</ele>
        <time>2012-02-24T14:44:31.000Z</time>
      </trkpt>
      <trkpt lat="45.59315" lon="6.66313">
        <ele>1455.5999755859</ele>
        <time>2012-02-24T14:44:35.000Z</time>
      </trkpt>
      <trkpt lat="45.5931" lon="6.66324">
        <ele>1455</ele>
        <time>2012-02-24T14:44:43.000Z</time>
      </trkpt>
      <trkpt lat="45.59307" lon="6.66335">
        <ele>1454.8000488281</ele>
        <time>2012-02-24T14:44:52.000Z</time>
      </trkpt>
      <trkpt lat="45.59316" lon="6.66347">
        <ele>1453.8000488281</ele>
        <time>2012-02-24T14:44:59.000Z</time>
      </trkpt>
      <trkpt lat="45.59324" lon="6.6636">
        <ele>1452.1999511719</ele>
        <time>2012-02-24T14:45:04.000Z</time>
      </trkpt>
      <trkpt lat="45.59332" lon="6.66376">
        <ele>1450.1999511719</ele>
        <time>2012-02-24T14:45:08.000Z</time>
      </trkpt>
      <trkpt lat="45.59341" lon="6.66391">
        <ele>1447.4000244141</ele>
        <time>2012-02-24T14:45:12.000Z</time>
      </trkpt>
      <trkpt lat="45.59357" lon="6.6642">
        <ele>1444.5999755859</ele>
        <time>2012-02-24T14:45:16.000Z</time>
      </trkpt>
      <trkpt lat="45.59359" lon="6.6643">
        <ele>1444</ele>
        <time>2012-02-24T14:45:18.000Z</time>
      </trkpt>
      <trkpt lat="45.59365" lon="6.66448">
        <ele>1443</ele>
        <time>2012-02-24T14:45:21.000Z</time>
      </trkpt>
      <trkpt lat="45.59365" lon="6.6647">
        <ele>1442.1999511719</ele>
        <time>2012-02-24T14:45:23.000Z</time>
      </trkpt>
      <trkpt lat="45.59373" lon="6.66496">
        <ele>1439.5999755859</ele>
        <time>2012-02-24T14:45:27.000Z</time>
      </trkpt>
      <trkpt lat="45.59397" lon="6.66524">
        <ele>1436.1999511719</ele>
        <time>2012-02-24T14:45:32.000Z</time>
      </trkpt>
      <trkpt lat="45.59393" lon="6.66533">
        <ele>1436</ele>
        <time>2012-02-24T14:45:33.000Z</time>
      </trkpt>
      <trkpt lat="45.59398" lon="6.66557">
        <ele>1434</ele>
        <time>2012-02-24T14:45:37.000Z</time>
      </trkpt>
      <trkpt lat="45.594" lon="6.66572">
        <ele>1431.5999755859</ele>
        <time>2012-02-24T14:45:40.000Z</time>
      </trkpt>
      <trkpt lat="45.59412" lon="6.66585">
        <ele>1428.1999511719</ele>
        <time>2012-02-24T14:45:45.000Z</time>
      </trkpt>
      <trkpt lat="45.59423" lon="6.66602">
        <ele>1425.5999755859</ele>
        <time>2012-02-24T14:45:50.000Z</time>
      </trkpt>
      <trkpt lat="45.59446" lon="6.66637">
        <ele>1423</ele>
        <time>2012-02-24T14:45:54.000Z</time>
      </trkpt>
      <trkpt lat="45.5946" lon="6.66674">
        <ele>1419.8000488281</ele>
        <time>2012-02-24T14:45:58.000Z</time>
      </trkpt>
      <trkpt lat="45.59472" lon="6.66691">
        <ele>1419</ele>
        <time>2012-02-24T14:45:59.000Z</time>
      </trkpt>
      <trkpt lat="45.59481" lon="6.66707">
        <ele>1416.8000488281</ele>
        <time>2012-02-24T14:46:01.000Z</time>
      </trkpt>
      <trkpt lat="45.59495" lon="6.66708">
        <ele>1416.1999511719</ele>
        <time>2012-02-24T14:46:03.000Z</time>
      </trkpt>
      <trkpt lat="45.59502" lon="6.66732">
        <ele>1414.4000244141</ele>
        <time>2012-02-24T14:46:06.000Z</time>
      </trkpt>
      <trkpt lat="45.59506" lon="6.66736">
        <ele>1413.4000244141</ele>
        <time>2012-02-24T14:46:07.000Z</time>
      </trkpt>
      <trkpt lat="45.59517" lon="6.6675">
        <ele>1410.1999511719</ele>
        <time>2012-02-24T14:46:12.000Z</time>
      </trkpt>
      <trkpt lat="45.59514" lon="6.66749">
        <ele>1409.8000488281</ele>
        <time>2012-02-24T14:46:21.000Z</time>
      </trkpt>
      <trkpt lat="45.59519" lon="6.66752">
        <ele>1409.8000488281</ele>
        <time>2012-02-24T14:46:33.000Z</time>
      </trkpt>
      <trkpt lat="45.59521" lon="6.66756">
        <ele>1409</ele>
        <time>2012-02-24T14:46:39.000Z</time>
      </trkpt>
      <trkpt lat="45.59526" lon="6.66756">
        <ele>1408.4000244141</ele>
        <time>2012-02-24T14:46:49.000Z</time>
      </trkpt>
      <trkpt lat="45.59529" lon="6.66763">
        <ele>1408</ele>
        <time>2012-02-24T14:47:02.000Z</time>
      </trkpt>
      <trkpt lat="45.59536" lon="6.66757">
        <ele>1406.8000488281</ele>
        <time>2012-02-24T14:47:07.000Z</time>
      </trkpt>
      <trkpt lat="45.59547" lon="6.66744">
        <ele>1402.5999755859</ele>
        <time>2012-02-24T14:47:13.000Z</time>
      </trkpt>
      <trkpt lat="45.59556" lon="6.66736">
        <ele>1398.8000488281</ele>
        <time>2012-02-24T14:47:17.000Z</time>
      </trkpt>
      <trkpt lat="45.59558" lon="6.66736">
        <ele>1398.1999511719</ele>
        <time>2012-02-24T14:47:18.000Z</time>
      </trkpt>
      <trkpt lat="45.59578" lon="6.66732">
        <ele>1394.4000244141</ele>
        <time>2012-02-24T14:47:23.000Z</time>
      </trkpt>
      <trkpt lat="45.59601" lon="6.6674">
        <ele>1390.1999511719</ele>
        <time>2012-02-24T14:47:27.000Z</time>
      </trkpt>
      <trkpt lat="45.59632" lon="6.66754">
        <ele>1389</ele>
        <time>2012-02-24T14:47:30.000Z</time>
      </trkpt>
      <trkpt lat="45.59633" lon="6.66757">
        <ele>1388.5999755859</ele>
        <time>2012-02-24T14:47:31.000Z</time>
      </trkpt>
      <trkpt lat="45.59621" lon="6.66759">
        <ele>1386</ele>
        <time>2012-02-24T14:47:37.000Z</time>
      </trkpt>
      <trkpt lat="45.59606" lon="6.66758">
        <ele>1384</ele>
        <time>2012-02-24T14:47:40.000Z</time>
      </trkpt>
      <trkpt lat="45.59604" lon="6.66782">
        <ele>1382.5999755859</ele>
        <time>2012-02-24T14:47:43.000Z</time>
      </trkpt>
      <trkpt lat="45.59623" lon="6.66815">
        <ele>1380</ele>
        <time>2012-02-24T14:47:47.000Z</time>
      </trkpt>
      <trkpt lat="45.59625" lon="6.66824">
        <ele>1378.8000488281</ele>
        <time>2012-02-24T14:47:49.000Z</time>
      </trkpt>
      <trkpt lat="45.59636" lon="6.66866">
        <ele>1376.4000244141</ele>
        <time>2012-02-24T14:47:54.000Z</time>
      </trkpt>
      <trkpt lat="45.59637" lon="6.66875">
        <ele>1375.5999755859</ele>
        <time>2012-02-24T14:47:55.000Z</time>
      </trkpt>
      <trkpt lat="45.59641" lon="6.66903">
        <ele>1373.4000244141</ele>
        <time>2012-02-24T14:47:59.000Z</time>
      </trkpt>
      <trkpt lat="45.59635" lon="6.66946">
        <ele>1370.8000488281</ele>
        <time>2012-02-24T14:48:03.000Z</time>
      </trkpt>
      <trkpt lat="45.59637" lon="6.66956">
        <ele>1370</ele>
        <time>2012-02-24T14:48:04.000Z</time>
      </trkpt>
      <trkpt lat="45.59654" lon="6.66982">
        <ele>1367.4000244141</ele>
        <time>2012-02-24T14:48:08.000Z</time>
      </trkpt>
      <trkpt lat="45.59642" lon="6.67013">
        <ele>1365</ele>
        <time>2012-02-24T14:48:12.000Z</time>
      </trkpt>
      <trkpt lat="45.5962" lon="6.67013">
        <ele>1363.5999755859</ele>
        <time>2012-02-24T14:48:15.000Z</time>
      </trkpt>
      <trkpt lat="45.59613" lon="6.67011">
        <ele>1362.8000488281</ele>
        <time>2012-02-24T14:48:16.000Z</time>
      </trkpt>
      <trkpt lat="45.59602" lon="6.67006">
        <ele>1362</ele>
        <time>2012-02-24T14:48:18.000Z</time>
      </trkpt>
      <trkpt lat="45.59579" lon="6.67">
        <ele>1359.8000488281</ele>
        <time>2012-02-24T14:48:22.000Z</time>
      </trkpt>
      <trkpt lat="45.59557" lon="6.67003">
        <ele>1358.1999511719</ele>
        <time>2012-02-24T14:48:26.000Z</time>
      </trkpt>
      <trkpt lat="45.59524" lon="6.66995">
        <ele>1356.1999511719</ele>
        <time>2012-02-24T14:48:33.000Z</time>
      </trkpt>
      <trkpt lat="45.59495" lon="6.67007">
        <ele>1354</ele>
        <time>2012-02-24T14:48:39.000Z</time>
      </trkpt>
      <trkpt lat="45.59491" lon="6.6701">
        <ele>1353.5999755859</ele>
        <time>2012-02-24T14:48:40.000Z</time>
      </trkpt>
      <trkpt lat="45.59475" lon="6.67026">
        <ele>1351.5999755859</ele>
        <time>2012-02-24T14:48:45.000Z</time>
      </trkpt>
      <trkpt lat="45.59464" lon="6.67034">
        <ele>1351.5999755859</ele>
        <time>2012-02-24T14:48:48.000Z</time>
      </trkpt>
      <trkpt lat="45.59437" lon="6.67042">
        <ele>1349.8000488281</ele>
        <time>2012-02-24T14:48:54.000Z</time>
      </trkpt>
      <trkpt lat="45.59418" lon="6.67057">
        <ele>1348</ele>
        <time>2012-02-24T14:48:59.000Z</time>
      </trkpt>
      <trkpt lat="45.59401" lon="6.6707">
        <ele>1347</ele>
        <time>2012-02-24T14:49:03.000Z</time>
      </trkpt>
      <trkpt lat="45.59378" lon="6.67078">
        <ele>1345.8000488281</ele>
        <time>2012-02-24T14:49:08.000Z</time>
      </trkpt>
      <trkpt lat="45.5936" lon="6.6708">
        <ele>1345.8000488281</ele>
        <time>2012-02-24T14:49:13.000Z</time>
      </trkpt>
      <trkpt lat="45.59343" lon="6.6708">
        <ele>1344.5999755859</ele>
        <time>2012-02-24T14:49:18.000Z</time>
      </trkpt>
      <trkpt lat="45.59326" lon="6.67077">
        <ele>1344.5999755859</ele>
        <time>2012-02-24T14:49:24.000Z</time>
      </trkpt>
      <trkpt lat="45.59309" lon="6.67072">
        <ele>1344</ele>
        <time>2012-02-24T14:49:30.000Z</time>
      </trkpt>
      <trkpt lat="45.59301" lon="6.67074">
        <ele>1343.8000488281</ele>
        <time>2012-02-24T14:49:33.000Z</time>
      </trkpt>
      <trkpt lat="45.59281" lon="6.67073">
        <ele>1343.4000244141</ele>
        <time>2012-02-24T14:49:40.000Z</time>
      </trkpt>
      <trkpt lat="45.59273" lon="6.67076">
        <ele>1343.5999755859</ele>
        <time>2012-02-24T14:49:45.000Z</time>
      </trkpt>
      <trkpt lat="45.59259" lon="6.67076">
        <ele>1343.8000488281</ele>
        <time>2012-02-24T14:49:50.000Z</time>
      </trkpt>
      <trkpt lat="45.59242" lon="6.67078">
        <ele>1343.1999511719</ele>
        <time>2012-02-24T14:49:56.000Z</time>
      </trkpt>
      <trkpt lat="45.59227" lon="6.67081">
        <ele>1343.1999511719</ele>
        <time>2012-02-24T14:50:01.000Z</time>
      </trkpt>
      <trkpt lat="45.59217" lon="6.67082">
        <ele>1342.8000488281</ele>
        <time>2012-02-24T14:50:05.000Z</time>
      </trkpt>
      <trkpt lat="45.59199" lon="6.6709">
        <ele>1343</ele>
        <time>2012-02-24T14:50:12.000Z</time>
      </trkpt>
      <trkpt lat="45.59184" lon="6.67087">
        <ele>1342</ele>
        <time>2012-02-24T14:50:18.000Z</time>
      </trkpt>
      <trkpt lat="45.59172" lon="6.67087">
        <ele>1342</ele>
        <time>2012-02-24T14:50:22.000Z</time>
      </trkpt>
      <trkpt lat="45.59159" lon="6.67079">
        <ele>1341.4000244141</ele>
        <time>2012-02-24T14:50:27.000Z</time>
      </trkpt>
      <trkpt lat="45.59155" lon="6.67078">
        <ele>1341</ele>
        <time>2012-02-24T14:50:33.000Z</time>
      </trkpt>
      <trkpt lat="45.59151" lon="6.67076">
        <ele>1337.4000244141</ele>
        <time>2012-02-24T14:50:55.000Z</time>
      </trkpt>
      <trkpt lat="45.59152" lon="6.67078">
        <ele>1342.8000488281</ele>
        <time>2012-02-24T14:51:02.000Z</time>
      </trkpt>
      <trkpt lat="45.59152" lon="6.6708">
        <ele>1341</ele>
        <time>2012-02-24T14:51:06.000Z</time>
      </trkpt>
      <trkpt lat="45.59148" lon="6.67086">
        <ele>1339.5999755859</ele>
        <time>2012-02-24T14:51:11.000Z</time>
      </trkpt>
      <trkpt lat="45.59155" lon="6.67081">
        <ele>1340.8000488281</ele>
        <time>2012-02-24T14:51:59.000Z</time>
      </trkpt>
      <trkpt lat="45.59154" lon="6.67081">
        <ele>1340.8000488281</ele>
        <time>2012-02-24T14:52:01.000Z</time>
      </trkpt>
    </trkseg>
  </trk>
</gpx>